<?xml version="1.0" encoding="UTF-8" standalone="no" ?>
<gpx xmlns="http://www.topografix.com/GPX/1/1" xmlns:xsi="http://www.w3.org/2001/XMLSchema-instance" xsi:schemaLocation="http://www.topografix.com/GPX/1/1 http://www.topografix.com/GPX/1/1/gpx.xsd" version="1.1" creator="VisuGPX - https://www.visugpx.com">
  <metadata>
    <name>Barrage de Palladuc</name>
  </metadata>
  <trk>
    <name><![CDATA[Barrage de Palladuc_1]]></name>
    <trkseg>
      <trkpt lat="45.90489" lon="3.62749">
        <ele>754</ele>
        <time>2023-08-03T07:02:40Z</time>
      </trkpt>
      <trkpt lat="45.90488" lon="3.62744">
        <ele>751.4</ele>
        <time>2023-08-03T07:02:45Z</time>
      </trkpt>
      <trkpt lat="45.90488" lon="3.62743">
        <ele>751.4</ele>
        <time>2023-08-03T07:02:46Z</time>
      </trkpt>
      <trkpt lat="45.9049" lon="3.6274">
        <ele>752.2</ele>
        <time>2023-08-03T07:02:50Z</time>
      </trkpt>
      <trkpt lat="45.90494" lon="3.62737">
        <ele>753.2</ele>
        <time>2023-08-03T07:02:56Z</time>
      </trkpt>
      <trkpt lat="45.90495" lon="3.62738">
        <ele>752.8</ele>
        <time>2023-08-03T07:03:01Z</time>
      </trkpt>
      <trkpt lat="45.90497" lon="3.62734">
        <ele>753.2</ele>
        <time>2023-08-03T07:03:06Z</time>
      </trkpt>
      <trkpt lat="45.905" lon="3.62732">
        <ele>753.4</ele>
        <time>2023-08-03T07:03:09Z</time>
      </trkpt>
      <trkpt lat="45.90501" lon="3.62731">
        <ele>753.4</ele>
        <time>2023-08-03T07:03:11Z</time>
      </trkpt>
      <trkpt lat="45.90505" lon="3.62729">
        <ele>753.8</ele>
        <time>2023-08-03T07:03:14Z</time>
      </trkpt>
      <trkpt lat="45.90507" lon="3.62729">
        <ele>754.4</ele>
        <time>2023-08-03T07:03:17Z</time>
      </trkpt>
      <trkpt lat="45.90508" lon="3.62729">
        <ele>754.6</ele>
        <time>2023-08-03T07:03:19Z</time>
      </trkpt>
      <trkpt lat="45.9051" lon="3.6273">
        <ele>755</ele>
        <time>2023-08-03T07:03:21Z</time>
      </trkpt>
      <trkpt lat="45.90514" lon="3.62733">
        <ele>755.4</ele>
        <time>2023-08-03T07:03:25Z</time>
      </trkpt>
      <trkpt lat="45.90514" lon="3.62732">
        <ele>755.4</ele>
        <time>2023-08-03T07:03:26Z</time>
      </trkpt>
      <trkpt lat="45.90515" lon="3.62733">
        <ele>755.6</ele>
        <time>2023-08-03T07:03:27Z</time>
      </trkpt>
      <trkpt lat="45.90521" lon="3.62734">
        <ele>756.4</ele>
        <time>2023-08-03T07:03:33Z</time>
      </trkpt>
      <trkpt lat="45.90522" lon="3.62735">
        <ele>756.8</ele>
        <time>2023-08-03T07:03:34Z</time>
      </trkpt>
      <trkpt lat="45.90525" lon="3.62737">
        <ele>757.6</ele>
        <time>2023-08-03T07:03:38Z</time>
      </trkpt>
      <trkpt lat="45.90532" lon="3.62738">
        <ele>759</ele>
        <time>2023-08-03T07:03:43Z</time>
      </trkpt>
      <trkpt lat="45.90533" lon="3.62738">
        <ele>759.2</ele>
        <time>2023-08-03T07:03:44Z</time>
      </trkpt>
      <trkpt lat="45.90535" lon="3.62741">
        <ele>760</ele>
        <time>2023-08-03T07:03:49Z</time>
      </trkpt>
      <trkpt lat="45.90539" lon="3.62745">
        <ele>761.2</ele>
        <time>2023-08-03T07:03:53Z</time>
      </trkpt>
      <trkpt lat="45.90544" lon="3.62743">
        <ele>762.4</ele>
        <time>2023-08-03T07:03:57Z</time>
      </trkpt>
      <trkpt lat="45.90545" lon="3.62749">
        <ele>763.6</ele>
        <time>2023-08-03T07:04:02Z</time>
      </trkpt>
      <trkpt lat="45.90546" lon="3.62749">
        <ele>763.8</ele>
        <time>2023-08-03T07:04:03Z</time>
      </trkpt>
      <trkpt lat="45.90552" lon="3.62752">
        <ele>764.8</ele>
        <time>2023-08-03T07:04:08Z</time>
      </trkpt>
      <trkpt lat="45.90555" lon="3.62753">
        <ele>765.2</ele>
        <time>2023-08-03T07:04:10Z</time>
      </trkpt>
      <trkpt lat="45.90566" lon="3.62753">
        <ele>765.8</ele>
        <time>2023-08-03T07:04:15Z</time>
      </trkpt>
      <trkpt lat="45.9057" lon="3.62756">
        <ele>766.4</ele>
        <time>2023-08-03T07:04:18Z</time>
      </trkpt>
      <trkpt lat="45.90572" lon="3.62759">
        <ele>766.8</ele>
        <time>2023-08-03T07:04:21Z</time>
      </trkpt>
      <trkpt lat="45.90577" lon="3.62761">
        <ele>767.8</ele>
        <time>2023-08-03T07:04:26Z</time>
      </trkpt>
      <trkpt lat="45.90578" lon="3.62762">
        <ele>768</ele>
        <time>2023-08-03T07:04:27Z</time>
      </trkpt>
      <trkpt lat="45.90582" lon="3.62764">
        <ele>768.6</ele>
        <time>2023-08-03T07:04:32Z</time>
      </trkpt>
      <trkpt lat="45.90586" lon="3.62766">
        <ele>769</ele>
        <time>2023-08-03T07:04:36Z</time>
      </trkpt>
      <trkpt lat="45.90587" lon="3.62767">
        <ele>769.2</ele>
        <time>2023-08-03T07:04:38Z</time>
      </trkpt>
      <trkpt lat="45.90588" lon="3.62768">
        <ele>770</ele>
        <time>2023-08-03T07:04:45Z</time>
      </trkpt>
      <trkpt lat="45.9059" lon="3.62769">
        <ele>770</ele>
        <time>2023-08-03T07:04:48Z</time>
      </trkpt>
      <trkpt lat="45.90592" lon="3.62768">
        <ele>770.2</ele>
        <time>2023-08-03T07:04:50Z</time>
      </trkpt>
      <trkpt lat="45.90595" lon="3.62769">
        <ele>770.2</ele>
        <time>2023-08-03T07:04:54Z</time>
      </trkpt>
      <trkpt lat="45.90598" lon="3.6277">
        <ele>770.2</ele>
        <time>2023-08-03T07:04:56Z</time>
      </trkpt>
      <trkpt lat="45.90604" lon="3.62774">
        <ele>770.6</ele>
        <time>2023-08-03T07:05:04Z</time>
      </trkpt>
      <trkpt lat="45.90605" lon="3.62775">
        <ele>770.6</ele>
        <time>2023-08-03T07:05:05Z</time>
      </trkpt>
      <trkpt lat="45.90607" lon="3.62776">
        <ele>770.8</ele>
        <time>2023-08-03T07:05:09Z</time>
      </trkpt>
      <trkpt lat="45.90608" lon="3.62775">
        <ele>771.2</ele>
        <time>2023-08-03T07:05:15Z</time>
      </trkpt>
      <trkpt lat="45.9061" lon="3.62777">
        <ele>771</ele>
        <time>2023-08-03T07:05:23Z</time>
      </trkpt>
      <trkpt lat="45.90613" lon="3.62779">
        <ele>770.8</ele>
        <time>2023-08-03T07:05:30Z</time>
      </trkpt>
      <trkpt lat="45.9062" lon="3.62782">
        <ele>771.2</ele>
        <time>2023-08-03T07:05:38Z</time>
      </trkpt>
      <trkpt lat="45.90621" lon="3.62785">
        <ele>771.2</ele>
        <time>2023-08-03T07:05:43Z</time>
      </trkpt>
      <trkpt lat="45.90623" lon="3.62786">
        <ele>771.2</ele>
        <time>2023-08-03T07:05:47Z</time>
      </trkpt>
      <trkpt lat="45.90628" lon="3.62796">
        <ele>771.2</ele>
        <time>2023-08-03T07:05:54Z</time>
      </trkpt>
      <trkpt lat="45.90629" lon="3.62805">
        <ele>771</ele>
        <time>2023-08-03T07:06:00Z</time>
      </trkpt>
      <trkpt lat="45.90631" lon="3.62808">
        <ele>770.4</ele>
        <time>2023-08-03T07:06:03Z</time>
      </trkpt>
      <trkpt lat="45.90631" lon="3.62813">
        <ele>769.8</ele>
        <time>2023-08-03T07:06:06Z</time>
      </trkpt>
      <trkpt lat="45.90631" lon="3.62815">
        <ele>769.8</ele>
        <time>2023-08-03T07:06:07Z</time>
      </trkpt>
      <trkpt lat="45.90631" lon="3.62817">
        <ele>769.6</ele>
        <time>2023-08-03T07:06:08Z</time>
      </trkpt>
      <trkpt lat="45.90631" lon="3.62821">
        <ele>769.2</ele>
        <time>2023-08-03T07:06:11Z</time>
      </trkpt>
      <trkpt lat="45.90631" lon="3.62822">
        <ele>769</ele>
        <time>2023-08-03T07:06:12Z</time>
      </trkpt>
      <trkpt lat="45.90631" lon="3.62824">
        <ele>768.8</ele>
        <time>2023-08-03T07:06:13Z</time>
      </trkpt>
      <trkpt lat="45.90632" lon="3.62831">
        <ele>768</ele>
        <time>2023-08-03T07:06:17Z</time>
      </trkpt>
      <trkpt lat="45.90633" lon="3.6284">
        <ele>767</ele>
        <time>2023-08-03T07:06:23Z</time>
      </trkpt>
      <trkpt lat="45.90633" lon="3.62842">
        <ele>767</ele>
        <time>2023-08-03T07:06:24Z</time>
      </trkpt>
      <trkpt lat="45.90634" lon="3.62854">
        <ele>765.8</ele>
        <time>2023-08-03T07:06:30Z</time>
      </trkpt>
      <trkpt lat="45.90634" lon="3.62858">
        <ele>765.4</ele>
        <time>2023-08-03T07:06:32Z</time>
      </trkpt>
      <trkpt lat="45.90634" lon="3.62859">
        <ele>765.4</ele>
        <time>2023-08-03T07:06:33Z</time>
      </trkpt>
      <trkpt lat="45.90633" lon="3.62865">
        <ele>764.8</ele>
        <time>2023-08-03T07:06:36Z</time>
      </trkpt>
      <trkpt lat="45.9063" lon="3.62873">
        <ele>763.2</ele>
        <time>2023-08-03T07:06:41Z</time>
      </trkpt>
      <trkpt lat="45.90629" lon="3.62875">
        <ele>762.8</ele>
        <time>2023-08-03T07:06:43Z</time>
      </trkpt>
      <trkpt lat="45.90628" lon="3.62876">
        <ele>762.2</ele>
        <time>2023-08-03T07:06:45Z</time>
      </trkpt>
      <trkpt lat="45.90627" lon="3.62877">
        <ele>762</ele>
        <time>2023-08-03T07:06:46Z</time>
      </trkpt>
      <trkpt lat="45.90622" lon="3.62883">
        <ele>761</ele>
        <time>2023-08-03T07:06:50Z</time>
      </trkpt>
      <trkpt lat="45.90619" lon="3.62886">
        <ele>760.4</ele>
        <time>2023-08-03T07:06:53Z</time>
      </trkpt>
      <trkpt lat="45.90617" lon="3.62887">
        <ele>760</ele>
        <time>2023-08-03T07:06:55Z</time>
      </trkpt>
      <trkpt lat="45.90614" lon="3.62891">
        <ele>759.6</ele>
        <time>2023-08-03T07:06:58Z</time>
      </trkpt>
      <trkpt lat="45.90613" lon="3.62891">
        <ele>759.4</ele>
        <time>2023-08-03T07:06:59Z</time>
      </trkpt>
      <trkpt lat="45.90611" lon="3.62893">
        <ele>758.8</ele>
        <time>2023-08-03T07:07:02Z</time>
      </trkpt>
      <trkpt lat="45.9061" lon="3.62895">
        <ele>758.4</ele>
        <time>2023-08-03T07:07:04Z</time>
      </trkpt>
      <trkpt lat="45.90608" lon="3.62897">
        <ele>757.8</ele>
        <time>2023-08-03T07:07:07Z</time>
      </trkpt>
      <trkpt lat="45.90608" lon="3.62897">
        <ele>757.6</ele>
        <time>2023-08-03T07:07:08Z</time>
      </trkpt>
      <trkpt lat="45.90611" lon="3.62901">
        <ele>756.6</ele>
        <time>2023-08-03T07:07:14Z</time>
      </trkpt>
      <trkpt lat="45.90616" lon="3.629">
        <ele>756.2</ele>
        <time>2023-08-03T07:07:20Z</time>
      </trkpt>
      <trkpt lat="45.90621" lon="3.62901">
        <ele>756.2</ele>
        <time>2023-08-03T07:07:26Z</time>
      </trkpt>
      <trkpt lat="45.90624" lon="3.62904">
        <ele>756.2</ele>
        <time>2023-08-03T07:07:31Z</time>
      </trkpt>
      <trkpt lat="45.90626" lon="3.62906">
        <ele>756.4</ele>
        <time>2023-08-03T07:07:35Z</time>
      </trkpt>
      <trkpt lat="45.90641" lon="3.62908">
        <ele>756.6</ele>
        <time>2023-08-03T07:07:45Z</time>
      </trkpt>
      <trkpt lat="45.90648" lon="3.62908">
        <ele>756.6</ele>
        <time>2023-08-03T07:07:48Z</time>
      </trkpt>
      <trkpt lat="45.90652" lon="3.62905">
        <ele>756.6</ele>
        <time>2023-08-03T07:07:50Z</time>
      </trkpt>
      <trkpt lat="45.90658" lon="3.62902">
        <ele>756.4</ele>
        <time>2023-08-03T07:07:56Z</time>
      </trkpt>
      <trkpt lat="45.90663" lon="3.62899">
        <ele>756.4</ele>
        <time>2023-08-03T07:08:02Z</time>
      </trkpt>
      <trkpt lat="45.90668" lon="3.62898">
        <ele>756.4</ele>
        <time>2023-08-03T07:08:06Z</time>
      </trkpt>
      <trkpt lat="45.90669" lon="3.62898">
        <ele>756.4</ele>
        <time>2023-08-03T07:08:07Z</time>
      </trkpt>
      <trkpt lat="45.9067" lon="3.62897">
        <ele>756.4</ele>
        <time>2023-08-03T07:08:08Z</time>
      </trkpt>
      <trkpt lat="45.90671" lon="3.62894">
        <ele>756.4</ele>
        <time>2023-08-03T07:08:10Z</time>
      </trkpt>
      <trkpt lat="45.90671" lon="3.62893">
        <ele>756.4</ele>
        <time>2023-08-03T07:08:11Z</time>
      </trkpt>
      <trkpt lat="45.90672" lon="3.62892">
        <ele>756.4</ele>
        <time>2023-08-03T07:08:12Z</time>
      </trkpt>
      <trkpt lat="45.90674" lon="3.62892">
        <ele>756.4</ele>
        <time>2023-08-03T07:08:14Z</time>
      </trkpt>
      <trkpt lat="45.90679" lon="3.6289">
        <ele>756.6</ele>
        <time>2023-08-03T07:08:18Z</time>
      </trkpt>
      <trkpt lat="45.90681" lon="3.62888">
        <ele>756.6</ele>
        <time>2023-08-03T07:08:20Z</time>
      </trkpt>
      <trkpt lat="45.90685" lon="3.62886">
        <ele>756.8</ele>
        <time>2023-08-03T07:08:23Z</time>
      </trkpt>
      <trkpt lat="45.90687" lon="3.62881">
        <ele>756.8</ele>
        <time>2023-08-03T07:08:27Z</time>
      </trkpt>
      <trkpt lat="45.90691" lon="3.62878">
        <ele>757</ele>
        <time>2023-08-03T07:08:30Z</time>
      </trkpt>
      <trkpt lat="45.90692" lon="3.62876">
        <ele>757.2</ele>
        <time>2023-08-03T07:08:36Z</time>
      </trkpt>
      <trkpt lat="45.90699" lon="3.62872">
        <ele>757.4</ele>
        <time>2023-08-03T07:08:43Z</time>
      </trkpt>
      <trkpt lat="45.90705" lon="3.62869">
        <ele>757.6</ele>
        <time>2023-08-03T07:08:49Z</time>
      </trkpt>
      <trkpt lat="45.90706" lon="3.62869">
        <ele>757.6</ele>
        <time>2023-08-03T07:08:50Z</time>
      </trkpt>
      <trkpt lat="45.90707" lon="3.62869">
        <ele>757.6</ele>
        <time>2023-08-03T07:08:51Z</time>
      </trkpt>
      <trkpt lat="45.90713" lon="3.62867">
        <ele>757.8</ele>
        <time>2023-08-03T07:08:56Z</time>
      </trkpt>
      <trkpt lat="45.90726" lon="3.62861">
        <ele>758.4</ele>
        <time>2023-08-03T07:09:05Z</time>
      </trkpt>
      <trkpt lat="45.90728" lon="3.62859">
        <ele>758.6</ele>
        <time>2023-08-03T07:09:07Z</time>
      </trkpt>
      <trkpt lat="45.90733" lon="3.62854">
        <ele>759</ele>
        <time>2023-08-03T07:09:12Z</time>
      </trkpt>
      <trkpt lat="45.90738" lon="3.62849">
        <ele>759.2</ele>
        <time>2023-08-03T07:09:17Z</time>
      </trkpt>
      <trkpt lat="45.90744" lon="3.62845">
        <ele>759.6</ele>
        <time>2023-08-03T07:09:22Z</time>
      </trkpt>
      <trkpt lat="45.90745" lon="3.62844">
        <ele>759.6</ele>
        <time>2023-08-03T07:09:23Z</time>
      </trkpt>
      <trkpt lat="45.90746" lon="3.62845">
        <ele>759.8</ele>
        <time>2023-08-03T07:09:26Z</time>
      </trkpt>
      <trkpt lat="45.90746" lon="3.62843">
        <ele>760</ele>
        <time>2023-08-03T07:09:31Z</time>
      </trkpt>
      <trkpt lat="45.90748" lon="3.62841">
        <ele>760.2</ele>
        <time>2023-08-03T07:09:33Z</time>
      </trkpt>
      <trkpt lat="45.90752" lon="3.62837">
        <ele>760.2</ele>
        <time>2023-08-03T07:09:37Z</time>
      </trkpt>
      <trkpt lat="45.90758" lon="3.62834">
        <ele>760.2</ele>
        <time>2023-08-03T07:09:42Z</time>
      </trkpt>
      <trkpt lat="45.90758" lon="3.62833">
        <ele>760.2</ele>
        <time>2023-08-03T07:09:43Z</time>
      </trkpt>
      <trkpt lat="45.90762" lon="3.62828">
        <ele>760.4</ele>
        <time>2023-08-03T07:09:47Z</time>
      </trkpt>
      <trkpt lat="45.90764" lon="3.62827">
        <ele>760.6</ele>
        <time>2023-08-03T07:09:49Z</time>
      </trkpt>
      <trkpt lat="45.90764" lon="3.62826">
        <ele>760.6</ele>
        <time>2023-08-03T07:09:50Z</time>
      </trkpt>
      <trkpt lat="45.90768" lon="3.62821">
        <ele>760.6</ele>
        <time>2023-08-03T07:09:54Z</time>
      </trkpt>
      <trkpt lat="45.90769" lon="3.62819">
        <ele>760.6</ele>
        <time>2023-08-03T07:09:55Z</time>
      </trkpt>
      <trkpt lat="45.9077" lon="3.62818">
        <ele>760.6</ele>
        <time>2023-08-03T07:09:56Z</time>
      </trkpt>
      <trkpt lat="45.90772" lon="3.62817">
        <ele>760.6</ele>
        <time>2023-08-03T07:09:57Z</time>
      </trkpt>
      <trkpt lat="45.90776" lon="3.62811">
        <ele>760.6</ele>
        <time>2023-08-03T07:10:01Z</time>
      </trkpt>
      <trkpt lat="45.90777" lon="3.6281">
        <ele>760.6</ele>
        <time>2023-08-03T07:10:02Z</time>
      </trkpt>
      <trkpt lat="45.9078" lon="3.62805">
        <ele>760.6</ele>
        <time>2023-08-03T07:10:05Z</time>
      </trkpt>
      <trkpt lat="45.90781" lon="3.62803">
        <ele>760.6</ele>
        <time>2023-08-03T07:10:06Z</time>
      </trkpt>
      <trkpt lat="45.90792" lon="3.62798">
        <ele>760.6</ele>
        <time>2023-08-03T07:10:13Z</time>
      </trkpt>
      <trkpt lat="45.90793" lon="3.62797">
        <ele>760.6</ele>
        <time>2023-08-03T07:10:14Z</time>
      </trkpt>
      <trkpt lat="45.90795" lon="3.62789">
        <ele>760.8</ele>
        <time>2023-08-03T07:10:18Z</time>
      </trkpt>
      <trkpt lat="45.90803" lon="3.62787">
        <ele>761</ele>
        <time>2023-08-03T07:10:23Z</time>
      </trkpt>
      <trkpt lat="45.90807" lon="3.62778">
        <ele>761.2</ele>
        <time>2023-08-03T07:10:29Z</time>
      </trkpt>
      <trkpt lat="45.90812" lon="3.62771">
        <ele>761.2</ele>
        <time>2023-08-03T07:10:34Z</time>
      </trkpt>
      <trkpt lat="45.90814" lon="3.62769">
        <ele>761.4</ele>
        <time>2023-08-03T07:10:36Z</time>
      </trkpt>
      <trkpt lat="45.90819" lon="3.62764">
        <ele>761.4</ele>
        <time>2023-08-03T07:10:41Z</time>
      </trkpt>
      <trkpt lat="45.90821" lon="3.62762">
        <ele>761.4</ele>
        <time>2023-08-03T07:10:43Z</time>
      </trkpt>
      <trkpt lat="45.90822" lon="3.62761">
        <ele>761.4</ele>
        <time>2023-08-03T07:10:44Z</time>
      </trkpt>
      <trkpt lat="45.90823" lon="3.6276">
        <ele>761.4</ele>
        <time>2023-08-03T07:10:45Z</time>
      </trkpt>
      <trkpt lat="45.90827" lon="3.62756">
        <ele>761.4</ele>
        <time>2023-08-03T07:10:49Z</time>
      </trkpt>
      <trkpt lat="45.90828" lon="3.62754">
        <ele>761.4</ele>
        <time>2023-08-03T07:10:51Z</time>
      </trkpt>
      <trkpt lat="45.9083" lon="3.62753">
        <ele>761.4</ele>
        <time>2023-08-03T07:10:53Z</time>
      </trkpt>
      <trkpt lat="45.90832" lon="3.62749">
        <ele>761.2</ele>
        <time>2023-08-03T07:10:55Z</time>
      </trkpt>
      <trkpt lat="45.90834" lon="3.62747">
        <ele>761.2</ele>
        <time>2023-08-03T07:10:57Z</time>
      </trkpt>
      <trkpt lat="45.90839" lon="3.62742">
        <ele>761</ele>
        <time>2023-08-03T07:11:02Z</time>
      </trkpt>
      <trkpt lat="45.90845" lon="3.62736">
        <ele>760.8</ele>
        <time>2023-08-03T07:11:08Z</time>
      </trkpt>
      <trkpt lat="45.9085" lon="3.62732">
        <ele>760.6</ele>
        <time>2023-08-03T07:11:12Z</time>
      </trkpt>
      <trkpt lat="45.90853" lon="3.62728">
        <ele>760.6</ele>
        <time>2023-08-03T07:11:14Z</time>
      </trkpt>
      <trkpt lat="45.90865" lon="3.62722">
        <ele>760.2</ele>
        <time>2023-08-03T07:11:21Z</time>
      </trkpt>
      <trkpt lat="45.90871" lon="3.62719">
        <ele>760.2</ele>
        <time>2023-08-03T07:11:25Z</time>
      </trkpt>
      <trkpt lat="45.90872" lon="3.62717">
        <ele>759.8</ele>
        <time>2023-08-03T07:11:27Z</time>
      </trkpt>
      <trkpt lat="45.90877" lon="3.62708">
        <ele>759.4</ele>
        <time>2023-08-03T07:11:34Z</time>
      </trkpt>
      <trkpt lat="45.90879" lon="3.62706">
        <ele>759.2</ele>
        <time>2023-08-03T07:11:36Z</time>
      </trkpt>
      <trkpt lat="45.90883" lon="3.62704">
        <ele>759.2</ele>
        <time>2023-08-03T07:11:39Z</time>
      </trkpt>
      <trkpt lat="45.90885" lon="3.62699">
        <ele>759.2</ele>
        <time>2023-08-03T07:11:46Z</time>
      </trkpt>
      <trkpt lat="45.90888" lon="3.62691">
        <ele>759.2</ele>
        <time>2023-08-03T07:11:54Z</time>
      </trkpt>
      <trkpt lat="45.90889" lon="3.62689">
        <ele>759.2</ele>
        <time>2023-08-03T07:11:55Z</time>
      </trkpt>
      <trkpt lat="45.90893" lon="3.62687">
        <ele>759</ele>
        <time>2023-08-03T07:11:59Z</time>
      </trkpt>
      <trkpt lat="45.90898" lon="3.62684">
        <ele>759</ele>
        <time>2023-08-03T07:12:04Z</time>
      </trkpt>
      <trkpt lat="45.90903" lon="3.62682">
        <ele>759</ele>
        <time>2023-08-03T07:12:09Z</time>
      </trkpt>
      <trkpt lat="45.90913" lon="3.62678">
        <ele>758.8</ele>
        <time>2023-08-03T07:12:16Z</time>
      </trkpt>
      <trkpt lat="45.9092" lon="3.62672">
        <ele>758.6</ele>
        <time>2023-08-03T07:12:22Z</time>
      </trkpt>
      <trkpt lat="45.90926" lon="3.62668">
        <ele>758.6</ele>
        <time>2023-08-03T07:12:28Z</time>
      </trkpt>
      <trkpt lat="45.90933" lon="3.62661">
        <ele>758.4</ele>
        <time>2023-08-03T07:12:34Z</time>
      </trkpt>
      <trkpt lat="45.90942" lon="3.62654">
        <ele>758.2</ele>
        <time>2023-08-03T07:12:39Z</time>
      </trkpt>
      <trkpt lat="45.90944" lon="3.62652">
        <ele>758.2</ele>
        <time>2023-08-03T07:12:40Z</time>
      </trkpt>
      <trkpt lat="45.90953" lon="3.62647">
        <ele>758</ele>
        <time>2023-08-03T07:12:47Z</time>
      </trkpt>
      <trkpt lat="45.9096" lon="3.62637">
        <ele>757.8</ele>
        <time>2023-08-03T07:12:53Z</time>
      </trkpt>
      <trkpt lat="45.90965" lon="3.62636">
        <ele>757.6</ele>
        <time>2023-08-03T07:12:58Z</time>
      </trkpt>
      <trkpt lat="45.90966" lon="3.62635">
        <ele>757.6</ele>
        <time>2023-08-03T07:12:59Z</time>
      </trkpt>
      <trkpt lat="45.90972" lon="3.62626">
        <ele>757.6</ele>
        <time>2023-08-03T07:13:04Z</time>
      </trkpt>
      <trkpt lat="45.90982" lon="3.62618">
        <ele>757.8</ele>
        <time>2023-08-03T07:13:12Z</time>
      </trkpt>
      <trkpt lat="45.90988" lon="3.62609">
        <ele>757.8</ele>
        <time>2023-08-03T07:13:18Z</time>
      </trkpt>
      <trkpt lat="45.90993" lon="3.62605">
        <ele>757.8</ele>
        <time>2023-08-03T07:13:22Z</time>
      </trkpt>
      <trkpt lat="45.90998" lon="3.62601">
        <ele>757.6</ele>
        <time>2023-08-03T07:13:27Z</time>
      </trkpt>
      <trkpt lat="45.90999" lon="3.62599">
        <ele>757.6</ele>
        <time>2023-08-03T07:13:28Z</time>
      </trkpt>
      <trkpt lat="45.91003" lon="3.62592">
        <ele>757.6</ele>
        <time>2023-08-03T07:13:31Z</time>
      </trkpt>
      <trkpt lat="45.91003" lon="3.6259">
        <ele>757.4</ele>
        <time>2023-08-03T07:13:32Z</time>
      </trkpt>
      <trkpt lat="45.91006" lon="3.62584">
        <ele>757.4</ele>
        <time>2023-08-03T07:13:35Z</time>
      </trkpt>
      <trkpt lat="45.91008" lon="3.62581">
        <ele>757.4</ele>
        <time>2023-08-03T07:13:37Z</time>
      </trkpt>
      <trkpt lat="45.91012" lon="3.62573">
        <ele>757.4</ele>
        <time>2023-08-03T07:13:41Z</time>
      </trkpt>
      <trkpt lat="45.91013" lon="3.62571">
        <ele>757.4</ele>
        <time>2023-08-03T07:13:42Z</time>
      </trkpt>
      <trkpt lat="45.91014" lon="3.62571">
        <ele>757.4</ele>
        <time>2023-08-03T07:13:43Z</time>
      </trkpt>
      <trkpt lat="45.91016" lon="3.6257">
        <ele>757.4</ele>
        <time>2023-08-03T07:13:45Z</time>
      </trkpt>
      <trkpt lat="45.91016" lon="3.62566">
        <ele>757.4</ele>
        <time>2023-08-03T07:13:47Z</time>
      </trkpt>
      <trkpt lat="45.91016" lon="3.62563">
        <ele>757.2</ele>
        <time>2023-08-03T07:13:48Z</time>
      </trkpt>
      <trkpt lat="45.91017" lon="3.62557">
        <ele>757</ele>
        <time>2023-08-03T07:13:52Z</time>
      </trkpt>
      <trkpt lat="45.91021" lon="3.62547">
        <ele>756.4</ele>
        <time>2023-08-03T07:13:58Z</time>
      </trkpt>
      <trkpt lat="45.91022" lon="3.62544">
        <ele>756.2</ele>
        <time>2023-08-03T07:14:00Z</time>
      </trkpt>
      <trkpt lat="45.91023" lon="3.62543">
        <ele>756.2</ele>
        <time>2023-08-03T07:14:01Z</time>
      </trkpt>
      <trkpt lat="45.91024" lon="3.62543">
        <ele>756</ele>
        <time>2023-08-03T07:14:02Z</time>
      </trkpt>
      <trkpt lat="45.91024" lon="3.6254">
        <ele>756</ele>
        <time>2023-08-03T07:14:04Z</time>
      </trkpt>
      <trkpt lat="45.91025" lon="3.62539">
        <ele>755.8</ele>
        <time>2023-08-03T07:14:05Z</time>
      </trkpt>
      <trkpt lat="45.91027" lon="3.62531">
        <ele>755.6</ele>
        <time>2023-08-03T07:14:09Z</time>
      </trkpt>
      <trkpt lat="45.91029" lon="3.62529">
        <ele>755.6</ele>
        <time>2023-08-03T07:14:11Z</time>
      </trkpt>
      <trkpt lat="45.91031" lon="3.62523">
        <ele>755.4</ele>
        <time>2023-08-03T07:14:15Z</time>
      </trkpt>
      <trkpt lat="45.91037" lon="3.62518">
        <ele>755</ele>
        <time>2023-08-03T07:14:21Z</time>
      </trkpt>
      <trkpt lat="45.91038" lon="3.62517">
        <ele>755</ele>
        <time>2023-08-03T07:14:22Z</time>
      </trkpt>
      <trkpt lat="45.9104" lon="3.62514">
        <ele>754.8</ele>
        <time>2023-08-03T07:14:24Z</time>
      </trkpt>
      <trkpt lat="45.91042" lon="3.62512">
        <ele>754.8</ele>
        <time>2023-08-03T07:14:26Z</time>
      </trkpt>
      <trkpt lat="45.91043" lon="3.62512">
        <ele>754.6</ele>
        <time>2023-08-03T07:14:27Z</time>
      </trkpt>
      <trkpt lat="45.91049" lon="3.62505">
        <ele>754.6</ele>
        <time>2023-08-03T07:14:34Z</time>
      </trkpt>
      <trkpt lat="45.91049" lon="3.62503">
        <ele>754.8</ele>
        <time>2023-08-03T07:14:38Z</time>
      </trkpt>
      <trkpt lat="45.9105" lon="3.625">
        <ele>754.8</ele>
        <time>2023-08-03T07:14:40Z</time>
      </trkpt>
      <trkpt lat="45.91053" lon="3.62495">
        <ele>754.8</ele>
        <time>2023-08-03T07:14:44Z</time>
      </trkpt>
      <trkpt lat="45.91054" lon="3.62494">
        <ele>754.8</ele>
        <time>2023-08-03T07:14:46Z</time>
      </trkpt>
      <trkpt lat="45.91056" lon="3.62491">
        <ele>755</ele>
        <time>2023-08-03T07:14:49Z</time>
      </trkpt>
      <trkpt lat="45.91057" lon="3.62488">
        <ele>755</ele>
        <time>2023-08-03T07:14:52Z</time>
      </trkpt>
      <trkpt lat="45.91058" lon="3.62483">
        <ele>755.4</ele>
        <time>2023-08-03T07:14:55Z</time>
      </trkpt>
      <trkpt lat="45.91061" lon="3.62477">
        <ele>755.8</ele>
        <time>2023-08-03T07:15:00Z</time>
      </trkpt>
      <trkpt lat="45.91061" lon="3.62476">
        <ele>756</ele>
        <time>2023-08-03T07:15:01Z</time>
      </trkpt>
      <trkpt lat="45.91063" lon="3.62474">
        <ele>756.2</ele>
        <time>2023-08-03T07:15:03Z</time>
      </trkpt>
      <trkpt lat="45.91064" lon="3.62472">
        <ele>756.6</ele>
        <time>2023-08-03T07:15:06Z</time>
      </trkpt>
      <trkpt lat="45.91067" lon="3.62469">
        <ele>756.8</ele>
        <time>2023-08-03T07:15:10Z</time>
      </trkpt>
      <trkpt lat="45.91068" lon="3.62467">
        <ele>757</ele>
        <time>2023-08-03T07:15:12Z</time>
      </trkpt>
      <trkpt lat="45.9107" lon="3.62462">
        <ele>757.4</ele>
        <time>2023-08-03T07:15:16Z</time>
      </trkpt>
      <trkpt lat="45.91075" lon="3.62456">
        <ele>757.6</ele>
        <time>2023-08-03T07:15:22Z</time>
      </trkpt>
      <trkpt lat="45.91075" lon="3.62455">
        <ele>757.6</ele>
        <time>2023-08-03T07:15:23Z</time>
      </trkpt>
      <trkpt lat="45.91076" lon="3.62452">
        <ele>757.8</ele>
        <time>2023-08-03T07:15:25Z</time>
      </trkpt>
      <trkpt lat="45.91077" lon="3.6245">
        <ele>758</ele>
        <time>2023-08-03T07:15:27Z</time>
      </trkpt>
      <trkpt lat="45.91078" lon="3.6245">
        <ele>758.2</ele>
        <time>2023-08-03T07:15:28Z</time>
      </trkpt>
      <trkpt lat="45.91078" lon="3.62448">
        <ele>758.2</ele>
        <time>2023-08-03T07:15:29Z</time>
      </trkpt>
      <trkpt lat="45.91081" lon="3.62442">
        <ele>758.6</ele>
        <time>2023-08-03T07:15:33Z</time>
      </trkpt>
      <trkpt lat="45.91084" lon="3.6244">
        <ele>759</ele>
        <time>2023-08-03T07:15:36Z</time>
      </trkpt>
      <trkpt lat="45.91087" lon="3.62436">
        <ele>759.2</ele>
        <time>2023-08-03T07:15:38Z</time>
      </trkpt>
      <trkpt lat="45.91088" lon="3.62427">
        <ele>760</ele>
        <time>2023-08-03T07:15:42Z</time>
      </trkpt>
      <trkpt lat="45.91089" lon="3.62425">
        <ele>760</ele>
        <time>2023-08-03T07:15:43Z</time>
      </trkpt>
      <trkpt lat="45.91091" lon="3.62424">
        <ele>760</ele>
        <time>2023-08-03T07:15:45Z</time>
      </trkpt>
      <trkpt lat="45.91094" lon="3.6242">
        <ele>760</ele>
        <time>2023-08-03T07:15:48Z</time>
      </trkpt>
      <trkpt lat="45.91095" lon="3.62418">
        <ele>760</ele>
        <time>2023-08-03T07:15:49Z</time>
      </trkpt>
      <trkpt lat="45.91095" lon="3.62416">
        <ele>760</ele>
        <time>2023-08-03T07:15:50Z</time>
      </trkpt>
      <trkpt lat="45.91098" lon="3.62412">
        <ele>760</ele>
        <time>2023-08-03T07:15:53Z</time>
      </trkpt>
      <trkpt lat="45.91098" lon="3.62411">
        <ele>759.8</ele>
        <time>2023-08-03T07:15:54Z</time>
      </trkpt>
      <trkpt lat="45.91099" lon="3.6241">
        <ele>759.8</ele>
        <time>2023-08-03T07:15:56Z</time>
      </trkpt>
      <trkpt lat="45.91102" lon="3.62406">
        <ele>759.6</ele>
        <time>2023-08-03T07:16:00Z</time>
      </trkpt>
      <trkpt lat="45.91105" lon="3.62398">
        <ele>759.6</ele>
        <time>2023-08-03T07:16:06Z</time>
      </trkpt>
      <trkpt lat="45.91109" lon="3.62391">
        <ele>759.4</ele>
        <time>2023-08-03T07:16:12Z</time>
      </trkpt>
      <trkpt lat="45.91111" lon="3.62386">
        <ele>759.2</ele>
        <time>2023-08-03T07:16:15Z</time>
      </trkpt>
      <trkpt lat="45.91113" lon="3.62382">
        <ele>758.8</ele>
        <time>2023-08-03T07:16:17Z</time>
      </trkpt>
      <trkpt lat="45.91114" lon="3.62381">
        <ele>758.8</ele>
        <time>2023-08-03T07:16:18Z</time>
      </trkpt>
      <trkpt lat="45.91115" lon="3.62377">
        <ele>758.6</ele>
        <time>2023-08-03T07:16:20Z</time>
      </trkpt>
      <trkpt lat="45.91116" lon="3.62372">
        <ele>758.4</ele>
        <time>2023-08-03T07:16:23Z</time>
      </trkpt>
      <trkpt lat="45.91123" lon="3.62362">
        <ele>757.8</ele>
        <time>2023-08-03T07:16:29Z</time>
      </trkpt>
      <trkpt lat="45.91124" lon="3.62361">
        <ele>757.8</ele>
        <time>2023-08-03T07:16:30Z</time>
      </trkpt>
      <trkpt lat="45.91125" lon="3.6235">
        <ele>757.6</ele>
        <time>2023-08-03T07:16:36Z</time>
      </trkpt>
      <trkpt lat="45.91124" lon="3.62343">
        <ele>757.4</ele>
        <time>2023-08-03T07:16:41Z</time>
      </trkpt>
      <trkpt lat="45.91123" lon="3.62331">
        <ele>757.4</ele>
        <time>2023-08-03T07:16:48Z</time>
      </trkpt>
      <trkpt lat="45.91123" lon="3.62329">
        <ele>757.4</ele>
        <time>2023-08-03T07:16:49Z</time>
      </trkpt>
      <trkpt lat="45.91124" lon="3.62319">
        <ele>757.4</ele>
        <time>2023-08-03T07:16:53Z</time>
      </trkpt>
      <trkpt lat="45.91125" lon="3.62315">
        <ele>757.6</ele>
        <time>2023-08-03T07:16:58Z</time>
      </trkpt>
      <trkpt lat="45.91124" lon="3.62306">
        <ele>757.8</ele>
        <time>2023-08-03T07:17:04Z</time>
      </trkpt>
      <trkpt lat="45.91125" lon="3.62293">
        <ele>758.4</ele>
        <time>2023-08-03T07:17:11Z</time>
      </trkpt>
      <trkpt lat="45.91128" lon="3.62289">
        <ele>759</ele>
        <time>2023-08-03T07:17:16Z</time>
      </trkpt>
      <trkpt lat="45.91127" lon="3.62289">
        <ele>759</ele>
        <time>2023-08-03T07:17:18Z</time>
      </trkpt>
      <trkpt lat="45.91128" lon="3.62286">
        <ele>759</ele>
        <time>2023-08-03T07:17:25Z</time>
      </trkpt>
      <trkpt lat="45.91129" lon="3.62279">
        <ele>759</ele>
        <time>2023-08-03T07:17:30Z</time>
      </trkpt>
      <trkpt lat="45.91129" lon="3.62274">
        <ele>758.8</ele>
        <time>2023-08-03T07:17:33Z</time>
      </trkpt>
      <trkpt lat="45.9113" lon="3.6227">
        <ele>758.8</ele>
        <time>2023-08-03T07:17:35Z</time>
      </trkpt>
      <trkpt lat="45.9113" lon="3.62268">
        <ele>758.6</ele>
        <time>2023-08-03T07:17:36Z</time>
      </trkpt>
      <trkpt lat="45.91133" lon="3.62265">
        <ele>758.4</ele>
        <time>2023-08-03T07:17:39Z</time>
      </trkpt>
      <trkpt lat="45.91134" lon="3.62264">
        <ele>758.2</ele>
        <time>2023-08-03T07:17:40Z</time>
      </trkpt>
      <trkpt lat="45.91139" lon="3.62263">
        <ele>757.8</ele>
        <time>2023-08-03T07:17:44Z</time>
      </trkpt>
      <trkpt lat="45.9114" lon="3.62263">
        <ele>757.6</ele>
        <time>2023-08-03T07:17:45Z</time>
      </trkpt>
      <trkpt lat="45.91143" lon="3.62258">
        <ele>757.2</ele>
        <time>2023-08-03T07:17:48Z</time>
      </trkpt>
      <trkpt lat="45.91145" lon="3.62255">
        <ele>756.8</ele>
        <time>2023-08-03T07:17:51Z</time>
      </trkpt>
      <trkpt lat="45.91147" lon="3.62253">
        <ele>756.8</ele>
        <time>2023-08-03T07:17:53Z</time>
      </trkpt>
      <trkpt lat="45.9115" lon="3.6225">
        <ele>756.6</ele>
        <time>2023-08-03T07:17:55Z</time>
      </trkpt>
      <trkpt lat="45.91151" lon="3.62246">
        <ele>756.4</ele>
        <time>2023-08-03T07:17:59Z</time>
      </trkpt>
      <trkpt lat="45.91152" lon="3.62242">
        <ele>756</ele>
        <time>2023-08-03T07:18:04Z</time>
      </trkpt>
      <trkpt lat="45.91154" lon="3.62239">
        <ele>755.6</ele>
        <time>2023-08-03T07:18:07Z</time>
      </trkpt>
      <trkpt lat="45.91156" lon="3.62239">
        <ele>755.2</ele>
        <time>2023-08-03T07:18:09Z</time>
      </trkpt>
      <trkpt lat="45.91157" lon="3.62239">
        <ele>755</ele>
        <time>2023-08-03T07:18:11Z</time>
      </trkpt>
      <trkpt lat="45.91158" lon="3.62235">
        <ele>754.6</ele>
        <time>2023-08-03T07:18:14Z</time>
      </trkpt>
      <trkpt lat="45.91159" lon="3.62233">
        <ele>754.4</ele>
        <time>2023-08-03T07:18:15Z</time>
      </trkpt>
      <trkpt lat="45.91161" lon="3.6223">
        <ele>753.8</ele>
        <time>2023-08-03T07:18:19Z</time>
      </trkpt>
      <trkpt lat="45.91163" lon="3.62229">
        <ele>753.4</ele>
        <time>2023-08-03T07:18:21Z</time>
      </trkpt>
      <trkpt lat="45.91165" lon="3.62227">
        <ele>752.8</ele>
        <time>2023-08-03T07:18:24Z</time>
      </trkpt>
      <trkpt lat="45.9117" lon="3.62225">
        <ele>752.2</ele>
        <time>2023-08-03T07:18:27Z</time>
      </trkpt>
      <trkpt lat="45.91173" lon="3.62224">
        <ele>751.8</ele>
        <time>2023-08-03T07:18:29Z</time>
      </trkpt>
      <trkpt lat="45.91173" lon="3.62221">
        <ele>751.6</ele>
        <time>2023-08-03T07:18:31Z</time>
      </trkpt>
      <trkpt lat="45.91181" lon="3.62214">
        <ele>751.4</ele>
        <time>2023-08-03T07:18:38Z</time>
      </trkpt>
      <trkpt lat="45.91182" lon="3.62211">
        <ele>751.2</ele>
        <time>2023-08-03T07:18:41Z</time>
      </trkpt>
      <trkpt lat="45.91183" lon="3.62208">
        <ele>751</ele>
        <time>2023-08-03T07:18:43Z</time>
      </trkpt>
      <trkpt lat="45.91189" lon="3.622">
        <ele>750.4</ele>
        <time>2023-08-03T07:18:49Z</time>
      </trkpt>
      <trkpt lat="45.91191" lon="3.62198">
        <ele>750.2</ele>
        <time>2023-08-03T07:18:52Z</time>
      </trkpt>
      <trkpt lat="45.91195" lon="3.62195">
        <ele>750</ele>
        <time>2023-08-03T07:18:54Z</time>
      </trkpt>
      <trkpt lat="45.91199" lon="3.62184">
        <ele>749</ele>
        <time>2023-08-03T07:19:00Z</time>
      </trkpt>
      <trkpt lat="45.91203" lon="3.62182">
        <ele>748.6</ele>
        <time>2023-08-03T07:19:02Z</time>
      </trkpt>
      <trkpt lat="45.91208" lon="3.62179">
        <ele>748.2</ele>
        <time>2023-08-03T07:19:06Z</time>
      </trkpt>
      <trkpt lat="45.91209" lon="3.62178">
        <ele>748</ele>
        <time>2023-08-03T07:19:07Z</time>
      </trkpt>
      <trkpt lat="45.9121" lon="3.62177">
        <ele>747.8</ele>
        <time>2023-08-03T07:19:08Z</time>
      </trkpt>
      <trkpt lat="45.91211" lon="3.62175">
        <ele>747.4</ele>
        <time>2023-08-03T07:19:11Z</time>
      </trkpt>
      <trkpt lat="45.91212" lon="3.62174">
        <ele>747.2</ele>
        <time>2023-08-03T07:19:12Z</time>
      </trkpt>
      <trkpt lat="45.91213" lon="3.62172">
        <ele>747</ele>
        <time>2023-08-03T07:19:14Z</time>
      </trkpt>
      <trkpt lat="45.91215" lon="3.62169">
        <ele>746.2</ele>
        <time>2023-08-03T07:19:18Z</time>
      </trkpt>
      <trkpt lat="45.91216" lon="3.62169">
        <ele>745.8</ele>
        <time>2023-08-03T07:19:20Z</time>
      </trkpt>
      <trkpt lat="45.91216" lon="3.6217">
        <ele>745.4</ele>
        <time>2023-08-03T07:19:22Z</time>
      </trkpt>
      <trkpt lat="45.91217" lon="3.62169">
        <ele>744.8</ele>
        <time>2023-08-03T07:19:25Z</time>
      </trkpt>
      <trkpt lat="45.91218" lon="3.62168">
        <ele>744.6</ele>
        <time>2023-08-03T07:19:27Z</time>
      </trkpt>
      <trkpt lat="45.9122" lon="3.62164">
        <ele>744.2</ele>
        <time>2023-08-03T07:19:30Z</time>
      </trkpt>
      <trkpt lat="45.91222" lon="3.62162">
        <ele>744</ele>
        <time>2023-08-03T07:19:32Z</time>
      </trkpt>
      <trkpt lat="45.91222" lon="3.62161">
        <ele>743.8</ele>
        <time>2023-08-03T07:19:33Z</time>
      </trkpt>
      <trkpt lat="45.91224" lon="3.62159">
        <ele>743.6</ele>
        <time>2023-08-03T07:19:37Z</time>
      </trkpt>
      <trkpt lat="45.91226" lon="3.62157">
        <ele>743.2</ele>
        <time>2023-08-03T07:19:39Z</time>
      </trkpt>
      <trkpt lat="45.91228" lon="3.62155">
        <ele>742.4</ele>
        <time>2023-08-03T07:19:43Z</time>
      </trkpt>
      <trkpt lat="45.91229" lon="3.62155">
        <ele>742.2</ele>
        <time>2023-08-03T07:19:44Z</time>
      </trkpt>
      <trkpt lat="45.91235" lon="3.62152">
        <ele>741.2</ele>
        <time>2023-08-03T07:19:49Z</time>
      </trkpt>
      <trkpt lat="45.91239" lon="3.62152">
        <ele>741</ele>
        <time>2023-08-03T07:19:51Z</time>
      </trkpt>
      <trkpt lat="45.91245" lon="3.62152">
        <ele>740.8</ele>
        <time>2023-08-03T07:19:55Z</time>
      </trkpt>
      <trkpt lat="45.91248" lon="3.62155">
        <ele>740.8</ele>
        <time>2023-08-03T07:19:57Z</time>
      </trkpt>
      <trkpt lat="45.91249" lon="3.62156">
        <ele>740.8</ele>
        <time>2023-08-03T07:19:58Z</time>
      </trkpt>
      <trkpt lat="45.91257" lon="3.62163">
        <ele>740.8</ele>
        <time>2023-08-03T07:20:03Z</time>
      </trkpt>
      <trkpt lat="45.91259" lon="3.62168">
        <ele>741</ele>
        <time>2023-08-03T07:20:07Z</time>
      </trkpt>
      <trkpt lat="45.9126" lon="3.62171">
        <ele>741</ele>
        <time>2023-08-03T07:20:09Z</time>
      </trkpt>
      <trkpt lat="45.91261" lon="3.62173">
        <ele>741.2</ele>
        <time>2023-08-03T07:20:10Z</time>
      </trkpt>
      <trkpt lat="45.91262" lon="3.62174">
        <ele>741.2</ele>
        <time>2023-08-03T07:20:11Z</time>
      </trkpt>
      <trkpt lat="45.91269" lon="3.62179">
        <ele>741.4</ele>
        <time>2023-08-03T07:20:16Z</time>
      </trkpt>
      <trkpt lat="45.91273" lon="3.62183">
        <ele>741.6</ele>
        <time>2023-08-03T07:20:20Z</time>
      </trkpt>
      <trkpt lat="45.91272" lon="3.62185">
        <ele>741.6</ele>
        <time>2023-08-03T07:20:22Z</time>
      </trkpt>
      <trkpt lat="45.91274" lon="3.62186">
        <ele>741.8</ele>
        <time>2023-08-03T07:20:24Z</time>
      </trkpt>
      <trkpt lat="45.91278" lon="3.62187">
        <ele>742.2</ele>
        <time>2023-08-03T07:20:29Z</time>
      </trkpt>
      <trkpt lat="45.91278" lon="3.62188">
        <ele>742.2</ele>
        <time>2023-08-03T07:20:30Z</time>
      </trkpt>
      <trkpt lat="45.91282" lon="3.62186">
        <ele>743.4</ele>
        <time>2023-08-03T07:20:36Z</time>
      </trkpt>
      <trkpt lat="45.91282" lon="3.62186">
        <ele>743.4</ele>
        <time>2023-08-03T07:20:37Z</time>
      </trkpt>
      <trkpt lat="45.91284" lon="3.62184">
        <ele>744.2</ele>
        <time>2023-08-03T07:20:43Z</time>
      </trkpt>
      <trkpt lat="45.91285" lon="3.62184">
        <ele>744.4</ele>
        <time>2023-08-03T07:20:45Z</time>
      </trkpt>
      <trkpt lat="45.91287" lon="3.62183">
        <ele>745</ele>
        <time>2023-08-03T07:20:50Z</time>
      </trkpt>
      <trkpt lat="45.91289" lon="3.6218">
        <ele>745.4</ele>
        <time>2023-08-03T07:20:53Z</time>
      </trkpt>
      <trkpt lat="45.91292" lon="3.62176">
        <ele>745.8</ele>
        <time>2023-08-03T07:20:57Z</time>
      </trkpt>
      <trkpt lat="45.91297" lon="3.62171">
        <ele>745.8</ele>
        <time>2023-08-03T07:21:01Z</time>
      </trkpt>
      <trkpt lat="45.91301" lon="3.62168">
        <ele>746</ele>
        <time>2023-08-03T07:21:03Z</time>
      </trkpt>
      <trkpt lat="45.91303" lon="3.62164">
        <ele>746.2</ele>
        <time>2023-08-03T07:21:08Z</time>
      </trkpt>
      <trkpt lat="45.91306" lon="3.62162">
        <ele>746.6</ele>
        <time>2023-08-03T07:21:12Z</time>
      </trkpt>
      <trkpt lat="45.91306" lon="3.62161">
        <ele>746.6</ele>
        <time>2023-08-03T07:21:13Z</time>
      </trkpt>
      <trkpt lat="45.91308" lon="3.62158">
        <ele>746.8</ele>
        <time>2023-08-03T07:21:16Z</time>
      </trkpt>
      <trkpt lat="45.91309" lon="3.62156">
        <ele>747.2</ele>
        <time>2023-08-03T07:21:20Z</time>
      </trkpt>
      <trkpt lat="45.91314" lon="3.62151">
        <ele>747.8</ele>
        <time>2023-08-03T07:21:25Z</time>
      </trkpt>
      <trkpt lat="45.91315" lon="3.6215">
        <ele>747.8</ele>
        <time>2023-08-03T07:21:26Z</time>
      </trkpt>
      <trkpt lat="45.91319" lon="3.62142">
        <ele>748</ele>
        <time>2023-08-03T07:21:32Z</time>
      </trkpt>
      <trkpt lat="45.91325" lon="3.62132">
        <ele>748.2</ele>
        <time>2023-08-03T07:21:38Z</time>
      </trkpt>
      <trkpt lat="45.91333" lon="3.62124">
        <ele>748.4</ele>
        <time>2023-08-03T07:21:44Z</time>
      </trkpt>
      <trkpt lat="45.91339" lon="3.62114">
        <ele>748.6</ele>
        <time>2023-08-03T07:21:52Z</time>
      </trkpt>
      <trkpt lat="45.9134" lon="3.62112">
        <ele>748.8</ele>
        <time>2023-08-03T07:21:53Z</time>
      </trkpt>
      <trkpt lat="45.91347" lon="3.62106">
        <ele>748.8</ele>
        <time>2023-08-03T07:21:58Z</time>
      </trkpt>
      <trkpt lat="45.91347" lon="3.62105">
        <ele>748.8</ele>
        <time>2023-08-03T07:21:59Z</time>
      </trkpt>
      <trkpt lat="45.91348" lon="3.62103">
        <ele>749</ele>
        <time>2023-08-03T07:22:02Z</time>
      </trkpt>
      <trkpt lat="45.91355" lon="3.62095">
        <ele>749</ele>
        <time>2023-08-03T07:22:09Z</time>
      </trkpt>
      <trkpt lat="45.91363" lon="3.62096">
        <ele>749.2</ele>
        <time>2023-08-03T07:22:15Z</time>
      </trkpt>
      <trkpt lat="45.91364" lon="3.62094">
        <ele>749.2</ele>
        <time>2023-08-03T07:22:20Z</time>
      </trkpt>
      <trkpt lat="45.91367" lon="3.62081">
        <ele>749.2</ele>
        <time>2023-08-03T07:22:27Z</time>
      </trkpt>
      <trkpt lat="45.9137" lon="3.6208">
        <ele>749.2</ele>
        <time>2023-08-03T07:22:31Z</time>
      </trkpt>
      <trkpt lat="45.91377" lon="3.6207">
        <ele>749</ele>
        <time>2023-08-03T07:22:38Z</time>
      </trkpt>
      <trkpt lat="45.91383" lon="3.62063">
        <ele>748.8</ele>
        <time>2023-08-03T07:22:45Z</time>
      </trkpt>
      <trkpt lat="45.9139" lon="3.62059">
        <ele>748.8</ele>
        <time>2023-08-03T07:22:49Z</time>
      </trkpt>
      <trkpt lat="45.91397" lon="3.62057">
        <ele>748.8</ele>
        <time>2023-08-03T07:22:53Z</time>
      </trkpt>
      <trkpt lat="45.91401" lon="3.62051">
        <ele>748.6</ele>
        <time>2023-08-03T07:22:58Z</time>
      </trkpt>
      <trkpt lat="45.91404" lon="3.62044">
        <ele>748.6</ele>
        <time>2023-08-03T07:23:03Z</time>
      </trkpt>
      <trkpt lat="45.91409" lon="3.62035">
        <ele>748.6</ele>
        <time>2023-08-03T07:23:08Z</time>
      </trkpt>
      <trkpt lat="45.91412" lon="3.62032">
        <ele>749</ele>
        <time>2023-08-03T07:23:13Z</time>
      </trkpt>
      <trkpt lat="45.91421" lon="3.62027">
        <ele>749.4</ele>
        <time>2023-08-03T07:23:21Z</time>
      </trkpt>
      <trkpt lat="45.91423" lon="3.62022">
        <ele>749.6</ele>
        <time>2023-08-03T07:23:24Z</time>
      </trkpt>
      <trkpt lat="45.91423" lon="3.62021">
        <ele>749.6</ele>
        <time>2023-08-03T07:23:25Z</time>
      </trkpt>
      <trkpt lat="45.91431" lon="3.62012">
        <ele>750.2</ele>
        <time>2023-08-03T07:23:30Z</time>
      </trkpt>
      <trkpt lat="45.91431" lon="3.6201">
        <ele>750.2</ele>
        <time>2023-08-03T07:23:31Z</time>
      </trkpt>
      <trkpt lat="45.91433" lon="3.62004">
        <ele>750.6</ele>
        <time>2023-08-03T07:23:35Z</time>
      </trkpt>
      <trkpt lat="45.91434" lon="3.62002">
        <ele>750.6</ele>
        <time>2023-08-03T07:23:36Z</time>
      </trkpt>
      <trkpt lat="45.91435" lon="3.62001">
        <ele>750.8</ele>
        <time>2023-08-03T07:23:37Z</time>
      </trkpt>
      <trkpt lat="45.91439" lon="3.61998">
        <ele>751.2</ele>
        <time>2023-08-03T07:23:41Z</time>
      </trkpt>
      <trkpt lat="45.91437" lon="3.61988">
        <ele>751.4</ele>
        <time>2023-08-03T07:23:45Z</time>
      </trkpt>
      <trkpt lat="45.91439" lon="3.61987">
        <ele>751.6</ele>
        <time>2023-08-03T07:23:47Z</time>
      </trkpt>
      <trkpt lat="45.91441" lon="3.61985">
        <ele>751.6</ele>
        <time>2023-08-03T07:23:49Z</time>
      </trkpt>
      <trkpt lat="45.91443" lon="3.61982">
        <ele>751.8</ele>
        <time>2023-08-03T07:23:52Z</time>
      </trkpt>
      <trkpt lat="45.91444" lon="3.61981">
        <ele>751.8</ele>
        <time>2023-08-03T07:23:53Z</time>
      </trkpt>
      <trkpt lat="45.91446" lon="3.6198">
        <ele>751.8</ele>
        <time>2023-08-03T07:23:55Z</time>
      </trkpt>
      <trkpt lat="45.91447" lon="3.61977">
        <ele>751.8</ele>
        <time>2023-08-03T07:23:57Z</time>
      </trkpt>
      <trkpt lat="45.91453" lon="3.61967">
        <ele>751.8</ele>
        <time>2023-08-03T07:24:02Z</time>
      </trkpt>
      <trkpt lat="45.91453" lon="3.61966">
        <ele>752</ele>
        <time>2023-08-03T07:24:04Z</time>
      </trkpt>
      <trkpt lat="45.91454" lon="3.61959">
        <ele>752</ele>
        <time>2023-08-03T07:24:08Z</time>
      </trkpt>
      <trkpt lat="45.91458" lon="3.61948">
        <ele>752.4</ele>
        <time>2023-08-03T07:24:14Z</time>
      </trkpt>
      <trkpt lat="45.91459" lon="3.61943">
        <ele>752.4</ele>
        <time>2023-08-03T07:24:16Z</time>
      </trkpt>
      <trkpt lat="45.91461" lon="3.61938">
        <ele>752.6</ele>
        <time>2023-08-03T07:24:18Z</time>
      </trkpt>
      <trkpt lat="45.91461" lon="3.61935">
        <ele>752.6</ele>
        <time>2023-08-03T07:24:19Z</time>
      </trkpt>
      <trkpt lat="45.91462" lon="3.61931">
        <ele>752.8</ele>
        <time>2023-08-03T07:24:21Z</time>
      </trkpt>
      <trkpt lat="45.91463" lon="3.6193">
        <ele>752.8</ele>
        <time>2023-08-03T07:24:22Z</time>
      </trkpt>
      <trkpt lat="45.91464" lon="3.61927">
        <ele>752.8</ele>
        <time>2023-08-03T07:24:24Z</time>
      </trkpt>
      <trkpt lat="45.91466" lon="3.61928">
        <ele>752.8</ele>
        <time>2023-08-03T07:24:25Z</time>
      </trkpt>
      <trkpt lat="45.91467" lon="3.61926">
        <ele>753</ele>
        <time>2023-08-03T07:24:27Z</time>
      </trkpt>
      <trkpt lat="45.91468" lon="3.61925">
        <ele>753</ele>
        <time>2023-08-03T07:24:28Z</time>
      </trkpt>
      <trkpt lat="45.91468" lon="3.61918">
        <ele>753</ele>
        <time>2023-08-03T07:24:32Z</time>
      </trkpt>
      <trkpt lat="45.91468" lon="3.61914">
        <ele>753</ele>
        <time>2023-08-03T07:24:35Z</time>
      </trkpt>
      <trkpt lat="45.91468" lon="3.6191">
        <ele>752.8</ele>
        <time>2023-08-03T07:24:38Z</time>
      </trkpt>
      <trkpt lat="45.91468" lon="3.61903">
        <ele>752.4</ele>
        <time>2023-08-03T07:24:42Z</time>
      </trkpt>
      <trkpt lat="45.91469" lon="3.61893">
        <ele>752.2</ele>
        <time>2023-08-03T07:24:47Z</time>
      </trkpt>
      <trkpt lat="45.9147" lon="3.6189">
        <ele>751.8</ele>
        <time>2023-08-03T07:24:49Z</time>
      </trkpt>
      <trkpt lat="45.9147" lon="3.61889">
        <ele>751.4</ele>
        <time>2023-08-03T07:24:50Z</time>
      </trkpt>
      <trkpt lat="45.91471" lon="3.61887">
        <ele>751.2</ele>
        <time>2023-08-03T07:24:51Z</time>
      </trkpt>
      <trkpt lat="45.91471" lon="3.61886">
        <ele>751</ele>
        <time>2023-08-03T07:24:52Z</time>
      </trkpt>
      <trkpt lat="45.91473" lon="3.61881">
        <ele>750.4</ele>
        <time>2023-08-03T07:24:55Z</time>
      </trkpt>
      <trkpt lat="45.91474" lon="3.61877">
        <ele>749.8</ele>
        <time>2023-08-03T07:24:57Z</time>
      </trkpt>
      <trkpt lat="45.91476" lon="3.61871">
        <ele>749.4</ele>
        <time>2023-08-03T07:25:01Z</time>
      </trkpt>
      <trkpt lat="45.91477" lon="3.61869">
        <ele>749</ele>
        <time>2023-08-03T07:25:02Z</time>
      </trkpt>
      <trkpt lat="45.91481" lon="3.61865">
        <ele>748.2</ele>
        <time>2023-08-03T07:25:06Z</time>
      </trkpt>
      <trkpt lat="45.91482" lon="3.61864">
        <ele>747.8</ele>
        <time>2023-08-03T07:25:07Z</time>
      </trkpt>
      <trkpt lat="45.91486" lon="3.6186">
        <ele>747.2</ele>
        <time>2023-08-03T07:25:10Z</time>
      </trkpt>
      <trkpt lat="45.91486" lon="3.61858">
        <ele>746.8</ele>
        <time>2023-08-03T07:25:12Z</time>
      </trkpt>
      <trkpt lat="45.91487" lon="3.61857">
        <ele>746.6</ele>
        <time>2023-08-03T07:25:13Z</time>
      </trkpt>
      <trkpt lat="45.91495" lon="3.61852">
        <ele>746</ele>
        <time>2023-08-03T07:25:18Z</time>
      </trkpt>
      <trkpt lat="45.91496" lon="3.61851">
        <ele>745.6</ele>
        <time>2023-08-03T07:25:19Z</time>
      </trkpt>
      <trkpt lat="45.91498" lon="3.6185">
        <ele>745.6</ele>
        <time>2023-08-03T07:25:20Z</time>
      </trkpt>
      <trkpt lat="45.91502" lon="3.61845">
        <ele>745.2</ele>
        <time>2023-08-03T07:25:24Z</time>
      </trkpt>
      <trkpt lat="45.91502" lon="3.61843">
        <ele>744.8</ele>
        <time>2023-08-03T07:25:26Z</time>
      </trkpt>
      <trkpt lat="45.91505" lon="3.61837">
        <ele>744.4</ele>
        <time>2023-08-03T07:25:30Z</time>
      </trkpt>
      <trkpt lat="45.91508" lon="3.61834">
        <ele>743.6</ele>
        <time>2023-08-03T07:25:33Z</time>
      </trkpt>
      <trkpt lat="45.91511" lon="3.61833">
        <ele>743.2</ele>
        <time>2023-08-03T07:25:35Z</time>
      </trkpt>
      <trkpt lat="45.91515" lon="3.61826">
        <ele>742.6</ele>
        <time>2023-08-03T07:25:40Z</time>
      </trkpt>
      <trkpt lat="45.91521" lon="3.61817">
        <ele>741.6</ele>
        <time>2023-08-03T07:25:47Z</time>
      </trkpt>
      <trkpt lat="45.91521" lon="3.61816">
        <ele>741.4</ele>
        <time>2023-08-03T07:25:48Z</time>
      </trkpt>
      <trkpt lat="45.91524" lon="3.61812">
        <ele>741</ele>
        <time>2023-08-03T07:25:51Z</time>
      </trkpt>
      <trkpt lat="45.91524" lon="3.61811">
        <ele>741</ele>
        <time>2023-08-03T07:25:52Z</time>
      </trkpt>
      <trkpt lat="45.91525" lon="3.61809">
        <ele>740.8</ele>
        <time>2023-08-03T07:25:53Z</time>
      </trkpt>
      <trkpt lat="45.91526" lon="3.61808">
        <ele>740.6</ele>
        <time>2023-08-03T07:25:54Z</time>
      </trkpt>
      <trkpt lat="45.91525" lon="3.61806">
        <ele>740.4</ele>
        <time>2023-08-03T07:25:56Z</time>
      </trkpt>
      <trkpt lat="45.91526" lon="3.61806">
        <ele>740.2</ele>
        <time>2023-08-03T07:25:57Z</time>
      </trkpt>
      <trkpt lat="45.91526" lon="3.61802">
        <ele>739.6</ele>
        <time>2023-08-03T07:26:01Z</time>
      </trkpt>
      <trkpt lat="45.91525" lon="3.61792">
        <ele>738.6</ele>
        <time>2023-08-03T07:26:08Z</time>
      </trkpt>
      <trkpt lat="45.91526" lon="3.6179">
        <ele>738.4</ele>
        <time>2023-08-03T07:26:09Z</time>
      </trkpt>
      <trkpt lat="45.91525" lon="3.61784">
        <ele>737.4</ele>
        <time>2023-08-03T07:26:14Z</time>
      </trkpt>
      <trkpt lat="45.91525" lon="3.61784">
        <ele>737.2</ele>
        <time>2023-08-03T07:26:15Z</time>
      </trkpt>
      <trkpt lat="45.9152" lon="3.6178">
        <ele>736.2</ele>
        <time>2023-08-03T07:26:19Z</time>
      </trkpt>
      <trkpt lat="45.91519" lon="3.61779">
        <ele>735.8</ele>
        <time>2023-08-03T07:26:20Z</time>
      </trkpt>
      <trkpt lat="45.91518" lon="3.61778">
        <ele>735.6</ele>
        <time>2023-08-03T07:26:21Z</time>
      </trkpt>
      <trkpt lat="45.91515" lon="3.61772">
        <ele>734.8</ele>
        <time>2023-08-03T07:26:24Z</time>
      </trkpt>
      <trkpt lat="45.91513" lon="3.61769">
        <ele>734.4</ele>
        <time>2023-08-03T07:26:26Z</time>
      </trkpt>
      <trkpt lat="45.91511" lon="3.61766">
        <ele>733.8</ele>
        <time>2023-08-03T07:26:29Z</time>
      </trkpt>
      <trkpt lat="45.91511" lon="3.61765">
        <ele>733.6</ele>
        <time>2023-08-03T07:26:30Z</time>
      </trkpt>
      <trkpt lat="45.91508" lon="3.61759">
        <ele>733.2</ele>
        <time>2023-08-03T07:26:33Z</time>
      </trkpt>
      <trkpt lat="45.91505" lon="3.61753">
        <ele>732.8</ele>
        <time>2023-08-03T07:26:36Z</time>
      </trkpt>
      <trkpt lat="45.91504" lon="3.61749">
        <ele>732.2</ele>
        <time>2023-08-03T07:26:40Z</time>
      </trkpt>
      <trkpt lat="45.91504" lon="3.61748">
        <ele>732.2</ele>
        <time>2023-08-03T07:26:41Z</time>
      </trkpt>
      <trkpt lat="45.91503" lon="3.61745">
        <ele>731.8</ele>
        <time>2023-08-03T07:26:44Z</time>
      </trkpt>
      <trkpt lat="45.91503" lon="3.61742">
        <ele>731.6</ele>
        <time>2023-08-03T07:26:46Z</time>
      </trkpt>
      <trkpt lat="45.91499" lon="3.61736">
        <ele>731.4</ele>
        <time>2023-08-03T07:26:51Z</time>
      </trkpt>
      <trkpt lat="45.91499" lon="3.61731">
        <ele>731</ele>
        <time>2023-08-03T07:26:55Z</time>
      </trkpt>
      <trkpt lat="45.91499" lon="3.61728">
        <ele>730.8</ele>
        <time>2023-08-03T07:26:57Z</time>
      </trkpt>
      <trkpt lat="45.91499" lon="3.61725">
        <ele>730.6</ele>
        <time>2023-08-03T07:26:59Z</time>
      </trkpt>
      <trkpt lat="45.91501" lon="3.61723">
        <ele>730.2</ele>
        <time>2023-08-03T07:27:00Z</time>
      </trkpt>
      <trkpt lat="45.91504" lon="3.6172">
        <ele>729.8</ele>
        <time>2023-08-03T07:27:03Z</time>
      </trkpt>
      <trkpt lat="45.91505" lon="3.61718">
        <ele>729.8</ele>
        <time>2023-08-03T07:27:04Z</time>
      </trkpt>
      <trkpt lat="45.91507" lon="3.61714">
        <ele>729.6</ele>
        <time>2023-08-03T07:27:06Z</time>
      </trkpt>
      <trkpt lat="45.9151" lon="3.61705">
        <ele>729.2</ele>
        <time>2023-08-03T07:27:10Z</time>
      </trkpt>
      <trkpt lat="45.91514" lon="3.61697">
        <ele>728.6</ele>
        <time>2023-08-03T07:27:14Z</time>
      </trkpt>
      <trkpt lat="45.91515" lon="3.61695">
        <ele>728.4</ele>
        <time>2023-08-03T07:27:15Z</time>
      </trkpt>
      <trkpt lat="45.91516" lon="3.61692">
        <ele>728.2</ele>
        <time>2023-08-03T07:27:16Z</time>
      </trkpt>
      <trkpt lat="45.9152" lon="3.61688">
        <ele>728</ele>
        <time>2023-08-03T07:27:19Z</time>
      </trkpt>
      <trkpt lat="45.91524" lon="3.61689">
        <ele>727.6</ele>
        <time>2023-08-03T07:27:23Z</time>
      </trkpt>
      <trkpt lat="45.91529" lon="3.61698">
        <ele>727.4</ele>
        <time>2023-08-03T07:27:28Z</time>
      </trkpt>
      <trkpt lat="45.91532" lon="3.61701">
        <ele>727.4</ele>
        <time>2023-08-03T07:27:30Z</time>
      </trkpt>
      <trkpt lat="45.91534" lon="3.61703">
        <ele>727.2</ele>
        <time>2023-08-03T07:27:31Z</time>
      </trkpt>
      <trkpt lat="45.91539" lon="3.61704">
        <ele>727.2</ele>
        <time>2023-08-03T07:27:35Z</time>
      </trkpt>
      <trkpt lat="45.91546" lon="3.61711">
        <ele>727.2</ele>
        <time>2023-08-03T07:27:40Z</time>
      </trkpt>
      <trkpt lat="45.91549" lon="3.61719">
        <ele>727.2</ele>
        <time>2023-08-03T07:27:46Z</time>
      </trkpt>
      <trkpt lat="45.9155" lon="3.6172">
        <ele>727.2</ele>
        <time>2023-08-03T07:27:47Z</time>
      </trkpt>
      <trkpt lat="45.91551" lon="3.61721">
        <ele>727.4</ele>
        <time>2023-08-03T07:27:48Z</time>
      </trkpt>
      <trkpt lat="45.91553" lon="3.61723">
        <ele>727.6</ele>
        <time>2023-08-03T07:27:52Z</time>
      </trkpt>
      <trkpt lat="45.91555" lon="3.61724">
        <ele>727.8</ele>
        <time>2023-08-03T07:27:54Z</time>
      </trkpt>
      <trkpt lat="45.91559" lon="3.61726">
        <ele>728.4</ele>
        <time>2023-08-03T07:27:58Z</time>
      </trkpt>
      <trkpt lat="45.9156" lon="3.61727">
        <ele>728.4</ele>
        <time>2023-08-03T07:27:59Z</time>
      </trkpt>
      <trkpt lat="45.91565" lon="3.6173">
        <ele>728.8</ele>
        <time>2023-08-03T07:28:03Z</time>
      </trkpt>
      <trkpt lat="45.91568" lon="3.61731">
        <ele>728.8</ele>
        <time>2023-08-03T07:28:06Z</time>
      </trkpt>
      <trkpt lat="45.9157" lon="3.61733">
        <ele>728.8</ele>
        <time>2023-08-03T07:28:08Z</time>
      </trkpt>
      <trkpt lat="45.91573" lon="3.61735">
        <ele>729</ele>
        <time>2023-08-03T07:28:11Z</time>
      </trkpt>
      <trkpt lat="45.91574" lon="3.61734">
        <ele>729</ele>
        <time>2023-08-03T07:28:12Z</time>
      </trkpt>
      <trkpt lat="45.91578" lon="3.61735">
        <ele>729.2</ele>
        <time>2023-08-03T07:28:15Z</time>
      </trkpt>
      <trkpt lat="45.9158" lon="3.61735">
        <ele>729.2</ele>
        <time>2023-08-03T07:28:16Z</time>
      </trkpt>
      <trkpt lat="45.9158" lon="3.61736">
        <ele>729.2</ele>
        <time>2023-08-03T07:28:17Z</time>
      </trkpt>
      <trkpt lat="45.91583" lon="3.61735">
        <ele>729.4</ele>
        <time>2023-08-03T07:28:20Z</time>
      </trkpt>
      <trkpt lat="45.91591" lon="3.61737">
        <ele>730.2</ele>
        <time>2023-08-03T07:28:25Z</time>
      </trkpt>
      <trkpt lat="45.91593" lon="3.61738">
        <ele>730.4</ele>
        <time>2023-08-03T07:28:27Z</time>
      </trkpt>
      <trkpt lat="45.91599" lon="3.6174">
        <ele>730.4</ele>
        <time>2023-08-03T07:28:32Z</time>
      </trkpt>
      <trkpt lat="45.91601" lon="3.61742">
        <ele>730.4</ele>
        <time>2023-08-03T07:28:34Z</time>
      </trkpt>
      <trkpt lat="45.91602" lon="3.61742">
        <ele>730.4</ele>
        <time>2023-08-03T07:28:35Z</time>
      </trkpt>
      <trkpt lat="45.91606" lon="3.61741">
        <ele>730.4</ele>
        <time>2023-08-03T07:28:38Z</time>
      </trkpt>
      <trkpt lat="45.91607" lon="3.61741">
        <ele>730.2</ele>
        <time>2023-08-03T07:28:39Z</time>
      </trkpt>
      <trkpt lat="45.91614" lon="3.61742">
        <ele>730.2</ele>
        <time>2023-08-03T07:28:45Z</time>
      </trkpt>
      <trkpt lat="45.91616" lon="3.61743">
        <ele>730.2</ele>
        <time>2023-08-03T07:28:47Z</time>
      </trkpt>
      <trkpt lat="45.91623" lon="3.61746">
        <ele>730</ele>
        <time>2023-08-03T07:28:53Z</time>
      </trkpt>
      <trkpt lat="45.91624" lon="3.61746">
        <ele>730</ele>
        <time>2023-08-03T07:28:54Z</time>
      </trkpt>
      <trkpt lat="45.91626" lon="3.61748">
        <ele>730</ele>
        <time>2023-08-03T07:28:56Z</time>
      </trkpt>
      <trkpt lat="45.91628" lon="3.61749">
        <ele>729.8</ele>
        <time>2023-08-03T07:28:58Z</time>
      </trkpt>
      <trkpt lat="45.91629" lon="3.61751">
        <ele>729.6</ele>
        <time>2023-08-03T07:28:59Z</time>
      </trkpt>
      <trkpt lat="45.91632" lon="3.61754">
        <ele>728.8</ele>
        <time>2023-08-03T07:29:03Z</time>
      </trkpt>
      <trkpt lat="45.91634" lon="3.61758">
        <ele>728.4</ele>
        <time>2023-08-03T07:29:06Z</time>
      </trkpt>
      <trkpt lat="45.91637" lon="3.61759">
        <ele>728.4</ele>
        <time>2023-08-03T07:29:08Z</time>
      </trkpt>
      <trkpt lat="45.91641" lon="3.61763">
        <ele>728.4</ele>
        <time>2023-08-03T07:29:12Z</time>
      </trkpt>
      <trkpt lat="45.91644" lon="3.61771">
        <ele>728.4</ele>
        <time>2023-08-03T07:29:17Z</time>
      </trkpt>
      <trkpt lat="45.91644" lon="3.61778">
        <ele>728.6</ele>
        <time>2023-08-03T07:29:21Z</time>
      </trkpt>
      <trkpt lat="45.91645" lon="3.61779">
        <ele>728.8</ele>
        <time>2023-08-03T07:29:22Z</time>
      </trkpt>
      <trkpt lat="45.91646" lon="3.61778">
        <ele>729</ele>
        <time>2023-08-03T07:29:24Z</time>
      </trkpt>
      <trkpt lat="45.91647" lon="3.6178">
        <ele>729.4</ele>
        <time>2023-08-03T07:29:26Z</time>
      </trkpt>
      <trkpt lat="45.91648" lon="3.61789">
        <ele>730.4</ele>
        <time>2023-08-03T07:29:32Z</time>
      </trkpt>
      <trkpt lat="45.91648" lon="3.6179">
        <ele>730.4</ele>
        <time>2023-08-03T07:29:33Z</time>
      </trkpt>
      <trkpt lat="45.91651" lon="3.61796">
        <ele>730.8</ele>
        <time>2023-08-03T07:29:37Z</time>
      </trkpt>
      <trkpt lat="45.91653" lon="3.61802">
        <ele>730.8</ele>
        <time>2023-08-03T07:29:42Z</time>
      </trkpt>
      <trkpt lat="45.91656" lon="3.61811">
        <ele>730.6</ele>
        <time>2023-08-03T07:29:48Z</time>
      </trkpt>
      <trkpt lat="45.91658" lon="3.61824">
        <ele>729.8</ele>
        <time>2023-08-03T07:29:54Z</time>
      </trkpt>
      <trkpt lat="45.91658" lon="3.61826">
        <ele>729.6</ele>
        <time>2023-08-03T07:29:55Z</time>
      </trkpt>
      <trkpt lat="45.91659" lon="3.61829">
        <ele>729.4</ele>
        <time>2023-08-03T07:29:56Z</time>
      </trkpt>
      <trkpt lat="45.9166" lon="3.61834">
        <ele>729</ele>
        <time>2023-08-03T07:29:58Z</time>
      </trkpt>
      <trkpt lat="45.9166" lon="3.61837">
        <ele>728.8</ele>
        <time>2023-08-03T07:30:00Z</time>
      </trkpt>
      <trkpt lat="45.91664" lon="3.6184">
        <ele>728.4</ele>
        <time>2023-08-03T07:30:04Z</time>
      </trkpt>
      <trkpt lat="45.91665" lon="3.61844">
        <ele>728.4</ele>
        <time>2023-08-03T07:30:05Z</time>
      </trkpt>
      <trkpt lat="45.91666" lon="3.61848">
        <ele>728</ele>
        <time>2023-08-03T07:30:08Z</time>
      </trkpt>
      <trkpt lat="45.91666" lon="3.61852">
        <ele>727.8</ele>
        <time>2023-08-03T07:30:11Z</time>
      </trkpt>
      <trkpt lat="45.91666" lon="3.61854">
        <ele>727.6</ele>
        <time>2023-08-03T07:30:12Z</time>
      </trkpt>
      <trkpt lat="45.91668" lon="3.6186">
        <ele>727.4</ele>
        <time>2023-08-03T07:30:16Z</time>
      </trkpt>
      <trkpt lat="45.91671" lon="3.61865">
        <ele>727</ele>
        <time>2023-08-03T07:30:20Z</time>
      </trkpt>
      <trkpt lat="45.91673" lon="3.61867">
        <ele>726.6</ele>
        <time>2023-08-03T07:30:22Z</time>
      </trkpt>
      <trkpt lat="45.91676" lon="3.61872">
        <ele>726.2</ele>
        <time>2023-08-03T07:30:26Z</time>
      </trkpt>
      <trkpt lat="45.91678" lon="3.61872">
        <ele>725.8</ele>
        <time>2023-08-03T07:30:28Z</time>
      </trkpt>
      <trkpt lat="45.91681" lon="3.61872">
        <ele>725.4</ele>
        <time>2023-08-03T07:30:30Z</time>
      </trkpt>
      <trkpt lat="45.91682" lon="3.61873">
        <ele>725.2</ele>
        <time>2023-08-03T07:30:31Z</time>
      </trkpt>
      <trkpt lat="45.91682" lon="3.61873">
        <ele>725</ele>
        <time>2023-08-03T07:30:32Z</time>
      </trkpt>
      <trkpt lat="45.91684" lon="3.61876">
        <ele>724.6</ele>
        <time>2023-08-03T07:30:35Z</time>
      </trkpt>
      <trkpt lat="45.91689" lon="3.61874">
        <ele>724</ele>
        <time>2023-08-03T07:30:39Z</time>
      </trkpt>
      <trkpt lat="45.91693" lon="3.61876">
        <ele>723.6</ele>
        <time>2023-08-03T07:30:42Z</time>
      </trkpt>
      <trkpt lat="45.91695" lon="3.61878">
        <ele>723</ele>
        <time>2023-08-03T07:30:45Z</time>
      </trkpt>
      <trkpt lat="45.91696" lon="3.61881">
        <ele>722.8</ele>
        <time>2023-08-03T07:30:48Z</time>
      </trkpt>
      <trkpt lat="45.917" lon="3.61884">
        <ele>722.4</ele>
        <time>2023-08-03T07:30:51Z</time>
      </trkpt>
      <trkpt lat="45.91704" lon="3.61888">
        <ele>722</ele>
        <time>2023-08-03T07:30:54Z</time>
      </trkpt>
      <trkpt lat="45.91707" lon="3.61893">
        <ele>721.8</ele>
        <time>2023-08-03T07:30:57Z</time>
      </trkpt>
      <trkpt lat="45.91709" lon="3.61895">
        <ele>721.8</ele>
        <time>2023-08-03T07:30:58Z</time>
      </trkpt>
      <trkpt lat="45.91717" lon="3.61902">
        <ele>721.2</ele>
        <time>2023-08-03T07:31:04Z</time>
      </trkpt>
      <trkpt lat="45.91723" lon="3.61907">
        <ele>721</ele>
        <time>2023-08-03T07:31:07Z</time>
      </trkpt>
      <trkpt lat="45.91729" lon="3.61906">
        <ele>720.8</ele>
        <time>2023-08-03T07:31:10Z</time>
      </trkpt>
      <trkpt lat="45.91735" lon="3.61913">
        <ele>720.6</ele>
        <time>2023-08-03T07:31:16Z</time>
      </trkpt>
      <trkpt lat="45.91738" lon="3.61926">
        <ele>720.4</ele>
        <time>2023-08-03T07:31:23Z</time>
      </trkpt>
      <trkpt lat="45.91738" lon="3.61935">
        <ele>720.2</ele>
        <time>2023-08-03T07:31:28Z</time>
      </trkpt>
      <trkpt lat="45.91739" lon="3.61941">
        <ele>720</ele>
        <time>2023-08-03T07:31:32Z</time>
      </trkpt>
      <trkpt lat="45.91738" lon="3.61946">
        <ele>720</ele>
        <time>2023-08-03T07:31:34Z</time>
      </trkpt>
      <trkpt lat="45.91738" lon="3.61955">
        <ele>719.6</ele>
        <time>2023-08-03T07:31:39Z</time>
      </trkpt>
      <trkpt lat="45.91737" lon="3.61959">
        <ele>719.4</ele>
        <time>2023-08-03T07:31:42Z</time>
      </trkpt>
      <trkpt lat="45.91735" lon="3.61959">
        <ele>719.4</ele>
        <time>2023-08-03T07:31:45Z</time>
      </trkpt>
      <trkpt lat="45.91734" lon="3.6196">
        <ele>719.2</ele>
        <time>2023-08-03T07:31:46Z</time>
      </trkpt>
      <trkpt lat="45.91732" lon="3.61963">
        <ele>718.8</ele>
        <time>2023-08-03T07:31:50Z</time>
      </trkpt>
      <trkpt lat="45.91726" lon="3.61968">
        <ele>718.2</ele>
        <time>2023-08-03T07:31:57Z</time>
      </trkpt>
      <trkpt lat="45.91722" lon="3.61971">
        <ele>717.8</ele>
        <time>2023-08-03T07:32:02Z</time>
      </trkpt>
      <trkpt lat="45.91721" lon="3.61972">
        <ele>717.8</ele>
        <time>2023-08-03T07:32:03Z</time>
      </trkpt>
      <trkpt lat="45.91718" lon="3.6198">
        <ele>717</ele>
        <time>2023-08-03T07:32:08Z</time>
      </trkpt>
      <trkpt lat="45.91717" lon="3.61985">
        <ele>716.6</ele>
        <time>2023-08-03T07:32:11Z</time>
      </trkpt>
      <trkpt lat="45.91717" lon="3.61989">
        <ele>716.4</ele>
        <time>2023-08-03T07:32:13Z</time>
      </trkpt>
      <trkpt lat="45.91716" lon="3.61991">
        <ele>716.4</ele>
        <time>2023-08-03T07:32:14Z</time>
      </trkpt>
      <trkpt lat="45.91715" lon="3.61997">
        <ele>716.2</ele>
        <time>2023-08-03T07:32:16Z</time>
      </trkpt>
      <trkpt lat="45.91715" lon="3.62002">
        <ele>716.2</ele>
        <time>2023-08-03T07:32:18Z</time>
      </trkpt>
      <trkpt lat="45.91714" lon="3.62004">
        <ele>716</ele>
        <time>2023-08-03T07:32:19Z</time>
      </trkpt>
      <trkpt lat="45.91711" lon="3.62011">
        <ele>715.8</ele>
        <time>2023-08-03T07:32:22Z</time>
      </trkpt>
      <trkpt lat="45.91711" lon="3.62014">
        <ele>715.6</ele>
        <time>2023-08-03T07:32:23Z</time>
      </trkpt>
      <trkpt lat="45.91711" lon="3.62015">
        <ele>715.2</ele>
        <time>2023-08-03T07:32:24Z</time>
      </trkpt>
      <trkpt lat="45.91711" lon="3.62017">
        <ele>715.2</ele>
        <time>2023-08-03T07:32:25Z</time>
      </trkpt>
      <trkpt lat="45.91711" lon="3.62024">
        <ele>714.8</ele>
        <time>2023-08-03T07:32:29Z</time>
      </trkpt>
      <trkpt lat="45.9171" lon="3.62027">
        <ele>714.4</ele>
        <time>2023-08-03T07:32:31Z</time>
      </trkpt>
      <trkpt lat="45.9171" lon="3.62033">
        <ele>714</ele>
        <time>2023-08-03T07:32:34Z</time>
      </trkpt>
      <trkpt lat="45.91707" lon="3.62041">
        <ele>713.2</ele>
        <time>2023-08-03T07:32:38Z</time>
      </trkpt>
      <trkpt lat="45.91708" lon="3.62045">
        <ele>712.8</ele>
        <time>2023-08-03T07:32:40Z</time>
      </trkpt>
      <trkpt lat="45.91708" lon="3.62052">
        <ele>712.2</ele>
        <time>2023-08-03T07:32:43Z</time>
      </trkpt>
      <trkpt lat="45.91708" lon="3.62056">
        <ele>712</ele>
        <time>2023-08-03T07:32:46Z</time>
      </trkpt>
      <trkpt lat="45.91706" lon="3.62061">
        <ele>711.6</ele>
        <time>2023-08-03T07:32:48Z</time>
      </trkpt>
      <trkpt lat="45.91704" lon="3.62063">
        <ele>711</ele>
        <time>2023-08-03T07:32:50Z</time>
      </trkpt>
      <trkpt lat="45.91704" lon="3.62065">
        <ele>710.8</ele>
        <time>2023-08-03T07:32:52Z</time>
      </trkpt>
      <trkpt lat="45.91702" lon="3.62073">
        <ele>710.2</ele>
        <time>2023-08-03T07:32:57Z</time>
      </trkpt>
      <trkpt lat="45.91702" lon="3.62081">
        <ele>709.2</ele>
        <time>2023-08-03T07:33:02Z</time>
      </trkpt>
      <trkpt lat="45.91702" lon="3.62083">
        <ele>709</ele>
        <time>2023-08-03T07:33:03Z</time>
      </trkpt>
      <trkpt lat="45.91702" lon="3.62087">
        <ele>708.2</ele>
        <time>2023-08-03T07:33:08Z</time>
      </trkpt>
      <trkpt lat="45.91701" lon="3.62093">
        <ele>708</ele>
        <time>2023-08-03T07:33:11Z</time>
      </trkpt>
      <trkpt lat="45.91701" lon="3.62098">
        <ele>707.6</ele>
        <time>2023-08-03T07:33:15Z</time>
      </trkpt>
      <trkpt lat="45.91702" lon="3.62104">
        <ele>706.8</ele>
        <time>2023-08-03T07:33:19Z</time>
      </trkpt>
      <trkpt lat="45.91702" lon="3.62107">
        <ele>706.6</ele>
        <time>2023-08-03T07:33:21Z</time>
      </trkpt>
      <trkpt lat="45.91706" lon="3.62109">
        <ele>705.8</ele>
        <time>2023-08-03T07:33:28Z</time>
      </trkpt>
      <trkpt lat="45.91708" lon="3.62112">
        <ele>705.4</ele>
        <time>2023-08-03T07:33:30Z</time>
      </trkpt>
      <trkpt lat="45.91708" lon="3.6212">
        <ele>704.8</ele>
        <time>2023-08-03T07:33:36Z</time>
      </trkpt>
      <trkpt lat="45.91708" lon="3.62121">
        <ele>704.6</ele>
        <time>2023-08-03T07:33:37Z</time>
      </trkpt>
      <trkpt lat="45.91707" lon="3.62128">
        <ele>703.8</ele>
        <time>2023-08-03T07:33:41Z</time>
      </trkpt>
      <trkpt lat="45.91708" lon="3.62131">
        <ele>703.6</ele>
        <time>2023-08-03T07:33:42Z</time>
      </trkpt>
      <trkpt lat="45.9171" lon="3.62142">
        <ele>702.4</ele>
        <time>2023-08-03T07:33:48Z</time>
      </trkpt>
      <trkpt lat="45.91706" lon="3.62149">
        <ele>701.6</ele>
        <time>2023-08-03T07:33:54Z</time>
      </trkpt>
      <trkpt lat="45.91705" lon="3.6215">
        <ele>701.4</ele>
        <time>2023-08-03T07:33:56Z</time>
      </trkpt>
      <trkpt lat="45.91703" lon="3.62153">
        <ele>700.4</ele>
        <time>2023-08-03T07:34:01Z</time>
      </trkpt>
      <trkpt lat="45.91703" lon="3.62155">
        <ele>700</ele>
        <time>2023-08-03T07:34:02Z</time>
      </trkpt>
      <trkpt lat="45.91702" lon="3.62157">
        <ele>699.2</ele>
        <time>2023-08-03T07:34:05Z</time>
      </trkpt>
      <trkpt lat="45.91702" lon="3.62158">
        <ele>699</ele>
        <time>2023-08-03T07:34:06Z</time>
      </trkpt>
      <trkpt lat="45.91701" lon="3.62161">
        <ele>698.2</ele>
        <time>2023-08-03T07:34:09Z</time>
      </trkpt>
      <trkpt lat="45.917" lon="3.62162">
        <ele>697.8</ele>
        <time>2023-08-03T07:34:10Z</time>
      </trkpt>
      <trkpt lat="45.917" lon="3.62166">
        <ele>697</ele>
        <time>2023-08-03T07:34:14Z</time>
      </trkpt>
      <trkpt lat="45.917" lon="3.62166">
        <ele>697</ele>
        <time>2023-08-03T07:34:15Z</time>
      </trkpt>
      <trkpt lat="45.91697" lon="3.62171">
        <ele>696</ele>
        <time>2023-08-03T07:34:21Z</time>
      </trkpt>
      <trkpt lat="45.91696" lon="3.62172">
        <ele>695.8</ele>
        <time>2023-08-03T07:34:22Z</time>
      </trkpt>
      <trkpt lat="45.91696" lon="3.62177">
        <ele>695</ele>
        <time>2023-08-03T07:34:27Z</time>
      </trkpt>
      <trkpt lat="45.91695" lon="3.62178">
        <ele>694.6</ele>
        <time>2023-08-03T07:34:28Z</time>
      </trkpt>
      <trkpt lat="45.91693" lon="3.62182">
        <ele>693.8</ele>
        <time>2023-08-03T07:34:31Z</time>
      </trkpt>
      <trkpt lat="45.91693" lon="3.62184">
        <ele>693.8</ele>
        <time>2023-08-03T07:34:32Z</time>
      </trkpt>
      <trkpt lat="45.91694" lon="3.62183">
        <ele>693.4</ele>
        <time>2023-08-03T07:34:37Z</time>
      </trkpt>
      <trkpt lat="45.91695" lon="3.62179">
        <ele>692.8</ele>
        <time>2023-08-03T07:34:41Z</time>
      </trkpt>
      <trkpt lat="45.91697" lon="3.62178">
        <ele>692.6</ele>
        <time>2023-08-03T07:34:44Z</time>
      </trkpt>
      <trkpt lat="45.91694" lon="3.62177">
        <ele>692.4</ele>
        <time>2023-08-03T07:34:53Z</time>
      </trkpt>
      <trkpt lat="45.91693" lon="3.62175">
        <ele>692.4</ele>
        <time>2023-08-03T07:34:55Z</time>
      </trkpt>
      <trkpt lat="45.91693" lon="3.62173">
        <ele>692.4</ele>
        <time>2023-08-03T07:34:56Z</time>
      </trkpt>
      <trkpt lat="45.91693" lon="3.62171">
        <ele>692.4</ele>
        <time>2023-08-03T07:34:59Z</time>
      </trkpt>
      <trkpt lat="45.91695" lon="3.62175">
        <ele>692.4</ele>
        <time>2023-08-03T07:35:04Z</time>
      </trkpt>
      <trkpt lat="45.91695" lon="3.62175">
        <ele>692.4</ele>
        <time>2023-08-03T07:35:18Z</time>
      </trkpt>
      <trkpt lat="45.91694" lon="3.62174">
        <ele>692.4</ele>
        <time>2023-08-03T07:35:29Z</time>
      </trkpt>
      <trkpt lat="45.9169" lon="3.62176">
        <ele>692.4</ele>
        <time>2023-08-03T07:35:58Z</time>
      </trkpt>
      <trkpt lat="45.91691" lon="3.6218">
        <ele>692.4</ele>
        <time>2023-08-03T07:36:00Z</time>
      </trkpt>
      <trkpt lat="45.91692" lon="3.62188">
        <ele>692.4</ele>
        <time>2023-08-03T07:36:05Z</time>
      </trkpt>
      <trkpt lat="45.91691" lon="3.6219">
        <ele>692.4</ele>
        <time>2023-08-03T07:36:09Z</time>
      </trkpt>
      <trkpt lat="45.91691" lon="3.62189">
        <ele>691.6</ele>
        <time>2023-08-03T07:36:15Z</time>
      </trkpt>
      <trkpt lat="45.91691" lon="3.62191">
        <ele>691.4</ele>
        <time>2023-08-03T07:36:21Z</time>
      </trkpt>
      <trkpt lat="45.91692" lon="3.62194">
        <ele>691.2</ele>
        <time>2023-08-03T07:36:27Z</time>
      </trkpt>
      <trkpt lat="45.91694" lon="3.62202">
        <ele>690.6</ele>
        <time>2023-08-03T07:36:33Z</time>
      </trkpt>
      <trkpt lat="45.91694" lon="3.62201">
        <ele>690.4</ele>
        <time>2023-08-03T07:36:34Z</time>
      </trkpt>
      <trkpt lat="45.91696" lon="3.62205">
        <ele>690</ele>
        <time>2023-08-03T07:36:39Z</time>
      </trkpt>
      <trkpt lat="45.91695" lon="3.62211">
        <ele>689.8</ele>
        <time>2023-08-03T07:36:42Z</time>
      </trkpt>
      <trkpt lat="45.91693" lon="3.62214">
        <ele>689.6</ele>
        <time>2023-08-03T07:36:44Z</time>
      </trkpt>
      <trkpt lat="45.91691" lon="3.62215">
        <ele>689.4</ele>
        <time>2023-08-03T07:36:45Z</time>
      </trkpt>
      <trkpt lat="45.91691" lon="3.62211">
        <ele>689.2</ele>
        <time>2023-08-03T07:36:49Z</time>
      </trkpt>
      <trkpt lat="45.91692" lon="3.6221">
        <ele>688.4</ele>
        <time>2023-08-03T07:36:53Z</time>
      </trkpt>
      <trkpt lat="45.91695" lon="3.62208">
        <ele>687.8</ele>
        <time>2023-08-03T07:36:57Z</time>
      </trkpt>
      <trkpt lat="45.91697" lon="3.62207">
        <ele>687.6</ele>
        <time>2023-08-03T07:37:05Z</time>
      </trkpt>
      <trkpt lat="45.91697" lon="3.6221">
        <ele>687.6</ele>
        <time>2023-08-03T07:37:23Z</time>
      </trkpt>
      <trkpt lat="45.91698" lon="3.62217">
        <ele>687.6</ele>
        <time>2023-08-03T07:37:28Z</time>
      </trkpt>
      <trkpt lat="45.91698" lon="3.62219">
        <ele>687.4</ele>
        <time>2023-08-03T07:37:31Z</time>
      </trkpt>
      <trkpt lat="45.91698" lon="3.62221">
        <ele>687.2</ele>
        <time>2023-08-03T07:37:33Z</time>
      </trkpt>
      <trkpt lat="45.91697" lon="3.62225">
        <ele>687</ele>
        <time>2023-08-03T07:37:36Z</time>
      </trkpt>
      <trkpt lat="45.91696" lon="3.62228">
        <ele>686.8</ele>
        <time>2023-08-03T07:37:39Z</time>
      </trkpt>
      <trkpt lat="45.9169" lon="3.62227">
        <ele>686.4</ele>
        <time>2023-08-03T07:37:45Z</time>
      </trkpt>
      <trkpt lat="45.91691" lon="3.62229">
        <ele>686.2</ele>
        <time>2023-08-03T07:37:46Z</time>
      </trkpt>
      <trkpt lat="45.91687" lon="3.62239">
        <ele>685.8</ele>
        <time>2023-08-03T07:37:52Z</time>
      </trkpt>
      <trkpt lat="45.91688" lon="3.62242">
        <ele>685</ele>
        <time>2023-08-03T07:37:57Z</time>
      </trkpt>
      <trkpt lat="45.91686" lon="3.62245">
        <ele>684.2</ele>
        <time>2023-08-03T07:38:04Z</time>
      </trkpt>
      <trkpt lat="45.91685" lon="3.62244">
        <ele>684</ele>
        <time>2023-08-03T07:38:06Z</time>
      </trkpt>
      <trkpt lat="45.91684" lon="3.62245">
        <ele>683.6</ele>
        <time>2023-08-03T07:38:09Z</time>
      </trkpt>
      <trkpt lat="45.91682" lon="3.62249">
        <ele>683.4</ele>
        <time>2023-08-03T07:38:14Z</time>
      </trkpt>
      <trkpt lat="45.91679" lon="3.62247">
        <ele>682.8</ele>
        <time>2023-08-03T07:38:17Z</time>
      </trkpt>
      <trkpt lat="45.91677" lon="3.6225">
        <ele>682</ele>
        <time>2023-08-03T07:38:22Z</time>
      </trkpt>
      <trkpt lat="45.91676" lon="3.6225">
        <ele>682</ele>
        <time>2023-08-03T07:38:23Z</time>
      </trkpt>
      <trkpt lat="45.91674" lon="3.62253">
        <ele>681.8</ele>
        <time>2023-08-03T07:38:25Z</time>
      </trkpt>
      <trkpt lat="45.91673" lon="3.62256">
        <ele>681.6</ele>
        <time>2023-08-03T07:38:29Z</time>
      </trkpt>
      <trkpt lat="45.91669" lon="3.62258">
        <ele>681.2</ele>
        <time>2023-08-03T07:38:33Z</time>
      </trkpt>
      <trkpt lat="45.91666" lon="3.62261">
        <ele>680.8</ele>
        <time>2023-08-03T07:38:38Z</time>
      </trkpt>
      <trkpt lat="45.9166" lon="3.62262">
        <ele>680</ele>
        <time>2023-08-03T07:38:42Z</time>
      </trkpt>
      <trkpt lat="45.9166" lon="3.62264">
        <ele>679.8</ele>
        <time>2023-08-03T07:38:43Z</time>
      </trkpt>
      <trkpt lat="45.9166" lon="3.62266">
        <ele>679.6</ele>
        <time>2023-08-03T07:38:44Z</time>
      </trkpt>
      <trkpt lat="45.91657" lon="3.62272">
        <ele>679</ele>
        <time>2023-08-03T07:38:49Z</time>
      </trkpt>
      <trkpt lat="45.91655" lon="3.62276">
        <ele>678.6</ele>
        <time>2023-08-03T07:38:51Z</time>
      </trkpt>
      <trkpt lat="45.91651" lon="3.62282">
        <ele>678.4</ele>
        <time>2023-08-03T07:38:54Z</time>
      </trkpt>
      <trkpt lat="45.91656" lon="3.62283">
        <ele>677.6</ele>
        <time>2023-08-03T07:38:58Z</time>
      </trkpt>
      <trkpt lat="45.91654" lon="3.62285">
        <ele>677.2</ele>
        <time>2023-08-03T07:39:01Z</time>
      </trkpt>
      <trkpt lat="45.91653" lon="3.62289">
        <ele>676.4</ele>
        <time>2023-08-03T07:39:04Z</time>
      </trkpt>
      <trkpt lat="45.91653" lon="3.62293">
        <ele>675.8</ele>
        <time>2023-08-03T07:39:08Z</time>
      </trkpt>
      <trkpt lat="45.91652" lon="3.62294">
        <ele>675.4</ele>
        <time>2023-08-03T07:39:11Z</time>
      </trkpt>
      <trkpt lat="45.91652" lon="3.62295">
        <ele>675.2</ele>
        <time>2023-08-03T07:39:12Z</time>
      </trkpt>
      <trkpt lat="45.9165" lon="3.62298">
        <ele>675</ele>
        <time>2023-08-03T07:39:14Z</time>
      </trkpt>
      <trkpt lat="45.91646" lon="3.623">
        <ele>674.6</ele>
        <time>2023-08-03T07:39:17Z</time>
      </trkpt>
      <trkpt lat="45.91645" lon="3.62302">
        <ele>674.2</ele>
        <time>2023-08-03T07:39:18Z</time>
      </trkpt>
      <trkpt lat="45.91644" lon="3.62303">
        <ele>674</ele>
        <time>2023-08-03T07:39:19Z</time>
      </trkpt>
      <trkpt lat="45.91643" lon="3.62307">
        <ele>673.8</ele>
        <time>2023-08-03T07:39:21Z</time>
      </trkpt>
      <trkpt lat="45.91639" lon="3.62315">
        <ele>673.2</ele>
        <time>2023-08-03T07:39:26Z</time>
      </trkpt>
      <trkpt lat="45.91639" lon="3.62316">
        <ele>673</ele>
        <time>2023-08-03T07:39:27Z</time>
      </trkpt>
      <trkpt lat="45.91635" lon="3.62322">
        <ele>672.2</ele>
        <time>2023-08-03T07:39:32Z</time>
      </trkpt>
      <trkpt lat="45.91632" lon="3.62335">
        <ele>671</ele>
        <time>2023-08-03T07:39:39Z</time>
      </trkpt>
      <trkpt lat="45.91633" lon="3.62335">
        <ele>670.8</ele>
        <time>2023-08-03T07:39:40Z</time>
      </trkpt>
      <trkpt lat="45.91637" lon="3.62334">
        <ele>670.2</ele>
        <time>2023-08-03T07:39:44Z</time>
      </trkpt>
      <trkpt lat="45.91636" lon="3.62333">
        <ele>669.8</ele>
        <time>2023-08-03T07:39:50Z</time>
      </trkpt>
      <trkpt lat="45.91636" lon="3.62333">
        <ele>669.8</ele>
        <time>2023-08-03T07:39:53Z</time>
      </trkpt>
      <trkpt lat="45.91636" lon="3.62333">
        <ele>669.2</ele>
        <time>2023-08-03T07:40:04Z</time>
      </trkpt>
      <trkpt lat="45.91634" lon="3.62336">
        <ele>669.2</ele>
        <time>2023-08-03T07:40:07Z</time>
      </trkpt>
      <trkpt lat="45.91633" lon="3.62338">
        <ele>669.2</ele>
        <time>2023-08-03T07:40:13Z</time>
      </trkpt>
      <trkpt lat="45.91631" lon="3.62338">
        <ele>669.2</ele>
        <time>2023-08-03T07:40:17Z</time>
      </trkpt>
      <trkpt lat="45.91632" lon="3.62337">
        <ele>669.2</ele>
        <time>2023-08-03T07:40:18Z</time>
      </trkpt>
      <trkpt lat="45.91634" lon="3.62332">
        <ele>669.8</ele>
        <time>2023-08-03T07:40:22Z</time>
      </trkpt>
      <trkpt lat="45.91637" lon="3.62331">
        <ele>669.8</ele>
        <time>2023-08-03T07:40:24Z</time>
      </trkpt>
      <trkpt lat="45.91637" lon="3.62332">
        <ele>669.8</ele>
        <time>2023-08-03T07:40:25Z</time>
      </trkpt>
      <trkpt lat="45.9164" lon="3.62332">
        <ele>670</ele>
        <time>2023-08-03T07:40:29Z</time>
      </trkpt>
      <trkpt lat="45.91636" lon="3.62334">
        <ele>669.8</ele>
        <time>2023-08-03T07:40:36Z</time>
      </trkpt>
      <trkpt lat="45.91633" lon="3.62336">
        <ele>669.8</ele>
        <time>2023-08-03T07:40:42Z</time>
      </trkpt>
      <trkpt lat="45.9163" lon="3.6234">
        <ele>669.4</ele>
        <time>2023-08-03T07:40:48Z</time>
      </trkpt>
      <trkpt lat="45.91617" lon="3.62333">
        <ele>669.4</ele>
        <time>2023-08-03T07:40:55Z</time>
      </trkpt>
      <trkpt lat="45.91622" lon="3.62337">
        <ele>669.4</ele>
        <time>2023-08-03T07:41:00Z</time>
      </trkpt>
      <trkpt lat="45.91626" lon="3.6234">
        <ele>669.4</ele>
        <time>2023-08-03T07:41:07Z</time>
      </trkpt>
      <trkpt lat="45.91627" lon="3.6234">
        <ele>669.4</ele>
        <time>2023-08-03T07:41:08Z</time>
      </trkpt>
      <trkpt lat="45.91625" lon="3.62339">
        <ele>669.2</ele>
        <time>2023-08-03T07:41:16Z</time>
      </trkpt>
      <trkpt lat="45.91617" lon="3.62331">
        <ele>669</ele>
        <time>2023-08-03T07:41:25Z</time>
      </trkpt>
      <trkpt lat="45.91619" lon="3.62329">
        <ele>669</ele>
        <time>2023-08-03T07:41:32Z</time>
      </trkpt>
      <trkpt lat="45.9162" lon="3.62332">
        <ele>669</ele>
        <time>2023-08-03T07:41:38Z</time>
      </trkpt>
      <trkpt lat="45.91614" lon="3.62331">
        <ele>669</ele>
        <time>2023-08-03T07:41:45Z</time>
      </trkpt>
      <trkpt lat="45.91613" lon="3.62332">
        <ele>669.2</ele>
        <time>2023-08-03T07:41:49Z</time>
      </trkpt>
      <trkpt lat="45.91614" lon="3.62332">
        <ele>669</ele>
        <time>2023-08-03T07:41:54Z</time>
      </trkpt>
      <trkpt lat="45.91618" lon="3.62334">
        <ele>669</ele>
        <time>2023-08-03T07:42:01Z</time>
      </trkpt>
      <trkpt lat="45.91622" lon="3.62333">
        <ele>669.2</ele>
        <time>2023-08-03T07:42:07Z</time>
      </trkpt>
      <trkpt lat="45.91627" lon="3.62336">
        <ele>669.2</ele>
        <time>2023-08-03T07:42:12Z</time>
      </trkpt>
      <trkpt lat="45.9163" lon="3.62329">
        <ele>669.2</ele>
        <time>2023-08-03T07:42:17Z</time>
      </trkpt>
      <trkpt lat="45.91629" lon="3.6233">
        <ele>669.2</ele>
        <time>2023-08-03T07:42:22Z</time>
      </trkpt>
      <trkpt lat="45.91634" lon="3.6233">
        <ele>669.4</ele>
        <time>2023-08-03T07:42:26Z</time>
      </trkpt>
      <trkpt lat="45.9163" lon="3.62333">
        <ele>669.2</ele>
        <time>2023-08-03T07:42:32Z</time>
      </trkpt>
      <trkpt lat="45.91627" lon="3.62339">
        <ele>669.2</ele>
        <time>2023-08-03T07:42:38Z</time>
      </trkpt>
      <trkpt lat="45.91628" lon="3.62342">
        <ele>669</ele>
        <time>2023-08-03T07:42:43Z</time>
      </trkpt>
      <trkpt lat="45.91627" lon="3.62345">
        <ele>668.8</ele>
        <time>2023-08-03T07:42:48Z</time>
      </trkpt>
      <trkpt lat="45.91627" lon="3.62349">
        <ele>668.6</ele>
        <time>2023-08-03T07:42:50Z</time>
      </trkpt>
      <trkpt lat="45.91626" lon="3.62351">
        <ele>668.6</ele>
        <time>2023-08-03T07:42:53Z</time>
      </trkpt>
      <trkpt lat="45.91624" lon="3.62358">
        <ele>668.6</ele>
        <time>2023-08-03T07:42:59Z</time>
      </trkpt>
      <trkpt lat="45.91623" lon="3.62368">
        <ele>668.4</ele>
        <time>2023-08-03T07:43:04Z</time>
      </trkpt>
      <trkpt lat="45.91622" lon="3.6237">
        <ele>668.2</ele>
        <time>2023-08-03T07:43:05Z</time>
      </trkpt>
      <trkpt lat="45.91623" lon="3.62373">
        <ele>668.2</ele>
        <time>2023-08-03T07:43:07Z</time>
      </trkpt>
      <trkpt lat="45.91625" lon="3.62376">
        <ele>668</ele>
        <time>2023-08-03T07:43:09Z</time>
      </trkpt>
      <trkpt lat="45.91626" lon="3.62379">
        <ele>668</ele>
        <time>2023-08-03T07:43:11Z</time>
      </trkpt>
      <trkpt lat="45.9163" lon="3.62388">
        <ele>667.6</ele>
        <time>2023-08-03T07:43:17Z</time>
      </trkpt>
      <trkpt lat="45.91634" lon="3.62394">
        <ele>667.4</ele>
        <time>2023-08-03T07:43:22Z</time>
      </trkpt>
      <trkpt lat="45.91636" lon="3.62397">
        <ele>667.2</ele>
        <time>2023-08-03T07:43:25Z</time>
      </trkpt>
      <trkpt lat="45.91635" lon="3.62401">
        <ele>667.2</ele>
        <time>2023-08-03T07:43:27Z</time>
      </trkpt>
      <trkpt lat="45.91633" lon="3.62403">
        <ele>667</ele>
        <time>2023-08-03T07:43:28Z</time>
      </trkpt>
      <trkpt lat="45.9163" lon="3.6241">
        <ele>666.4</ele>
        <time>2023-08-03T07:43:34Z</time>
      </trkpt>
      <trkpt lat="45.91626" lon="3.62416">
        <ele>666</ele>
        <time>2023-08-03T07:43:40Z</time>
      </trkpt>
      <trkpt lat="45.91626" lon="3.62418">
        <ele>666</ele>
        <time>2023-08-03T07:43:41Z</time>
      </trkpt>
      <trkpt lat="45.91622" lon="3.62422">
        <ele>665.6</ele>
        <time>2023-08-03T07:43:45Z</time>
      </trkpt>
      <trkpt lat="45.91616" lon="3.62425">
        <ele>665.2</ele>
        <time>2023-08-03T07:43:50Z</time>
      </trkpt>
      <trkpt lat="45.91615" lon="3.62431">
        <ele>664.8</ele>
        <time>2023-08-03T07:43:53Z</time>
      </trkpt>
      <trkpt lat="45.91613" lon="3.62435">
        <ele>664.8</ele>
        <time>2023-08-03T07:43:55Z</time>
      </trkpt>
      <trkpt lat="45.91604" lon="3.62443">
        <ele>664.6</ele>
        <time>2023-08-03T07:44:00Z</time>
      </trkpt>
      <trkpt lat="45.91603" lon="3.62443">
        <ele>664.6</ele>
        <time>2023-08-03T07:44:01Z</time>
      </trkpt>
      <trkpt lat="45.91601" lon="3.62445">
        <ele>664.4</ele>
        <time>2023-08-03T07:44:04Z</time>
      </trkpt>
      <trkpt lat="45.91597" lon="3.62449">
        <ele>664.4</ele>
        <time>2023-08-03T07:44:06Z</time>
      </trkpt>
      <trkpt lat="45.91595" lon="3.62453">
        <ele>664.4</ele>
        <time>2023-08-03T07:44:11Z</time>
      </trkpt>
      <trkpt lat="45.91594" lon="3.62454">
        <ele>664.4</ele>
        <time>2023-08-03T07:44:12Z</time>
      </trkpt>
      <trkpt lat="45.91594" lon="3.62454">
        <ele>664.4</ele>
        <time>2023-08-03T07:44:13Z</time>
      </trkpt>
      <trkpt lat="45.91593" lon="3.62456">
        <ele>664.4</ele>
        <time>2023-08-03T07:44:15Z</time>
      </trkpt>
      <trkpt lat="45.91593" lon="3.62457">
        <ele>664.2</ele>
        <time>2023-08-03T07:44:16Z</time>
      </trkpt>
      <trkpt lat="45.91587" lon="3.62464">
        <ele>664.2</ele>
        <time>2023-08-03T07:44:22Z</time>
      </trkpt>
      <trkpt lat="45.91584" lon="3.62471">
        <ele>664.4</ele>
        <time>2023-08-03T07:44:26Z</time>
      </trkpt>
      <trkpt lat="45.91583" lon="3.62475">
        <ele>664.4</ele>
        <time>2023-08-03T07:44:28Z</time>
      </trkpt>
      <trkpt lat="45.91585" lon="3.62479">
        <ele>664.6</ele>
        <time>2023-08-03T07:44:32Z</time>
      </trkpt>
      <trkpt lat="45.9159" lon="3.62487">
        <ele>664.6</ele>
        <time>2023-08-03T07:44:37Z</time>
      </trkpt>
      <trkpt lat="45.91594" lon="3.62492">
        <ele>664.6</ele>
        <time>2023-08-03T07:44:42Z</time>
      </trkpt>
      <trkpt lat="45.91598" lon="3.62498">
        <ele>664.6</ele>
        <time>2023-08-03T07:44:47Z</time>
      </trkpt>
      <trkpt lat="45.91594" lon="3.62508">
        <ele>664.4</ele>
        <time>2023-08-03T07:44:53Z</time>
      </trkpt>
      <trkpt lat="45.91596" lon="3.62517">
        <ele>664.4</ele>
        <time>2023-08-03T07:44:58Z</time>
      </trkpt>
      <trkpt lat="45.9159" lon="3.6252">
        <ele>664</ele>
        <time>2023-08-03T07:45:02Z</time>
      </trkpt>
      <trkpt lat="45.91586" lon="3.62524">
        <ele>664</ele>
        <time>2023-08-03T07:45:07Z</time>
      </trkpt>
      <trkpt lat="45.91584" lon="3.62525">
        <ele>664</ele>
        <time>2023-08-03T07:45:08Z</time>
      </trkpt>
      <trkpt lat="45.91582" lon="3.62521">
        <ele>664</ele>
        <time>2023-08-03T07:45:10Z</time>
      </trkpt>
      <trkpt lat="45.9158" lon="3.62523">
        <ele>664</ele>
        <time>2023-08-03T07:45:12Z</time>
      </trkpt>
      <trkpt lat="45.91577" lon="3.62524">
        <ele>664</ele>
        <time>2023-08-03T07:45:15Z</time>
      </trkpt>
      <trkpt lat="45.91575" lon="3.62525">
        <ele>664</ele>
        <time>2023-08-03T07:45:17Z</time>
      </trkpt>
      <trkpt lat="45.91565" lon="3.62533">
        <ele>664.6</ele>
        <time>2023-08-03T07:45:25Z</time>
      </trkpt>
      <trkpt lat="45.91562" lon="3.62535">
        <ele>664.8</ele>
        <time>2023-08-03T07:45:28Z</time>
      </trkpt>
      <trkpt lat="45.9156" lon="3.62537">
        <ele>665</ele>
        <time>2023-08-03T07:45:30Z</time>
      </trkpt>
      <trkpt lat="45.91558" lon="3.62539">
        <ele>665</ele>
        <time>2023-08-03T07:45:31Z</time>
      </trkpt>
      <trkpt lat="45.91552" lon="3.62543">
        <ele>665.6</ele>
        <time>2023-08-03T07:45:37Z</time>
      </trkpt>
      <trkpt lat="45.9155" lon="3.62546">
        <ele>665.6</ele>
        <time>2023-08-03T07:45:39Z</time>
      </trkpt>
      <trkpt lat="45.91548" lon="3.62549">
        <ele>666</ele>
        <time>2023-08-03T07:45:41Z</time>
      </trkpt>
      <trkpt lat="45.91547" lon="3.62551">
        <ele>666.2</ele>
        <time>2023-08-03T07:45:43Z</time>
      </trkpt>
      <trkpt lat="45.9154" lon="3.62554">
        <ele>667</ele>
        <time>2023-08-03T07:45:49Z</time>
      </trkpt>
      <trkpt lat="45.9154" lon="3.62556">
        <ele>667.2</ele>
        <time>2023-08-03T07:45:50Z</time>
      </trkpt>
      <trkpt lat="45.91538" lon="3.62557">
        <ele>668</ele>
        <time>2023-08-03T07:45:57Z</time>
      </trkpt>
      <trkpt lat="45.91541" lon="3.62556">
        <ele>668.6</ele>
        <time>2023-08-03T07:46:04Z</time>
      </trkpt>
      <trkpt lat="45.91542" lon="3.62556">
        <ele>668.8</ele>
        <time>2023-08-03T07:46:09Z</time>
      </trkpt>
      <trkpt lat="45.91539" lon="3.62555">
        <ele>668.8</ele>
        <time>2023-08-03T07:46:11Z</time>
      </trkpt>
      <trkpt lat="45.91536" lon="3.62553">
        <ele>668.8</ele>
        <time>2023-08-03T07:46:15Z</time>
      </trkpt>
      <trkpt lat="45.91533" lon="3.62553">
        <ele>668.8</ele>
        <time>2023-08-03T07:46:24Z</time>
      </trkpt>
      <trkpt lat="45.91527" lon="3.62555">
        <ele>669</ele>
        <time>2023-08-03T07:46:30Z</time>
      </trkpt>
      <trkpt lat="45.91524" lon="3.62556">
        <ele>669.2</ele>
        <time>2023-08-03T07:46:33Z</time>
      </trkpt>
      <trkpt lat="45.91521" lon="3.62557">
        <ele>669.6</ele>
        <time>2023-08-03T07:46:37Z</time>
      </trkpt>
      <trkpt lat="45.91517" lon="3.62559">
        <ele>670.2</ele>
        <time>2023-08-03T07:46:41Z</time>
      </trkpt>
      <trkpt lat="45.91515" lon="3.6256">
        <ele>670.4</ele>
        <time>2023-08-03T07:46:43Z</time>
      </trkpt>
      <trkpt lat="45.91511" lon="3.6256">
        <ele>671</ele>
        <time>2023-08-03T07:46:47Z</time>
      </trkpt>
      <trkpt lat="45.91507" lon="3.62561">
        <ele>671.4</ele>
        <time>2023-08-03T07:46:50Z</time>
      </trkpt>
      <trkpt lat="45.91506" lon="3.62561">
        <ele>671.6</ele>
        <time>2023-08-03T07:46:51Z</time>
      </trkpt>
      <trkpt lat="45.91502" lon="3.62563">
        <ele>672.4</ele>
        <time>2023-08-03T07:46:57Z</time>
      </trkpt>
      <trkpt lat="45.91499" lon="3.62566">
        <ele>673.2</ele>
        <time>2023-08-03T07:47:02Z</time>
      </trkpt>
      <trkpt lat="45.91498" lon="3.62568">
        <ele>673.6</ele>
        <time>2023-08-03T07:47:04Z</time>
      </trkpt>
      <trkpt lat="45.91496" lon="3.62569">
        <ele>673.6</ele>
        <time>2023-08-03T07:47:05Z</time>
      </trkpt>
      <trkpt lat="45.91493" lon="3.62571">
        <ele>674</ele>
        <time>2023-08-03T07:47:08Z</time>
      </trkpt>
      <trkpt lat="45.91492" lon="3.62575">
        <ele>674.6</ele>
        <time>2023-08-03T07:47:12Z</time>
      </trkpt>
      <trkpt lat="45.9149" lon="3.62581">
        <ele>675</ele>
        <time>2023-08-03T07:47:17Z</time>
      </trkpt>
      <trkpt lat="45.9149" lon="3.62581">
        <ele>675.2</ele>
        <time>2023-08-03T07:47:18Z</time>
      </trkpt>
      <trkpt lat="45.9149" lon="3.62587">
        <ele>675.6</ele>
        <time>2023-08-03T07:47:21Z</time>
      </trkpt>
      <trkpt lat="45.91489" lon="3.62588">
        <ele>675.8</ele>
        <time>2023-08-03T07:47:22Z</time>
      </trkpt>
      <trkpt lat="45.91489" lon="3.62589">
        <ele>676</ele>
        <time>2023-08-03T07:47:23Z</time>
      </trkpt>
      <trkpt lat="45.91486" lon="3.62594">
        <ele>676.4</ele>
        <time>2023-08-03T07:47:27Z</time>
      </trkpt>
      <trkpt lat="45.91485" lon="3.62597">
        <ele>676.8</ele>
        <time>2023-08-03T07:47:30Z</time>
      </trkpt>
      <trkpt lat="45.91484" lon="3.626">
        <ele>677</ele>
        <time>2023-08-03T07:47:32Z</time>
      </trkpt>
      <trkpt lat="45.91484" lon="3.62605">
        <ele>677.8</ele>
        <time>2023-08-03T07:47:38Z</time>
      </trkpt>
      <trkpt lat="45.91483" lon="3.62606">
        <ele>677.8</ele>
        <time>2023-08-03T07:47:39Z</time>
      </trkpt>
      <trkpt lat="45.91481" lon="3.62613">
        <ele>678.6</ele>
        <time>2023-08-03T07:47:44Z</time>
      </trkpt>
      <trkpt lat="45.9148" lon="3.62614">
        <ele>678.8</ele>
        <time>2023-08-03T07:47:45Z</time>
      </trkpt>
      <trkpt lat="45.91479" lon="3.62615">
        <ele>679</ele>
        <time>2023-08-03T07:47:46Z</time>
      </trkpt>
      <trkpt lat="45.91479" lon="3.62616">
        <ele>679</ele>
        <time>2023-08-03T07:47:47Z</time>
      </trkpt>
      <trkpt lat="45.91476" lon="3.62621">
        <ele>679.8</ele>
        <time>2023-08-03T07:47:52Z</time>
      </trkpt>
      <trkpt lat="45.91476" lon="3.62622">
        <ele>680</ele>
        <time>2023-08-03T07:47:53Z</time>
      </trkpt>
      <trkpt lat="45.91474" lon="3.62628">
        <ele>680.6</ele>
        <time>2023-08-03T07:47:58Z</time>
      </trkpt>
      <trkpt lat="45.91472" lon="3.62631">
        <ele>681</ele>
        <time>2023-08-03T07:48:01Z</time>
      </trkpt>
      <trkpt lat="45.91469" lon="3.62635">
        <ele>681.8</ele>
        <time>2023-08-03T07:48:06Z</time>
      </trkpt>
      <trkpt lat="45.91468" lon="3.62637">
        <ele>682.2</ele>
        <time>2023-08-03T07:48:08Z</time>
      </trkpt>
      <trkpt lat="45.91468" lon="3.62641">
        <ele>683</ele>
        <time>2023-08-03T07:48:12Z</time>
      </trkpt>
      <trkpt lat="45.91467" lon="3.62642">
        <ele>683.6</ele>
        <time>2023-08-03T07:48:14Z</time>
      </trkpt>
      <trkpt lat="45.91466" lon="3.62646">
        <ele>684.2</ele>
        <time>2023-08-03T07:48:18Z</time>
      </trkpt>
      <trkpt lat="45.91464" lon="3.6265">
        <ele>684.6</ele>
        <time>2023-08-03T07:48:22Z</time>
      </trkpt>
      <trkpt lat="45.9146" lon="3.62654">
        <ele>685.2</ele>
        <time>2023-08-03T07:48:27Z</time>
      </trkpt>
      <trkpt lat="45.91458" lon="3.62658">
        <ele>685.6</ele>
        <time>2023-08-03T07:48:30Z</time>
      </trkpt>
      <trkpt lat="45.91457" lon="3.62661">
        <ele>686</ele>
        <time>2023-08-03T07:48:33Z</time>
      </trkpt>
      <trkpt lat="45.91455" lon="3.62667">
        <ele>686.8</ele>
        <time>2023-08-03T07:48:37Z</time>
      </trkpt>
      <trkpt lat="45.91453" lon="3.62671">
        <ele>687</ele>
        <time>2023-08-03T07:48:40Z</time>
      </trkpt>
      <trkpt lat="45.91449" lon="3.62677">
        <ele>687.8</ele>
        <time>2023-08-03T07:48:47Z</time>
      </trkpt>
      <trkpt lat="45.91448" lon="3.62678">
        <ele>688.2</ele>
        <time>2023-08-03T07:48:48Z</time>
      </trkpt>
      <trkpt lat="45.91444" lon="3.62684">
        <ele>689.2</ele>
        <time>2023-08-03T07:48:54Z</time>
      </trkpt>
      <trkpt lat="45.91444" lon="3.62685">
        <ele>689.2</ele>
        <time>2023-08-03T07:48:55Z</time>
      </trkpt>
      <trkpt lat="45.91441" lon="3.6269">
        <ele>690.2</ele>
        <time>2023-08-03T07:49:01Z</time>
      </trkpt>
      <trkpt lat="45.91438" lon="3.62694">
        <ele>690.8</ele>
        <time>2023-08-03T07:49:05Z</time>
      </trkpt>
      <trkpt lat="45.91436" lon="3.62698">
        <ele>691</ele>
        <time>2023-08-03T07:49:08Z</time>
      </trkpt>
      <trkpt lat="45.91436" lon="3.62699">
        <ele>691.2</ele>
        <time>2023-08-03T07:49:09Z</time>
      </trkpt>
      <trkpt lat="45.91434" lon="3.62704">
        <ele>691.8</ele>
        <time>2023-08-03T07:49:13Z</time>
      </trkpt>
      <trkpt lat="45.91431" lon="3.62708">
        <ele>692.4</ele>
        <time>2023-08-03T07:49:18Z</time>
      </trkpt>
      <trkpt lat="45.91431" lon="3.62709">
        <ele>692.6</ele>
        <time>2023-08-03T07:49:19Z</time>
      </trkpt>
      <trkpt lat="45.91431" lon="3.6271">
        <ele>692.6</ele>
        <time>2023-08-03T07:49:20Z</time>
      </trkpt>
      <trkpt lat="45.91429" lon="3.62712">
        <ele>693</ele>
        <time>2023-08-03T07:49:23Z</time>
      </trkpt>
      <trkpt lat="45.91426" lon="3.62715">
        <ele>693.4</ele>
        <time>2023-08-03T07:49:26Z</time>
      </trkpt>
      <trkpt lat="45.91424" lon="3.62717">
        <ele>693.8</ele>
        <time>2023-08-03T07:49:29Z</time>
      </trkpt>
      <trkpt lat="45.91422" lon="3.6272">
        <ele>694.4</ele>
        <time>2023-08-03T07:49:33Z</time>
      </trkpt>
      <trkpt lat="45.91421" lon="3.62721">
        <ele>694.6</ele>
        <time>2023-08-03T07:49:34Z</time>
      </trkpt>
      <trkpt lat="45.9142" lon="3.62722">
        <ele>694.8</ele>
        <time>2023-08-03T07:49:35Z</time>
      </trkpt>
      <trkpt lat="45.91418" lon="3.62724">
        <ele>695</ele>
        <time>2023-08-03T07:49:37Z</time>
      </trkpt>
      <trkpt lat="45.91417" lon="3.62725">
        <ele>695.2</ele>
        <time>2023-08-03T07:49:39Z</time>
      </trkpt>
      <trkpt lat="45.91414" lon="3.62728">
        <ele>695.8</ele>
        <time>2023-08-03T07:49:44Z</time>
      </trkpt>
      <trkpt lat="45.91413" lon="3.62728">
        <ele>696.2</ele>
        <time>2023-08-03T07:49:46Z</time>
      </trkpt>
      <trkpt lat="45.91406" lon="3.62731">
        <ele>697</ele>
        <time>2023-08-03T07:49:53Z</time>
      </trkpt>
      <trkpt lat="45.91401" lon="3.62734">
        <ele>697.8</ele>
        <time>2023-08-03T07:50:00Z</time>
      </trkpt>
      <trkpt lat="45.91398" lon="3.62737">
        <ele>698.2</ele>
        <time>2023-08-03T07:50:03Z</time>
      </trkpt>
      <trkpt lat="45.91398" lon="3.62739">
        <ele>698.2</ele>
        <time>2023-08-03T07:50:04Z</time>
      </trkpt>
      <trkpt lat="45.91396" lon="3.62741">
        <ele>698.4</ele>
        <time>2023-08-03T07:50:06Z</time>
      </trkpt>
      <trkpt lat="45.91394" lon="3.62743">
        <ele>698.8</ele>
        <time>2023-08-03T07:50:10Z</time>
      </trkpt>
      <trkpt lat="45.9139" lon="3.62745">
        <ele>699.2</ele>
        <time>2023-08-03T07:50:14Z</time>
      </trkpt>
      <trkpt lat="45.91388" lon="3.62747">
        <ele>699.4</ele>
        <time>2023-08-03T07:50:16Z</time>
      </trkpt>
      <trkpt lat="45.91384" lon="3.62751">
        <ele>700</ele>
        <time>2023-08-03T07:50:22Z</time>
      </trkpt>
      <trkpt lat="45.91383" lon="3.62752">
        <ele>700.2</ele>
        <time>2023-08-03T07:50:24Z</time>
      </trkpt>
      <trkpt lat="45.91383" lon="3.62752">
        <ele>700.4</ele>
        <time>2023-08-03T07:50:25Z</time>
      </trkpt>
      <trkpt lat="45.91381" lon="3.62754">
        <ele>700.6</ele>
        <time>2023-08-03T07:50:27Z</time>
      </trkpt>
      <trkpt lat="45.91378" lon="3.62759">
        <ele>701.2</ele>
        <time>2023-08-03T07:50:32Z</time>
      </trkpt>
      <trkpt lat="45.91377" lon="3.62759">
        <ele>701.2</ele>
        <time>2023-08-03T07:50:33Z</time>
      </trkpt>
      <trkpt lat="45.91373" lon="3.62764">
        <ele>701.6</ele>
        <time>2023-08-03T07:50:37Z</time>
      </trkpt>
      <trkpt lat="45.91372" lon="3.62765">
        <ele>701.6</ele>
        <time>2023-08-03T07:50:38Z</time>
      </trkpt>
      <trkpt lat="45.91367" lon="3.6277">
        <ele>702.2</ele>
        <time>2023-08-03T07:50:45Z</time>
      </trkpt>
      <trkpt lat="45.91366" lon="3.62771">
        <ele>702.4</ele>
        <time>2023-08-03T07:50:46Z</time>
      </trkpt>
      <trkpt lat="45.91365" lon="3.62771">
        <ele>702.6</ele>
        <time>2023-08-03T07:50:47Z</time>
      </trkpt>
      <trkpt lat="45.91361" lon="3.62774">
        <ele>703.2</ele>
        <time>2023-08-03T07:50:53Z</time>
      </trkpt>
      <trkpt lat="45.91357" lon="3.62777">
        <ele>703.6</ele>
        <time>2023-08-03T07:50:58Z</time>
      </trkpt>
      <trkpt lat="45.9135" lon="3.62781">
        <ele>704.2</ele>
        <time>2023-08-03T07:51:05Z</time>
      </trkpt>
      <trkpt lat="45.91346" lon="3.62784">
        <ele>704.6</ele>
        <time>2023-08-03T07:51:11Z</time>
      </trkpt>
      <trkpt lat="45.91345" lon="3.62785">
        <ele>704.6</ele>
        <time>2023-08-03T07:51:12Z</time>
      </trkpt>
      <trkpt lat="45.91339" lon="3.62788">
        <ele>704.8</ele>
        <time>2023-08-03T07:51:17Z</time>
      </trkpt>
      <trkpt lat="45.91338" lon="3.62789">
        <ele>704.8</ele>
        <time>2023-08-03T07:51:18Z</time>
      </trkpt>
      <trkpt lat="45.91334" lon="3.62793">
        <ele>705.4</ele>
        <time>2023-08-03T07:51:23Z</time>
      </trkpt>
      <trkpt lat="45.9133" lon="3.62795">
        <ele>705.8</ele>
        <time>2023-08-03T07:51:27Z</time>
      </trkpt>
      <trkpt lat="45.91327" lon="3.62797">
        <ele>706.2</ele>
        <time>2023-08-03T07:51:30Z</time>
      </trkpt>
      <trkpt lat="45.91323" lon="3.62801">
        <ele>706.6</ele>
        <time>2023-08-03T07:51:36Z</time>
      </trkpt>
      <trkpt lat="45.91321" lon="3.62804">
        <ele>706.8</ele>
        <time>2023-08-03T07:51:38Z</time>
      </trkpt>
      <trkpt lat="45.91316" lon="3.62812">
        <ele>707.4</ele>
        <time>2023-08-03T07:51:43Z</time>
      </trkpt>
      <trkpt lat="45.91315" lon="3.62819">
        <ele>708</ele>
        <time>2023-08-03T07:51:47Z</time>
      </trkpt>
      <trkpt lat="45.91317" lon="3.62822">
        <ele>708.2</ele>
        <time>2023-08-03T07:51:49Z</time>
      </trkpt>
      <trkpt lat="45.91318" lon="3.62828">
        <ele>708.6</ele>
        <time>2023-08-03T07:51:53Z</time>
      </trkpt>
      <trkpt lat="45.91319" lon="3.62829">
        <ele>708.6</ele>
        <time>2023-08-03T07:51:54Z</time>
      </trkpt>
      <trkpt lat="45.9132" lon="3.62835">
        <ele>708.8</ele>
        <time>2023-08-03T07:51:57Z</time>
      </trkpt>
      <trkpt lat="45.9132" lon="3.62837">
        <ele>708.8</ele>
        <time>2023-08-03T07:51:58Z</time>
      </trkpt>
      <trkpt lat="45.91321" lon="3.62839">
        <ele>708.8</ele>
        <time>2023-08-03T07:51:59Z</time>
      </trkpt>
      <trkpt lat="45.91324" lon="3.62842">
        <ele>708.8</ele>
        <time>2023-08-03T07:52:02Z</time>
      </trkpt>
      <trkpt lat="45.91324" lon="3.62843">
        <ele>708.8</ele>
        <time>2023-08-03T07:52:03Z</time>
      </trkpt>
      <trkpt lat="45.91324" lon="3.62846">
        <ele>708.8</ele>
        <time>2023-08-03T07:52:05Z</time>
      </trkpt>
      <trkpt lat="45.91327" lon="3.62851">
        <ele>708.6</ele>
        <time>2023-08-03T07:52:08Z</time>
      </trkpt>
      <trkpt lat="45.91332" lon="3.62861">
        <ele>708.2</ele>
        <time>2023-08-03T07:52:15Z</time>
      </trkpt>
      <trkpt lat="45.91332" lon="3.62862">
        <ele>708.2</ele>
        <time>2023-08-03T07:52:16Z</time>
      </trkpt>
      <trkpt lat="45.91332" lon="3.62867">
        <ele>708</ele>
        <time>2023-08-03T07:52:20Z</time>
      </trkpt>
      <trkpt lat="45.91333" lon="3.6287">
        <ele>707.8</ele>
        <time>2023-08-03T07:52:22Z</time>
      </trkpt>
      <trkpt lat="45.91335" lon="3.62875">
        <ele>707.6</ele>
        <time>2023-08-03T07:52:25Z</time>
      </trkpt>
      <trkpt lat="45.91336" lon="3.62881">
        <ele>707.4</ele>
        <time>2023-08-03T07:52:29Z</time>
      </trkpt>
      <trkpt lat="45.91336" lon="3.62883">
        <ele>707.4</ele>
        <time>2023-08-03T07:52:30Z</time>
      </trkpt>
      <trkpt lat="45.91335" lon="3.62887">
        <ele>707.2</ele>
        <time>2023-08-03T07:52:33Z</time>
      </trkpt>
      <trkpt lat="45.91335" lon="3.62888">
        <ele>707.2</ele>
        <time>2023-08-03T07:52:34Z</time>
      </trkpt>
      <trkpt lat="45.91335" lon="3.62889">
        <ele>707.2</ele>
        <time>2023-08-03T07:52:35Z</time>
      </trkpt>
      <trkpt lat="45.91338" lon="3.62896">
        <ele>707</ele>
        <time>2023-08-03T07:52:40Z</time>
      </trkpt>
      <trkpt lat="45.91338" lon="3.62898">
        <ele>706.8</ele>
        <time>2023-08-03T07:52:41Z</time>
      </trkpt>
      <trkpt lat="45.91338" lon="3.629">
        <ele>706.8</ele>
        <time>2023-08-03T07:52:43Z</time>
      </trkpt>
      <trkpt lat="45.91339" lon="3.62904">
        <ele>706.8</ele>
        <time>2023-08-03T07:52:45Z</time>
      </trkpt>
      <trkpt lat="45.91339" lon="3.62915">
        <ele>706.4</ele>
        <time>2023-08-03T07:52:51Z</time>
      </trkpt>
      <trkpt lat="45.91339" lon="3.62918">
        <ele>706.4</ele>
        <time>2023-08-03T07:52:52Z</time>
      </trkpt>
      <trkpt lat="45.9134" lon="3.6292">
        <ele>706.4</ele>
        <time>2023-08-03T07:52:53Z</time>
      </trkpt>
      <trkpt lat="45.9134" lon="3.62926">
        <ele>706.2</ele>
        <time>2023-08-03T07:52:56Z</time>
      </trkpt>
      <trkpt lat="45.9134" lon="3.6293">
        <ele>706.2</ele>
        <time>2023-08-03T07:52:59Z</time>
      </trkpt>
      <trkpt lat="45.9134" lon="3.62934">
        <ele>706</ele>
        <time>2023-08-03T07:53:01Z</time>
      </trkpt>
      <trkpt lat="45.9134" lon="3.62938">
        <ele>705.8</ele>
        <time>2023-08-03T07:53:03Z</time>
      </trkpt>
      <trkpt lat="45.9134" lon="3.62947">
        <ele>705.4</ele>
        <time>2023-08-03T07:53:08Z</time>
      </trkpt>
      <trkpt lat="45.9134" lon="3.62949">
        <ele>705.2</ele>
        <time>2023-08-03T07:53:09Z</time>
      </trkpt>
      <trkpt lat="45.9134" lon="3.62958">
        <ele>704.8</ele>
        <time>2023-08-03T07:53:14Z</time>
      </trkpt>
      <trkpt lat="45.9134" lon="3.6296">
        <ele>704.8</ele>
        <time>2023-08-03T07:53:15Z</time>
      </trkpt>
      <trkpt lat="45.9134" lon="3.62962">
        <ele>704.8</ele>
        <time>2023-08-03T07:53:16Z</time>
      </trkpt>
      <trkpt lat="45.91341" lon="3.62966">
        <ele>704.6</ele>
        <time>2023-08-03T07:53:18Z</time>
      </trkpt>
      <trkpt lat="45.91342" lon="3.6297">
        <ele>704.4</ele>
        <time>2023-08-03T07:53:20Z</time>
      </trkpt>
      <trkpt lat="45.91343" lon="3.62974">
        <ele>704.2</ele>
        <time>2023-08-03T07:53:22Z</time>
      </trkpt>
      <trkpt lat="45.91344" lon="3.62978">
        <ele>704</ele>
        <time>2023-08-03T07:53:25Z</time>
      </trkpt>
      <trkpt lat="45.91345" lon="3.62982">
        <ele>703.8</ele>
        <time>2023-08-03T07:53:27Z</time>
      </trkpt>
      <trkpt lat="45.91346" lon="3.62987">
        <ele>703.6</ele>
        <time>2023-08-03T07:53:30Z</time>
      </trkpt>
      <trkpt lat="45.91346" lon="3.62989">
        <ele>703.4</ele>
        <time>2023-08-03T07:53:31Z</time>
      </trkpt>
      <trkpt lat="45.91346" lon="3.62991">
        <ele>703.4</ele>
        <time>2023-08-03T07:53:32Z</time>
      </trkpt>
      <trkpt lat="45.9135" lon="3.62998">
        <ele>703.2</ele>
        <time>2023-08-03T07:53:36Z</time>
      </trkpt>
      <trkpt lat="45.91355" lon="3.63007">
        <ele>703</ele>
        <time>2023-08-03T07:53:42Z</time>
      </trkpt>
      <trkpt lat="45.91355" lon="3.63011">
        <ele>703</ele>
        <time>2023-08-03T07:53:44Z</time>
      </trkpt>
      <trkpt lat="45.91356" lon="3.63014">
        <ele>703</ele>
        <time>2023-08-03T07:53:46Z</time>
      </trkpt>
      <trkpt lat="45.91359" lon="3.63019">
        <ele>702.8</ele>
        <time>2023-08-03T07:53:49Z</time>
      </trkpt>
      <trkpt lat="45.91359" lon="3.6302">
        <ele>702.8</ele>
        <time>2023-08-03T07:53:50Z</time>
      </trkpt>
      <trkpt lat="45.9136" lon="3.6303">
        <ele>702.6</ele>
        <time>2023-08-03T07:53:55Z</time>
      </trkpt>
      <trkpt lat="45.91361" lon="3.63034">
        <ele>702.6</ele>
        <time>2023-08-03T07:53:57Z</time>
      </trkpt>
      <trkpt lat="45.9136" lon="3.63038">
        <ele>702.4</ele>
        <time>2023-08-03T07:53:59Z</time>
      </trkpt>
      <trkpt lat="45.91362" lon="3.63044">
        <ele>702.4</ele>
        <time>2023-08-03T07:54:02Z</time>
      </trkpt>
      <trkpt lat="45.91362" lon="3.63052">
        <ele>702.2</ele>
        <time>2023-08-03T07:54:06Z</time>
      </trkpt>
      <trkpt lat="45.91361" lon="3.63055">
        <ele>702.2</ele>
        <time>2023-08-03T07:54:08Z</time>
      </trkpt>
      <trkpt lat="45.91361" lon="3.63057">
        <ele>702</ele>
        <time>2023-08-03T07:54:09Z</time>
      </trkpt>
      <trkpt lat="45.91362" lon="3.63063">
        <ele>702</ele>
        <time>2023-08-03T07:54:13Z</time>
      </trkpt>
      <trkpt lat="45.91361" lon="3.63068">
        <ele>701.8</ele>
        <time>2023-08-03T07:54:16Z</time>
      </trkpt>
      <trkpt lat="45.91361" lon="3.6307">
        <ele>701.8</ele>
        <time>2023-08-03T07:54:17Z</time>
      </trkpt>
      <trkpt lat="45.9136" lon="3.63076">
        <ele>701.6</ele>
        <time>2023-08-03T07:54:21Z</time>
      </trkpt>
      <trkpt lat="45.91357" lon="3.63083">
        <ele>701.4</ele>
        <time>2023-08-03T07:54:26Z</time>
      </trkpt>
      <trkpt lat="45.91352" lon="3.63091">
        <ele>701</ele>
        <time>2023-08-03T07:54:32Z</time>
      </trkpt>
      <trkpt lat="45.91351" lon="3.63092">
        <ele>701</ele>
        <time>2023-08-03T07:54:33Z</time>
      </trkpt>
      <trkpt lat="45.91347" lon="3.63096">
        <ele>701</ele>
        <time>2023-08-03T07:54:36Z</time>
      </trkpt>
      <trkpt lat="45.91339" lon="3.63106">
        <ele>700.4</ele>
        <time>2023-08-03T07:54:43Z</time>
      </trkpt>
      <trkpt lat="45.91334" lon="3.63117">
        <ele>699.8</ele>
        <time>2023-08-03T07:54:48Z</time>
      </trkpt>
      <trkpt lat="45.91333" lon="3.63121">
        <ele>699.6</ele>
        <time>2023-08-03T07:54:50Z</time>
      </trkpt>
      <trkpt lat="45.91333" lon="3.63122">
        <ele>699.6</ele>
        <time>2023-08-03T07:54:51Z</time>
      </trkpt>
      <trkpt lat="45.91334" lon="3.63124">
        <ele>699.4</ele>
        <time>2023-08-03T07:54:53Z</time>
      </trkpt>
      <trkpt lat="45.91333" lon="3.63127">
        <ele>699.2</ele>
        <time>2023-08-03T07:54:55Z</time>
      </trkpt>
      <trkpt lat="45.91332" lon="3.63131">
        <ele>699</ele>
        <time>2023-08-03T07:54:57Z</time>
      </trkpt>
      <trkpt lat="45.91332" lon="3.63137">
        <ele>698.8</ele>
        <time>2023-08-03T07:55:01Z</time>
      </trkpt>
      <trkpt lat="45.91332" lon="3.63139">
        <ele>698.8</ele>
        <time>2023-08-03T07:55:02Z</time>
      </trkpt>
      <trkpt lat="45.91332" lon="3.63143">
        <ele>698.6</ele>
        <time>2023-08-03T07:55:04Z</time>
      </trkpt>
      <trkpt lat="45.91334" lon="3.63146">
        <ele>698.6</ele>
        <time>2023-08-03T07:55:06Z</time>
      </trkpt>
      <trkpt lat="45.91336" lon="3.63151">
        <ele>698.4</ele>
        <time>2023-08-03T07:55:09Z</time>
      </trkpt>
      <trkpt lat="45.91336" lon="3.63152">
        <ele>698.4</ele>
        <time>2023-08-03T07:55:10Z</time>
      </trkpt>
      <trkpt lat="45.91339" lon="3.63158">
        <ele>698.2</ele>
        <time>2023-08-03T07:55:15Z</time>
      </trkpt>
      <trkpt lat="45.9134" lon="3.6316">
        <ele>698</ele>
        <time>2023-08-03T07:55:17Z</time>
      </trkpt>
      <trkpt lat="45.91341" lon="3.63162">
        <ele>698</ele>
        <time>2023-08-03T07:55:18Z</time>
      </trkpt>
      <trkpt lat="45.91344" lon="3.63165">
        <ele>698</ele>
        <time>2023-08-03T07:55:20Z</time>
      </trkpt>
      <trkpt lat="45.91348" lon="3.63168">
        <ele>698</ele>
        <time>2023-08-03T07:55:23Z</time>
      </trkpt>
      <trkpt lat="45.91349" lon="3.63169">
        <ele>697.8</ele>
        <time>2023-08-03T07:55:25Z</time>
      </trkpt>
      <trkpt lat="45.91352" lon="3.63168">
        <ele>697.8</ele>
        <time>2023-08-03T07:55:28Z</time>
      </trkpt>
      <trkpt lat="45.91355" lon="3.63167">
        <ele>697.8</ele>
        <time>2023-08-03T07:55:30Z</time>
      </trkpt>
      <trkpt lat="45.91356" lon="3.63167">
        <ele>697.8</ele>
        <time>2023-08-03T07:55:31Z</time>
      </trkpt>
      <trkpt lat="45.9136" lon="3.63163">
        <ele>697.6</ele>
        <time>2023-08-03T07:55:35Z</time>
      </trkpt>
      <trkpt lat="45.91361" lon="3.63163">
        <ele>697.6</ele>
        <time>2023-08-03T07:55:36Z</time>
      </trkpt>
      <trkpt lat="45.91364" lon="3.6316">
        <ele>697.6</ele>
        <time>2023-08-03T07:55:39Z</time>
      </trkpt>
      <trkpt lat="45.91368" lon="3.63158">
        <ele>697.4</ele>
        <time>2023-08-03T07:55:42Z</time>
      </trkpt>
      <trkpt lat="45.91371" lon="3.63151">
        <ele>697.4</ele>
        <time>2023-08-03T07:55:49Z</time>
      </trkpt>
      <trkpt lat="45.91376" lon="3.6315">
        <ele>697.2</ele>
        <time>2023-08-03T07:55:53Z</time>
      </trkpt>
      <trkpt lat="45.91378" lon="3.63149">
        <ele>697</ele>
        <time>2023-08-03T07:55:55Z</time>
      </trkpt>
      <trkpt lat="45.91381" lon="3.63149">
        <ele>697</ele>
        <time>2023-08-03T07:55:58Z</time>
      </trkpt>
      <trkpt lat="45.91385" lon="3.63148">
        <ele>696.8</ele>
        <time>2023-08-03T07:56:01Z</time>
      </trkpt>
      <trkpt lat="45.91387" lon="3.63146">
        <ele>696.8</ele>
        <time>2023-08-03T07:56:03Z</time>
      </trkpt>
      <trkpt lat="45.91397" lon="3.63141">
        <ele>696.6</ele>
        <time>2023-08-03T07:56:09Z</time>
      </trkpt>
      <trkpt lat="45.91406" lon="3.63139">
        <ele>696.4</ele>
        <time>2023-08-03T07:56:16Z</time>
      </trkpt>
      <trkpt lat="45.9141" lon="3.63137">
        <ele>696.2</ele>
        <time>2023-08-03T07:56:19Z</time>
      </trkpt>
      <trkpt lat="45.91415" lon="3.63133">
        <ele>696.2</ele>
        <time>2023-08-03T07:56:22Z</time>
      </trkpt>
      <trkpt lat="45.91421" lon="3.6313">
        <ele>695.8</ele>
        <time>2023-08-03T07:56:26Z</time>
      </trkpt>
      <trkpt lat="45.91425" lon="3.63129">
        <ele>695.4</ele>
        <time>2023-08-03T07:56:31Z</time>
      </trkpt>
      <trkpt lat="45.91431" lon="3.63126">
        <ele>695.2</ele>
        <time>2023-08-03T07:56:36Z</time>
      </trkpt>
      <trkpt lat="45.91433" lon="3.63125">
        <ele>695.2</ele>
        <time>2023-08-03T07:56:38Z</time>
      </trkpt>
      <trkpt lat="45.91446" lon="3.63119">
        <ele>694.8</ele>
        <time>2023-08-03T07:56:49Z</time>
      </trkpt>
      <trkpt lat="45.91454" lon="3.63111">
        <ele>694.4</ele>
        <time>2023-08-03T07:57:00Z</time>
      </trkpt>
      <trkpt lat="45.91459" lon="3.63101">
        <ele>694.2</ele>
        <time>2023-08-03T07:57:07Z</time>
      </trkpt>
      <trkpt lat="45.91466" lon="3.63092">
        <ele>694</ele>
        <time>2023-08-03T07:57:15Z</time>
      </trkpt>
      <trkpt lat="45.91468" lon="3.63088">
        <ele>693.8</ele>
        <time>2023-08-03T07:57:18Z</time>
      </trkpt>
      <trkpt lat="45.9147" lon="3.63084">
        <ele>693.8</ele>
        <time>2023-08-03T07:57:21Z</time>
      </trkpt>
      <trkpt lat="45.91473" lon="3.63075">
        <ele>693.6</ele>
        <time>2023-08-03T07:57:27Z</time>
      </trkpt>
      <trkpt lat="45.91478" lon="3.63064">
        <ele>693.4</ele>
        <time>2023-08-03T07:57:35Z</time>
      </trkpt>
      <trkpt lat="45.9148" lon="3.6306">
        <ele>693.2</ele>
        <time>2023-08-03T07:57:38Z</time>
      </trkpt>
      <trkpt lat="45.91482" lon="3.63057">
        <ele>693.2</ele>
        <time>2023-08-03T07:57:40Z</time>
      </trkpt>
      <trkpt lat="45.91483" lon="3.63056">
        <ele>693.2</ele>
        <time>2023-08-03T07:57:41Z</time>
      </trkpt>
      <trkpt lat="45.91489" lon="3.6305">
        <ele>693</ele>
        <time>2023-08-03T07:57:47Z</time>
      </trkpt>
      <trkpt lat="45.91491" lon="3.63048">
        <ele>693</ele>
        <time>2023-08-03T07:57:49Z</time>
      </trkpt>
      <trkpt lat="45.91493" lon="3.63045">
        <ele>693</ele>
        <time>2023-08-03T07:57:51Z</time>
      </trkpt>
      <trkpt lat="45.91494" lon="3.63042">
        <ele>692.8</ele>
        <time>2023-08-03T07:57:53Z</time>
      </trkpt>
      <trkpt lat="45.91495" lon="3.63041">
        <ele>692.8</ele>
        <time>2023-08-03T07:57:54Z</time>
      </trkpt>
      <trkpt lat="45.91503" lon="3.63029">
        <ele>692.6</ele>
        <time>2023-08-03T07:58:02Z</time>
      </trkpt>
      <trkpt lat="45.91505" lon="3.63027">
        <ele>692.6</ele>
        <time>2023-08-03T07:58:05Z</time>
      </trkpt>
      <trkpt lat="45.91506" lon="3.63024">
        <ele>692.6</ele>
        <time>2023-08-03T07:58:07Z</time>
      </trkpt>
      <trkpt lat="45.91516" lon="3.63019">
        <ele>692.2</ele>
        <time>2023-08-03T07:58:13Z</time>
      </trkpt>
      <trkpt lat="45.91518" lon="3.63018">
        <ele>692.2</ele>
        <time>2023-08-03T07:58:15Z</time>
      </trkpt>
      <trkpt lat="45.91518" lon="3.63018">
        <ele>692.2</ele>
        <time>2023-08-03T07:58:16Z</time>
      </trkpt>
      <trkpt lat="45.9152" lon="3.63017">
        <ele>692</ele>
        <time>2023-08-03T07:58:17Z</time>
      </trkpt>
      <trkpt lat="45.91533" lon="3.63015">
        <ele>691.6</ele>
        <time>2023-08-03T07:58:26Z</time>
      </trkpt>
      <trkpt lat="45.91539" lon="3.63016">
        <ele>691.6</ele>
        <time>2023-08-03T07:58:31Z</time>
      </trkpt>
      <trkpt lat="45.9154" lon="3.63017">
        <ele>691.4</ele>
        <time>2023-08-03T07:58:33Z</time>
      </trkpt>
      <trkpt lat="45.91547" lon="3.6302">
        <ele>691.2</ele>
        <time>2023-08-03T07:58:39Z</time>
      </trkpt>
      <trkpt lat="45.91548" lon="3.63022">
        <ele>691.2</ele>
        <time>2023-08-03T07:58:41Z</time>
      </trkpt>
      <trkpt lat="45.91552" lon="3.63026">
        <ele>690.8</ele>
        <time>2023-08-03T07:58:45Z</time>
      </trkpt>
      <trkpt lat="45.91555" lon="3.63029">
        <ele>690.6</ele>
        <time>2023-08-03T07:58:48Z</time>
      </trkpt>
      <trkpt lat="45.91562" lon="3.63033">
        <ele>690.6</ele>
        <time>2023-08-03T07:58:53Z</time>
      </trkpt>
      <trkpt lat="45.91565" lon="3.63034">
        <ele>690.6</ele>
        <time>2023-08-03T07:58:55Z</time>
      </trkpt>
      <trkpt lat="45.91566" lon="3.63035">
        <ele>690.4</ele>
        <time>2023-08-03T07:58:56Z</time>
      </trkpt>
      <trkpt lat="45.91569" lon="3.63036">
        <ele>690.2</ele>
        <time>2023-08-03T07:58:58Z</time>
      </trkpt>
      <trkpt lat="45.91574" lon="3.63038">
        <ele>690.2</ele>
        <time>2023-08-03T07:59:01Z</time>
      </trkpt>
      <trkpt lat="45.91577" lon="3.6304">
        <ele>690</ele>
        <time>2023-08-03T07:59:03Z</time>
      </trkpt>
      <trkpt lat="45.9158" lon="3.63042">
        <ele>690</ele>
        <time>2023-08-03T07:59:05Z</time>
      </trkpt>
      <trkpt lat="45.91581" lon="3.63043">
        <ele>690</ele>
        <time>2023-08-03T07:59:06Z</time>
      </trkpt>
      <trkpt lat="45.91583" lon="3.63046">
        <ele>689.8</ele>
        <time>2023-08-03T07:59:08Z</time>
      </trkpt>
      <trkpt lat="45.91586" lon="3.6305">
        <ele>689.8</ele>
        <time>2023-08-03T07:59:11Z</time>
      </trkpt>
      <trkpt lat="45.91587" lon="3.63052">
        <ele>689.6</ele>
        <time>2023-08-03T07:59:13Z</time>
      </trkpt>
      <trkpt lat="45.91589" lon="3.63054">
        <ele>689.6</ele>
        <time>2023-08-03T07:59:15Z</time>
      </trkpt>
      <trkpt lat="45.91589" lon="3.63055">
        <ele>689.6</ele>
        <time>2023-08-03T07:59:16Z</time>
      </trkpt>
      <trkpt lat="45.91598" lon="3.63068">
        <ele>689.2</ele>
        <time>2023-08-03T07:59:24Z</time>
      </trkpt>
      <trkpt lat="45.91601" lon="3.63077">
        <ele>689</ele>
        <time>2023-08-03T07:59:30Z</time>
      </trkpt>
      <trkpt lat="45.91601" lon="3.63079">
        <ele>689</ele>
        <time>2023-08-03T07:59:31Z</time>
      </trkpt>
      <trkpt lat="45.91601" lon="3.63082">
        <ele>688.8</ele>
        <time>2023-08-03T07:59:33Z</time>
      </trkpt>
      <trkpt lat="45.91602" lon="3.63085">
        <ele>688.8</ele>
        <time>2023-08-03T07:59:35Z</time>
      </trkpt>
      <trkpt lat="45.91601" lon="3.63086">
        <ele>688.8</ele>
        <time>2023-08-03T07:59:36Z</time>
      </trkpt>
      <trkpt lat="45.916" lon="3.63091">
        <ele>688.6</ele>
        <time>2023-08-03T07:59:39Z</time>
      </trkpt>
      <trkpt lat="45.91601" lon="3.63093">
        <ele>688.6</ele>
        <time>2023-08-03T07:59:40Z</time>
      </trkpt>
      <trkpt lat="45.916" lon="3.63097">
        <ele>688.6</ele>
        <time>2023-08-03T07:59:42Z</time>
      </trkpt>
      <trkpt lat="45.91599" lon="3.63103">
        <ele>688.4</ele>
        <time>2023-08-03T07:59:45Z</time>
      </trkpt>
      <trkpt lat="45.91599" lon="3.63105">
        <ele>688.4</ele>
        <time>2023-08-03T07:59:46Z</time>
      </trkpt>
      <trkpt lat="45.91594" lon="3.63118">
        <ele>688</ele>
        <time>2023-08-03T07:59:53Z</time>
      </trkpt>
      <trkpt lat="45.91594" lon="3.63123">
        <ele>687.6</ele>
        <time>2023-08-03T07:59:55Z</time>
      </trkpt>
      <trkpt lat="45.91594" lon="3.63128">
        <ele>687.6</ele>
        <time>2023-08-03T07:59:57Z</time>
      </trkpt>
      <trkpt lat="45.91595" lon="3.6313">
        <ele>687.6</ele>
        <time>2023-08-03T07:59:58Z</time>
      </trkpt>
      <trkpt lat="45.91596" lon="3.63132">
        <ele>687.6</ele>
        <time>2023-08-03T07:59:59Z</time>
      </trkpt>
      <trkpt lat="45.91593" lon="3.63137">
        <ele>687.4</ele>
        <time>2023-08-03T08:00:01Z</time>
      </trkpt>
      <trkpt lat="45.91593" lon="3.6314">
        <ele>687.2</ele>
        <time>2023-08-03T08:00:03Z</time>
      </trkpt>
      <trkpt lat="45.91592" lon="3.63146">
        <ele>687</ele>
        <time>2023-08-03T08:00:06Z</time>
      </trkpt>
      <trkpt lat="45.91591" lon="3.63152">
        <ele>686.8</ele>
        <time>2023-08-03T08:00:09Z</time>
      </trkpt>
      <trkpt lat="45.91591" lon="3.63153">
        <ele>686.8</ele>
        <time>2023-08-03T08:00:10Z</time>
      </trkpt>
      <trkpt lat="45.91589" lon="3.63159">
        <ele>686.4</ele>
        <time>2023-08-03T08:00:13Z</time>
      </trkpt>
      <trkpt lat="45.91588" lon="3.63164">
        <ele>686.2</ele>
        <time>2023-08-03T08:00:15Z</time>
      </trkpt>
      <trkpt lat="45.91587" lon="3.63166">
        <ele>686.2</ele>
        <time>2023-08-03T08:00:16Z</time>
      </trkpt>
      <trkpt lat="45.91588" lon="3.63167">
        <ele>686</ele>
        <time>2023-08-03T08:00:18Z</time>
      </trkpt>
      <trkpt lat="45.91586" lon="3.63172">
        <ele>685.8</ele>
        <time>2023-08-03T08:00:21Z</time>
      </trkpt>
      <trkpt lat="45.91587" lon="3.63171">
        <ele>685.6</ele>
        <time>2023-08-03T08:00:23Z</time>
      </trkpt>
      <trkpt lat="45.91587" lon="3.63177">
        <ele>685.6</ele>
        <time>2023-08-03T08:00:26Z</time>
      </trkpt>
      <trkpt lat="45.91589" lon="3.6318">
        <ele>685.6</ele>
        <time>2023-08-03T08:00:28Z</time>
      </trkpt>
      <trkpt lat="45.91589" lon="3.63185">
        <ele>685.4</ele>
        <time>2023-08-03T08:00:31Z</time>
      </trkpt>
      <trkpt lat="45.91591" lon="3.63183">
        <ele>685.4</ele>
        <time>2023-08-03T08:00:32Z</time>
      </trkpt>
      <trkpt lat="45.91591" lon="3.63187">
        <ele>685.2</ele>
        <time>2023-08-03T08:00:34Z</time>
      </trkpt>
      <trkpt lat="45.9159" lon="3.63188">
        <ele>685.2</ele>
        <time>2023-08-03T08:00:35Z</time>
      </trkpt>
      <trkpt lat="45.9159" lon="3.6319">
        <ele>685</ele>
        <time>2023-08-03T08:00:37Z</time>
      </trkpt>
      <trkpt lat="45.9159" lon="3.63192">
        <ele>684.8</ele>
        <time>2023-08-03T08:00:38Z</time>
      </trkpt>
      <trkpt lat="45.9159" lon="3.63195">
        <ele>684.6</ele>
        <time>2023-08-03T08:00:40Z</time>
      </trkpt>
      <trkpt lat="45.91591" lon="3.63199">
        <ele>684.6</ele>
        <time>2023-08-03T08:00:42Z</time>
      </trkpt>
      <trkpt lat="45.91592" lon="3.63201">
        <ele>684.4</ele>
        <time>2023-08-03T08:00:43Z</time>
      </trkpt>
      <trkpt lat="45.91592" lon="3.63205">
        <ele>684.6</ele>
        <time>2023-08-03T08:00:45Z</time>
      </trkpt>
      <trkpt lat="45.91594" lon="3.63212">
        <ele>684</ele>
        <time>2023-08-03T08:00:49Z</time>
      </trkpt>
      <trkpt lat="45.91594" lon="3.63214">
        <ele>684</ele>
        <time>2023-08-03T08:00:50Z</time>
      </trkpt>
      <trkpt lat="45.91595" lon="3.63217">
        <ele>684</ele>
        <time>2023-08-03T08:00:52Z</time>
      </trkpt>
      <trkpt lat="45.91596" lon="3.63219">
        <ele>683.6</ele>
        <time>2023-08-03T08:00:54Z</time>
      </trkpt>
      <trkpt lat="45.91602" lon="3.63226">
        <ele>683.2</ele>
        <time>2023-08-03T08:01:00Z</time>
      </trkpt>
      <trkpt lat="45.91603" lon="3.63227">
        <ele>683</ele>
        <time>2023-08-03T08:01:01Z</time>
      </trkpt>
      <trkpt lat="45.91607" lon="3.63231">
        <ele>682.8</ele>
        <time>2023-08-03T08:01:05Z</time>
      </trkpt>
      <trkpt lat="45.91613" lon="3.63234">
        <ele>682.6</ele>
        <time>2023-08-03T08:01:12Z</time>
      </trkpt>
      <trkpt lat="45.9162" lon="3.63236">
        <ele>682.4</ele>
        <time>2023-08-03T08:01:17Z</time>
      </trkpt>
      <trkpt lat="45.91622" lon="3.63236">
        <ele>682.2</ele>
        <time>2023-08-03T08:01:19Z</time>
      </trkpt>
      <trkpt lat="45.91623" lon="3.63236">
        <ele>682.2</ele>
        <time>2023-08-03T08:01:20Z</time>
      </trkpt>
      <trkpt lat="45.91628" lon="3.63236">
        <ele>682.2</ele>
        <time>2023-08-03T08:01:24Z</time>
      </trkpt>
      <trkpt lat="45.9163" lon="3.63236">
        <ele>682</ele>
        <time>2023-08-03T08:01:27Z</time>
      </trkpt>
      <trkpt lat="45.91632" lon="3.63237">
        <ele>682</ele>
        <time>2023-08-03T08:01:30Z</time>
      </trkpt>
      <trkpt lat="45.91641" lon="3.63238">
        <ele>682</ele>
        <time>2023-08-03T08:01:38Z</time>
      </trkpt>
      <trkpt lat="45.91642" lon="3.63238">
        <ele>682</ele>
        <time>2023-08-03T08:01:39Z</time>
      </trkpt>
      <trkpt lat="45.91648" lon="3.63236">
        <ele>682</ele>
        <time>2023-08-03T08:01:44Z</time>
      </trkpt>
      <trkpt lat="45.91654" lon="3.63234">
        <ele>682</ele>
        <time>2023-08-03T08:01:48Z</time>
      </trkpt>
      <trkpt lat="45.91656" lon="3.6323">
        <ele>682</ele>
        <time>2023-08-03T08:01:51Z</time>
      </trkpt>
      <trkpt lat="45.91658" lon="3.6323">
        <ele>682</ele>
        <time>2023-08-03T08:01:52Z</time>
      </trkpt>
      <trkpt lat="45.91662" lon="3.63225">
        <ele>682.2</ele>
        <time>2023-08-03T08:01:57Z</time>
      </trkpt>
      <trkpt lat="45.91665" lon="3.63222">
        <ele>682</ele>
        <time>2023-08-03T08:01:59Z</time>
      </trkpt>
      <trkpt lat="45.91666" lon="3.6322">
        <ele>682.2</ele>
        <time>2023-08-03T08:02:02Z</time>
      </trkpt>
      <trkpt lat="45.91672" lon="3.63213">
        <ele>682.4</ele>
        <time>2023-08-03T08:02:07Z</time>
      </trkpt>
      <trkpt lat="45.91673" lon="3.63212">
        <ele>682.6</ele>
        <time>2023-08-03T08:02:08Z</time>
      </trkpt>
      <trkpt lat="45.91674" lon="3.6321">
        <ele>682.6</ele>
        <time>2023-08-03T08:02:09Z</time>
      </trkpt>
      <trkpt lat="45.91677" lon="3.63204">
        <ele>682.8</ele>
        <time>2023-08-03T08:02:14Z</time>
      </trkpt>
      <trkpt lat="45.91678" lon="3.63203">
        <ele>682.8</ele>
        <time>2023-08-03T08:02:15Z</time>
      </trkpt>
      <trkpt lat="45.9168" lon="3.63197">
        <ele>683</ele>
        <time>2023-08-03T08:02:19Z</time>
      </trkpt>
      <trkpt lat="45.91681" lon="3.63195">
        <ele>683.2</ele>
        <time>2023-08-03T08:02:20Z</time>
      </trkpt>
      <trkpt lat="45.91684" lon="3.63189">
        <ele>683.2</ele>
        <time>2023-08-03T08:02:24Z</time>
      </trkpt>
      <trkpt lat="45.91684" lon="3.63187">
        <ele>683.4</ele>
        <time>2023-08-03T08:02:25Z</time>
      </trkpt>
      <trkpt lat="45.91684" lon="3.63184">
        <ele>683.4</ele>
        <time>2023-08-03T08:02:27Z</time>
      </trkpt>
      <trkpt lat="45.91684" lon="3.63183">
        <ele>683.6</ele>
        <time>2023-08-03T08:02:32Z</time>
      </trkpt>
      <trkpt lat="45.91683" lon="3.63177">
        <ele>683.8</ele>
        <time>2023-08-03T08:02:36Z</time>
      </trkpt>
      <trkpt lat="45.91688" lon="3.63166">
        <ele>683.8</ele>
        <time>2023-08-03T08:02:41Z</time>
      </trkpt>
      <trkpt lat="45.91688" lon="3.63161">
        <ele>683.8</ele>
        <time>2023-08-03T08:02:43Z</time>
      </trkpt>
      <trkpt lat="45.91691" lon="3.63157">
        <ele>683.8</ele>
        <time>2023-08-03T08:02:45Z</time>
      </trkpt>
      <trkpt lat="45.91695" lon="3.63145">
        <ele>684.4</ele>
        <time>2023-08-03T08:02:51Z</time>
      </trkpt>
      <trkpt lat="45.91695" lon="3.63144">
        <ele>684.4</ele>
        <time>2023-08-03T08:02:52Z</time>
      </trkpt>
      <trkpt lat="45.91696" lon="3.63139">
        <ele>684.6</ele>
        <time>2023-08-03T08:02:55Z</time>
      </trkpt>
      <trkpt lat="45.91697" lon="3.63136">
        <ele>684.8</ele>
        <time>2023-08-03T08:02:58Z</time>
      </trkpt>
      <trkpt lat="45.91701" lon="3.63129">
        <ele>685</ele>
        <time>2023-08-03T08:03:05Z</time>
      </trkpt>
      <trkpt lat="45.91705" lon="3.63127">
        <ele>685.2</ele>
        <time>2023-08-03T08:03:10Z</time>
      </trkpt>
      <trkpt lat="45.91706" lon="3.63126">
        <ele>685.4</ele>
        <time>2023-08-03T08:03:13Z</time>
      </trkpt>
      <trkpt lat="45.91708" lon="3.63126">
        <ele>685.4</ele>
        <time>2023-08-03T08:03:14Z</time>
      </trkpt>
      <trkpt lat="45.91718" lon="3.63127">
        <ele>685.6</ele>
        <time>2023-08-03T08:03:21Z</time>
      </trkpt>
      <trkpt lat="45.91726" lon="3.6313">
        <ele>685.8</ele>
        <time>2023-08-03T08:03:27Z</time>
      </trkpt>
      <trkpt lat="45.91735" lon="3.63136">
        <ele>686.4</ele>
        <time>2023-08-03T08:03:34Z</time>
      </trkpt>
      <trkpt lat="45.91736" lon="3.63137">
        <ele>686.6</ele>
        <time>2023-08-03T08:03:35Z</time>
      </trkpt>
      <trkpt lat="45.91738" lon="3.63143">
        <ele>687.2</ele>
        <time>2023-08-03T08:03:38Z</time>
      </trkpt>
      <trkpt lat="45.91738" lon="3.63146">
        <ele>687.4</ele>
        <time>2023-08-03T08:03:39Z</time>
      </trkpt>
      <trkpt lat="45.91739" lon="3.63148">
        <ele>687.6</ele>
        <time>2023-08-03T08:03:40Z</time>
      </trkpt>
      <trkpt lat="45.91739" lon="3.63151">
        <ele>687.8</ele>
        <time>2023-08-03T08:03:41Z</time>
      </trkpt>
      <trkpt lat="45.91738" lon="3.63152">
        <ele>687.8</ele>
        <time>2023-08-03T08:03:42Z</time>
      </trkpt>
      <trkpt lat="45.91742" lon="3.63153">
        <ele>688.4</ele>
        <time>2023-08-03T08:03:45Z</time>
      </trkpt>
      <trkpt lat="45.91742" lon="3.63156">
        <ele>688.6</ele>
        <time>2023-08-03T08:03:47Z</time>
      </trkpt>
      <trkpt lat="45.91742" lon="3.63158">
        <ele>688.8</ele>
        <time>2023-08-03T08:03:48Z</time>
      </trkpt>
      <trkpt lat="45.91743" lon="3.63162">
        <ele>689.2</ele>
        <time>2023-08-03T08:03:51Z</time>
      </trkpt>
      <trkpt lat="45.91743" lon="3.63163">
        <ele>689.4</ele>
        <time>2023-08-03T08:03:52Z</time>
      </trkpt>
      <trkpt lat="45.91744" lon="3.63167">
        <ele>689.8</ele>
        <time>2023-08-03T08:03:55Z</time>
      </trkpt>
      <trkpt lat="45.91745" lon="3.63168">
        <ele>690</ele>
        <time>2023-08-03T08:03:57Z</time>
      </trkpt>
      <trkpt lat="45.91748" lon="3.63175">
        <ele>690.4</ele>
        <time>2023-08-03T08:04:02Z</time>
      </trkpt>
      <trkpt lat="45.9175" lon="3.63179">
        <ele>690.8</ele>
        <time>2023-08-03T08:04:05Z</time>
      </trkpt>
      <trkpt lat="45.91751" lon="3.6318">
        <ele>691</ele>
        <time>2023-08-03T08:04:06Z</time>
      </trkpt>
      <trkpt lat="45.91755" lon="3.63186">
        <ele>692</ele>
        <time>2023-08-03T08:04:13Z</time>
      </trkpt>
      <trkpt lat="45.91761" lon="3.63191">
        <ele>693</ele>
        <time>2023-08-03T08:04:19Z</time>
      </trkpt>
      <trkpt lat="45.91763" lon="3.63192">
        <ele>693</ele>
        <time>2023-08-03T08:04:20Z</time>
      </trkpt>
      <trkpt lat="45.91766" lon="3.63196">
        <ele>693.6</ele>
        <time>2023-08-03T08:04:24Z</time>
      </trkpt>
      <trkpt lat="45.91768" lon="3.63197">
        <ele>694.4</ele>
        <time>2023-08-03T08:04:28Z</time>
      </trkpt>
      <trkpt lat="45.91771" lon="3.63199">
        <ele>694.4</ele>
        <time>2023-08-03T08:04:30Z</time>
      </trkpt>
      <trkpt lat="45.91775" lon="3.63201">
        <ele>695.4</ele>
        <time>2023-08-03T08:04:35Z</time>
      </trkpt>
      <trkpt lat="45.91775" lon="3.63201">
        <ele>695.6</ele>
        <time>2023-08-03T08:04:36Z</time>
      </trkpt>
      <trkpt lat="45.91772" lon="3.63207">
        <ele>696.4</ele>
        <time>2023-08-03T08:04:43Z</time>
      </trkpt>
      <trkpt lat="45.91773" lon="3.63207">
        <ele>696.6</ele>
        <time>2023-08-03T08:04:50Z</time>
      </trkpt>
      <trkpt lat="45.91776" lon="3.63207">
        <ele>696.6</ele>
        <time>2023-08-03T08:04:57Z</time>
      </trkpt>
      <trkpt lat="45.91781" lon="3.63209">
        <ele>696.6</ele>
        <time>2023-08-03T08:05:04Z</time>
      </trkpt>
      <trkpt lat="45.91789" lon="3.63211">
        <ele>697</ele>
        <time>2023-08-03T08:05:11Z</time>
      </trkpt>
      <trkpt lat="45.91795" lon="3.63213">
        <ele>697.4</ele>
        <time>2023-08-03T08:05:16Z</time>
      </trkpt>
      <trkpt lat="45.91802" lon="3.63215">
        <ele>697.6</ele>
        <time>2023-08-03T08:05:18Z</time>
      </trkpt>
      <trkpt lat="45.91804" lon="3.63215">
        <ele>697.6</ele>
        <time>2023-08-03T08:05:19Z</time>
      </trkpt>
      <trkpt lat="45.91805" lon="3.63214">
        <ele>697.8</ele>
        <time>2023-08-03T08:05:21Z</time>
      </trkpt>
      <trkpt lat="45.9181" lon="3.6322">
        <ele>698.4</ele>
        <time>2023-08-03T08:05:26Z</time>
      </trkpt>
      <trkpt lat="45.91812" lon="3.6322">
        <ele>698.6</ele>
        <time>2023-08-03T08:05:28Z</time>
      </trkpt>
      <trkpt lat="45.91812" lon="3.6322">
        <ele>698.6</ele>
        <time>2023-08-03T08:05:29Z</time>
      </trkpt>
      <trkpt lat="45.91812" lon="3.63221">
        <ele>698.8</ele>
        <time>2023-08-03T08:05:31Z</time>
      </trkpt>
      <trkpt lat="45.91814" lon="3.63223">
        <ele>699</ele>
        <time>2023-08-03T08:05:34Z</time>
      </trkpt>
      <trkpt lat="45.91815" lon="3.63224">
        <ele>699.4</ele>
        <time>2023-08-03T08:05:36Z</time>
      </trkpt>
      <trkpt lat="45.91817" lon="3.63223">
        <ele>699.4</ele>
        <time>2023-08-03T08:05:37Z</time>
      </trkpt>
      <trkpt lat="45.91818" lon="3.63223">
        <ele>699.6</ele>
        <time>2023-08-03T08:05:38Z</time>
      </trkpt>
      <trkpt lat="45.91819" lon="3.63224">
        <ele>699.6</ele>
        <time>2023-08-03T08:05:39Z</time>
      </trkpt>
      <trkpt lat="45.9182" lon="3.63226">
        <ele>700</ele>
        <time>2023-08-03T08:05:41Z</time>
      </trkpt>
      <trkpt lat="45.91821" lon="3.63228">
        <ele>700</ele>
        <time>2023-08-03T08:05:42Z</time>
      </trkpt>
      <trkpt lat="45.91824" lon="3.6323">
        <ele>700.6</ele>
        <time>2023-08-03T08:05:45Z</time>
      </trkpt>
      <trkpt lat="45.91825" lon="3.63231">
        <ele>700.8</ele>
        <time>2023-08-03T08:05:46Z</time>
      </trkpt>
      <trkpt lat="45.91825" lon="3.63232">
        <ele>701</ele>
        <time>2023-08-03T08:05:47Z</time>
      </trkpt>
      <trkpt lat="45.91828" lon="3.63233">
        <ele>701.4</ele>
        <time>2023-08-03T08:05:49Z</time>
      </trkpt>
      <trkpt lat="45.91831" lon="3.63235">
        <ele>701.8</ele>
        <time>2023-08-03T08:05:52Z</time>
      </trkpt>
      <trkpt lat="45.91836" lon="3.63236">
        <ele>702.4</ele>
        <time>2023-08-03T08:05:56Z</time>
      </trkpt>
      <trkpt lat="45.91839" lon="3.63238">
        <ele>703</ele>
        <time>2023-08-03T08:05:59Z</time>
      </trkpt>
      <trkpt lat="45.91841" lon="3.6324">
        <ele>703.4</ele>
        <time>2023-08-03T08:06:02Z</time>
      </trkpt>
      <trkpt lat="45.91846" lon="3.63245">
        <ele>704.2</ele>
        <time>2023-08-03T08:06:07Z</time>
      </trkpt>
      <trkpt lat="45.91848" lon="3.63247">
        <ele>704.4</ele>
        <time>2023-08-03T08:06:09Z</time>
      </trkpt>
      <trkpt lat="45.9185" lon="3.63248">
        <ele>704.6</ele>
        <time>2023-08-03T08:06:11Z</time>
      </trkpt>
      <trkpt lat="45.91854" lon="3.63249">
        <ele>704.8</ele>
        <time>2023-08-03T08:06:13Z</time>
      </trkpt>
      <trkpt lat="45.91857" lon="3.6325">
        <ele>705.2</ele>
        <time>2023-08-03T08:06:16Z</time>
      </trkpt>
      <trkpt lat="45.91859" lon="3.63252">
        <ele>705.2</ele>
        <time>2023-08-03T08:06:18Z</time>
      </trkpt>
      <trkpt lat="45.91862" lon="3.63254">
        <ele>705.4</ele>
        <time>2023-08-03T08:06:20Z</time>
      </trkpt>
      <trkpt lat="45.9187" lon="3.63256">
        <ele>706.2</ele>
        <time>2023-08-03T08:06:26Z</time>
      </trkpt>
      <trkpt lat="45.91876" lon="3.63257">
        <ele>706.4</ele>
        <time>2023-08-03T08:06:31Z</time>
      </trkpt>
      <trkpt lat="45.9188" lon="3.63256">
        <ele>706.6</ele>
        <time>2023-08-03T08:06:33Z</time>
      </trkpt>
      <trkpt lat="45.91884" lon="3.63257">
        <ele>706.8</ele>
        <time>2023-08-03T08:06:39Z</time>
      </trkpt>
      <trkpt lat="45.91886" lon="3.63255">
        <ele>707.2</ele>
        <time>2023-08-03T08:06:45Z</time>
      </trkpt>
      <trkpt lat="45.91888" lon="3.63254">
        <ele>707.2</ele>
        <time>2023-08-03T08:06:47Z</time>
      </trkpt>
      <trkpt lat="45.91893" lon="3.63252">
        <ele>707.4</ele>
        <time>2023-08-03T08:06:51Z</time>
      </trkpt>
      <trkpt lat="45.91894" lon="3.63252">
        <ele>707.4</ele>
        <time>2023-08-03T08:06:52Z</time>
      </trkpt>
      <trkpt lat="45.91895" lon="3.63251">
        <ele>707.4</ele>
        <time>2023-08-03T08:06:53Z</time>
      </trkpt>
      <trkpt lat="45.91902" lon="3.63246">
        <ele>707.8</ele>
        <time>2023-08-03T08:06:59Z</time>
      </trkpt>
      <trkpt lat="45.91903" lon="3.63245">
        <ele>707.8</ele>
        <time>2023-08-03T08:07:00Z</time>
      </trkpt>
      <trkpt lat="45.91904" lon="3.63244">
        <ele>708</ele>
        <time>2023-08-03T08:07:01Z</time>
      </trkpt>
      <trkpt lat="45.91909" lon="3.63242">
        <ele>708.2</ele>
        <time>2023-08-03T08:07:06Z</time>
      </trkpt>
      <trkpt lat="45.91915" lon="3.63239">
        <ele>708.4</ele>
        <time>2023-08-03T08:07:10Z</time>
      </trkpt>
      <trkpt lat="45.91919" lon="3.63238">
        <ele>708.6</ele>
        <time>2023-08-03T08:07:13Z</time>
      </trkpt>
      <trkpt lat="45.91929" lon="3.63232">
        <ele>709.6</ele>
        <time>2023-08-03T08:07:22Z</time>
      </trkpt>
      <trkpt lat="45.9193" lon="3.63231">
        <ele>709.8</ele>
        <time>2023-08-03T08:07:23Z</time>
      </trkpt>
      <trkpt lat="45.91934" lon="3.63229">
        <ele>710</ele>
        <time>2023-08-03T08:07:27Z</time>
      </trkpt>
      <trkpt lat="45.91938" lon="3.63229">
        <ele>710.4</ele>
        <time>2023-08-03T08:07:29Z</time>
      </trkpt>
      <trkpt lat="45.9194" lon="3.63229">
        <ele>710.6</ele>
        <time>2023-08-03T08:07:31Z</time>
      </trkpt>
      <trkpt lat="45.91942" lon="3.63227">
        <ele>710.8</ele>
        <time>2023-08-03T08:07:33Z</time>
      </trkpt>
      <trkpt lat="45.91942" lon="3.63225">
        <ele>711</ele>
        <time>2023-08-03T08:07:34Z</time>
      </trkpt>
      <trkpt lat="45.91949" lon="3.63221">
        <ele>711.6</ele>
        <time>2023-08-03T08:07:40Z</time>
      </trkpt>
      <trkpt lat="45.91951" lon="3.6322">
        <ele>711.8</ele>
        <time>2023-08-03T08:07:42Z</time>
      </trkpt>
      <trkpt lat="45.91957" lon="3.63214">
        <ele>712.6</ele>
        <time>2023-08-03T08:07:48Z</time>
      </trkpt>
      <trkpt lat="45.91958" lon="3.63213">
        <ele>712.6</ele>
        <time>2023-08-03T08:07:49Z</time>
      </trkpt>
      <trkpt lat="45.91968" lon="3.63207">
        <ele>713.4</ele>
        <time>2023-08-03T08:07:56Z</time>
      </trkpt>
      <trkpt lat="45.9197" lon="3.63206">
        <ele>713.6</ele>
        <time>2023-08-03T08:07:58Z</time>
      </trkpt>
      <trkpt lat="45.91971" lon="3.63205">
        <ele>713.8</ele>
        <time>2023-08-03T08:07:59Z</time>
      </trkpt>
      <trkpt lat="45.9198" lon="3.632">
        <ele>714.6</ele>
        <time>2023-08-03T08:08:05Z</time>
      </trkpt>
      <trkpt lat="45.91981" lon="3.63199">
        <ele>715</ele>
        <time>2023-08-03T08:08:07Z</time>
      </trkpt>
      <trkpt lat="45.91987" lon="3.63198">
        <ele>715.8</ele>
        <time>2023-08-03T08:08:12Z</time>
      </trkpt>
      <trkpt lat="45.91991" lon="3.63197">
        <ele>716</ele>
        <time>2023-08-03T08:08:15Z</time>
      </trkpt>
      <trkpt lat="45.91998" lon="3.63197">
        <ele>716.8</ele>
        <time>2023-08-03T08:08:20Z</time>
      </trkpt>
      <trkpt lat="45.92002" lon="3.63198">
        <ele>717.2</ele>
        <time>2023-08-03T08:08:23Z</time>
      </trkpt>
      <trkpt lat="45.92009" lon="3.63199">
        <ele>717.8</ele>
        <time>2023-08-03T08:08:29Z</time>
      </trkpt>
      <trkpt lat="45.92009" lon="3.632">
        <ele>717.8</ele>
        <time>2023-08-03T08:08:30Z</time>
      </trkpt>
      <trkpt lat="45.9201" lon="3.632">
        <ele>718</ele>
        <time>2023-08-03T08:08:32Z</time>
      </trkpt>
      <trkpt lat="45.92011" lon="3.63202">
        <ele>718.2</ele>
        <time>2023-08-03T08:08:33Z</time>
      </trkpt>
      <trkpt lat="45.92015" lon="3.63204">
        <ele>718.4</ele>
        <time>2023-08-03T08:08:37Z</time>
      </trkpt>
      <trkpt lat="45.92016" lon="3.63205">
        <ele>718.4</ele>
        <time>2023-08-03T08:08:38Z</time>
      </trkpt>
      <trkpt lat="45.92018" lon="3.63207">
        <ele>718.6</ele>
        <time>2023-08-03T08:08:40Z</time>
      </trkpt>
      <trkpt lat="45.92019" lon="3.63208">
        <ele>719</ele>
        <time>2023-08-03T08:08:42Z</time>
      </trkpt>
      <trkpt lat="45.9202" lon="3.63209">
        <ele>719.2</ele>
        <time>2023-08-03T08:08:44Z</time>
      </trkpt>
      <trkpt lat="45.92026" lon="3.63211">
        <ele>720</ele>
        <time>2023-08-03T08:08:51Z</time>
      </trkpt>
      <trkpt lat="45.92029" lon="3.63212">
        <ele>720.4</ele>
        <time>2023-08-03T08:08:54Z</time>
      </trkpt>
      <trkpt lat="45.92031" lon="3.63213">
        <ele>720.6</ele>
        <time>2023-08-03T08:08:56Z</time>
      </trkpt>
      <trkpt lat="45.92033" lon="3.63214">
        <ele>721</ele>
        <time>2023-08-03T08:08:59Z</time>
      </trkpt>
      <trkpt lat="45.92038" lon="3.63218">
        <ele>721.4</ele>
        <time>2023-08-03T08:09:04Z</time>
      </trkpt>
      <trkpt lat="45.92041" lon="3.63219">
        <ele>722</ele>
        <time>2023-08-03T08:09:08Z</time>
      </trkpt>
      <trkpt lat="45.92042" lon="3.6322">
        <ele>722.2</ele>
        <time>2023-08-03T08:09:09Z</time>
      </trkpt>
      <trkpt lat="45.92053" lon="3.63223">
        <ele>722.6</ele>
        <time>2023-08-03T08:09:14Z</time>
      </trkpt>
      <trkpt lat="45.92055" lon="3.63225">
        <ele>722.8</ele>
        <time>2023-08-03T08:09:16Z</time>
      </trkpt>
      <trkpt lat="45.92056" lon="3.63226">
        <ele>723.2</ele>
        <time>2023-08-03T08:09:18Z</time>
      </trkpt>
      <trkpt lat="45.92058" lon="3.63226">
        <ele>723.4</ele>
        <time>2023-08-03T08:09:20Z</time>
      </trkpt>
      <trkpt lat="45.92059" lon="3.63226">
        <ele>723.6</ele>
        <time>2023-08-03T08:09:21Z</time>
      </trkpt>
      <trkpt lat="45.92062" lon="3.63228">
        <ele>723.8</ele>
        <time>2023-08-03T08:09:24Z</time>
      </trkpt>
      <trkpt lat="45.92066" lon="3.6323">
        <ele>724.2</ele>
        <time>2023-08-03T08:09:27Z</time>
      </trkpt>
      <trkpt lat="45.92067" lon="3.6323">
        <ele>724.4</ele>
        <time>2023-08-03T08:09:28Z</time>
      </trkpt>
      <trkpt lat="45.9207" lon="3.63231">
        <ele>724.6</ele>
        <time>2023-08-03T08:09:31Z</time>
      </trkpt>
      <trkpt lat="45.92068" lon="3.63234">
        <ele>725</ele>
        <time>2023-08-03T08:09:35Z</time>
      </trkpt>
      <trkpt lat="45.92069" lon="3.63236">
        <ele>725.4</ele>
        <time>2023-08-03T08:09:38Z</time>
      </trkpt>
      <trkpt lat="45.92071" lon="3.63237">
        <ele>725.6</ele>
        <time>2023-08-03T08:09:40Z</time>
      </trkpt>
      <trkpt lat="45.92077" lon="3.6324">
        <ele>726.2</ele>
        <time>2023-08-03T08:09:47Z</time>
      </trkpt>
      <trkpt lat="45.92079" lon="3.6324">
        <ele>726.2</ele>
        <time>2023-08-03T08:09:48Z</time>
      </trkpt>
      <trkpt lat="45.9208" lon="3.6324">
        <ele>726.6</ele>
        <time>2023-08-03T08:09:49Z</time>
      </trkpt>
      <trkpt lat="45.92083" lon="3.63242">
        <ele>727</ele>
        <time>2023-08-03T08:09:52Z</time>
      </trkpt>
      <trkpt lat="45.92084" lon="3.63246">
        <ele>727.6</ele>
        <time>2023-08-03T08:09:56Z</time>
      </trkpt>
      <trkpt lat="45.92083" lon="3.63247">
        <ele>727.8</ele>
        <time>2023-08-03T08:09:57Z</time>
      </trkpt>
      <trkpt lat="45.92087" lon="3.63251">
        <ele>728.2</ele>
        <time>2023-08-03T08:09:59Z</time>
      </trkpt>
      <trkpt lat="45.92089" lon="3.63257">
        <ele>728.6</ele>
        <time>2023-08-03T08:10:02Z</time>
      </trkpt>
      <trkpt lat="45.92093" lon="3.63259">
        <ele>729.2</ele>
        <time>2023-08-03T08:10:06Z</time>
      </trkpt>
      <trkpt lat="45.92096" lon="3.63261">
        <ele>729.6</ele>
        <time>2023-08-03T08:10:09Z</time>
      </trkpt>
      <trkpt lat="45.92099" lon="3.63265">
        <ele>730</ele>
        <time>2023-08-03T08:10:12Z</time>
      </trkpt>
      <trkpt lat="45.92102" lon="3.63267">
        <ele>730.8</ele>
        <time>2023-08-03T08:10:16Z</time>
      </trkpt>
      <trkpt lat="45.92103" lon="3.63267">
        <ele>730.8</ele>
        <time>2023-08-03T08:10:17Z</time>
      </trkpt>
      <trkpt lat="45.92105" lon="3.63268">
        <ele>731.2</ele>
        <time>2023-08-03T08:10:19Z</time>
      </trkpt>
      <trkpt lat="45.92107" lon="3.6327">
        <ele>731.6</ele>
        <time>2023-08-03T08:10:21Z</time>
      </trkpt>
      <trkpt lat="45.92109" lon="3.6327">
        <ele>731.8</ele>
        <time>2023-08-03T08:10:23Z</time>
      </trkpt>
      <trkpt lat="45.92113" lon="3.63271">
        <ele>733</ele>
        <time>2023-08-03T08:10:27Z</time>
      </trkpt>
      <trkpt lat="45.92112" lon="3.63264">
        <ele>734</ele>
        <time>2023-08-03T08:10:32Z</time>
      </trkpt>
      <trkpt lat="45.92115" lon="3.63254">
        <ele>735</ele>
        <time>2023-08-03T08:10:41Z</time>
      </trkpt>
      <trkpt lat="45.92116" lon="3.63254">
        <ele>735</ele>
        <time>2023-08-03T08:10:42Z</time>
      </trkpt>
      <trkpt lat="45.9212" lon="3.63255">
        <ele>735.4</ele>
        <time>2023-08-03T08:10:47Z</time>
      </trkpt>
      <trkpt lat="45.92127" lon="3.63253">
        <ele>736</ele>
        <time>2023-08-03T08:10:53Z</time>
      </trkpt>
      <trkpt lat="45.92128" lon="3.63252">
        <ele>736</ele>
        <time>2023-08-03T08:10:54Z</time>
      </trkpt>
      <trkpt lat="45.92127" lon="3.6325">
        <ele>736.6</ele>
        <time>2023-08-03T08:10:59Z</time>
      </trkpt>
      <trkpt lat="45.9213" lon="3.63249">
        <ele>737</ele>
        <time>2023-08-03T08:11:02Z</time>
      </trkpt>
      <trkpt lat="45.92133" lon="3.63247">
        <ele>737.4</ele>
        <time>2023-08-03T08:11:05Z</time>
      </trkpt>
      <trkpt lat="45.92134" lon="3.63246">
        <ele>737.4</ele>
        <time>2023-08-03T08:11:06Z</time>
      </trkpt>
      <trkpt lat="45.92136" lon="3.63242">
        <ele>737.8</ele>
        <time>2023-08-03T08:11:11Z</time>
      </trkpt>
      <trkpt lat="45.9214" lon="3.6324">
        <ele>738.2</ele>
        <time>2023-08-03T08:11:15Z</time>
      </trkpt>
      <trkpt lat="45.92142" lon="3.63239">
        <ele>738.2</ele>
        <time>2023-08-03T08:11:16Z</time>
      </trkpt>
      <trkpt lat="45.92149" lon="3.63235">
        <ele>738.6</ele>
        <time>2023-08-03T08:11:20Z</time>
      </trkpt>
      <trkpt lat="45.92156" lon="3.63229">
        <ele>739</ele>
        <time>2023-08-03T08:11:24Z</time>
      </trkpt>
      <trkpt lat="45.92157" lon="3.63228">
        <ele>739.2</ele>
        <time>2023-08-03T08:11:26Z</time>
      </trkpt>
      <trkpt lat="45.92159" lon="3.63225">
        <ele>739.4</ele>
        <time>2023-08-03T08:11:28Z</time>
      </trkpt>
      <trkpt lat="45.92164" lon="3.63217">
        <ele>740</ele>
        <time>2023-08-03T08:11:34Z</time>
      </trkpt>
      <trkpt lat="45.92166" lon="3.63212">
        <ele>740.2</ele>
        <time>2023-08-03T08:11:36Z</time>
      </trkpt>
      <trkpt lat="45.92169" lon="3.63211">
        <ele>740.4</ele>
        <time>2023-08-03T08:11:38Z</time>
      </trkpt>
      <trkpt lat="45.92176" lon="3.63205">
        <ele>740.8</ele>
        <time>2023-08-03T08:11:42Z</time>
      </trkpt>
      <trkpt lat="45.92177" lon="3.63204">
        <ele>740.8</ele>
        <time>2023-08-03T08:11:43Z</time>
      </trkpt>
      <trkpt lat="45.92182" lon="3.632">
        <ele>741.4</ele>
        <time>2023-08-03T08:11:47Z</time>
      </trkpt>
      <trkpt lat="45.92182" lon="3.63199">
        <ele>741.4</ele>
        <time>2023-08-03T08:11:48Z</time>
      </trkpt>
      <trkpt lat="45.92189" lon="3.63187">
        <ele>742.4</ele>
        <time>2023-08-03T08:11:56Z</time>
      </trkpt>
      <trkpt lat="45.92193" lon="3.63183">
        <ele>742.6</ele>
        <time>2023-08-03T08:11:59Z</time>
      </trkpt>
      <trkpt lat="45.92196" lon="3.6318">
        <ele>742.6</ele>
        <time>2023-08-03T08:12:02Z</time>
      </trkpt>
      <trkpt lat="45.92198" lon="3.63179">
        <ele>742.8</ele>
        <time>2023-08-03T08:12:04Z</time>
      </trkpt>
      <trkpt lat="45.92204" lon="3.63178">
        <ele>743</ele>
        <time>2023-08-03T08:12:07Z</time>
      </trkpt>
      <trkpt lat="45.92207" lon="3.63175">
        <ele>743.4</ele>
        <time>2023-08-03T08:12:11Z</time>
      </trkpt>
      <trkpt lat="45.92212" lon="3.63174">
        <ele>743.8</ele>
        <time>2023-08-03T08:12:16Z</time>
      </trkpt>
      <trkpt lat="45.9222" lon="3.63167">
        <ele>744.2</ele>
        <time>2023-08-03T08:12:19Z</time>
      </trkpt>
      <trkpt lat="45.92222" lon="3.63164">
        <ele>744.2</ele>
        <time>2023-08-03T08:12:21Z</time>
      </trkpt>
      <trkpt lat="45.92222" lon="3.63163">
        <ele>744.4</ele>
        <time>2023-08-03T08:12:23Z</time>
      </trkpt>
      <trkpt lat="45.92223" lon="3.63162">
        <ele>744.4</ele>
        <time>2023-08-03T08:12:24Z</time>
      </trkpt>
      <trkpt lat="45.92225" lon="3.63162">
        <ele>744.4</ele>
        <time>2023-08-03T08:12:25Z</time>
      </trkpt>
      <trkpt lat="45.92229" lon="3.63157">
        <ele>744.8</ele>
        <time>2023-08-03T08:12:31Z</time>
      </trkpt>
      <trkpt lat="45.92229" lon="3.63158">
        <ele>745</ele>
        <time>2023-08-03T08:12:35Z</time>
      </trkpt>
      <trkpt lat="45.92231" lon="3.63157">
        <ele>745.2</ele>
        <time>2023-08-03T08:12:38Z</time>
      </trkpt>
      <trkpt lat="45.92235" lon="3.63157">
        <ele>745.6</ele>
        <time>2023-08-03T08:12:41Z</time>
      </trkpt>
      <trkpt lat="45.92247" lon="3.63158">
        <ele>746.4</ele>
        <time>2023-08-03T08:12:47Z</time>
      </trkpt>
      <trkpt lat="45.92248" lon="3.63159">
        <ele>746.4</ele>
        <time>2023-08-03T08:12:49Z</time>
      </trkpt>
      <trkpt lat="45.92257" lon="3.63165">
        <ele>747</ele>
        <time>2023-08-03T08:12:56Z</time>
      </trkpt>
      <trkpt lat="45.92257" lon="3.63166">
        <ele>747.2</ele>
        <time>2023-08-03T08:12:58Z</time>
      </trkpt>
      <trkpt lat="45.92259" lon="3.63169">
        <ele>747.4</ele>
        <time>2023-08-03T08:13:00Z</time>
      </trkpt>
      <trkpt lat="45.92259" lon="3.6317">
        <ele>747.4</ele>
        <time>2023-08-03T08:13:01Z</time>
      </trkpt>
      <trkpt lat="45.9226" lon="3.63172">
        <ele>747.4</ele>
        <time>2023-08-03T08:13:02Z</time>
      </trkpt>
      <trkpt lat="45.92264" lon="3.63178">
        <ele>747.6</ele>
        <time>2023-08-03T08:13:07Z</time>
      </trkpt>
      <trkpt lat="45.92264" lon="3.6318">
        <ele>747.8</ele>
        <time>2023-08-03T08:13:09Z</time>
      </trkpt>
      <trkpt lat="45.92269" lon="3.63187">
        <ele>748</ele>
        <time>2023-08-03T08:13:15Z</time>
      </trkpt>
      <trkpt lat="45.92272" lon="3.63192">
        <ele>748.2</ele>
        <time>2023-08-03T08:13:19Z</time>
      </trkpt>
      <trkpt lat="45.92276" lon="3.63199">
        <ele>748.4</ele>
        <time>2023-08-03T08:13:22Z</time>
      </trkpt>
      <trkpt lat="45.9228" lon="3.63204">
        <ele>748.8</ele>
        <time>2023-08-03T08:13:25Z</time>
      </trkpt>
      <trkpt lat="45.92283" lon="3.63208">
        <ele>748.8</ele>
        <time>2023-08-03T08:13:29Z</time>
      </trkpt>
      <trkpt lat="45.92285" lon="3.63213">
        <ele>749.4</ele>
        <time>2023-08-03T08:13:33Z</time>
      </trkpt>
      <trkpt lat="45.92287" lon="3.63214">
        <ele>749.4</ele>
        <time>2023-08-03T08:13:34Z</time>
      </trkpt>
      <trkpt lat="45.9229" lon="3.63219">
        <ele>749.4</ele>
        <time>2023-08-03T08:13:36Z</time>
      </trkpt>
      <trkpt lat="45.92291" lon="3.63225">
        <ele>749.6</ele>
        <time>2023-08-03T08:13:38Z</time>
      </trkpt>
      <trkpt lat="45.92291" lon="3.63227">
        <ele>749.6</ele>
        <time>2023-08-03T08:13:39Z</time>
      </trkpt>
      <trkpt lat="45.92293" lon="3.63229">
        <ele>750</ele>
        <time>2023-08-03T08:13:43Z</time>
      </trkpt>
      <trkpt lat="45.92295" lon="3.63231">
        <ele>750.2</ele>
        <time>2023-08-03T08:13:45Z</time>
      </trkpt>
      <trkpt lat="45.92301" lon="3.63235">
        <ele>750.4</ele>
        <time>2023-08-03T08:13:48Z</time>
      </trkpt>
      <trkpt lat="45.92305" lon="3.63241">
        <ele>750.6</ele>
        <time>2023-08-03T08:13:51Z</time>
      </trkpt>
      <trkpt lat="45.92308" lon="3.63247">
        <ele>751</ele>
        <time>2023-08-03T08:13:57Z</time>
      </trkpt>
      <trkpt lat="45.92311" lon="3.63249">
        <ele>751.2</ele>
        <time>2023-08-03T08:13:59Z</time>
      </trkpt>
      <trkpt lat="45.92313" lon="3.63254">
        <ele>751.6</ele>
        <time>2023-08-03T08:14:02Z</time>
      </trkpt>
      <trkpt lat="45.92313" lon="3.63262">
        <ele>752</ele>
        <time>2023-08-03T08:14:06Z</time>
      </trkpt>
      <trkpt lat="45.92314" lon="3.63265">
        <ele>752.4</ele>
        <time>2023-08-03T08:14:09Z</time>
      </trkpt>
      <trkpt lat="45.92316" lon="3.63268">
        <ele>752.8</ele>
        <time>2023-08-03T08:14:13Z</time>
      </trkpt>
      <trkpt lat="45.92316" lon="3.63269">
        <ele>752.8</ele>
        <time>2023-08-03T08:14:14Z</time>
      </trkpt>
      <trkpt lat="45.92317" lon="3.63274">
        <ele>753.6</ele>
        <time>2023-08-03T08:14:20Z</time>
      </trkpt>
      <trkpt lat="45.92317" lon="3.63275">
        <ele>753.8</ele>
        <time>2023-08-03T08:14:21Z</time>
      </trkpt>
      <trkpt lat="45.92322" lon="3.63279">
        <ele>754.2</ele>
        <time>2023-08-03T08:14:26Z</time>
      </trkpt>
      <trkpt lat="45.92323" lon="3.63281">
        <ele>754.4</ele>
        <time>2023-08-03T08:14:27Z</time>
      </trkpt>
      <trkpt lat="45.92326" lon="3.63285">
        <ele>754.8</ele>
        <time>2023-08-03T08:14:30Z</time>
      </trkpt>
      <trkpt lat="45.92327" lon="3.63286">
        <ele>755</ele>
        <time>2023-08-03T08:14:31Z</time>
      </trkpt>
      <trkpt lat="45.9233" lon="3.63288">
        <ele>755.2</ele>
        <time>2023-08-03T08:14:33Z</time>
      </trkpt>
      <trkpt lat="45.92331" lon="3.63289">
        <ele>755.4</ele>
        <time>2023-08-03T08:14:34Z</time>
      </trkpt>
      <trkpt lat="45.92332" lon="3.63292">
        <ele>755.8</ele>
        <time>2023-08-03T08:14:37Z</time>
      </trkpt>
      <trkpt lat="45.92333" lon="3.63293">
        <ele>756</ele>
        <time>2023-08-03T08:14:38Z</time>
      </trkpt>
      <trkpt lat="45.92335" lon="3.63294">
        <ele>756.2</ele>
        <time>2023-08-03T08:14:40Z</time>
      </trkpt>
      <trkpt lat="45.92342" lon="3.63297">
        <ele>756.6</ele>
        <time>2023-08-03T08:14:43Z</time>
      </trkpt>
      <trkpt lat="45.92343" lon="3.63306">
        <ele>757</ele>
        <time>2023-08-03T08:14:45Z</time>
      </trkpt>
      <trkpt lat="45.92344" lon="3.63307">
        <ele>757</ele>
        <time>2023-08-03T08:14:46Z</time>
      </trkpt>
      <trkpt lat="45.92344" lon="3.63307">
        <ele>757.2</ele>
        <time>2023-08-03T08:14:47Z</time>
      </trkpt>
      <trkpt lat="45.92347" lon="3.63305">
        <ele>757.6</ele>
        <time>2023-08-03T08:14:50Z</time>
      </trkpt>
      <trkpt lat="45.92349" lon="3.63305">
        <ele>757.8</ele>
        <time>2023-08-03T08:14:52Z</time>
      </trkpt>
      <trkpt lat="45.92352" lon="3.63309">
        <ele>758.2</ele>
        <time>2023-08-03T08:14:54Z</time>
      </trkpt>
      <trkpt lat="45.92352" lon="3.63312">
        <ele>758.6</ele>
        <time>2023-08-03T08:14:56Z</time>
      </trkpt>
      <trkpt lat="45.92355" lon="3.63311">
        <ele>758.8</ele>
        <time>2023-08-03T08:14:58Z</time>
      </trkpt>
      <trkpt lat="45.92356" lon="3.63312">
        <ele>759.2</ele>
        <time>2023-08-03T08:14:59Z</time>
      </trkpt>
      <trkpt lat="45.92358" lon="3.63314">
        <ele>760</ele>
        <time>2023-08-03T08:15:02Z</time>
      </trkpt>
      <trkpt lat="45.9236" lon="3.63315">
        <ele>760.4</ele>
        <time>2023-08-03T08:15:04Z</time>
      </trkpt>
      <trkpt lat="45.92366" lon="3.63315">
        <ele>761.4</ele>
        <time>2023-08-03T08:15:09Z</time>
      </trkpt>
      <trkpt lat="45.92366" lon="3.63316">
        <ele>761.6</ele>
        <time>2023-08-03T08:15:10Z</time>
      </trkpt>
      <trkpt lat="45.92369" lon="3.63316">
        <ele>762</ele>
        <time>2023-08-03T08:15:13Z</time>
      </trkpt>
      <trkpt lat="45.92373" lon="3.6332">
        <ele>762.6</ele>
        <time>2023-08-03T08:15:18Z</time>
      </trkpt>
      <trkpt lat="45.92378" lon="3.6332">
        <ele>763.4</ele>
        <time>2023-08-03T08:15:22Z</time>
      </trkpt>
      <trkpt lat="45.92379" lon="3.63321">
        <ele>763.8</ele>
        <time>2023-08-03T08:15:23Z</time>
      </trkpt>
      <trkpt lat="45.92381" lon="3.63322">
        <ele>764.8</ele>
        <time>2023-08-03T08:15:27Z</time>
      </trkpt>
      <trkpt lat="45.92381" lon="3.63322">
        <ele>765</ele>
        <time>2023-08-03T08:15:28Z</time>
      </trkpt>
      <trkpt lat="45.92382" lon="3.63321">
        <ele>766</ele>
        <time>2023-08-03T08:15:33Z</time>
      </trkpt>
      <trkpt lat="45.92381" lon="3.63323">
        <ele>766.2</ele>
        <time>2023-08-03T08:15:34Z</time>
      </trkpt>
      <trkpt lat="45.92384" lon="3.63322">
        <ele>766.6</ele>
        <time>2023-08-03T08:15:39Z</time>
      </trkpt>
      <trkpt lat="45.92386" lon="3.63324">
        <ele>766.6</ele>
        <time>2023-08-03T08:15:40Z</time>
      </trkpt>
      <trkpt lat="45.92389" lon="3.63326">
        <ele>766.6</ele>
        <time>2023-08-03T08:15:44Z</time>
      </trkpt>
      <trkpt lat="45.92392" lon="3.63325">
        <ele>766.8</ele>
        <time>2023-08-03T08:15:51Z</time>
      </trkpt>
      <trkpt lat="45.92393" lon="3.63325">
        <ele>767.2</ele>
        <time>2023-08-03T08:15:53Z</time>
      </trkpt>
      <trkpt lat="45.92395" lon="3.63326">
        <ele>767.8</ele>
        <time>2023-08-03T08:15:58Z</time>
      </trkpt>
      <trkpt lat="45.92396" lon="3.63326">
        <ele>768</ele>
        <time>2023-08-03T08:16:00Z</time>
      </trkpt>
      <trkpt lat="45.92396" lon="3.63326">
        <ele>768</ele>
        <time>2023-08-03T08:16:02Z</time>
      </trkpt>
      <trkpt lat="45.92393" lon="3.63327">
        <ele>768</ele>
        <time>2023-08-03T08:16:09Z</time>
      </trkpt>
      <trkpt lat="45.92393" lon="3.63325">
        <ele>768</ele>
        <time>2023-08-03T08:16:16Z</time>
      </trkpt>
      <trkpt lat="45.92395" lon="3.63326">
        <ele>768.2</ele>
        <time>2023-08-03T08:16:19Z</time>
      </trkpt>
      <trkpt lat="45.92395" lon="3.63325">
        <ele>768.2</ele>
        <time>2023-08-03T08:16:23Z</time>
      </trkpt>
      <trkpt lat="45.92399" lon="3.63324">
        <ele>768.2</ele>
        <time>2023-08-03T08:16:26Z</time>
      </trkpt>
      <trkpt lat="45.92403" lon="3.63322">
        <ele>768.6</ele>
        <time>2023-08-03T08:16:29Z</time>
      </trkpt>
      <trkpt lat="45.92408" lon="3.63321">
        <ele>769.2</ele>
        <time>2023-08-03T08:16:33Z</time>
      </trkpt>
      <trkpt lat="45.92411" lon="3.6332">
        <ele>769.8</ele>
        <time>2023-08-03T08:16:37Z</time>
      </trkpt>
      <trkpt lat="45.92414" lon="3.6332">
        <ele>770.2</ele>
        <time>2023-08-03T08:16:39Z</time>
      </trkpt>
      <trkpt lat="45.92415" lon="3.63319">
        <ele>770.4</ele>
        <time>2023-08-03T08:16:40Z</time>
      </trkpt>
      <trkpt lat="45.92417" lon="3.63317">
        <ele>770.8</ele>
        <time>2023-08-03T08:16:43Z</time>
      </trkpt>
      <trkpt lat="45.92418" lon="3.63315">
        <ele>771.4</ele>
        <time>2023-08-03T08:16:47Z</time>
      </trkpt>
      <trkpt lat="45.92419" lon="3.63317">
        <ele>771.6</ele>
        <time>2023-08-03T08:16:49Z</time>
      </trkpt>
      <trkpt lat="45.9242" lon="3.63319">
        <ele>772.4</ele>
        <time>2023-08-03T08:16:57Z</time>
      </trkpt>
      <trkpt lat="45.92421" lon="3.63319">
        <ele>772.6</ele>
        <time>2023-08-03T08:17:05Z</time>
      </trkpt>
      <trkpt lat="45.92422" lon="3.63319">
        <ele>772.8</ele>
        <time>2023-08-03T08:17:14Z</time>
      </trkpt>
      <trkpt lat="45.92424" lon="3.6332">
        <ele>772.8</ele>
        <time>2023-08-03T08:17:18Z</time>
      </trkpt>
      <trkpt lat="45.92426" lon="3.6332">
        <ele>772.8</ele>
        <time>2023-08-03T08:17:19Z</time>
      </trkpt>
      <trkpt lat="45.9243" lon="3.63322">
        <ele>773</ele>
        <time>2023-08-03T08:17:24Z</time>
      </trkpt>
      <trkpt lat="45.92431" lon="3.63322">
        <ele>773.2</ele>
        <time>2023-08-03T08:17:25Z</time>
      </trkpt>
      <trkpt lat="45.92433" lon="3.63322">
        <ele>773.6</ele>
        <time>2023-08-03T08:17:28Z</time>
      </trkpt>
      <trkpt lat="45.92434" lon="3.63323">
        <ele>773.8</ele>
        <time>2023-08-03T08:17:29Z</time>
      </trkpt>
      <trkpt lat="45.9244" lon="3.63328">
        <ele>774.6</ele>
        <time>2023-08-03T08:17:35Z</time>
      </trkpt>
      <trkpt lat="45.9244" lon="3.6333">
        <ele>774.8</ele>
        <time>2023-08-03T08:17:36Z</time>
      </trkpt>
      <trkpt lat="45.92444" lon="3.63333">
        <ele>775.6</ele>
        <time>2023-08-03T08:17:40Z</time>
      </trkpt>
      <trkpt lat="45.92446" lon="3.63337">
        <ele>776.4</ele>
        <time>2023-08-03T08:17:43Z</time>
      </trkpt>
      <trkpt lat="45.92448" lon="3.63339">
        <ele>776.8</ele>
        <time>2023-08-03T08:17:45Z</time>
      </trkpt>
      <trkpt lat="45.92452" lon="3.63343">
        <ele>777.6</ele>
        <time>2023-08-03T08:17:49Z</time>
      </trkpt>
      <trkpt lat="45.92455" lon="3.63346">
        <ele>777.8</ele>
        <time>2023-08-03T08:17:51Z</time>
      </trkpt>
      <trkpt lat="45.92458" lon="3.63351">
        <ele>778.4</ele>
        <time>2023-08-03T08:17:56Z</time>
      </trkpt>
      <trkpt lat="45.92466" lon="3.63354">
        <ele>778.8</ele>
        <time>2023-08-03T08:18:00Z</time>
      </trkpt>
      <trkpt lat="45.92467" lon="3.63355">
        <ele>779.2</ele>
        <time>2023-08-03T08:18:02Z</time>
      </trkpt>
      <trkpt lat="45.92471" lon="3.63359">
        <ele>779.8</ele>
        <time>2023-08-03T08:18:08Z</time>
      </trkpt>
      <trkpt lat="45.92472" lon="3.6336">
        <ele>780</ele>
        <time>2023-08-03T08:18:09Z</time>
      </trkpt>
      <trkpt lat="45.92477" lon="3.63364">
        <ele>780.8</ele>
        <time>2023-08-03T08:18:15Z</time>
      </trkpt>
      <trkpt lat="45.92478" lon="3.63367">
        <ele>781.2</ele>
        <time>2023-08-03T08:18:17Z</time>
      </trkpt>
      <trkpt lat="45.9248" lon="3.63372">
        <ele>781.2</ele>
        <time>2023-08-03T08:18:20Z</time>
      </trkpt>
      <trkpt lat="45.9249" lon="3.63384">
        <ele>782</ele>
        <time>2023-08-03T08:18:28Z</time>
      </trkpt>
      <trkpt lat="45.9249" lon="3.63386">
        <ele>782.2</ele>
        <time>2023-08-03T08:18:30Z</time>
      </trkpt>
      <trkpt lat="45.9249" lon="3.63386">
        <ele>782.4</ele>
        <time>2023-08-03T08:18:33Z</time>
      </trkpt>
      <trkpt lat="45.92498" lon="3.63389">
        <ele>783.2</ele>
        <time>2023-08-03T08:18:40Z</time>
      </trkpt>
      <trkpt lat="45.92498" lon="3.63389">
        <ele>783.4</ele>
        <time>2023-08-03T08:18:41Z</time>
      </trkpt>
      <trkpt lat="45.92501" lon="3.6339">
        <ele>783.4</ele>
        <time>2023-08-03T08:18:43Z</time>
      </trkpt>
      <trkpt lat="45.92503" lon="3.63391">
        <ele>783.8</ele>
        <time>2023-08-03T08:18:47Z</time>
      </trkpt>
      <trkpt lat="45.92506" lon="3.6339">
        <ele>784.2</ele>
        <time>2023-08-03T08:18:51Z</time>
      </trkpt>
      <trkpt lat="45.92507" lon="3.63391">
        <ele>784.4</ele>
        <time>2023-08-03T08:18:52Z</time>
      </trkpt>
      <trkpt lat="45.92508" lon="3.63391">
        <ele>784.8</ele>
        <time>2023-08-03T08:18:54Z</time>
      </trkpt>
      <trkpt lat="45.92509" lon="3.63391">
        <ele>785</ele>
        <time>2023-08-03T08:18:55Z</time>
      </trkpt>
      <trkpt lat="45.9251" lon="3.63391">
        <ele>785.4</ele>
        <time>2023-08-03T08:18:57Z</time>
      </trkpt>
      <trkpt lat="45.92511" lon="3.63392">
        <ele>785.4</ele>
        <time>2023-08-03T08:18:58Z</time>
      </trkpt>
      <trkpt lat="45.92514" lon="3.63395">
        <ele>785.8</ele>
        <time>2023-08-03T08:19:00Z</time>
      </trkpt>
      <trkpt lat="45.92518" lon="3.63397">
        <ele>786.2</ele>
        <time>2023-08-03T08:19:03Z</time>
      </trkpt>
      <trkpt lat="45.92519" lon="3.63399">
        <ele>786.4</ele>
        <time>2023-08-03T08:19:04Z</time>
      </trkpt>
      <trkpt lat="45.92519" lon="3.63399">
        <ele>786.4</ele>
        <time>2023-08-03T08:19:05Z</time>
      </trkpt>
      <trkpt lat="45.9252" lon="3.634">
        <ele>786.6</ele>
        <time>2023-08-03T08:19:06Z</time>
      </trkpt>
      <trkpt lat="45.92524" lon="3.63401">
        <ele>787.2</ele>
        <time>2023-08-03T08:19:09Z</time>
      </trkpt>
      <trkpt lat="45.92524" lon="3.63403">
        <ele>787.4</ele>
        <time>2023-08-03T08:19:11Z</time>
      </trkpt>
      <trkpt lat="45.92524" lon="3.63404">
        <ele>787.6</ele>
        <time>2023-08-03T08:19:12Z</time>
      </trkpt>
      <trkpt lat="45.92528" lon="3.63407">
        <ele>788</ele>
        <time>2023-08-03T08:19:15Z</time>
      </trkpt>
      <trkpt lat="45.92531" lon="3.63409">
        <ele>788.4</ele>
        <time>2023-08-03T08:19:18Z</time>
      </trkpt>
      <trkpt lat="45.92532" lon="3.63409">
        <ele>788.6</ele>
        <time>2023-08-03T08:19:19Z</time>
      </trkpt>
      <trkpt lat="45.92533" lon="3.63413">
        <ele>789</ele>
        <time>2023-08-03T08:19:21Z</time>
      </trkpt>
      <trkpt lat="45.92533" lon="3.63414">
        <ele>789</ele>
        <time>2023-08-03T08:19:22Z</time>
      </trkpt>
      <trkpt lat="45.92535" lon="3.63419">
        <ele>789.6</ele>
        <time>2023-08-03T08:19:26Z</time>
      </trkpt>
      <trkpt lat="45.92535" lon="3.63422">
        <ele>790.2</ele>
        <time>2023-08-03T08:19:31Z</time>
      </trkpt>
      <trkpt lat="45.92538" lon="3.63421">
        <ele>790.6</ele>
        <time>2023-08-03T08:19:33Z</time>
      </trkpt>
      <trkpt lat="45.92539" lon="3.6342">
        <ele>790.6</ele>
        <time>2023-08-03T08:19:34Z</time>
      </trkpt>
      <trkpt lat="45.92538" lon="3.6342">
        <ele>790.8</ele>
        <time>2023-08-03T08:19:35Z</time>
      </trkpt>
      <trkpt lat="45.92543" lon="3.63425">
        <ele>791.2</ele>
        <time>2023-08-03T08:19:38Z</time>
      </trkpt>
      <trkpt lat="45.92544" lon="3.63425">
        <ele>791.2</ele>
        <time>2023-08-03T08:19:39Z</time>
      </trkpt>
      <trkpt lat="45.92546" lon="3.63428">
        <ele>791.4</ele>
        <time>2023-08-03T08:19:41Z</time>
      </trkpt>
      <trkpt lat="45.92549" lon="3.63432">
        <ele>791.6</ele>
        <time>2023-08-03T08:19:43Z</time>
      </trkpt>
      <trkpt lat="45.92549" lon="3.63435">
        <ele>791.6</ele>
        <time>2023-08-03T08:19:44Z</time>
      </trkpt>
      <trkpt lat="45.9255" lon="3.63437">
        <ele>791.8</ele>
        <time>2023-08-03T08:19:46Z</time>
      </trkpt>
      <trkpt lat="45.92551" lon="3.6344">
        <ele>792</ele>
        <time>2023-08-03T08:19:48Z</time>
      </trkpt>
      <trkpt lat="45.92552" lon="3.6344">
        <ele>792</ele>
        <time>2023-08-03T08:19:49Z</time>
      </trkpt>
      <trkpt lat="45.92556" lon="3.6344">
        <ele>792.2</ele>
        <time>2023-08-03T08:19:51Z</time>
      </trkpt>
      <trkpt lat="45.92557" lon="3.63442">
        <ele>792.4</ele>
        <time>2023-08-03T08:19:53Z</time>
      </trkpt>
      <trkpt lat="45.92556" lon="3.63443">
        <ele>792.6</ele>
        <time>2023-08-03T08:19:54Z</time>
      </trkpt>
      <trkpt lat="45.92559" lon="3.63444">
        <ele>792.8</ele>
        <time>2023-08-03T08:19:56Z</time>
      </trkpt>
      <trkpt lat="45.92561" lon="3.63446">
        <ele>793</ele>
        <time>2023-08-03T08:19:58Z</time>
      </trkpt>
      <trkpt lat="45.92561" lon="3.63448">
        <ele>793.4</ele>
        <time>2023-08-03T08:20:00Z</time>
      </trkpt>
      <trkpt lat="45.92564" lon="3.63455">
        <ele>793.8</ele>
        <time>2023-08-03T08:20:05Z</time>
      </trkpt>
      <trkpt lat="45.92565" lon="3.63457">
        <ele>794</ele>
        <time>2023-08-03T08:20:07Z</time>
      </trkpt>
      <trkpt lat="45.92569" lon="3.63462">
        <ele>794.6</ele>
        <time>2023-08-03T08:20:12Z</time>
      </trkpt>
      <trkpt lat="45.92569" lon="3.63463">
        <ele>794.6</ele>
        <time>2023-08-03T08:20:13Z</time>
      </trkpt>
      <trkpt lat="45.92573" lon="3.63468">
        <ele>794.8</ele>
        <time>2023-08-03T08:20:17Z</time>
      </trkpt>
      <trkpt lat="45.92572" lon="3.63469">
        <ele>795</ele>
        <time>2023-08-03T08:20:18Z</time>
      </trkpt>
      <trkpt lat="45.92573" lon="3.6347">
        <ele>795</ele>
        <time>2023-08-03T08:20:20Z</time>
      </trkpt>
      <trkpt lat="45.92573" lon="3.63471">
        <ele>795</ele>
        <time>2023-08-03T08:20:21Z</time>
      </trkpt>
      <trkpt lat="45.92576" lon="3.63473">
        <ele>795.4</ele>
        <time>2023-08-03T08:20:24Z</time>
      </trkpt>
      <trkpt lat="45.92577" lon="3.63474">
        <ele>795.4</ele>
        <time>2023-08-03T08:20:25Z</time>
      </trkpt>
      <trkpt lat="45.92578" lon="3.63475">
        <ele>795.6</ele>
        <time>2023-08-03T08:20:27Z</time>
      </trkpt>
      <trkpt lat="45.9258" lon="3.63477">
        <ele>795.8</ele>
        <time>2023-08-03T08:20:29Z</time>
      </trkpt>
      <trkpt lat="45.92581" lon="3.63477">
        <ele>795.8</ele>
        <time>2023-08-03T08:20:30Z</time>
      </trkpt>
      <trkpt lat="45.92582" lon="3.63479">
        <ele>796.2</ele>
        <time>2023-08-03T08:20:32Z</time>
      </trkpt>
      <trkpt lat="45.92584" lon="3.63482">
        <ele>796.8</ele>
        <time>2023-08-03T08:20:37Z</time>
      </trkpt>
      <trkpt lat="45.92587" lon="3.63483">
        <ele>797</ele>
        <time>2023-08-03T08:20:40Z</time>
      </trkpt>
      <trkpt lat="45.92587" lon="3.63483">
        <ele>797</ele>
        <time>2023-08-03T08:20:41Z</time>
      </trkpt>
      <trkpt lat="45.92587" lon="3.63484">
        <ele>797.2</ele>
        <time>2023-08-03T08:20:42Z</time>
      </trkpt>
      <trkpt lat="45.92593" lon="3.63485">
        <ele>797.8</ele>
        <time>2023-08-03T08:20:47Z</time>
      </trkpt>
      <trkpt lat="45.92594" lon="3.63486">
        <ele>798</ele>
        <time>2023-08-03T08:20:49Z</time>
      </trkpt>
      <trkpt lat="45.92597" lon="3.63487">
        <ele>798.4</ele>
        <time>2023-08-03T08:20:52Z</time>
      </trkpt>
      <trkpt lat="45.92598" lon="3.63488">
        <ele>798.6</ele>
        <time>2023-08-03T08:20:53Z</time>
      </trkpt>
      <trkpt lat="45.92598" lon="3.63488">
        <ele>798.8</ele>
        <time>2023-08-03T08:20:54Z</time>
      </trkpt>
      <trkpt lat="45.926" lon="3.63488">
        <ele>799</ele>
        <time>2023-08-03T08:20:56Z</time>
      </trkpt>
      <trkpt lat="45.92601" lon="3.63489">
        <ele>799.4</ele>
        <time>2023-08-03T08:20:58Z</time>
      </trkpt>
      <trkpt lat="45.92605" lon="3.63491">
        <ele>800.2</ele>
        <time>2023-08-03T08:21:04Z</time>
      </trkpt>
      <trkpt lat="45.92608" lon="3.63492">
        <ele>800.4</ele>
        <time>2023-08-03T08:21:07Z</time>
      </trkpt>
      <trkpt lat="45.92615" lon="3.63492">
        <ele>801</ele>
        <time>2023-08-03T08:21:12Z</time>
      </trkpt>
      <trkpt lat="45.92618" lon="3.63494">
        <ele>801.4</ele>
        <time>2023-08-03T08:21:16Z</time>
      </trkpt>
      <trkpt lat="45.92622" lon="3.63495">
        <ele>802</ele>
        <time>2023-08-03T08:21:20Z</time>
      </trkpt>
      <trkpt lat="45.92627" lon="3.63497">
        <ele>802.6</ele>
        <time>2023-08-03T08:21:26Z</time>
      </trkpt>
      <trkpt lat="45.92628" lon="3.63497">
        <ele>802.6</ele>
        <time>2023-08-03T08:21:28Z</time>
      </trkpt>
      <trkpt lat="45.92633" lon="3.63497">
        <ele>803.4</ele>
        <time>2023-08-03T08:21:34Z</time>
      </trkpt>
      <trkpt lat="45.92633" lon="3.63498">
        <ele>803.6</ele>
        <time>2023-08-03T08:21:35Z</time>
      </trkpt>
      <trkpt lat="45.92636" lon="3.63498">
        <ele>803.8</ele>
        <time>2023-08-03T08:21:37Z</time>
      </trkpt>
      <trkpt lat="45.92637" lon="3.63498">
        <ele>804</ele>
        <time>2023-08-03T08:21:38Z</time>
      </trkpt>
      <trkpt lat="45.92642" lon="3.63499">
        <ele>804.6</ele>
        <time>2023-08-03T08:21:43Z</time>
      </trkpt>
      <trkpt lat="45.92642" lon="3.635">
        <ele>804.8</ele>
        <time>2023-08-03T08:21:44Z</time>
      </trkpt>
      <trkpt lat="45.92648" lon="3.635">
        <ele>805.2</ele>
        <time>2023-08-03T08:21:50Z</time>
      </trkpt>
      <trkpt lat="45.92655" lon="3.63499">
        <ele>805.6</ele>
        <time>2023-08-03T08:21:54Z</time>
      </trkpt>
      <trkpt lat="45.92658" lon="3.63499">
        <ele>806</ele>
        <time>2023-08-03T08:21:56Z</time>
      </trkpt>
      <trkpt lat="45.92663" lon="3.63502">
        <ele>806.6</ele>
        <time>2023-08-03T08:22:01Z</time>
      </trkpt>
      <trkpt lat="45.92665" lon="3.63502">
        <ele>806.8</ele>
        <time>2023-08-03T08:22:02Z</time>
      </trkpt>
      <trkpt lat="45.92672" lon="3.63504">
        <ele>807.6</ele>
        <time>2023-08-03T08:22:08Z</time>
      </trkpt>
      <trkpt lat="45.92674" lon="3.63503">
        <ele>807.8</ele>
        <time>2023-08-03T08:22:09Z</time>
      </trkpt>
      <trkpt lat="45.92678" lon="3.63506">
        <ele>808.4</ele>
        <time>2023-08-03T08:22:14Z</time>
      </trkpt>
      <trkpt lat="45.92679" lon="3.63506">
        <ele>808.4</ele>
        <time>2023-08-03T08:22:15Z</time>
      </trkpt>
      <trkpt lat="45.92681" lon="3.63507">
        <ele>808.8</ele>
        <time>2023-08-03T08:22:17Z</time>
      </trkpt>
      <trkpt lat="45.92689" lon="3.6351">
        <ele>809.8</ele>
        <time>2023-08-03T08:22:25Z</time>
      </trkpt>
      <trkpt lat="45.92689" lon="3.6351">
        <ele>810</ele>
        <time>2023-08-03T08:22:26Z</time>
      </trkpt>
      <trkpt lat="45.92695" lon="3.63511">
        <ele>810.6</ele>
        <time>2023-08-03T08:22:31Z</time>
      </trkpt>
      <trkpt lat="45.92697" lon="3.63512">
        <ele>810.8</ele>
        <time>2023-08-03T08:22:33Z</time>
      </trkpt>
      <trkpt lat="45.92697" lon="3.63512">
        <ele>811</ele>
        <time>2023-08-03T08:22:34Z</time>
      </trkpt>
      <trkpt lat="45.92698" lon="3.63511">
        <ele>811</ele>
        <time>2023-08-03T08:22:35Z</time>
      </trkpt>
      <trkpt lat="45.927" lon="3.6351">
        <ele>811.2</ele>
        <time>2023-08-03T08:22:41Z</time>
      </trkpt>
      <trkpt lat="45.92702" lon="3.63513">
        <ele>811.4</ele>
        <time>2023-08-03T08:22:48Z</time>
      </trkpt>
      <trkpt lat="45.92709" lon="3.63517">
        <ele>811.6</ele>
        <time>2023-08-03T08:22:56Z</time>
      </trkpt>
      <trkpt lat="45.92715" lon="3.63519">
        <ele>811.8</ele>
        <time>2023-08-03T08:23:02Z</time>
      </trkpt>
      <trkpt lat="45.92722" lon="3.63521">
        <ele>812</ele>
        <time>2023-08-03T08:23:08Z</time>
      </trkpt>
      <trkpt lat="45.92723" lon="3.63522">
        <ele>812</ele>
        <time>2023-08-03T08:23:09Z</time>
      </trkpt>
      <trkpt lat="45.92729" lon="3.63523">
        <ele>812.2</ele>
        <time>2023-08-03T08:23:14Z</time>
      </trkpt>
      <trkpt lat="45.92735" lon="3.63524">
        <ele>812.2</ele>
        <time>2023-08-03T08:23:19Z</time>
      </trkpt>
      <trkpt lat="45.92751" lon="3.63525">
        <ele>812.8</ele>
        <time>2023-08-03T08:23:28Z</time>
      </trkpt>
      <trkpt lat="45.92754" lon="3.63526">
        <ele>812.8</ele>
        <time>2023-08-03T08:23:31Z</time>
      </trkpt>
      <trkpt lat="45.92761" lon="3.63528">
        <ele>813</ele>
        <time>2023-08-03T08:23:33Z</time>
      </trkpt>
      <trkpt lat="45.92766" lon="3.63528">
        <ele>813.2</ele>
        <time>2023-08-03T08:23:36Z</time>
      </trkpt>
      <trkpt lat="45.92774" lon="3.63533">
        <ele>813.6</ele>
        <time>2023-08-03T08:23:43Z</time>
      </trkpt>
      <trkpt lat="45.92774" lon="3.63533">
        <ele>813.8</ele>
        <time>2023-08-03T08:23:44Z</time>
      </trkpt>
      <trkpt lat="45.92776" lon="3.63532">
        <ele>813.8</ele>
        <time>2023-08-03T08:23:46Z</time>
      </trkpt>
      <trkpt lat="45.92779" lon="3.63532">
        <ele>814</ele>
        <time>2023-08-03T08:23:49Z</time>
      </trkpt>
      <trkpt lat="45.9278" lon="3.63532">
        <ele>814.2</ele>
        <time>2023-08-03T08:23:50Z</time>
      </trkpt>
      <trkpt lat="45.92783" lon="3.63534">
        <ele>814.4</ele>
        <time>2023-08-03T08:23:53Z</time>
      </trkpt>
      <trkpt lat="45.92788" lon="3.63535">
        <ele>814.4</ele>
        <time>2023-08-03T08:23:57Z</time>
      </trkpt>
      <trkpt lat="45.92797" lon="3.63537">
        <ele>814.6</ele>
        <time>2023-08-03T08:24:06Z</time>
      </trkpt>
      <trkpt lat="45.92801" lon="3.63537">
        <ele>814.6</ele>
        <time>2023-08-03T08:24:09Z</time>
      </trkpt>
      <trkpt lat="45.92805" lon="3.63538">
        <ele>815</ele>
        <time>2023-08-03T08:24:12Z</time>
      </trkpt>
      <trkpt lat="45.92808" lon="3.63537">
        <ele>815</ele>
        <time>2023-08-03T08:24:14Z</time>
      </trkpt>
      <trkpt lat="45.92811" lon="3.63536">
        <ele>815</ele>
        <time>2023-08-03T08:24:17Z</time>
      </trkpt>
      <trkpt lat="45.92812" lon="3.63537">
        <ele>815</ele>
        <time>2023-08-03T08:24:18Z</time>
      </trkpt>
      <trkpt lat="45.92822" lon="3.6354">
        <ele>815.4</ele>
        <time>2023-08-03T08:24:25Z</time>
      </trkpt>
      <trkpt lat="45.92829" lon="3.63543">
        <ele>815.6</ele>
        <time>2023-08-03T08:24:30Z</time>
      </trkpt>
      <trkpt lat="45.92833" lon="3.63542">
        <ele>815.8</ele>
        <time>2023-08-03T08:24:33Z</time>
      </trkpt>
      <trkpt lat="45.9284" lon="3.63544">
        <ele>816</ele>
        <time>2023-08-03T08:24:38Z</time>
      </trkpt>
      <trkpt lat="45.92844" lon="3.63545">
        <ele>816</ele>
        <time>2023-08-03T08:24:41Z</time>
      </trkpt>
      <trkpt lat="45.92853" lon="3.63547">
        <ele>816</ele>
        <time>2023-08-03T08:24:49Z</time>
      </trkpt>
      <trkpt lat="45.92865" lon="3.63551">
        <ele>816</ele>
        <time>2023-08-03T08:24:57Z</time>
      </trkpt>
      <trkpt lat="45.92867" lon="3.63552">
        <ele>816</ele>
        <time>2023-08-03T08:24:59Z</time>
      </trkpt>
      <trkpt lat="45.92869" lon="3.63552">
        <ele>816</ele>
        <time>2023-08-03T08:25:01Z</time>
      </trkpt>
      <trkpt lat="45.9287" lon="3.63552">
        <ele>816</ele>
        <time>2023-08-03T08:25:02Z</time>
      </trkpt>
      <trkpt lat="45.92878" lon="3.63554">
        <ele>816</ele>
        <time>2023-08-03T08:25:08Z</time>
      </trkpt>
      <trkpt lat="45.92887" lon="3.63554">
        <ele>816</ele>
        <time>2023-08-03T08:25:15Z</time>
      </trkpt>
      <trkpt lat="45.92889" lon="3.63555">
        <ele>816</ele>
        <time>2023-08-03T08:25:16Z</time>
      </trkpt>
      <trkpt lat="45.92893" lon="3.63559">
        <ele>815.8</ele>
        <time>2023-08-03T08:25:20Z</time>
      </trkpt>
      <trkpt lat="45.92895" lon="3.6356">
        <ele>815.8</ele>
        <time>2023-08-03T08:25:21Z</time>
      </trkpt>
      <trkpt lat="45.92903" lon="3.63562">
        <ele>815.8</ele>
        <time>2023-08-03T08:25:26Z</time>
      </trkpt>
      <trkpt lat="45.92904" lon="3.63564">
        <ele>815.8</ele>
        <time>2023-08-03T08:25:27Z</time>
      </trkpt>
      <trkpt lat="45.92917" lon="3.63568">
        <ele>816.2</ele>
        <time>2023-08-03T08:25:35Z</time>
      </trkpt>
      <trkpt lat="45.92924" lon="3.63575">
        <ele>816.4</ele>
        <time>2023-08-03T08:25:42Z</time>
      </trkpt>
      <trkpt lat="45.92925" lon="3.63576">
        <ele>816.4</ele>
        <time>2023-08-03T08:25:43Z</time>
      </trkpt>
      <trkpt lat="45.92929" lon="3.63582">
        <ele>816.6</ele>
        <time>2023-08-03T08:25:47Z</time>
      </trkpt>
      <trkpt lat="45.9293" lon="3.63583">
        <ele>816.6</ele>
        <time>2023-08-03T08:25:48Z</time>
      </trkpt>
      <trkpt lat="45.92935" lon="3.63586">
        <ele>816.8</ele>
        <time>2023-08-03T08:25:53Z</time>
      </trkpt>
      <trkpt lat="45.92937" lon="3.63587">
        <ele>817</ele>
        <time>2023-08-03T08:25:55Z</time>
      </trkpt>
      <trkpt lat="45.92938" lon="3.63588">
        <ele>817</ele>
        <time>2023-08-03T08:25:56Z</time>
      </trkpt>
      <trkpt lat="45.9294" lon="3.63591">
        <ele>817.4</ele>
        <time>2023-08-03T08:26:00Z</time>
      </trkpt>
      <trkpt lat="45.92946" lon="3.63593">
        <ele>817.8</ele>
        <time>2023-08-03T08:26:06Z</time>
      </trkpt>
      <trkpt lat="45.92949" lon="3.63594">
        <ele>817.8</ele>
        <time>2023-08-03T08:26:10Z</time>
      </trkpt>
      <trkpt lat="45.92956" lon="3.636">
        <ele>818.4</ele>
        <time>2023-08-03T08:26:18Z</time>
      </trkpt>
      <trkpt lat="45.92965" lon="3.636">
        <ele>818.8</ele>
        <time>2023-08-03T08:26:25Z</time>
      </trkpt>
      <trkpt lat="45.92968" lon="3.636">
        <ele>818.8</ele>
        <time>2023-08-03T08:26:27Z</time>
      </trkpt>
      <trkpt lat="45.92973" lon="3.636">
        <ele>818.8</ele>
        <time>2023-08-03T08:26:31Z</time>
      </trkpt>
      <trkpt lat="45.92986" lon="3.63603">
        <ele>818.6</ele>
        <time>2023-08-03T08:26:39Z</time>
      </trkpt>
      <trkpt lat="45.9299" lon="3.63601">
        <ele>818.4</ele>
        <time>2023-08-03T08:26:44Z</time>
      </trkpt>
      <trkpt lat="45.92996" lon="3.636">
        <ele>818.2</ele>
        <time>2023-08-03T08:26:49Z</time>
      </trkpt>
      <trkpt lat="45.93001" lon="3.63597">
        <ele>818</ele>
        <time>2023-08-03T08:26:54Z</time>
      </trkpt>
      <trkpt lat="45.93006" lon="3.63596">
        <ele>817.8</ele>
        <time>2023-08-03T08:26:59Z</time>
      </trkpt>
      <trkpt lat="45.93011" lon="3.63594">
        <ele>817.6</ele>
        <time>2023-08-03T08:27:02Z</time>
      </trkpt>
      <trkpt lat="45.93015" lon="3.63592">
        <ele>817.6</ele>
        <time>2023-08-03T08:27:04Z</time>
      </trkpt>
      <trkpt lat="45.93023" lon="3.63593">
        <ele>817.2</ele>
        <time>2023-08-03T08:27:11Z</time>
      </trkpt>
      <trkpt lat="45.93034" lon="3.63587">
        <ele>816.8</ele>
        <time>2023-08-03T08:27:19Z</time>
      </trkpt>
      <trkpt lat="45.93038" lon="3.63586">
        <ele>816.8</ele>
        <time>2023-08-03T08:27:21Z</time>
      </trkpt>
      <trkpt lat="45.93044" lon="3.63581">
        <ele>816.4</ele>
        <time>2023-08-03T08:27:26Z</time>
      </trkpt>
      <trkpt lat="45.9305" lon="3.63575">
        <ele>815.8</ele>
        <time>2023-08-03T08:27:34Z</time>
      </trkpt>
      <trkpt lat="45.93054" lon="3.63572">
        <ele>815.6</ele>
        <time>2023-08-03T08:27:37Z</time>
      </trkpt>
      <trkpt lat="45.93059" lon="3.63568">
        <ele>815.4</ele>
        <time>2023-08-03T08:27:41Z</time>
      </trkpt>
      <trkpt lat="45.9307" lon="3.63562">
        <ele>814.8</ele>
        <time>2023-08-03T08:27:47Z</time>
      </trkpt>
      <trkpt lat="45.93078" lon="3.63558">
        <ele>814.6</ele>
        <time>2023-08-03T08:27:52Z</time>
      </trkpt>
      <trkpt lat="45.93082" lon="3.63556">
        <ele>814.2</ele>
        <time>2023-08-03T08:27:55Z</time>
      </trkpt>
      <trkpt lat="45.9309" lon="3.63556">
        <ele>814</ele>
        <time>2023-08-03T08:28:01Z</time>
      </trkpt>
      <trkpt lat="45.93091" lon="3.63558">
        <ele>813.8</ele>
        <time>2023-08-03T08:28:02Z</time>
      </trkpt>
      <trkpt lat="45.93092" lon="3.63558">
        <ele>813.8</ele>
        <time>2023-08-03T08:28:04Z</time>
      </trkpt>
      <trkpt lat="45.93094" lon="3.63558">
        <ele>813.6</ele>
        <time>2023-08-03T08:28:07Z</time>
      </trkpt>
      <trkpt lat="45.93094" lon="3.63558">
        <ele>813.4</ele>
        <time>2023-08-03T08:28:08Z</time>
      </trkpt>
      <trkpt lat="45.93097" lon="3.63558">
        <ele>813.4</ele>
        <time>2023-08-03T08:28:13Z</time>
      </trkpt>
      <trkpt lat="45.93093" lon="3.63562">
        <ele>813.2</ele>
        <time>2023-08-03T08:28:20Z</time>
      </trkpt>
      <trkpt lat="45.93093" lon="3.63563">
        <ele>813.2</ele>
        <time>2023-08-03T08:28:26Z</time>
      </trkpt>
      <trkpt lat="45.93096" lon="3.63557">
        <ele>813</ele>
        <time>2023-08-03T08:29:04Z</time>
      </trkpt>
      <trkpt lat="45.93097" lon="3.63557">
        <ele>813</ele>
        <time>2023-08-03T08:29:12Z</time>
      </trkpt>
      <trkpt lat="45.93098" lon="3.63559">
        <ele>813</ele>
        <time>2023-08-03T08:29:14Z</time>
      </trkpt>
      <trkpt lat="45.931" lon="3.63562">
        <ele>813</ele>
        <time>2023-08-03T08:29:17Z</time>
      </trkpt>
      <trkpt lat="45.93101" lon="3.63563">
        <ele>813</ele>
        <time>2023-08-03T08:29:20Z</time>
      </trkpt>
      <trkpt lat="45.93102" lon="3.63563">
        <ele>813</ele>
        <time>2023-08-03T08:29:22Z</time>
      </trkpt>
      <trkpt lat="45.93104" lon="3.63572">
        <ele>813</ele>
        <time>2023-08-03T08:29:26Z</time>
      </trkpt>
      <trkpt lat="45.93107" lon="3.63578">
        <ele>813.2</ele>
        <time>2023-08-03T08:29:30Z</time>
      </trkpt>
      <trkpt lat="45.93106" lon="3.63583">
        <ele>813.4</ele>
        <time>2023-08-03T08:29:32Z</time>
      </trkpt>
      <trkpt lat="45.93107" lon="3.63595">
        <ele>813.6</ele>
        <time>2023-08-03T08:29:37Z</time>
      </trkpt>
      <trkpt lat="45.93107" lon="3.63605">
        <ele>814</ele>
        <time>2023-08-03T08:29:45Z</time>
      </trkpt>
      <trkpt lat="45.93104" lon="3.63609">
        <ele>814.6</ele>
        <time>2023-08-03T08:29:50Z</time>
      </trkpt>
      <trkpt lat="45.93104" lon="3.63611">
        <ele>814.8</ele>
        <time>2023-08-03T08:29:52Z</time>
      </trkpt>
      <trkpt lat="45.93104" lon="3.63613">
        <ele>815.2</ele>
        <time>2023-08-03T08:29:57Z</time>
      </trkpt>
      <trkpt lat="45.93104" lon="3.63616">
        <ele>815.6</ele>
        <time>2023-08-03T08:30:00Z</time>
      </trkpt>
      <trkpt lat="45.93104" lon="3.6362">
        <ele>815.6</ele>
        <time>2023-08-03T08:30:04Z</time>
      </trkpt>
      <trkpt lat="45.93104" lon="3.63627">
        <ele>815.8</ele>
        <time>2023-08-03T08:30:08Z</time>
      </trkpt>
      <trkpt lat="45.93104" lon="3.63628">
        <ele>815.8</ele>
        <time>2023-08-03T08:30:09Z</time>
      </trkpt>
      <trkpt lat="45.93103" lon="3.6363">
        <ele>816</ele>
        <time>2023-08-03T08:30:11Z</time>
      </trkpt>
      <trkpt lat="45.93104" lon="3.63638">
        <ele>816.2</ele>
        <time>2023-08-03T08:30:16Z</time>
      </trkpt>
      <trkpt lat="45.93104" lon="3.63642">
        <ele>816.6</ele>
        <time>2023-08-03T08:30:18Z</time>
      </trkpt>
      <trkpt lat="45.93105" lon="3.63646">
        <ele>816.8</ele>
        <time>2023-08-03T08:30:21Z</time>
      </trkpt>
      <trkpt lat="45.93105" lon="3.63647">
        <ele>817</ele>
        <time>2023-08-03T08:30:23Z</time>
      </trkpt>
      <trkpt lat="45.93105" lon="3.63651">
        <ele>817.2</ele>
        <time>2023-08-03T08:30:29Z</time>
      </trkpt>
      <trkpt lat="45.93101" lon="3.63658">
        <ele>817.6</ele>
        <time>2023-08-03T08:30:35Z</time>
      </trkpt>
      <trkpt lat="45.931" lon="3.63659">
        <ele>817.6</ele>
        <time>2023-08-03T08:30:36Z</time>
      </trkpt>
      <trkpt lat="45.931" lon="3.63659">
        <ele>817.6</ele>
        <time>2023-08-03T08:30:37Z</time>
      </trkpt>
      <trkpt lat="45.93099" lon="3.63663">
        <ele>817.6</ele>
        <time>2023-08-03T08:30:40Z</time>
      </trkpt>
      <trkpt lat="45.93099" lon="3.63665">
        <ele>817.8</ele>
        <time>2023-08-03T08:30:41Z</time>
      </trkpt>
      <trkpt lat="45.93097" lon="3.63672">
        <ele>818.2</ele>
        <time>2023-08-03T08:30:47Z</time>
      </trkpt>
      <trkpt lat="45.93095" lon="3.63677">
        <ele>818.4</ele>
        <time>2023-08-03T08:30:53Z</time>
      </trkpt>
      <trkpt lat="45.93097" lon="3.63677">
        <ele>818.4</ele>
        <time>2023-08-03T08:30:58Z</time>
      </trkpt>
      <trkpt lat="45.93102" lon="3.63685">
        <ele>818.4</ele>
        <time>2023-08-03T08:31:05Z</time>
      </trkpt>
      <trkpt lat="45.93102" lon="3.63693">
        <ele>818.4</ele>
        <time>2023-08-03T08:31:11Z</time>
      </trkpt>
      <trkpt lat="45.93105" lon="3.63696">
        <ele>818.8</ele>
        <time>2023-08-03T08:31:15Z</time>
      </trkpt>
      <trkpt lat="45.93107" lon="3.63696">
        <ele>819</ele>
        <time>2023-08-03T08:31:16Z</time>
      </trkpt>
      <trkpt lat="45.93109" lon="3.63698">
        <ele>819.6</ele>
        <time>2023-08-03T08:31:19Z</time>
      </trkpt>
      <trkpt lat="45.93109" lon="3.63698">
        <ele>819.6</ele>
        <time>2023-08-03T08:31:21Z</time>
      </trkpt>
      <trkpt lat="45.93108" lon="3.63698">
        <ele>819.8</ele>
        <time>2023-08-03T08:31:23Z</time>
      </trkpt>
      <trkpt lat="45.93108" lon="3.63698">
        <ele>820</ele>
        <time>2023-08-03T08:31:25Z</time>
      </trkpt>
      <trkpt lat="45.93109" lon="3.63696">
        <ele>820</ele>
        <time>2023-08-03T08:31:38Z</time>
      </trkpt>
      <trkpt lat="45.93106" lon="3.63693">
        <ele>820</ele>
        <time>2023-08-03T08:31:45Z</time>
      </trkpt>
      <trkpt lat="45.93106" lon="3.63686">
        <ele>820</ele>
        <time>2023-08-03T08:31:51Z</time>
      </trkpt>
      <trkpt lat="45.93105" lon="3.63685">
        <ele>819.8</ele>
        <time>2023-08-03T08:31:52Z</time>
      </trkpt>
      <trkpt lat="45.93101" lon="3.6368">
        <ele>819.8</ele>
        <time>2023-08-03T08:31:58Z</time>
      </trkpt>
      <trkpt lat="45.93097" lon="3.63683">
        <ele>819</ele>
        <time>2023-08-03T08:32:06Z</time>
      </trkpt>
      <trkpt lat="45.93097" lon="3.63683">
        <ele>818.8</ele>
        <time>2023-08-03T08:32:07Z</time>
      </trkpt>
      <trkpt lat="45.93095" lon="3.63685">
        <ele>818.4</ele>
        <time>2023-08-03T08:32:12Z</time>
      </trkpt>
      <trkpt lat="45.93094" lon="3.63687">
        <ele>818</ele>
        <time>2023-08-03T08:32:20Z</time>
      </trkpt>
      <trkpt lat="45.93093" lon="3.63686">
        <ele>817.8</ele>
        <time>2023-08-03T08:32:26Z</time>
      </trkpt>
      <trkpt lat="45.93093" lon="3.63686">
        <ele>817.8</ele>
        <time>2023-08-03T08:32:27Z</time>
      </trkpt>
      <trkpt lat="45.93092" lon="3.63688">
        <ele>817.6</ele>
        <time>2023-08-03T08:32:44Z</time>
      </trkpt>
      <trkpt lat="45.93089" lon="3.63697">
        <ele>817.6</ele>
        <time>2023-08-03T08:32:48Z</time>
      </trkpt>
      <trkpt lat="45.93086" lon="3.63705">
        <ele>817.4</ele>
        <time>2023-08-03T08:32:52Z</time>
      </trkpt>
      <trkpt lat="45.93083" lon="3.63714">
        <ele>817</ele>
        <time>2023-08-03T08:32:57Z</time>
      </trkpt>
      <trkpt lat="45.93081" lon="3.6372">
        <ele>816.8</ele>
        <time>2023-08-03T08:33:02Z</time>
      </trkpt>
      <trkpt lat="45.93081" lon="3.63722">
        <ele>816.6</ele>
        <time>2023-08-03T08:33:03Z</time>
      </trkpt>
      <trkpt lat="45.93079" lon="3.63727">
        <ele>816.2</ele>
        <time>2023-08-03T08:33:08Z</time>
      </trkpt>
      <trkpt lat="45.93081" lon="3.63719">
        <ele>815.8</ele>
        <time>2023-08-03T08:33:14Z</time>
      </trkpt>
      <trkpt lat="45.93083" lon="3.63727">
        <ele>815.6</ele>
        <time>2023-08-03T08:33:19Z</time>
      </trkpt>
      <trkpt lat="45.93077" lon="3.63731">
        <ele>815.6</ele>
        <time>2023-08-03T08:33:21Z</time>
      </trkpt>
      <trkpt lat="45.93074" lon="3.63735">
        <ele>815.4</ele>
        <time>2023-08-03T08:33:24Z</time>
      </trkpt>
      <trkpt lat="45.93074" lon="3.63738">
        <ele>815.4</ele>
        <time>2023-08-03T08:33:25Z</time>
      </trkpt>
      <trkpt lat="45.93076" lon="3.6375">
        <ele>815</ele>
        <time>2023-08-03T08:33:30Z</time>
      </trkpt>
      <trkpt lat="45.93077" lon="3.63752">
        <ele>814.8</ele>
        <time>2023-08-03T08:33:31Z</time>
      </trkpt>
      <trkpt lat="45.93078" lon="3.63758">
        <ele>814.6</ele>
        <time>2023-08-03T08:33:35Z</time>
      </trkpt>
      <trkpt lat="45.93078" lon="3.6376">
        <ele>814.4</ele>
        <time>2023-08-03T08:33:36Z</time>
      </trkpt>
      <trkpt lat="45.93082" lon="3.63768">
        <ele>813.8</ele>
        <time>2023-08-03T08:33:39Z</time>
      </trkpt>
      <trkpt lat="45.93083" lon="3.6377">
        <ele>813.6</ele>
        <time>2023-08-03T08:33:40Z</time>
      </trkpt>
      <trkpt lat="45.93083" lon="3.63777">
        <ele>813</ele>
        <time>2023-08-03T08:33:43Z</time>
      </trkpt>
      <trkpt lat="45.93087" lon="3.63785">
        <ele>812.6</ele>
        <time>2023-08-03T08:33:46Z</time>
      </trkpt>
      <trkpt lat="45.9309" lon="3.63788">
        <ele>812</ele>
        <time>2023-08-03T08:33:48Z</time>
      </trkpt>
      <trkpt lat="45.93095" lon="3.63792">
        <ele>811</ele>
        <time>2023-08-03T08:33:53Z</time>
      </trkpt>
      <trkpt lat="45.93095" lon="3.63794">
        <ele>810.8</ele>
        <time>2023-08-03T08:33:54Z</time>
      </trkpt>
      <trkpt lat="45.93095" lon="3.63795">
        <ele>810.6</ele>
        <time>2023-08-03T08:33:56Z</time>
      </trkpt>
      <trkpt lat="45.93095" lon="3.63799">
        <ele>809.8</ele>
        <time>2023-08-03T08:34:00Z</time>
      </trkpt>
      <trkpt lat="45.93095" lon="3.63802">
        <ele>809.6</ele>
        <time>2023-08-03T08:34:02Z</time>
      </trkpt>
      <trkpt lat="45.93095" lon="3.63813">
        <ele>809</ele>
        <time>2023-08-03T08:34:07Z</time>
      </trkpt>
      <trkpt lat="45.93097" lon="3.63818">
        <ele>808.8</ele>
        <time>2023-08-03T08:34:09Z</time>
      </trkpt>
      <trkpt lat="45.93101" lon="3.63825">
        <ele>808</ele>
        <time>2023-08-03T08:34:14Z</time>
      </trkpt>
      <trkpt lat="45.931" lon="3.63829">
        <ele>807.8</ele>
        <time>2023-08-03T08:34:17Z</time>
      </trkpt>
      <trkpt lat="45.93098" lon="3.63835">
        <ele>807.4</ele>
        <time>2023-08-03T08:34:20Z</time>
      </trkpt>
      <trkpt lat="45.93097" lon="3.6384">
        <ele>807</ele>
        <time>2023-08-03T08:34:22Z</time>
      </trkpt>
      <trkpt lat="45.93095" lon="3.63846">
        <ele>806.6</ele>
        <time>2023-08-03T08:34:25Z</time>
      </trkpt>
      <trkpt lat="45.93095" lon="3.63849">
        <ele>806.4</ele>
        <time>2023-08-03T08:34:26Z</time>
      </trkpt>
      <trkpt lat="45.93095" lon="3.63855">
        <ele>806.2</ele>
        <time>2023-08-03T08:34:28Z</time>
      </trkpt>
      <trkpt lat="45.93095" lon="3.63859">
        <ele>805.8</ele>
        <time>2023-08-03T08:34:30Z</time>
      </trkpt>
      <trkpt lat="45.93097" lon="3.63861">
        <ele>805.6</ele>
        <time>2023-08-03T08:34:32Z</time>
      </trkpt>
      <trkpt lat="45.93098" lon="3.63864">
        <ele>805.2</ele>
        <time>2023-08-03T08:34:34Z</time>
      </trkpt>
      <trkpt lat="45.93098" lon="3.63871">
        <ele>804.6</ele>
        <time>2023-08-03T08:34:38Z</time>
      </trkpt>
      <trkpt lat="45.93099" lon="3.6387">
        <ele>804.4</ele>
        <time>2023-08-03T08:34:39Z</time>
      </trkpt>
      <trkpt lat="45.93093" lon="3.63878">
        <ele>803.6</ele>
        <time>2023-08-03T08:34:46Z</time>
      </trkpt>
      <trkpt lat="45.93093" lon="3.6388">
        <ele>803.4</ele>
        <time>2023-08-03T08:34:48Z</time>
      </trkpt>
      <trkpt lat="45.93092" lon="3.63883">
        <ele>802.8</ele>
        <time>2023-08-03T08:34:52Z</time>
      </trkpt>
      <trkpt lat="45.93092" lon="3.63892">
        <ele>802.2</ele>
        <time>2023-08-03T08:34:58Z</time>
      </trkpt>
      <trkpt lat="45.93093" lon="3.63896">
        <ele>802</ele>
        <time>2023-08-03T08:35:00Z</time>
      </trkpt>
      <trkpt lat="45.93093" lon="3.63901">
        <ele>802</ele>
        <time>2023-08-03T08:35:02Z</time>
      </trkpt>
      <trkpt lat="45.93092" lon="3.63908">
        <ele>801.8</ele>
        <time>2023-08-03T08:35:05Z</time>
      </trkpt>
      <trkpt lat="45.93091" lon="3.63919">
        <ele>801.4</ele>
        <time>2023-08-03T08:35:10Z</time>
      </trkpt>
      <trkpt lat="45.9309" lon="3.63921">
        <ele>801.4</ele>
        <time>2023-08-03T08:35:11Z</time>
      </trkpt>
      <trkpt lat="45.93091" lon="3.63935">
        <ele>801</ele>
        <time>2023-08-03T08:35:16Z</time>
      </trkpt>
      <trkpt lat="45.9309" lon="3.6394">
        <ele>801</ele>
        <time>2023-08-03T08:35:18Z</time>
      </trkpt>
      <trkpt lat="45.93089" lon="3.63942">
        <ele>801</ele>
        <time>2023-08-03T08:35:19Z</time>
      </trkpt>
      <trkpt lat="45.93087" lon="3.63948">
        <ele>800.6</ele>
        <time>2023-08-03T08:35:23Z</time>
      </trkpt>
      <trkpt lat="45.93083" lon="3.63959">
        <ele>800.4</ele>
        <time>2023-08-03T08:35:29Z</time>
      </trkpt>
      <trkpt lat="45.93082" lon="3.63961">
        <ele>800.4</ele>
        <time>2023-08-03T08:35:30Z</time>
      </trkpt>
      <trkpt lat="45.93081" lon="3.63967">
        <ele>800.2</ele>
        <time>2023-08-03T08:35:34Z</time>
      </trkpt>
      <trkpt lat="45.9308" lon="3.63968">
        <ele>800</ele>
        <time>2023-08-03T08:35:36Z</time>
      </trkpt>
      <trkpt lat="45.9308" lon="3.6397">
        <ele>800</ele>
        <time>2023-08-03T08:35:37Z</time>
      </trkpt>
      <trkpt lat="45.93078" lon="3.63975">
        <ele>799.8</ele>
        <time>2023-08-03T08:35:41Z</time>
      </trkpt>
      <trkpt lat="45.93076" lon="3.6399">
        <ele>799.4</ele>
        <time>2023-08-03T08:35:49Z</time>
      </trkpt>
      <trkpt lat="45.93073" lon="3.64005">
        <ele>799.2</ele>
        <time>2023-08-03T08:35:56Z</time>
      </trkpt>
      <trkpt lat="45.93072" lon="3.64018">
        <ele>799.2</ele>
        <time>2023-08-03T08:36:03Z</time>
      </trkpt>
      <trkpt lat="45.93072" lon="3.6402">
        <ele>799.2</ele>
        <time>2023-08-03T08:36:04Z</time>
      </trkpt>
      <trkpt lat="45.9307" lon="3.64028">
        <ele>799</ele>
        <time>2023-08-03T08:36:07Z</time>
      </trkpt>
      <trkpt lat="45.9307" lon="3.64038">
        <ele>798.8</ele>
        <time>2023-08-03T08:36:11Z</time>
      </trkpt>
      <trkpt lat="45.93071" lon="3.64042">
        <ele>798.6</ele>
        <time>2023-08-03T08:36:13Z</time>
      </trkpt>
      <trkpt lat="45.93071" lon="3.64051">
        <ele>798.4</ele>
        <time>2023-08-03T08:36:18Z</time>
      </trkpt>
      <trkpt lat="45.93071" lon="3.64056">
        <ele>798.2</ele>
        <time>2023-08-03T08:36:21Z</time>
      </trkpt>
      <trkpt lat="45.9307" lon="3.6406">
        <ele>798</ele>
        <time>2023-08-03T08:36:23Z</time>
      </trkpt>
      <trkpt lat="45.9307" lon="3.64064">
        <ele>797.8</ele>
        <time>2023-08-03T08:36:25Z</time>
      </trkpt>
      <trkpt lat="45.93069" lon="3.64065">
        <ele>797.6</ele>
        <time>2023-08-03T08:36:26Z</time>
      </trkpt>
      <trkpt lat="45.93068" lon="3.64066">
        <ele>797.6</ele>
        <time>2023-08-03T08:36:27Z</time>
      </trkpt>
      <trkpt lat="45.9307" lon="3.64074">
        <ele>797.2</ele>
        <time>2023-08-03T08:36:32Z</time>
      </trkpt>
      <trkpt lat="45.93071" lon="3.64078">
        <ele>797</ele>
        <time>2023-08-03T08:36:34Z</time>
      </trkpt>
      <trkpt lat="45.93072" lon="3.64089">
        <ele>796.4</ele>
        <time>2023-08-03T08:36:40Z</time>
      </trkpt>
      <trkpt lat="45.93072" lon="3.64096">
        <ele>795.8</ele>
        <time>2023-08-03T08:36:45Z</time>
      </trkpt>
      <trkpt lat="45.93073" lon="3.64099">
        <ele>795.6</ele>
        <time>2023-08-03T08:36:46Z</time>
      </trkpt>
      <trkpt lat="45.93076" lon="3.64106">
        <ele>795</ele>
        <time>2023-08-03T08:36:50Z</time>
      </trkpt>
      <trkpt lat="45.93077" lon="3.64108">
        <ele>794.8</ele>
        <time>2023-08-03T08:36:52Z</time>
      </trkpt>
      <trkpt lat="45.93078" lon="3.64112">
        <ele>794.4</ele>
        <time>2023-08-03T08:36:54Z</time>
      </trkpt>
      <trkpt lat="45.93079" lon="3.6412">
        <ele>793.8</ele>
        <time>2023-08-03T08:36:59Z</time>
      </trkpt>
      <trkpt lat="45.9308" lon="3.64125">
        <ele>793.2</ele>
        <time>2023-08-03T08:37:02Z</time>
      </trkpt>
      <trkpt lat="45.93082" lon="3.64132">
        <ele>793</ele>
        <time>2023-08-03T08:37:05Z</time>
      </trkpt>
      <trkpt lat="45.93083" lon="3.64137">
        <ele>792.6</ele>
        <time>2023-08-03T08:37:07Z</time>
      </trkpt>
      <trkpt lat="45.93085" lon="3.64139">
        <ele>792.4</ele>
        <time>2023-08-03T08:37:09Z</time>
      </trkpt>
      <trkpt lat="45.93089" lon="3.64143">
        <ele>791.8</ele>
        <time>2023-08-03T08:37:13Z</time>
      </trkpt>
      <trkpt lat="45.93091" lon="3.64145">
        <ele>791.6</ele>
        <time>2023-08-03T08:37:14Z</time>
      </trkpt>
      <trkpt lat="45.93091" lon="3.64148">
        <ele>791.2</ele>
        <time>2023-08-03T08:37:16Z</time>
      </trkpt>
      <trkpt lat="45.93093" lon="3.64157">
        <ele>790.6</ele>
        <time>2023-08-03T08:37:22Z</time>
      </trkpt>
      <trkpt lat="45.93097" lon="3.64172">
        <ele>789.4</ele>
        <time>2023-08-03T08:37:31Z</time>
      </trkpt>
      <trkpt lat="45.93098" lon="3.6418">
        <ele>789</ele>
        <time>2023-08-03T08:37:35Z</time>
      </trkpt>
      <trkpt lat="45.93099" lon="3.64184">
        <ele>789</ele>
        <time>2023-08-03T08:37:37Z</time>
      </trkpt>
      <trkpt lat="45.93101" lon="3.64193">
        <ele>788.4</ele>
        <time>2023-08-03T08:37:42Z</time>
      </trkpt>
      <trkpt lat="45.93101" lon="3.64206">
        <ele>787.6</ele>
        <time>2023-08-03T08:37:48Z</time>
      </trkpt>
      <trkpt lat="45.93101" lon="3.64208">
        <ele>787.6</ele>
        <time>2023-08-03T08:37:49Z</time>
      </trkpt>
      <trkpt lat="45.931" lon="3.64223">
        <ele>787.4</ele>
        <time>2023-08-03T08:37:55Z</time>
      </trkpt>
      <trkpt lat="45.931" lon="3.64229">
        <ele>787.2</ele>
        <time>2023-08-03T08:37:58Z</time>
      </trkpt>
      <trkpt lat="45.93099" lon="3.64233">
        <ele>787.2</ele>
        <time>2023-08-03T08:38:00Z</time>
      </trkpt>
      <trkpt lat="45.93099" lon="3.64235">
        <ele>787.2</ele>
        <time>2023-08-03T08:38:01Z</time>
      </trkpt>
      <trkpt lat="45.93099" lon="3.64242">
        <ele>787</ele>
        <time>2023-08-03T08:38:05Z</time>
      </trkpt>
      <trkpt lat="45.93098" lon="3.64245">
        <ele>786.8</ele>
        <time>2023-08-03T08:38:07Z</time>
      </trkpt>
      <trkpt lat="45.93096" lon="3.64248">
        <ele>786.6</ele>
        <time>2023-08-03T08:38:09Z</time>
      </trkpt>
      <trkpt lat="45.93096" lon="3.6425">
        <ele>786.4</ele>
        <time>2023-08-03T08:38:12Z</time>
      </trkpt>
      <trkpt lat="45.93097" lon="3.64251">
        <ele>786.4</ele>
        <time>2023-08-03T08:38:15Z</time>
      </trkpt>
      <trkpt lat="45.93097" lon="3.64252">
        <ele>786.4</ele>
        <time>2023-08-03T08:38:16Z</time>
      </trkpt>
      <trkpt lat="45.93096" lon="3.64253">
        <ele>786.4</ele>
        <time>2023-08-03T08:38:17Z</time>
      </trkpt>
      <trkpt lat="45.93096" lon="3.64256">
        <ele>786.2</ele>
        <time>2023-08-03T08:38:19Z</time>
      </trkpt>
      <trkpt lat="45.93095" lon="3.64261">
        <ele>786</ele>
        <time>2023-08-03T08:38:22Z</time>
      </trkpt>
      <trkpt lat="45.93093" lon="3.64268">
        <ele>785.8</ele>
        <time>2023-08-03T08:38:27Z</time>
      </trkpt>
      <trkpt lat="45.93092" lon="3.64273">
        <ele>785.8</ele>
        <time>2023-08-03T08:38:30Z</time>
      </trkpt>
      <trkpt lat="45.93091" lon="3.64279">
        <ele>785.4</ele>
        <time>2023-08-03T08:38:33Z</time>
      </trkpt>
      <trkpt lat="45.93092" lon="3.64283">
        <ele>785.2</ele>
        <time>2023-08-03T08:38:36Z</time>
      </trkpt>
      <trkpt lat="45.93092" lon="3.64285">
        <ele>785.2</ele>
        <time>2023-08-03T08:38:37Z</time>
      </trkpt>
      <trkpt lat="45.9309" lon="3.64292">
        <ele>785</ele>
        <time>2023-08-03T08:38:40Z</time>
      </trkpt>
      <trkpt lat="45.93087" lon="3.64303">
        <ele>784.8</ele>
        <time>2023-08-03T08:38:46Z</time>
      </trkpt>
      <trkpt lat="45.93087" lon="3.64304">
        <ele>784.8</ele>
        <time>2023-08-03T08:38:47Z</time>
      </trkpt>
      <trkpt lat="45.93085" lon="3.64312">
        <ele>784.2</ele>
        <time>2023-08-03T08:38:52Z</time>
      </trkpt>
      <trkpt lat="45.93085" lon="3.64314">
        <ele>784</ele>
        <time>2023-08-03T08:38:54Z</time>
      </trkpt>
      <trkpt lat="45.93085" lon="3.64316">
        <ele>784</ele>
        <time>2023-08-03T08:38:55Z</time>
      </trkpt>
      <trkpt lat="45.93086" lon="3.64323">
        <ele>783.6</ele>
        <time>2023-08-03T08:39:00Z</time>
      </trkpt>
      <trkpt lat="45.93088" lon="3.64334">
        <ele>783</ele>
        <time>2023-08-03T08:39:06Z</time>
      </trkpt>
      <trkpt lat="45.9309" lon="3.6434">
        <ele>782.6</ele>
        <time>2023-08-03T08:39:09Z</time>
      </trkpt>
      <trkpt lat="45.93092" lon="3.64343">
        <ele>782.4</ele>
        <time>2023-08-03T08:39:11Z</time>
      </trkpt>
      <trkpt lat="45.93092" lon="3.64345">
        <ele>782.2</ele>
        <time>2023-08-03T08:39:12Z</time>
      </trkpt>
      <trkpt lat="45.93093" lon="3.64349">
        <ele>781.8</ele>
        <time>2023-08-03T08:39:14Z</time>
      </trkpt>
      <trkpt lat="45.93097" lon="3.64353">
        <ele>781.4</ele>
        <time>2023-08-03T08:39:18Z</time>
      </trkpt>
      <trkpt lat="45.93099" lon="3.64353">
        <ele>781.4</ele>
        <time>2023-08-03T08:39:19Z</time>
      </trkpt>
      <trkpt lat="45.93104" lon="3.64355">
        <ele>781</ele>
        <time>2023-08-03T08:39:22Z</time>
      </trkpt>
      <trkpt lat="45.93108" lon="3.64357">
        <ele>781</ele>
        <time>2023-08-03T08:39:24Z</time>
      </trkpt>
      <trkpt lat="45.93111" lon="3.64357">
        <ele>780.8</ele>
        <time>2023-08-03T08:39:25Z</time>
      </trkpt>
      <trkpt lat="45.93118" lon="3.64363">
        <ele>780.8</ele>
        <time>2023-08-03T08:39:30Z</time>
      </trkpt>
      <trkpt lat="45.93121" lon="3.64368">
        <ele>780.8</ele>
        <time>2023-08-03T08:39:34Z</time>
      </trkpt>
      <trkpt lat="45.93123" lon="3.6437">
        <ele>780.6</ele>
        <time>2023-08-03T08:39:37Z</time>
      </trkpt>
      <trkpt lat="45.93128" lon="3.64375">
        <ele>780.6</ele>
        <time>2023-08-03T08:39:42Z</time>
      </trkpt>
      <trkpt lat="45.93128" lon="3.64376">
        <ele>780.6</ele>
        <time>2023-08-03T08:39:43Z</time>
      </trkpt>
      <trkpt lat="45.9313" lon="3.6438">
        <ele>780.6</ele>
        <time>2023-08-03T08:39:48Z</time>
      </trkpt>
      <trkpt lat="45.9313" lon="3.64382">
        <ele>780.6</ele>
        <time>2023-08-03T08:39:49Z</time>
      </trkpt>
      <trkpt lat="45.93131" lon="3.64386">
        <ele>780.6</ele>
        <time>2023-08-03T08:39:51Z</time>
      </trkpt>
      <trkpt lat="45.9313" lon="3.64389">
        <ele>780.6</ele>
        <time>2023-08-03T08:39:53Z</time>
      </trkpt>
      <trkpt lat="45.93129" lon="3.64393">
        <ele>780.6</ele>
        <time>2023-08-03T08:39:55Z</time>
      </trkpt>
      <trkpt lat="45.93126" lon="3.64399">
        <ele>780.6</ele>
        <time>2023-08-03T08:39:59Z</time>
      </trkpt>
      <trkpt lat="45.93124" lon="3.64404">
        <ele>780.8</ele>
        <time>2023-08-03T08:40:03Z</time>
      </trkpt>
      <trkpt lat="45.93123" lon="3.64405">
        <ele>780.8</ele>
        <time>2023-08-03T08:40:07Z</time>
      </trkpt>
      <trkpt lat="45.93117" lon="3.64414">
        <ele>781</ele>
        <time>2023-08-03T08:40:14Z</time>
      </trkpt>
      <trkpt lat="45.93113" lon="3.64417">
        <ele>780.8</ele>
        <time>2023-08-03T08:40:17Z</time>
      </trkpt>
      <trkpt lat="45.93108" lon="3.64421">
        <ele>780.8</ele>
        <time>2023-08-03T08:40:20Z</time>
      </trkpt>
      <trkpt lat="45.931" lon="3.64425">
        <ele>780.8</ele>
        <time>2023-08-03T08:40:24Z</time>
      </trkpt>
      <trkpt lat="45.93096" lon="3.64428">
        <ele>781</ele>
        <time>2023-08-03T08:40:27Z</time>
      </trkpt>
      <trkpt lat="45.93095" lon="3.6443">
        <ele>781</ele>
        <time>2023-08-03T08:40:28Z</time>
      </trkpt>
      <trkpt lat="45.93089" lon="3.64433">
        <ele>781.2</ele>
        <time>2023-08-03T08:40:33Z</time>
      </trkpt>
      <trkpt lat="45.93078" lon="3.64443">
        <ele>781.4</ele>
        <time>2023-08-03T08:40:41Z</time>
      </trkpt>
      <trkpt lat="45.93072" lon="3.6445">
        <ele>781.6</ele>
        <time>2023-08-03T08:40:47Z</time>
      </trkpt>
      <trkpt lat="45.93066" lon="3.6445">
        <ele>781.8</ele>
        <time>2023-08-03T08:40:54Z</time>
      </trkpt>
      <trkpt lat="45.93065" lon="3.64449">
        <ele>782</ele>
        <time>2023-08-03T08:40:55Z</time>
      </trkpt>
      <trkpt lat="45.93064" lon="3.6445">
        <ele>782</ele>
        <time>2023-08-03T08:40:56Z</time>
      </trkpt>
      <trkpt lat="45.93058" lon="3.64452">
        <ele>782.2</ele>
        <time>2023-08-03T08:41:01Z</time>
      </trkpt>
      <trkpt lat="45.93051" lon="3.64457">
        <ele>782.4</ele>
        <time>2023-08-03T08:41:07Z</time>
      </trkpt>
      <trkpt lat="45.93051" lon="3.6446">
        <ele>782.6</ele>
        <time>2023-08-03T08:41:09Z</time>
      </trkpt>
      <trkpt lat="45.93049" lon="3.64463">
        <ele>782.6</ele>
        <time>2023-08-03T08:41:11Z</time>
      </trkpt>
      <trkpt lat="45.93046" lon="3.64465">
        <ele>782.6</ele>
        <time>2023-08-03T08:41:13Z</time>
      </trkpt>
      <trkpt lat="45.93042" lon="3.64466">
        <ele>783</ele>
        <time>2023-08-03T08:41:16Z</time>
      </trkpt>
      <trkpt lat="45.93041" lon="3.64466">
        <ele>783</ele>
        <time>2023-08-03T08:41:17Z</time>
      </trkpt>
      <trkpt lat="45.93034" lon="3.64473">
        <ele>783.6</ele>
        <time>2023-08-03T08:41:23Z</time>
      </trkpt>
      <trkpt lat="45.93028" lon="3.64471">
        <ele>784</ele>
        <time>2023-08-03T08:41:28Z</time>
      </trkpt>
      <trkpt lat="45.93028" lon="3.64471">
        <ele>784</ele>
        <time>2023-08-03T08:41:29Z</time>
      </trkpt>
      <trkpt lat="45.9302" lon="3.64473">
        <ele>784.2</ele>
        <time>2023-08-03T08:41:34Z</time>
      </trkpt>
      <trkpt lat="45.93008" lon="3.64478">
        <ele>784.6</ele>
        <time>2023-08-03T08:41:40Z</time>
      </trkpt>
      <trkpt lat="45.93006" lon="3.64478">
        <ele>784.6</ele>
        <time>2023-08-03T08:41:41Z</time>
      </trkpt>
      <trkpt lat="45.92999" lon="3.64479">
        <ele>784.8</ele>
        <time>2023-08-03T08:41:46Z</time>
      </trkpt>
      <trkpt lat="45.92991" lon="3.64482">
        <ele>784.8</ele>
        <time>2023-08-03T08:41:53Z</time>
      </trkpt>
      <trkpt lat="45.92987" lon="3.64486">
        <ele>785</ele>
        <time>2023-08-03T08:41:56Z</time>
      </trkpt>
      <trkpt lat="45.92982" lon="3.64485">
        <ele>785.2</ele>
        <time>2023-08-03T08:42:00Z</time>
      </trkpt>
      <trkpt lat="45.92979" lon="3.64488">
        <ele>785.6</ele>
        <time>2023-08-03T08:42:03Z</time>
      </trkpt>
      <trkpt lat="45.92975" lon="3.64491">
        <ele>785.8</ele>
        <time>2023-08-03T08:42:05Z</time>
      </trkpt>
      <trkpt lat="45.92972" lon="3.64492">
        <ele>786</ele>
        <time>2023-08-03T08:42:07Z</time>
      </trkpt>
      <trkpt lat="45.9297" lon="3.64495">
        <ele>786.2</ele>
        <time>2023-08-03T08:42:10Z</time>
      </trkpt>
      <trkpt lat="45.92969" lon="3.64497">
        <ele>786.2</ele>
        <time>2023-08-03T08:42:11Z</time>
      </trkpt>
      <trkpt lat="45.92968" lon="3.64498">
        <ele>786.2</ele>
        <time>2023-08-03T08:42:12Z</time>
      </trkpt>
      <trkpt lat="45.92967" lon="3.64499">
        <ele>786.4</ele>
        <time>2023-08-03T08:42:13Z</time>
      </trkpt>
      <trkpt lat="45.92966" lon="3.64502">
        <ele>786.4</ele>
        <time>2023-08-03T08:42:15Z</time>
      </trkpt>
      <trkpt lat="45.92961" lon="3.64506">
        <ele>786.6</ele>
        <time>2023-08-03T08:42:18Z</time>
      </trkpt>
      <trkpt lat="45.92958" lon="3.64509">
        <ele>786.6</ele>
        <time>2023-08-03T08:42:21Z</time>
      </trkpt>
      <trkpt lat="45.92954" lon="3.64512">
        <ele>786.8</ele>
        <time>2023-08-03T08:42:24Z</time>
      </trkpt>
      <trkpt lat="45.92944" lon="3.6452">
        <ele>786.8</ele>
        <time>2023-08-03T08:42:33Z</time>
      </trkpt>
      <trkpt lat="45.92937" lon="3.64526">
        <ele>787</ele>
        <time>2023-08-03T08:42:40Z</time>
      </trkpt>
      <trkpt lat="45.92934" lon="3.64531">
        <ele>787.2</ele>
        <time>2023-08-03T08:42:46Z</time>
      </trkpt>
      <trkpt lat="45.92933" lon="3.64533">
        <ele>787.2</ele>
        <time>2023-08-03T08:42:47Z</time>
      </trkpt>
      <trkpt lat="45.92931" lon="3.64536">
        <ele>787.4</ele>
        <time>2023-08-03T08:42:49Z</time>
      </trkpt>
      <trkpt lat="45.9293" lon="3.64537">
        <ele>787.4</ele>
        <time>2023-08-03T08:42:50Z</time>
      </trkpt>
      <trkpt lat="45.92926" lon="3.6454">
        <ele>787.6</ele>
        <time>2023-08-03T08:42:53Z</time>
      </trkpt>
      <trkpt lat="45.92921" lon="3.64544">
        <ele>787.6</ele>
        <time>2023-08-03T08:42:56Z</time>
      </trkpt>
      <trkpt lat="45.92913" lon="3.64554">
        <ele>788</ele>
        <time>2023-08-03T08:43:04Z</time>
      </trkpt>
      <trkpt lat="45.92911" lon="3.64562">
        <ele>788.4</ele>
        <time>2023-08-03T08:43:10Z</time>
      </trkpt>
      <trkpt lat="45.9291" lon="3.64563">
        <ele>788.4</ele>
        <time>2023-08-03T08:43:11Z</time>
      </trkpt>
      <trkpt lat="45.92907" lon="3.64571">
        <ele>788.8</ele>
        <time>2023-08-03T08:43:15Z</time>
      </trkpt>
      <trkpt lat="45.92905" lon="3.64575">
        <ele>788.8</ele>
        <time>2023-08-03T08:43:17Z</time>
      </trkpt>
      <trkpt lat="45.92904" lon="3.64578">
        <ele>788.8</ele>
        <time>2023-08-03T08:43:18Z</time>
      </trkpt>
      <trkpt lat="45.92901" lon="3.64586">
        <ele>789</ele>
        <time>2023-08-03T08:43:23Z</time>
      </trkpt>
      <trkpt lat="45.92895" lon="3.64598">
        <ele>789.4</ele>
        <time>2023-08-03T08:43:30Z</time>
      </trkpt>
      <trkpt lat="45.92895" lon="3.64599">
        <ele>789.4</ele>
        <time>2023-08-03T08:43:31Z</time>
      </trkpt>
      <trkpt lat="45.92894" lon="3.64602">
        <ele>789.6</ele>
        <time>2023-08-03T08:43:33Z</time>
      </trkpt>
      <trkpt lat="45.92893" lon="3.64605">
        <ele>789.6</ele>
        <time>2023-08-03T08:43:35Z</time>
      </trkpt>
      <trkpt lat="45.9289" lon="3.64614">
        <ele>789.8</ele>
        <time>2023-08-03T08:43:40Z</time>
      </trkpt>
      <trkpt lat="45.92889" lon="3.64619">
        <ele>790</ele>
        <time>2023-08-03T08:43:42Z</time>
      </trkpt>
      <trkpt lat="45.92886" lon="3.64631">
        <ele>789.8</ele>
        <time>2023-08-03T08:43:49Z</time>
      </trkpt>
      <trkpt lat="45.92885" lon="3.64635">
        <ele>789.8</ele>
        <time>2023-08-03T08:43:52Z</time>
      </trkpt>
      <trkpt lat="45.92883" lon="3.64641">
        <ele>789.8</ele>
        <time>2023-08-03T08:43:55Z</time>
      </trkpt>
      <trkpt lat="45.92879" lon="3.64654">
        <ele>789.4</ele>
        <time>2023-08-03T08:44:02Z</time>
      </trkpt>
      <trkpt lat="45.92879" lon="3.64657">
        <ele>789.4</ele>
        <time>2023-08-03T08:44:04Z</time>
      </trkpt>
      <trkpt lat="45.92878" lon="3.64662">
        <ele>789</ele>
        <time>2023-08-03T08:44:07Z</time>
      </trkpt>
      <trkpt lat="45.92879" lon="3.64673">
        <ele>788.8</ele>
        <time>2023-08-03T08:44:13Z</time>
      </trkpt>
      <trkpt lat="45.92879" lon="3.64675">
        <ele>788.8</ele>
        <time>2023-08-03T08:44:14Z</time>
      </trkpt>
      <trkpt lat="45.92878" lon="3.64682">
        <ele>788.6</ele>
        <time>2023-08-03T08:44:17Z</time>
      </trkpt>
      <trkpt lat="45.92877" lon="3.64686">
        <ele>788.4</ele>
        <time>2023-08-03T08:44:20Z</time>
      </trkpt>
      <trkpt lat="45.92876" lon="3.64692">
        <ele>788.4</ele>
        <time>2023-08-03T08:44:24Z</time>
      </trkpt>
      <trkpt lat="45.92875" lon="3.64693">
        <ele>788.4</ele>
        <time>2023-08-03T08:44:25Z</time>
      </trkpt>
      <trkpt lat="45.92873" lon="3.64701">
        <ele>788.4</ele>
        <time>2023-08-03T08:44:29Z</time>
      </trkpt>
      <trkpt lat="45.92873" lon="3.64704">
        <ele>788.4</ele>
        <time>2023-08-03T08:44:31Z</time>
      </trkpt>
      <trkpt lat="45.92872" lon="3.64708">
        <ele>788.4</ele>
        <time>2023-08-03T08:44:33Z</time>
      </trkpt>
      <trkpt lat="45.92872" lon="3.6471">
        <ele>788.4</ele>
        <time>2023-08-03T08:44:34Z</time>
      </trkpt>
      <trkpt lat="45.9287" lon="3.64717">
        <ele>788.6</ele>
        <time>2023-08-03T08:44:38Z</time>
      </trkpt>
      <trkpt lat="45.92868" lon="3.64723">
        <ele>788.6</ele>
        <time>2023-08-03T08:44:41Z</time>
      </trkpt>
      <trkpt lat="45.92867" lon="3.64725">
        <ele>788.6</ele>
        <time>2023-08-03T08:44:42Z</time>
      </trkpt>
      <trkpt lat="45.92865" lon="3.64729">
        <ele>788.8</ele>
        <time>2023-08-03T08:44:44Z</time>
      </trkpt>
      <trkpt lat="45.92863" lon="3.64742">
        <ele>788.8</ele>
        <time>2023-08-03T08:44:50Z</time>
      </trkpt>
      <trkpt lat="45.92865" lon="3.64744">
        <ele>789</ele>
        <time>2023-08-03T08:44:51Z</time>
      </trkpt>
      <trkpt lat="45.92863" lon="3.64749">
        <ele>789</ele>
        <time>2023-08-03T08:44:54Z</time>
      </trkpt>
      <trkpt lat="45.92863" lon="3.6475">
        <ele>789</ele>
        <time>2023-08-03T08:44:55Z</time>
      </trkpt>
      <trkpt lat="45.92857" lon="3.64747">
        <ele>789</ele>
        <time>2023-08-03T08:45:00Z</time>
      </trkpt>
      <trkpt lat="45.92856" lon="3.64747">
        <ele>789</ele>
        <time>2023-08-03T08:45:01Z</time>
      </trkpt>
      <trkpt lat="45.92853" lon="3.64751">
        <ele>789</ele>
        <time>2023-08-03T08:45:05Z</time>
      </trkpt>
      <trkpt lat="45.92851" lon="3.64753">
        <ele>789</ele>
        <time>2023-08-03T08:45:06Z</time>
      </trkpt>
      <trkpt lat="45.92844" lon="3.64758">
        <ele>789.2</ele>
        <time>2023-08-03T08:45:11Z</time>
      </trkpt>
      <trkpt lat="45.92843" lon="3.6476">
        <ele>789.2</ele>
        <time>2023-08-03T08:45:13Z</time>
      </trkpt>
      <trkpt lat="45.92841" lon="3.64761">
        <ele>789.2</ele>
        <time>2023-08-03T08:45:15Z</time>
      </trkpt>
      <trkpt lat="45.9284" lon="3.64762">
        <ele>789.2</ele>
        <time>2023-08-03T08:45:17Z</time>
      </trkpt>
      <trkpt lat="45.9284" lon="3.64762">
        <ele>789.2</ele>
        <time>2023-08-03T08:45:18Z</time>
      </trkpt>
      <trkpt lat="45.92836" lon="3.64763">
        <ele>789.4</ele>
        <time>2023-08-03T08:45:22Z</time>
      </trkpt>
      <trkpt lat="45.92832" lon="3.64766">
        <ele>789.4</ele>
        <time>2023-08-03T08:45:25Z</time>
      </trkpt>
      <trkpt lat="45.92828" lon="3.64766">
        <ele>789.4</ele>
        <time>2023-08-03T08:45:29Z</time>
      </trkpt>
      <trkpt lat="45.92827" lon="3.64766">
        <ele>789.6</ele>
        <time>2023-08-03T08:45:30Z</time>
      </trkpt>
      <trkpt lat="45.92825" lon="3.64767">
        <ele>789.6</ele>
        <time>2023-08-03T08:45:31Z</time>
      </trkpt>
      <trkpt lat="45.92822" lon="3.64772">
        <ele>789.6</ele>
        <time>2023-08-03T08:45:34Z</time>
      </trkpt>
      <trkpt lat="45.92814" lon="3.64775">
        <ele>789.6</ele>
        <time>2023-08-03T08:45:40Z</time>
      </trkpt>
      <trkpt lat="45.92813" lon="3.64775">
        <ele>789.6</ele>
        <time>2023-08-03T08:45:41Z</time>
      </trkpt>
      <trkpt lat="45.92811" lon="3.64774">
        <ele>789.6</ele>
        <time>2023-08-03T08:45:46Z</time>
      </trkpt>
      <trkpt lat="45.92809" lon="3.64776">
        <ele>789.4</ele>
        <time>2023-08-03T08:45:50Z</time>
      </trkpt>
      <trkpt lat="45.92807" lon="3.64778">
        <ele>789.2</ele>
        <time>2023-08-03T08:45:52Z</time>
      </trkpt>
      <trkpt lat="45.92803" lon="3.64785">
        <ele>789.2</ele>
        <time>2023-08-03T08:45:57Z</time>
      </trkpt>
      <trkpt lat="45.92799" lon="3.64797">
        <ele>789.2</ele>
        <time>2023-08-03T08:46:03Z</time>
      </trkpt>
      <trkpt lat="45.92795" lon="3.64809">
        <ele>789.4</ele>
        <time>2023-08-03T08:46:09Z</time>
      </trkpt>
      <trkpt lat="45.92794" lon="3.64811">
        <ele>789.4</ele>
        <time>2023-08-03T08:46:10Z</time>
      </trkpt>
      <trkpt lat="45.92791" lon="3.6482">
        <ele>789.4</ele>
        <time>2023-08-03T08:46:14Z</time>
      </trkpt>
      <trkpt lat="45.9279" lon="3.64823">
        <ele>789.4</ele>
        <time>2023-08-03T08:46:16Z</time>
      </trkpt>
      <trkpt lat="45.92789" lon="3.64825">
        <ele>789.4</ele>
        <time>2023-08-03T08:46:18Z</time>
      </trkpt>
      <trkpt lat="45.92788" lon="3.64832">
        <ele>789.4</ele>
        <time>2023-08-03T08:46:21Z</time>
      </trkpt>
      <trkpt lat="45.92786" lon="3.6484">
        <ele>789.4</ele>
        <time>2023-08-03T08:46:24Z</time>
      </trkpt>
      <trkpt lat="45.92786" lon="3.64844">
        <ele>789.4</ele>
        <time>2023-08-03T08:46:26Z</time>
      </trkpt>
      <trkpt lat="45.92786" lon="3.64846">
        <ele>789.4</ele>
        <time>2023-08-03T08:46:27Z</time>
      </trkpt>
      <trkpt lat="45.92786" lon="3.64847">
        <ele>789.2</ele>
        <time>2023-08-03T08:46:28Z</time>
      </trkpt>
      <trkpt lat="45.92787" lon="3.64855">
        <ele>789</ele>
        <time>2023-08-03T08:46:32Z</time>
      </trkpt>
      <trkpt lat="45.92788" lon="3.64865">
        <ele>788.8</ele>
        <time>2023-08-03T08:46:38Z</time>
      </trkpt>
      <trkpt lat="45.92787" lon="3.64875">
        <ele>788.8</ele>
        <time>2023-08-03T08:46:43Z</time>
      </trkpt>
      <trkpt lat="45.92789" lon="3.64879">
        <ele>788.6</ele>
        <time>2023-08-03T08:46:45Z</time>
      </trkpt>
      <trkpt lat="45.92791" lon="3.64883">
        <ele>788.6</ele>
        <time>2023-08-03T08:46:47Z</time>
      </trkpt>
      <trkpt lat="45.92791" lon="3.64884">
        <ele>788.6</ele>
        <time>2023-08-03T08:46:49Z</time>
      </trkpt>
      <trkpt lat="45.92792" lon="3.64885">
        <ele>788.2</ele>
        <time>2023-08-03T08:46:52Z</time>
      </trkpt>
      <trkpt lat="45.92792" lon="3.64887">
        <ele>788</ele>
        <time>2023-08-03T08:46:56Z</time>
      </trkpt>
      <trkpt lat="45.92793" lon="3.64892">
        <ele>787.6</ele>
        <time>2023-08-03T08:47:01Z</time>
      </trkpt>
      <trkpt lat="45.92795" lon="3.64894">
        <ele>787.6</ele>
        <time>2023-08-03T08:47:03Z</time>
      </trkpt>
      <trkpt lat="45.92798" lon="3.64902">
        <ele>787.4</ele>
        <time>2023-08-03T08:47:09Z</time>
      </trkpt>
      <trkpt lat="45.92799" lon="3.64903">
        <ele>787.4</ele>
        <time>2023-08-03T08:47:11Z</time>
      </trkpt>
      <trkpt lat="45.92799" lon="3.64904">
        <ele>787.2</ele>
        <time>2023-08-03T08:47:14Z</time>
      </trkpt>
      <trkpt lat="45.92802" lon="3.64909">
        <ele>786.8</ele>
        <time>2023-08-03T08:47:17Z</time>
      </trkpt>
      <trkpt lat="45.92804" lon="3.64917">
        <ele>786.6</ele>
        <time>2023-08-03T08:47:22Z</time>
      </trkpt>
      <trkpt lat="45.92808" lon="3.64929">
        <ele>786.2</ele>
        <time>2023-08-03T08:47:29Z</time>
      </trkpt>
      <trkpt lat="45.92808" lon="3.6493">
        <ele>786.2</ele>
        <time>2023-08-03T08:47:30Z</time>
      </trkpt>
      <trkpt lat="45.92812" lon="3.64933">
        <ele>786</ele>
        <time>2023-08-03T08:47:32Z</time>
      </trkpt>
      <trkpt lat="45.92813" lon="3.64935">
        <ele>786</ele>
        <time>2023-08-03T08:47:33Z</time>
      </trkpt>
      <trkpt lat="45.92815" lon="3.64939">
        <ele>785.8</ele>
        <time>2023-08-03T08:47:36Z</time>
      </trkpt>
      <trkpt lat="45.92815" lon="3.64945">
        <ele>785.8</ele>
        <time>2023-08-03T08:47:39Z</time>
      </trkpt>
      <trkpt lat="45.92821" lon="3.64955">
        <ele>785.6</ele>
        <time>2023-08-03T08:47:45Z</time>
      </trkpt>
      <trkpt lat="45.92826" lon="3.6496">
        <ele>785.6</ele>
        <time>2023-08-03T08:47:49Z</time>
      </trkpt>
      <trkpt lat="45.92828" lon="3.64963">
        <ele>785.6</ele>
        <time>2023-08-03T08:47:51Z</time>
      </trkpt>
      <trkpt lat="45.92833" lon="3.64968">
        <ele>785.2</ele>
        <time>2023-08-03T08:47:56Z</time>
      </trkpt>
      <trkpt lat="45.92836" lon="3.64969">
        <ele>785</ele>
        <time>2023-08-03T08:47:57Z</time>
      </trkpt>
      <trkpt lat="45.92838" lon="3.6497">
        <ele>784.6</ele>
        <time>2023-08-03T08:47:58Z</time>
      </trkpt>
      <trkpt lat="45.92841" lon="3.64972">
        <ele>784</ele>
        <time>2023-08-03T08:48:01Z</time>
      </trkpt>
      <trkpt lat="45.92846" lon="3.6497">
        <ele>783.2</ele>
        <time>2023-08-03T08:48:05Z</time>
      </trkpt>
      <trkpt lat="45.92847" lon="3.64968">
        <ele>783</ele>
        <time>2023-08-03T08:48:06Z</time>
      </trkpt>
      <trkpt lat="45.92848" lon="3.64966">
        <ele>783</ele>
        <time>2023-08-03T08:48:07Z</time>
      </trkpt>
      <trkpt lat="45.92852" lon="3.64967">
        <ele>781.8</ele>
        <time>2023-08-03T08:48:12Z</time>
      </trkpt>
      <trkpt lat="45.9286" lon="3.64966">
        <ele>781</ele>
        <time>2023-08-03T08:48:17Z</time>
      </trkpt>
      <trkpt lat="45.92864" lon="3.64967">
        <ele>780.8</ele>
        <time>2023-08-03T08:48:19Z</time>
      </trkpt>
      <trkpt lat="45.92869" lon="3.64967">
        <ele>780.2</ele>
        <time>2023-08-03T08:48:22Z</time>
      </trkpt>
      <trkpt lat="45.92871" lon="3.64964">
        <ele>779.6</ele>
        <time>2023-08-03T08:48:25Z</time>
      </trkpt>
      <trkpt lat="45.92871" lon="3.64963">
        <ele>779.4</ele>
        <time>2023-08-03T08:48:27Z</time>
      </trkpt>
      <trkpt lat="45.92878" lon="3.6496">
        <ele>778.6</ele>
        <time>2023-08-03T08:48:33Z</time>
      </trkpt>
      <trkpt lat="45.92879" lon="3.6496">
        <ele>778.4</ele>
        <time>2023-08-03T08:48:34Z</time>
      </trkpt>
      <trkpt lat="45.92882" lon="3.64966">
        <ele>777.8</ele>
        <time>2023-08-03T08:48:40Z</time>
      </trkpt>
      <trkpt lat="45.92888" lon="3.64977">
        <ele>777.6</ele>
        <time>2023-08-03T08:48:44Z</time>
      </trkpt>
      <trkpt lat="45.92887" lon="3.64982">
        <ele>777.4</ele>
        <time>2023-08-03T08:48:46Z</time>
      </trkpt>
      <trkpt lat="45.92883" lon="3.64989">
        <ele>777.4</ele>
        <time>2023-08-03T08:48:52Z</time>
      </trkpt>
      <trkpt lat="45.92878" lon="3.65003">
        <ele>778</ele>
        <time>2023-08-03T08:48:58Z</time>
      </trkpt>
      <trkpt lat="45.92878" lon="3.65006">
        <ele>778.2</ele>
        <time>2023-08-03T08:49:03Z</time>
      </trkpt>
      <trkpt lat="45.92876" lon="3.65008">
        <ele>778.6</ele>
        <time>2023-08-03T08:49:06Z</time>
      </trkpt>
      <trkpt lat="45.92875" lon="3.6501">
        <ele>779</ele>
        <time>2023-08-03T08:49:09Z</time>
      </trkpt>
      <trkpt lat="45.92873" lon="3.65013">
        <ele>779.4</ele>
        <time>2023-08-03T08:49:13Z</time>
      </trkpt>
      <trkpt lat="45.92872" lon="3.65015">
        <ele>779.6</ele>
        <time>2023-08-03T08:49:15Z</time>
      </trkpt>
      <trkpt lat="45.9287" lon="3.6502">
        <ele>780.2</ele>
        <time>2023-08-03T08:49:20Z</time>
      </trkpt>
      <trkpt lat="45.92868" lon="3.65027">
        <ele>780.8</ele>
        <time>2023-08-03T08:49:25Z</time>
      </trkpt>
      <trkpt lat="45.92869" lon="3.6503">
        <ele>781</ele>
        <time>2023-08-03T08:49:27Z</time>
      </trkpt>
      <trkpt lat="45.92867" lon="3.65036">
        <ele>781.8</ele>
        <time>2023-08-03T08:49:32Z</time>
      </trkpt>
      <trkpt lat="45.92865" lon="3.65039">
        <ele>782</ele>
        <time>2023-08-03T08:49:33Z</time>
      </trkpt>
      <trkpt lat="45.92865" lon="3.65041">
        <ele>782.2</ele>
        <time>2023-08-03T08:49:34Z</time>
      </trkpt>
      <trkpt lat="45.92864" lon="3.65047">
        <ele>782.8</ele>
        <time>2023-08-03T08:49:38Z</time>
      </trkpt>
      <trkpt lat="45.92864" lon="3.65047">
        <ele>783.4</ele>
        <time>2023-08-03T08:49:42Z</time>
      </trkpt>
      <trkpt lat="45.92865" lon="3.65049">
        <ele>783.6</ele>
        <time>2023-08-03T08:49:43Z</time>
      </trkpt>
      <trkpt lat="45.92866" lon="3.65053">
        <ele>784</ele>
        <time>2023-08-03T08:49:46Z</time>
      </trkpt>
      <trkpt lat="45.92866" lon="3.65054">
        <ele>784.4</ele>
        <time>2023-08-03T08:49:47Z</time>
      </trkpt>
      <trkpt lat="45.92866" lon="3.65057">
        <ele>785</ele>
        <time>2023-08-03T08:49:51Z</time>
      </trkpt>
      <trkpt lat="45.92867" lon="3.65058">
        <ele>785.2</ele>
        <time>2023-08-03T08:49:52Z</time>
      </trkpt>
      <trkpt lat="45.92868" lon="3.65062">
        <ele>785.8</ele>
        <time>2023-08-03T08:49:56Z</time>
      </trkpt>
      <trkpt lat="45.92869" lon="3.65064">
        <ele>786.2</ele>
        <time>2023-08-03T08:49:58Z</time>
      </trkpt>
      <trkpt lat="45.92869" lon="3.65067">
        <ele>786.6</ele>
        <time>2023-08-03T08:50:01Z</time>
      </trkpt>
      <trkpt lat="45.92869" lon="3.65072">
        <ele>787.4</ele>
        <time>2023-08-03T08:50:05Z</time>
      </trkpt>
      <trkpt lat="45.92869" lon="3.65073">
        <ele>787.4</ele>
        <time>2023-08-03T08:50:06Z</time>
      </trkpt>
      <trkpt lat="45.9287" lon="3.65077">
        <ele>788</ele>
        <time>2023-08-03T08:50:09Z</time>
      </trkpt>
      <trkpt lat="45.92871" lon="3.65082">
        <ele>788.4</ele>
        <time>2023-08-03T08:50:13Z</time>
      </trkpt>
      <trkpt lat="45.92871" lon="3.65084">
        <ele>788.6</ele>
        <time>2023-08-03T08:50:14Z</time>
      </trkpt>
      <trkpt lat="45.92871" lon="3.6509">
        <ele>789</ele>
        <time>2023-08-03T08:50:18Z</time>
      </trkpt>
      <trkpt lat="45.92872" lon="3.65097">
        <ele>789.4</ele>
        <time>2023-08-03T08:50:23Z</time>
      </trkpt>
      <trkpt lat="45.92872" lon="3.651">
        <ele>789.8</ele>
        <time>2023-08-03T08:50:25Z</time>
      </trkpt>
      <trkpt lat="45.92873" lon="3.65105">
        <ele>790</ele>
        <time>2023-08-03T08:50:28Z</time>
      </trkpt>
      <trkpt lat="45.92874" lon="3.6511">
        <ele>790.8</ele>
        <time>2023-08-03T08:50:32Z</time>
      </trkpt>
      <trkpt lat="45.92875" lon="3.65116">
        <ele>791.4</ele>
        <time>2023-08-03T08:50:36Z</time>
      </trkpt>
      <trkpt lat="45.92875" lon="3.65119">
        <ele>791.4</ele>
        <time>2023-08-03T08:50:37Z</time>
      </trkpt>
      <trkpt lat="45.92876" lon="3.65125">
        <ele>791.8</ele>
        <time>2023-08-03T08:50:42Z</time>
      </trkpt>
      <trkpt lat="45.92878" lon="3.65128">
        <ele>791.8</ele>
        <time>2023-08-03T08:50:45Z</time>
      </trkpt>
      <trkpt lat="45.92877" lon="3.65128">
        <ele>792</ele>
        <time>2023-08-03T08:50:47Z</time>
      </trkpt>
      <trkpt lat="45.92872" lon="3.65125">
        <ele>792</ele>
        <time>2023-08-03T08:50:52Z</time>
      </trkpt>
      <trkpt lat="45.9287" lon="3.65125">
        <ele>792</ele>
        <time>2023-08-03T08:50:54Z</time>
      </trkpt>
      <trkpt lat="45.92868" lon="3.65124">
        <ele>792</ele>
        <time>2023-08-03T08:50:58Z</time>
      </trkpt>
      <trkpt lat="45.92865" lon="3.65126">
        <ele>791.8</ele>
        <time>2023-08-03T08:51:02Z</time>
      </trkpt>
      <trkpt lat="45.92861" lon="3.65129">
        <ele>791.4</ele>
        <time>2023-08-03T08:51:05Z</time>
      </trkpt>
      <trkpt lat="45.92857" lon="3.65129">
        <ele>791</ele>
        <time>2023-08-03T08:51:11Z</time>
      </trkpt>
      <trkpt lat="45.92855" lon="3.6513">
        <ele>790.8</ele>
        <time>2023-08-03T08:51:13Z</time>
      </trkpt>
      <trkpt lat="45.92851" lon="3.6513">
        <ele>790.6</ele>
        <time>2023-08-03T08:51:19Z</time>
      </trkpt>
      <trkpt lat="45.92845" lon="3.6513">
        <ele>790.4</ele>
        <time>2023-08-03T08:51:25Z</time>
      </trkpt>
      <trkpt lat="45.92843" lon="3.65131">
        <ele>790.4</ele>
        <time>2023-08-03T08:51:27Z</time>
      </trkpt>
      <trkpt lat="45.92841" lon="3.65131">
        <ele>790.2</ele>
        <time>2023-08-03T08:51:31Z</time>
      </trkpt>
      <trkpt lat="45.92833" lon="3.65131">
        <ele>790.2</ele>
        <time>2023-08-03T08:51:37Z</time>
      </trkpt>
      <trkpt lat="45.92825" lon="3.65131">
        <ele>790.2</ele>
        <time>2023-08-03T08:51:44Z</time>
      </trkpt>
      <trkpt lat="45.92817" lon="3.65136">
        <ele>789.8</ele>
        <time>2023-08-03T08:51:52Z</time>
      </trkpt>
      <trkpt lat="45.92808" lon="3.65139">
        <ele>789.6</ele>
        <time>2023-08-03T08:51:58Z</time>
      </trkpt>
      <trkpt lat="45.92805" lon="3.65143">
        <ele>789.6</ele>
        <time>2023-08-03T08:52:03Z</time>
      </trkpt>
      <trkpt lat="45.92807" lon="3.65146">
        <ele>789.6</ele>
        <time>2023-08-03T08:52:04Z</time>
      </trkpt>
      <trkpt lat="45.92799" lon="3.65145">
        <ele>789.4</ele>
        <time>2023-08-03T08:52:09Z</time>
      </trkpt>
      <trkpt lat="45.92793" lon="3.65146">
        <ele>789.2</ele>
        <time>2023-08-03T08:52:14Z</time>
      </trkpt>
      <trkpt lat="45.92785" lon="3.6515">
        <ele>788.8</ele>
        <time>2023-08-03T08:52:21Z</time>
      </trkpt>
      <trkpt lat="45.92782" lon="3.65153">
        <ele>788.6</ele>
        <time>2023-08-03T08:52:24Z</time>
      </trkpt>
      <trkpt lat="45.9278" lon="3.65154">
        <ele>788.6</ele>
        <time>2023-08-03T08:52:26Z</time>
      </trkpt>
      <trkpt lat="45.9278" lon="3.65156">
        <ele>787.8</ele>
        <time>2023-08-03T08:52:33Z</time>
      </trkpt>
      <trkpt lat="45.92776" lon="3.65154">
        <ele>787.6</ele>
        <time>2023-08-03T08:52:39Z</time>
      </trkpt>
      <trkpt lat="45.9277" lon="3.65156">
        <ele>787.6</ele>
        <time>2023-08-03T08:52:45Z</time>
      </trkpt>
      <trkpt lat="45.92764" lon="3.65158">
        <ele>787.6</ele>
        <time>2023-08-03T08:52:50Z</time>
      </trkpt>
      <trkpt lat="45.92764" lon="3.65158">
        <ele>787.6</ele>
        <time>2023-08-03T08:52:51Z</time>
      </trkpt>
      <trkpt lat="45.9276" lon="3.65159">
        <ele>787.4</ele>
        <time>2023-08-03T08:52:54Z</time>
      </trkpt>
      <trkpt lat="45.92754" lon="3.65161">
        <ele>787</ele>
        <time>2023-08-03T08:52:58Z</time>
      </trkpt>
      <trkpt lat="45.92751" lon="3.65163">
        <ele>786.6</ele>
        <time>2023-08-03T08:53:02Z</time>
      </trkpt>
      <trkpt lat="45.92748" lon="3.65164">
        <ele>786.2</ele>
        <time>2023-08-03T08:53:05Z</time>
      </trkpt>
      <trkpt lat="45.92737" lon="3.65164">
        <ele>785.8</ele>
        <time>2023-08-03T08:53:13Z</time>
      </trkpt>
      <trkpt lat="45.92734" lon="3.65167">
        <ele>785.4</ele>
        <time>2023-08-03T08:53:16Z</time>
      </trkpt>
      <trkpt lat="45.9273" lon="3.6517">
        <ele>785</ele>
        <time>2023-08-03T08:53:20Z</time>
      </trkpt>
      <trkpt lat="45.92727" lon="3.65172">
        <ele>784.4</ele>
        <time>2023-08-03T08:53:25Z</time>
      </trkpt>
      <trkpt lat="45.92724" lon="3.65177">
        <ele>784.2</ele>
        <time>2023-08-03T08:53:29Z</time>
      </trkpt>
      <trkpt lat="45.92718" lon="3.65174">
        <ele>784</ele>
        <time>2023-08-03T08:53:35Z</time>
      </trkpt>
      <trkpt lat="45.92714" lon="3.65176">
        <ele>784</ele>
        <time>2023-08-03T08:53:41Z</time>
      </trkpt>
      <trkpt lat="45.92705" lon="3.65174">
        <ele>783.8</ele>
        <time>2023-08-03T08:53:47Z</time>
      </trkpt>
      <trkpt lat="45.92696" lon="3.65178">
        <ele>783.6</ele>
        <time>2023-08-03T08:53:54Z</time>
      </trkpt>
      <trkpt lat="45.92691" lon="3.65178">
        <ele>783.4</ele>
        <time>2023-08-03T08:54:00Z</time>
      </trkpt>
      <trkpt lat="45.92689" lon="3.65178">
        <ele>783.4</ele>
        <time>2023-08-03T08:54:01Z</time>
      </trkpt>
      <trkpt lat="45.92685" lon="3.65183">
        <ele>782.6</ele>
        <time>2023-08-03T08:54:08Z</time>
      </trkpt>
      <trkpt lat="45.92683" lon="3.65183">
        <ele>782.4</ele>
        <time>2023-08-03T08:54:09Z</time>
      </trkpt>
      <trkpt lat="45.92674" lon="3.65184">
        <ele>781.6</ele>
        <time>2023-08-03T08:54:16Z</time>
      </trkpt>
      <trkpt lat="45.92673" lon="3.65186">
        <ele>781.4</ele>
        <time>2023-08-03T08:54:17Z</time>
      </trkpt>
      <trkpt lat="45.92668" lon="3.6519">
        <ele>780.6</ele>
        <time>2023-08-03T08:54:23Z</time>
      </trkpt>
      <trkpt lat="45.92663" lon="3.65194">
        <ele>780.2</ele>
        <time>2023-08-03T08:54:28Z</time>
      </trkpt>
      <trkpt lat="45.92661" lon="3.65195">
        <ele>780.2</ele>
        <time>2023-08-03T08:54:29Z</time>
      </trkpt>
      <trkpt lat="45.92657" lon="3.65197">
        <ele>779.2</ele>
        <time>2023-08-03T08:54:35Z</time>
      </trkpt>
      <trkpt lat="45.92655" lon="3.65198">
        <ele>778.4</ele>
        <time>2023-08-03T08:54:40Z</time>
      </trkpt>
      <trkpt lat="45.92656" lon="3.65198">
        <ele>778</ele>
        <time>2023-08-03T08:54:42Z</time>
      </trkpt>
      <trkpt lat="45.92654" lon="3.65197">
        <ele>777.8</ele>
        <time>2023-08-03T08:54:45Z</time>
      </trkpt>
      <trkpt lat="45.92652" lon="3.65196">
        <ele>777.8</ele>
        <time>2023-08-03T08:54:47Z</time>
      </trkpt>
      <trkpt lat="45.92647" lon="3.65193">
        <ele>777.2</ele>
        <time>2023-08-03T08:54:53Z</time>
      </trkpt>
      <trkpt lat="45.92645" lon="3.65192">
        <ele>777</ele>
        <time>2023-08-03T08:54:55Z</time>
      </trkpt>
      <trkpt lat="45.92642" lon="3.65191">
        <ele>776.6</ele>
        <time>2023-08-03T08:54:59Z</time>
      </trkpt>
      <trkpt lat="45.9264" lon="3.65191">
        <ele>776.6</ele>
        <time>2023-08-03T08:55:01Z</time>
      </trkpt>
      <trkpt lat="45.92639" lon="3.65189">
        <ele>776.2</ele>
        <time>2023-08-03T08:55:03Z</time>
      </trkpt>
      <trkpt lat="45.92637" lon="3.65187">
        <ele>776</ele>
        <time>2023-08-03T08:55:05Z</time>
      </trkpt>
      <trkpt lat="45.92636" lon="3.65187">
        <ele>775.8</ele>
        <time>2023-08-03T08:55:06Z</time>
      </trkpt>
      <trkpt lat="45.92626" lon="3.65185">
        <ele>775.4</ele>
        <time>2023-08-03T08:55:11Z</time>
      </trkpt>
      <trkpt lat="45.92628" lon="3.65191">
        <ele>775.2</ele>
        <time>2023-08-03T08:55:20Z</time>
      </trkpt>
      <trkpt lat="45.92625" lon="3.65189">
        <ele>775.2</ele>
        <time>2023-08-03T08:55:25Z</time>
      </trkpt>
      <trkpt lat="45.92627" lon="3.65189">
        <ele>775.2</ele>
        <time>2023-08-03T08:55:52Z</time>
      </trkpt>
      <trkpt lat="45.92625" lon="3.65188">
        <ele>775</ele>
        <time>2023-08-03T08:55:54Z</time>
      </trkpt>
      <trkpt lat="45.92619" lon="3.65189">
        <ele>774.4</ele>
        <time>2023-08-03T08:56:02Z</time>
      </trkpt>
      <trkpt lat="45.92616" lon="3.65189">
        <ele>774.4</ele>
        <time>2023-08-03T08:56:04Z</time>
      </trkpt>
      <trkpt lat="45.92614" lon="3.65187">
        <ele>774.2</ele>
        <time>2023-08-03T08:56:06Z</time>
      </trkpt>
      <trkpt lat="45.9261" lon="3.65186">
        <ele>774</ele>
        <time>2023-08-03T08:56:09Z</time>
      </trkpt>
      <trkpt lat="45.92609" lon="3.65186">
        <ele>774</ele>
        <time>2023-08-03T08:56:10Z</time>
      </trkpt>
      <trkpt lat="45.92604" lon="3.65185">
        <ele>773.6</ele>
        <time>2023-08-03T08:56:15Z</time>
      </trkpt>
      <trkpt lat="45.92597" lon="3.65182">
        <ele>773.2</ele>
        <time>2023-08-03T08:56:19Z</time>
      </trkpt>
      <trkpt lat="45.92597" lon="3.65183">
        <ele>773</ele>
        <time>2023-08-03T08:56:21Z</time>
      </trkpt>
      <trkpt lat="45.92597" lon="3.65184">
        <ele>773</ele>
        <time>2023-08-03T08:56:22Z</time>
      </trkpt>
      <trkpt lat="45.92597" lon="3.65183">
        <ele>772.8</ele>
        <time>2023-08-03T08:56:23Z</time>
      </trkpt>
      <trkpt lat="45.92593" lon="3.6518">
        <ele>772.6</ele>
        <time>2023-08-03T08:56:27Z</time>
      </trkpt>
      <trkpt lat="45.9259" lon="3.65183">
        <ele>772.2</ele>
        <time>2023-08-03T08:56:32Z</time>
      </trkpt>
      <trkpt lat="45.92589" lon="3.65185">
        <ele>771.8</ele>
        <time>2023-08-03T08:56:35Z</time>
      </trkpt>
      <trkpt lat="45.92588" lon="3.65185">
        <ele>771.8</ele>
        <time>2023-08-03T08:56:36Z</time>
      </trkpt>
      <trkpt lat="45.92585" lon="3.65183">
        <ele>771.4</ele>
        <time>2023-08-03T08:56:39Z</time>
      </trkpt>
      <trkpt lat="45.92582" lon="3.65182">
        <ele>771.4</ele>
        <time>2023-08-03T08:56:41Z</time>
      </trkpt>
      <trkpt lat="45.92577" lon="3.65179">
        <ele>771</ele>
        <time>2023-08-03T08:56:47Z</time>
      </trkpt>
      <trkpt lat="45.92572" lon="3.65179">
        <ele>770.8</ele>
        <time>2023-08-03T08:56:51Z</time>
      </trkpt>
      <trkpt lat="45.92563" lon="3.6518">
        <ele>770.8</ele>
        <time>2023-08-03T08:56:56Z</time>
      </trkpt>
      <trkpt lat="45.92562" lon="3.65181">
        <ele>770.8</ele>
        <time>2023-08-03T08:56:57Z</time>
      </trkpt>
      <trkpt lat="45.92561" lon="3.65189">
        <ele>770.2</ele>
        <time>2023-08-03T08:57:01Z</time>
      </trkpt>
      <trkpt lat="45.92562" lon="3.65194">
        <ele>769.6</ele>
        <time>2023-08-03T08:57:05Z</time>
      </trkpt>
      <trkpt lat="45.92562" lon="3.65196">
        <ele>769.6</ele>
        <time>2023-08-03T08:57:06Z</time>
      </trkpt>
      <trkpt lat="45.92563" lon="3.65201">
        <ele>769.4</ele>
        <time>2023-08-03T08:57:09Z</time>
      </trkpt>
      <trkpt lat="45.92563" lon="3.65203">
        <ele>769.4</ele>
        <time>2023-08-03T08:57:11Z</time>
      </trkpt>
      <trkpt lat="45.92561" lon="3.65207">
        <ele>769.4</ele>
        <time>2023-08-03T08:57:16Z</time>
      </trkpt>
      <trkpt lat="45.92562" lon="3.65209">
        <ele>769.2</ele>
        <time>2023-08-03T08:57:20Z</time>
      </trkpt>
      <trkpt lat="45.92563" lon="3.65212">
        <ele>768.8</ele>
        <time>2023-08-03T08:57:23Z</time>
      </trkpt>
      <trkpt lat="45.92563" lon="3.65213">
        <ele>768.6</ele>
        <time>2023-08-03T08:57:24Z</time>
      </trkpt>
      <trkpt lat="45.92563" lon="3.65215">
        <ele>768.6</ele>
        <time>2023-08-03T08:57:25Z</time>
      </trkpt>
      <trkpt lat="45.92566" lon="3.6522">
        <ele>767.6</ele>
        <time>2023-08-03T08:57:30Z</time>
      </trkpt>
      <trkpt lat="45.92566" lon="3.65221">
        <ele>767.6</ele>
        <time>2023-08-03T08:57:31Z</time>
      </trkpt>
      <trkpt lat="45.92568" lon="3.65226">
        <ele>766.4</ele>
        <time>2023-08-03T08:57:35Z</time>
      </trkpt>
      <trkpt lat="45.9257" lon="3.65228">
        <ele>766</ele>
        <time>2023-08-03T08:57:36Z</time>
      </trkpt>
      <trkpt lat="45.92573" lon="3.65232">
        <ele>765.4</ele>
        <time>2023-08-03T08:57:39Z</time>
      </trkpt>
      <trkpt lat="45.92574" lon="3.65239">
        <ele>764.8</ele>
        <time>2023-08-03T08:57:42Z</time>
      </trkpt>
      <trkpt lat="45.92572" lon="3.65241">
        <ele>764.6</ele>
        <time>2023-08-03T08:57:43Z</time>
      </trkpt>
      <trkpt lat="45.92573" lon="3.65244">
        <ele>764.2</ele>
        <time>2023-08-03T08:57:45Z</time>
      </trkpt>
      <trkpt lat="45.92575" lon="3.65252">
        <ele>763.6</ele>
        <time>2023-08-03T08:57:49Z</time>
      </trkpt>
      <trkpt lat="45.92571" lon="3.65257">
        <ele>763.2</ele>
        <time>2023-08-03T08:57:51Z</time>
      </trkpt>
      <trkpt lat="45.92572" lon="3.65267">
        <ele>762.6</ele>
        <time>2023-08-03T08:57:55Z</time>
      </trkpt>
      <trkpt lat="45.92571" lon="3.65268">
        <ele>762.4</ele>
        <time>2023-08-03T08:57:56Z</time>
      </trkpt>
      <trkpt lat="45.9257" lon="3.65273">
        <ele>762.2</ele>
        <time>2023-08-03T08:57:58Z</time>
      </trkpt>
      <trkpt lat="45.9257" lon="3.65274">
        <ele>762</ele>
        <time>2023-08-03T08:57:59Z</time>
      </trkpt>
      <trkpt lat="45.9257" lon="3.65275">
        <ele>762</ele>
        <time>2023-08-03T08:58:00Z</time>
      </trkpt>
      <trkpt lat="45.92564" lon="3.65285">
        <ele>761.2</ele>
        <time>2023-08-03T08:58:05Z</time>
      </trkpt>
      <trkpt lat="45.92563" lon="3.65286">
        <ele>761</ele>
        <time>2023-08-03T08:58:06Z</time>
      </trkpt>
      <trkpt lat="45.92561" lon="3.65293">
        <ele>759.8</ele>
        <time>2023-08-03T08:58:11Z</time>
      </trkpt>
      <trkpt lat="45.92562" lon="3.65295">
        <ele>759.8</ele>
        <time>2023-08-03T08:58:12Z</time>
      </trkpt>
      <trkpt lat="45.92562" lon="3.65297">
        <ele>759.6</ele>
        <time>2023-08-03T08:58:13Z</time>
      </trkpt>
      <trkpt lat="45.9256" lon="3.65299">
        <ele>758.8</ele>
        <time>2023-08-03T08:58:17Z</time>
      </trkpt>
      <trkpt lat="45.9256" lon="3.65304">
        <ele>758.4</ele>
        <time>2023-08-03T08:58:20Z</time>
      </trkpt>
      <trkpt lat="45.92562" lon="3.65308">
        <ele>757.8</ele>
        <time>2023-08-03T08:58:23Z</time>
      </trkpt>
      <trkpt lat="45.92562" lon="3.65309">
        <ele>757.6</ele>
        <time>2023-08-03T08:58:24Z</time>
      </trkpt>
      <trkpt lat="45.92562" lon="3.6531">
        <ele>757.6</ele>
        <time>2023-08-03T08:58:25Z</time>
      </trkpt>
      <trkpt lat="45.92564" lon="3.65314">
        <ele>757.2</ele>
        <time>2023-08-03T08:58:28Z</time>
      </trkpt>
      <trkpt lat="45.92565" lon="3.65317">
        <ele>756.8</ele>
        <time>2023-08-03T08:58:30Z</time>
      </trkpt>
      <trkpt lat="45.92566" lon="3.6532">
        <ele>756.6</ele>
        <time>2023-08-03T08:58:32Z</time>
      </trkpt>
      <trkpt lat="45.92568" lon="3.65327">
        <ele>756</ele>
        <time>2023-08-03T08:58:38Z</time>
      </trkpt>
      <trkpt lat="45.9257" lon="3.65334">
        <ele>755.8</ele>
        <time>2023-08-03T08:58:43Z</time>
      </trkpt>
      <trkpt lat="45.92571" lon="3.65336">
        <ele>755.8</ele>
        <time>2023-08-03T08:58:48Z</time>
      </trkpt>
      <trkpt lat="45.92572" lon="3.65336">
        <ele>755.6</ele>
        <time>2023-08-03T08:58:53Z</time>
      </trkpt>
      <trkpt lat="45.9257" lon="3.65334">
        <ele>755.6</ele>
        <time>2023-08-03T08:58:56Z</time>
      </trkpt>
      <trkpt lat="45.92569" lon="3.65335">
        <ele>755.8</ele>
        <time>2023-08-03T08:59:01Z</time>
      </trkpt>
      <trkpt lat="45.92566" lon="3.65338">
        <ele>755.8</ele>
        <time>2023-08-03T08:59:06Z</time>
      </trkpt>
      <trkpt lat="45.92566" lon="3.65337">
        <ele>755.8</ele>
        <time>2023-08-03T08:59:13Z</time>
      </trkpt>
      <trkpt lat="45.92564" lon="3.65338">
        <ele>755.8</ele>
        <time>2023-08-03T08:59:19Z</time>
      </trkpt>
      <trkpt lat="45.92566" lon="3.65343">
        <ele>755.6</ele>
        <time>2023-08-03T08:59:25Z</time>
      </trkpt>
      <trkpt lat="45.92564" lon="3.65342">
        <ele>755.6</ele>
        <time>2023-08-03T08:59:26Z</time>
      </trkpt>
      <trkpt lat="45.9256" lon="3.65344">
        <ele>755.4</ele>
        <time>2023-08-03T08:59:30Z</time>
      </trkpt>
      <trkpt lat="45.92567" lon="3.65345">
        <ele>755.2</ele>
        <time>2023-08-03T08:59:36Z</time>
      </trkpt>
      <trkpt lat="45.92566" lon="3.65343">
        <ele>755.2</ele>
        <time>2023-08-03T08:59:41Z</time>
      </trkpt>
      <trkpt lat="45.92568" lon="3.65347">
        <ele>755.2</ele>
        <time>2023-08-03T08:59:47Z</time>
      </trkpt>
      <trkpt lat="45.92569" lon="3.65345">
        <ele>755</ele>
        <time>2023-08-03T09:00:01Z</time>
      </trkpt>
      <trkpt lat="45.92568" lon="3.65342">
        <ele>755</ele>
        <time>2023-08-03T09:00:28Z</time>
      </trkpt>
      <trkpt lat="45.92569" lon="3.65344">
        <ele>755</ele>
        <time>2023-08-03T09:00:30Z</time>
      </trkpt>
      <trkpt lat="45.9257" lon="3.65345">
        <ele>755.2</ele>
        <time>2023-08-03T09:00:31Z</time>
      </trkpt>
      <trkpt lat="45.92575" lon="3.65346">
        <ele>755.6</ele>
        <time>2023-08-03T09:00:34Z</time>
      </trkpt>
      <trkpt lat="45.92578" lon="3.65349">
        <ele>755.6</ele>
        <time>2023-08-03T09:00:37Z</time>
      </trkpt>
      <trkpt lat="45.92581" lon="3.65357">
        <ele>755.8</ele>
        <time>2023-08-03T09:00:43Z</time>
      </trkpt>
      <trkpt lat="45.92582" lon="3.65362">
        <ele>755.8</ele>
        <time>2023-08-03T09:00:48Z</time>
      </trkpt>
      <trkpt lat="45.92583" lon="3.65369">
        <ele>756</ele>
        <time>2023-08-03T09:00:53Z</time>
      </trkpt>
      <trkpt lat="45.92585" lon="3.65376">
        <ele>756.4</ele>
        <time>2023-08-03T09:00:57Z</time>
      </trkpt>
      <trkpt lat="45.92586" lon="3.65378">
        <ele>756.8</ele>
        <time>2023-08-03T09:01:00Z</time>
      </trkpt>
      <trkpt lat="45.92586" lon="3.65384">
        <ele>756.8</ele>
        <time>2023-08-03T09:01:03Z</time>
      </trkpt>
      <trkpt lat="45.92586" lon="3.65388">
        <ele>757</ele>
        <time>2023-08-03T09:01:05Z</time>
      </trkpt>
      <trkpt lat="45.92587" lon="3.6539">
        <ele>757.2</ele>
        <time>2023-08-03T09:01:06Z</time>
      </trkpt>
      <trkpt lat="45.92587" lon="3.65392">
        <ele>757.4</ele>
        <time>2023-08-03T09:01:07Z</time>
      </trkpt>
      <trkpt lat="45.92588" lon="3.65395">
        <ele>757.8</ele>
        <time>2023-08-03T09:01:10Z</time>
      </trkpt>
      <trkpt lat="45.92589" lon="3.65398">
        <ele>757.8</ele>
        <time>2023-08-03T09:01:12Z</time>
      </trkpt>
      <trkpt lat="45.9259" lon="3.65399">
        <ele>758</ele>
        <time>2023-08-03T09:01:13Z</time>
      </trkpt>
      <trkpt lat="45.92591" lon="3.65403">
        <ele>758.4</ele>
        <time>2023-08-03T09:01:16Z</time>
      </trkpt>
      <trkpt lat="45.92594" lon="3.65407">
        <ele>758.6</ele>
        <time>2023-08-03T09:01:19Z</time>
      </trkpt>
      <trkpt lat="45.92594" lon="3.65408">
        <ele>758.6</ele>
        <time>2023-08-03T09:01:21Z</time>
      </trkpt>
      <trkpt lat="45.92598" lon="3.65417">
        <ele>758.8</ele>
        <time>2023-08-03T09:01:27Z</time>
      </trkpt>
      <trkpt lat="45.92599" lon="3.65422">
        <ele>759.2</ele>
        <time>2023-08-03T09:01:31Z</time>
      </trkpt>
      <trkpt lat="45.92603" lon="3.65436">
        <ele>759.6</ele>
        <time>2023-08-03T09:01:36Z</time>
      </trkpt>
      <trkpt lat="45.92604" lon="3.65438">
        <ele>759.8</ele>
        <time>2023-08-03T09:01:38Z</time>
      </trkpt>
      <trkpt lat="45.92605" lon="3.65447">
        <ele>760</ele>
        <time>2023-08-03T09:01:43Z</time>
      </trkpt>
      <trkpt lat="45.92604" lon="3.65456">
        <ele>760.2</ele>
        <time>2023-08-03T09:01:48Z</time>
      </trkpt>
      <trkpt lat="45.92596" lon="3.65453">
        <ele>760.4</ele>
        <time>2023-08-03T09:01:52Z</time>
      </trkpt>
      <trkpt lat="45.92594" lon="3.65453">
        <ele>760.4</ele>
        <time>2023-08-03T09:01:53Z</time>
      </trkpt>
      <trkpt lat="45.92595" lon="3.65456">
        <ele>760.6</ele>
        <time>2023-08-03T09:01:57Z</time>
      </trkpt>
      <trkpt lat="45.92593" lon="3.6546">
        <ele>760.8</ele>
        <time>2023-08-03T09:02:00Z</time>
      </trkpt>
      <trkpt lat="45.92589" lon="3.65468">
        <ele>760.8</ele>
        <time>2023-08-03T09:02:08Z</time>
      </trkpt>
      <trkpt lat="45.92592" lon="3.65471">
        <ele>760.8</ele>
        <time>2023-08-03T09:02:13Z</time>
      </trkpt>
      <trkpt lat="45.92592" lon="3.65477">
        <ele>760.8</ele>
        <time>2023-08-03T09:02:19Z</time>
      </trkpt>
      <trkpt lat="45.92593" lon="3.65478">
        <ele>760.6</ele>
        <time>2023-08-03T09:02:24Z</time>
      </trkpt>
      <trkpt lat="45.92593" lon="3.65482">
        <ele>760.6</ele>
        <time>2023-08-03T09:02:30Z</time>
      </trkpt>
      <trkpt lat="45.92594" lon="3.65484">
        <ele>760.8</ele>
        <time>2023-08-03T09:02:34Z</time>
      </trkpt>
      <trkpt lat="45.926" lon="3.65486">
        <ele>760.6</ele>
        <time>2023-08-03T09:02:40Z</time>
      </trkpt>
      <trkpt lat="45.92598" lon="3.65489">
        <ele>760.6</ele>
        <time>2023-08-03T09:02:45Z</time>
      </trkpt>
      <trkpt lat="45.92599" lon="3.65495">
        <ele>760.8</ele>
        <time>2023-08-03T09:02:51Z</time>
      </trkpt>
      <trkpt lat="45.92598" lon="3.65494">
        <ele>761</ele>
        <time>2023-08-03T09:02:59Z</time>
      </trkpt>
      <trkpt lat="45.92599" lon="3.65494">
        <ele>761</ele>
        <time>2023-08-03T09:03:06Z</time>
      </trkpt>
      <trkpt lat="45.92599" lon="3.65494">
        <ele>761</ele>
        <time>2023-08-03T09:03:10Z</time>
      </trkpt>
      <trkpt lat="45.92599" lon="3.65494">
        <ele>761</ele>
        <time>2023-08-03T09:03:12Z</time>
      </trkpt>
      <trkpt lat="45.926" lon="3.65491">
        <ele>761</ele>
        <time>2023-08-03T09:03:33Z</time>
      </trkpt>
      <trkpt lat="45.92604" lon="3.65487">
        <ele>761.2</ele>
        <time>2023-08-03T09:03:38Z</time>
      </trkpt>
      <trkpt lat="45.92608" lon="3.6549">
        <ele>761.6</ele>
        <time>2023-08-03T09:03:44Z</time>
      </trkpt>
      <trkpt lat="45.92615" lon="3.65497">
        <ele>762.2</ele>
        <time>2023-08-03T09:03:51Z</time>
      </trkpt>
      <trkpt lat="45.92615" lon="3.65498">
        <ele>762.2</ele>
        <time>2023-08-03T09:03:52Z</time>
      </trkpt>
      <trkpt lat="45.92619" lon="3.65507">
        <ele>762.6</ele>
        <time>2023-08-03T09:03:56Z</time>
      </trkpt>
      <trkpt lat="45.92623" lon="3.65519">
        <ele>763.2</ele>
        <time>2023-08-03T09:04:03Z</time>
      </trkpt>
      <trkpt lat="45.92623" lon="3.65521">
        <ele>763.2</ele>
        <time>2023-08-03T09:04:04Z</time>
      </trkpt>
      <trkpt lat="45.92623" lon="3.65537">
        <ele>763.6</ele>
        <time>2023-08-03T09:04:11Z</time>
      </trkpt>
      <trkpt lat="45.9262" lon="3.65545">
        <ele>763.8</ele>
        <time>2023-08-03T09:04:16Z</time>
      </trkpt>
      <trkpt lat="45.92623" lon="3.65548">
        <ele>763.8</ele>
        <time>2023-08-03T09:04:22Z</time>
      </trkpt>
      <trkpt lat="45.92619" lon="3.65555">
        <ele>763.4</ele>
        <time>2023-08-03T09:04:29Z</time>
      </trkpt>
      <trkpt lat="45.9262" lon="3.65553">
        <ele>763.4</ele>
        <time>2023-08-03T09:04:33Z</time>
      </trkpt>
      <trkpt lat="45.92619" lon="3.65553">
        <ele>763.4</ele>
        <time>2023-08-03T09:04:40Z</time>
      </trkpt>
      <trkpt lat="45.92617" lon="3.65552">
        <ele>763.2</ele>
        <time>2023-08-03T09:04:46Z</time>
      </trkpt>
      <trkpt lat="45.92614" lon="3.65553">
        <ele>763</ele>
        <time>2023-08-03T09:04:51Z</time>
      </trkpt>
      <trkpt lat="45.9261" lon="3.65552">
        <ele>762.8</ele>
        <time>2023-08-03T09:04:57Z</time>
      </trkpt>
      <trkpt lat="45.9261" lon="3.65554">
        <ele>762.6</ele>
        <time>2023-08-03T09:05:02Z</time>
      </trkpt>
      <trkpt lat="45.92608" lon="3.65552">
        <ele>762.4</ele>
        <time>2023-08-03T09:05:07Z</time>
      </trkpt>
      <trkpt lat="45.9261" lon="3.65559">
        <ele>762.4</ele>
        <time>2023-08-03T09:05:14Z</time>
      </trkpt>
      <trkpt lat="45.92606" lon="3.6556">
        <ele>762.4</ele>
        <time>2023-08-03T09:05:20Z</time>
      </trkpt>
      <trkpt lat="45.92608" lon="3.65565">
        <ele>762.4</ele>
        <time>2023-08-03T09:05:27Z</time>
      </trkpt>
      <trkpt lat="45.92604" lon="3.65553">
        <ele>762.4</ele>
        <time>2023-08-03T09:05:34Z</time>
      </trkpt>
      <trkpt lat="45.92606" lon="3.6556">
        <ele>762.4</ele>
        <time>2023-08-03T09:05:39Z</time>
      </trkpt>
      <trkpt lat="45.92609" lon="3.65565">
        <ele>762.2</ele>
        <time>2023-08-03T09:05:45Z</time>
      </trkpt>
      <trkpt lat="45.92609" lon="3.65564">
        <ele>761.8</ele>
        <time>2023-08-03T09:06:10Z</time>
      </trkpt>
      <trkpt lat="45.92611" lon="3.6556">
        <ele>761.8</ele>
        <time>2023-08-03T09:06:15Z</time>
      </trkpt>
      <trkpt lat="45.92597" lon="3.65555">
        <ele>761.8</ele>
        <time>2023-08-03T09:06:21Z</time>
      </trkpt>
      <trkpt lat="45.92599" lon="3.65543">
        <ele>761.8</ele>
        <time>2023-08-03T09:06:26Z</time>
      </trkpt>
      <trkpt lat="45.92603" lon="3.65541">
        <ele>761.8</ele>
        <time>2023-08-03T09:06:31Z</time>
      </trkpt>
      <trkpt lat="45.92605" lon="3.65541">
        <ele>761.6</ele>
        <time>2023-08-03T09:06:36Z</time>
      </trkpt>
      <trkpt lat="45.92607" lon="3.65543">
        <ele>761.8</ele>
        <time>2023-08-03T09:06:41Z</time>
      </trkpt>
      <trkpt lat="45.92592" lon="3.65553">
        <ele>761.8</ele>
        <time>2023-08-03T09:06:44Z</time>
      </trkpt>
      <trkpt lat="45.92594" lon="3.65555">
        <ele>761.8</ele>
        <time>2023-08-03T09:06:46Z</time>
      </trkpt>
      <trkpt lat="45.92595" lon="3.65557">
        <ele>761.8</ele>
        <time>2023-08-03T09:06:50Z</time>
      </trkpt>
      <trkpt lat="45.92599" lon="3.65558">
        <ele>761.8</ele>
        <time>2023-08-03T09:06:56Z</time>
      </trkpt>
      <trkpt lat="45.926" lon="3.65565">
        <ele>762</ele>
        <time>2023-08-03T09:07:01Z</time>
      </trkpt>
      <trkpt lat="45.92603" lon="3.65565">
        <ele>761.8</ele>
        <time>2023-08-03T09:07:07Z</time>
      </trkpt>
      <trkpt lat="45.92603" lon="3.65558">
        <ele>762</ele>
        <time>2023-08-03T09:07:12Z</time>
      </trkpt>
      <trkpt lat="45.92605" lon="3.65555">
        <ele>761.8</ele>
        <time>2023-08-03T09:07:18Z</time>
      </trkpt>
      <trkpt lat="45.92603" lon="3.65555">
        <ele>762</ele>
        <time>2023-08-03T09:07:24Z</time>
      </trkpt>
      <trkpt lat="45.92604" lon="3.65551">
        <ele>762</ele>
        <time>2023-08-03T09:07:30Z</time>
      </trkpt>
      <trkpt lat="45.92606" lon="3.65551">
        <ele>762</ele>
        <time>2023-08-03T09:07:37Z</time>
      </trkpt>
      <trkpt lat="45.92608" lon="3.65548">
        <ele>762</ele>
        <time>2023-08-03T09:07:43Z</time>
      </trkpt>
      <trkpt lat="45.92609" lon="3.6555">
        <ele>761.8</ele>
        <time>2023-08-03T09:07:48Z</time>
      </trkpt>
      <trkpt lat="45.92611" lon="3.6555">
        <ele>761.8</ele>
        <time>2023-08-03T09:07:52Z</time>
      </trkpt>
      <trkpt lat="45.92609" lon="3.65546">
        <ele>761.8</ele>
        <time>2023-08-03T09:07:58Z</time>
      </trkpt>
      <trkpt lat="45.92609" lon="3.65545">
        <ele>761.8</ele>
        <time>2023-08-03T09:08:07Z</time>
      </trkpt>
      <trkpt lat="45.92613" lon="3.65554">
        <ele>762</ele>
        <time>2023-08-03T09:08:41Z</time>
      </trkpt>
      <trkpt lat="45.92615" lon="3.65551">
        <ele>762</ele>
        <time>2023-08-03T09:08:46Z</time>
      </trkpt>
      <trkpt lat="45.92616" lon="3.65547">
        <ele>762.2</ele>
        <time>2023-08-03T09:08:50Z</time>
      </trkpt>
      <trkpt lat="45.9262" lon="3.65542">
        <ele>762.2</ele>
        <time>2023-08-03T09:08:54Z</time>
      </trkpt>
      <trkpt lat="45.9262" lon="3.6554">
        <ele>762.2</ele>
        <time>2023-08-03T09:08:55Z</time>
      </trkpt>
      <trkpt lat="45.92623" lon="3.65542">
        <ele>762.4</ele>
        <time>2023-08-03T09:08:56Z</time>
      </trkpt>
      <trkpt lat="45.92625" lon="3.65547">
        <ele>762.6</ele>
        <time>2023-08-03T09:09:02Z</time>
      </trkpt>
      <trkpt lat="45.92626" lon="3.65545">
        <ele>763</ele>
        <time>2023-08-03T09:09:06Z</time>
      </trkpt>
      <trkpt lat="45.92627" lon="3.65544">
        <ele>763</ele>
        <time>2023-08-03T09:09:07Z</time>
      </trkpt>
      <trkpt lat="45.92631" lon="3.6554">
        <ele>763.2</ele>
        <time>2023-08-03T09:09:11Z</time>
      </trkpt>
      <trkpt lat="45.92631" lon="3.65539">
        <ele>763.4</ele>
        <time>2023-08-03T09:09:12Z</time>
      </trkpt>
      <trkpt lat="45.92632" lon="3.65537">
        <ele>763.8</ele>
        <time>2023-08-03T09:09:14Z</time>
      </trkpt>
      <trkpt lat="45.9263" lon="3.65531">
        <ele>764.2</ele>
        <time>2023-08-03T09:09:18Z</time>
      </trkpt>
      <trkpt lat="45.92629" lon="3.6553">
        <ele>764.4</ele>
        <time>2023-08-03T09:09:19Z</time>
      </trkpt>
      <trkpt lat="45.92628" lon="3.65528">
        <ele>764.6</ele>
        <time>2023-08-03T09:09:20Z</time>
      </trkpt>
      <trkpt lat="45.92627" lon="3.65524">
        <ele>765</ele>
        <time>2023-08-03T09:09:22Z</time>
      </trkpt>
      <trkpt lat="45.92633" lon="3.65521">
        <ele>765.2</ele>
        <time>2023-08-03T09:09:25Z</time>
      </trkpt>
      <trkpt lat="45.92635" lon="3.65522">
        <ele>765.6</ele>
        <time>2023-08-03T09:09:26Z</time>
      </trkpt>
      <trkpt lat="45.92641" lon="3.65524">
        <ele>766.4</ele>
        <time>2023-08-03T09:09:30Z</time>
      </trkpt>
      <trkpt lat="45.92645" lon="3.65527">
        <ele>766.6</ele>
        <time>2023-08-03T09:09:31Z</time>
      </trkpt>
      <trkpt lat="45.9265" lon="3.65533">
        <ele>766.8</ele>
        <time>2023-08-03T09:09:33Z</time>
      </trkpt>
      <trkpt lat="45.9265" lon="3.65531">
        <ele>767.4</ele>
        <time>2023-08-03T09:09:35Z</time>
      </trkpt>
      <trkpt lat="45.92651" lon="3.65528">
        <ele>767.8</ele>
        <time>2023-08-03T09:09:37Z</time>
      </trkpt>
      <trkpt lat="45.92646" lon="3.65526">
        <ele>768</ele>
        <time>2023-08-03T09:09:41Z</time>
      </trkpt>
      <trkpt lat="45.92647" lon="3.65527">
        <ele>768</ele>
        <time>2023-08-03T09:09:45Z</time>
      </trkpt>
      <trkpt lat="45.92646" lon="3.65524">
        <ele>768</ele>
        <time>2023-08-03T09:09:46Z</time>
      </trkpt>
      <trkpt lat="45.92644" lon="3.65522">
        <ele>768.4</ele>
        <time>2023-08-03T09:09:50Z</time>
      </trkpt>
      <trkpt lat="45.92645" lon="3.65522">
        <ele>769</ele>
        <time>2023-08-03T09:09:52Z</time>
      </trkpt>
      <trkpt lat="45.92646" lon="3.65522">
        <ele>769.2</ele>
        <time>2023-08-03T09:09:53Z</time>
      </trkpt>
      <trkpt lat="45.92646" lon="3.65522">
        <ele>769.6</ele>
        <time>2023-08-03T09:09:55Z</time>
      </trkpt>
      <trkpt lat="45.92649" lon="3.65521">
        <ele>770.2</ele>
        <time>2023-08-03T09:09:58Z</time>
      </trkpt>
      <trkpt lat="45.9265" lon="3.65522">
        <ele>770.6</ele>
        <time>2023-08-03T09:10:00Z</time>
      </trkpt>
      <trkpt lat="45.92655" lon="3.65523">
        <ele>771.2</ele>
        <time>2023-08-03T09:10:03Z</time>
      </trkpt>
      <trkpt lat="45.92658" lon="3.65524">
        <ele>771.4</ele>
        <time>2023-08-03T09:10:04Z</time>
      </trkpt>
      <trkpt lat="45.92658" lon="3.65524">
        <ele>771.6</ele>
        <time>2023-08-03T09:10:05Z</time>
      </trkpt>
      <trkpt lat="45.92661" lon="3.65525">
        <ele>772.4</ele>
        <time>2023-08-03T09:10:09Z</time>
      </trkpt>
      <trkpt lat="45.92664" lon="3.6552">
        <ele>773.2</ele>
        <time>2023-08-03T09:10:15Z</time>
      </trkpt>
      <trkpt lat="45.92664" lon="3.65519">
        <ele>773.6</ele>
        <time>2023-08-03T09:10:17Z</time>
      </trkpt>
      <trkpt lat="45.92666" lon="3.65517">
        <ele>774.2</ele>
        <time>2023-08-03T09:10:21Z</time>
      </trkpt>
      <trkpt lat="45.92666" lon="3.65516">
        <ele>774.8</ele>
        <time>2023-08-03T09:10:23Z</time>
      </trkpt>
      <trkpt lat="45.92668" lon="3.65516">
        <ele>775.6</ele>
        <time>2023-08-03T09:10:26Z</time>
      </trkpt>
      <trkpt lat="45.9267" lon="3.65517">
        <ele>775.8</ele>
        <time>2023-08-03T09:10:27Z</time>
      </trkpt>
      <trkpt lat="45.92672" lon="3.65518">
        <ele>776.6</ele>
        <time>2023-08-03T09:10:30Z</time>
      </trkpt>
      <trkpt lat="45.92671" lon="3.65519">
        <ele>777.2</ele>
        <time>2023-08-03T09:10:32Z</time>
      </trkpt>
      <trkpt lat="45.92674" lon="3.65521">
        <ele>777.8</ele>
        <time>2023-08-03T09:10:37Z</time>
      </trkpt>
      <trkpt lat="45.92673" lon="3.65522">
        <ele>778.2</ele>
        <time>2023-08-03T09:10:40Z</time>
      </trkpt>
      <trkpt lat="45.92672" lon="3.65522">
        <ele>778.4</ele>
        <time>2023-08-03T09:10:42Z</time>
      </trkpt>
      <trkpt lat="45.92674" lon="3.65527">
        <ele>778.8</ele>
        <time>2023-08-03T09:10:47Z</time>
      </trkpt>
      <trkpt lat="45.92675" lon="3.65531">
        <ele>779</ele>
        <time>2023-08-03T09:10:50Z</time>
      </trkpt>
      <trkpt lat="45.92676" lon="3.65534">
        <ele>779.2</ele>
        <time>2023-08-03T09:10:54Z</time>
      </trkpt>
      <trkpt lat="45.92677" lon="3.65538">
        <ele>779.2</ele>
        <time>2023-08-03T09:11:01Z</time>
      </trkpt>
      <trkpt lat="45.92675" lon="3.65539">
        <ele>779</ele>
        <time>2023-08-03T09:11:08Z</time>
      </trkpt>
      <trkpt lat="45.9268" lon="3.65539">
        <ele>779</ele>
        <time>2023-08-03T09:11:25Z</time>
      </trkpt>
      <trkpt lat="45.92681" lon="3.65539">
        <ele>778.8</ele>
        <time>2023-08-03T09:11:31Z</time>
      </trkpt>
      <trkpt lat="45.92674" lon="3.6554">
        <ele>778.6</ele>
        <time>2023-08-03T09:11:37Z</time>
      </trkpt>
      <trkpt lat="45.92671" lon="3.65542">
        <ele>778.6</ele>
        <time>2023-08-03T09:11:39Z</time>
      </trkpt>
      <trkpt lat="45.92671" lon="3.65542">
        <ele>778.4</ele>
        <time>2023-08-03T09:11:41Z</time>
      </trkpt>
      <trkpt lat="45.92666" lon="3.6554">
        <ele>778</ele>
        <time>2023-08-03T09:11:48Z</time>
      </trkpt>
      <trkpt lat="45.92672" lon="3.65543">
        <ele>778</ele>
        <time>2023-08-03T09:11:55Z</time>
      </trkpt>
      <trkpt lat="45.92676" lon="3.65536">
        <ele>778</ele>
        <time>2023-08-03T09:12:00Z</time>
      </trkpt>
      <trkpt lat="45.92677" lon="3.65534">
        <ele>778</ele>
        <time>2023-08-03T09:12:01Z</time>
      </trkpt>
      <trkpt lat="45.92679" lon="3.65532">
        <ele>778</ele>
        <time>2023-08-03T09:12:03Z</time>
      </trkpt>
      <trkpt lat="45.9268" lon="3.65532">
        <ele>778</ele>
        <time>2023-08-03T09:12:05Z</time>
      </trkpt>
      <trkpt lat="45.92679" lon="3.65533">
        <ele>778</ele>
        <time>2023-08-03T09:12:06Z</time>
      </trkpt>
      <trkpt lat="45.92679" lon="3.65533">
        <ele>778</ele>
        <time>2023-08-03T09:12:07Z</time>
      </trkpt>
      <trkpt lat="45.92678" lon="3.65533">
        <ele>778</ele>
        <time>2023-08-03T09:12:09Z</time>
      </trkpt>
      <trkpt lat="45.92671" lon="3.65537">
        <ele>778</ele>
        <time>2023-08-03T09:12:12Z</time>
      </trkpt>
      <trkpt lat="45.92666" lon="3.65535">
        <ele>778.2</ele>
        <time>2023-08-03T09:12:13Z</time>
      </trkpt>
      <trkpt lat="45.92666" lon="3.65535">
        <ele>778.2</ele>
        <time>2023-08-03T09:12:19Z</time>
      </trkpt>
      <trkpt lat="45.92665" lon="3.65536">
        <ele>778.2</ele>
        <time>2023-08-03T09:12:21Z</time>
      </trkpt>
      <trkpt lat="45.92668" lon="3.65539">
        <ele>778.2</ele>
        <time>2023-08-03T09:12:23Z</time>
      </trkpt>
      <trkpt lat="45.9267" lon="3.65543">
        <ele>778</ele>
        <time>2023-08-03T09:12:31Z</time>
      </trkpt>
      <trkpt lat="45.92671" lon="3.65542">
        <ele>778</ele>
        <time>2023-08-03T09:12:35Z</time>
      </trkpt>
      <trkpt lat="45.92671" lon="3.65536">
        <ele>778</ele>
        <time>2023-08-03T09:12:42Z</time>
      </trkpt>
      <trkpt lat="45.92673" lon="3.65537">
        <ele>778</ele>
        <time>2023-08-03T09:12:47Z</time>
      </trkpt>
      <trkpt lat="45.92675" lon="3.65541">
        <ele>778.4</ele>
        <time>2023-08-03T09:12:51Z</time>
      </trkpt>
      <trkpt lat="45.92676" lon="3.65546">
        <ele>778.8</ele>
        <time>2023-08-03T09:12:56Z</time>
      </trkpt>
      <trkpt lat="45.92676" lon="3.6554">
        <ele>779</ele>
        <time>2023-08-03T09:13:01Z</time>
      </trkpt>
      <trkpt lat="45.9267" lon="3.65536">
        <ele>779</ele>
        <time>2023-08-03T09:13:08Z</time>
      </trkpt>
      <trkpt lat="45.9267" lon="3.65536">
        <ele>779</ele>
        <time>2023-08-03T09:13:09Z</time>
      </trkpt>
      <trkpt lat="45.92672" lon="3.65537">
        <ele>779</ele>
        <time>2023-08-03T09:13:11Z</time>
      </trkpt>
      <trkpt lat="45.92672" lon="3.65537">
        <ele>779</ele>
        <time>2023-08-03T09:13:13Z</time>
      </trkpt>
      <trkpt lat="45.92672" lon="3.65537">
        <ele>779</ele>
        <time>2023-08-03T09:13:16Z</time>
      </trkpt>
      <trkpt lat="45.9267" lon="3.65538">
        <ele>779</ele>
        <time>2023-08-03T09:13:20Z</time>
      </trkpt>
      <trkpt lat="45.92666" lon="3.65542">
        <ele>779</ele>
        <time>2023-08-03T09:13:28Z</time>
      </trkpt>
      <trkpt lat="45.92672" lon="3.65545">
        <ele>779</ele>
        <time>2023-08-03T09:13:33Z</time>
      </trkpt>
      <trkpt lat="45.92674" lon="3.65547">
        <ele>779</ele>
        <time>2023-08-03T09:13:38Z</time>
      </trkpt>
      <trkpt lat="45.92678" lon="3.65549">
        <ele>778.8</ele>
        <time>2023-08-03T09:13:44Z</time>
      </trkpt>
      <trkpt lat="45.92685" lon="3.65555">
        <ele>779.2</ele>
        <time>2023-08-03T09:13:53Z</time>
      </trkpt>
      <trkpt lat="45.92687" lon="3.65558">
        <ele>779.2</ele>
        <time>2023-08-03T09:13:56Z</time>
      </trkpt>
      <trkpt lat="45.92687" lon="3.6556">
        <ele>779.2</ele>
        <time>2023-08-03T09:13:58Z</time>
      </trkpt>
      <trkpt lat="45.92689" lon="3.65566">
        <ele>779.4</ele>
        <time>2023-08-03T09:14:03Z</time>
      </trkpt>
      <trkpt lat="45.92695" lon="3.65575">
        <ele>779.6</ele>
        <time>2023-08-03T09:14:10Z</time>
      </trkpt>
      <trkpt lat="45.92698" lon="3.65574">
        <ele>779.6</ele>
        <time>2023-08-03T09:14:15Z</time>
      </trkpt>
      <trkpt lat="45.927" lon="3.65576">
        <ele>779.4</ele>
        <time>2023-08-03T09:14:19Z</time>
      </trkpt>
      <trkpt lat="45.92704" lon="3.65581">
        <ele>779.6</ele>
        <time>2023-08-03T09:14:25Z</time>
      </trkpt>
      <trkpt lat="45.9271" lon="3.65586">
        <ele>779.6</ele>
        <time>2023-08-03T09:14:31Z</time>
      </trkpt>
      <trkpt lat="45.92711" lon="3.65588">
        <ele>779.6</ele>
        <time>2023-08-03T09:14:32Z</time>
      </trkpt>
      <trkpt lat="45.92717" lon="3.65598">
        <ele>779.6</ele>
        <time>2023-08-03T09:14:39Z</time>
      </trkpt>
      <trkpt lat="45.92725" lon="3.6561">
        <ele>779.4</ele>
        <time>2023-08-03T09:14:45Z</time>
      </trkpt>
      <trkpt lat="45.92726" lon="3.65612">
        <ele>779.6</ele>
        <time>2023-08-03T09:14:46Z</time>
      </trkpt>
      <trkpt lat="45.92727" lon="3.65617">
        <ele>779.6</ele>
        <time>2023-08-03T09:14:48Z</time>
      </trkpt>
      <trkpt lat="45.9273" lon="3.6562">
        <ele>779.6</ele>
        <time>2023-08-03T09:14:50Z</time>
      </trkpt>
      <trkpt lat="45.92731" lon="3.65621">
        <ele>779.6</ele>
        <time>2023-08-03T09:14:51Z</time>
      </trkpt>
      <trkpt lat="45.92733" lon="3.65625">
        <ele>779.6</ele>
        <time>2023-08-03T09:14:55Z</time>
      </trkpt>
      <trkpt lat="45.92737" lon="3.65622">
        <ele>779.6</ele>
        <time>2023-08-03T09:14:59Z</time>
      </trkpt>
      <trkpt lat="45.92737" lon="3.65626">
        <ele>779.6</ele>
        <time>2023-08-03T09:15:03Z</time>
      </trkpt>
      <trkpt lat="45.92738" lon="3.65627">
        <ele>779.6</ele>
        <time>2023-08-03T09:15:04Z</time>
      </trkpt>
      <trkpt lat="45.9274" lon="3.6563">
        <ele>779.4</ele>
        <time>2023-08-03T09:15:08Z</time>
      </trkpt>
      <trkpt lat="45.92745" lon="3.65639">
        <ele>779.2</ele>
        <time>2023-08-03T09:15:15Z</time>
      </trkpt>
      <trkpt lat="45.92745" lon="3.65643">
        <ele>779</ele>
        <time>2023-08-03T09:15:18Z</time>
      </trkpt>
      <trkpt lat="45.92744" lon="3.65657">
        <ele>778.8</ele>
        <time>2023-08-03T09:15:25Z</time>
      </trkpt>
      <trkpt lat="45.92744" lon="3.65657">
        <ele>778.8</ele>
        <time>2023-08-03T09:15:26Z</time>
      </trkpt>
      <trkpt lat="45.92742" lon="3.65661">
        <ele>778.8</ele>
        <time>2023-08-03T09:15:30Z</time>
      </trkpt>
      <trkpt lat="45.92744" lon="3.65673">
        <ele>779</ele>
        <time>2023-08-03T09:15:34Z</time>
      </trkpt>
      <trkpt lat="45.92743" lon="3.65682">
        <ele>779</ele>
        <time>2023-08-03T09:15:38Z</time>
      </trkpt>
      <trkpt lat="45.92743" lon="3.65691">
        <ele>779.2</ele>
        <time>2023-08-03T09:15:44Z</time>
      </trkpt>
      <trkpt lat="45.92749" lon="3.65702">
        <ele>779.2</ele>
        <time>2023-08-03T09:15:50Z</time>
      </trkpt>
      <trkpt lat="45.92747" lon="3.65709">
        <ele>779.2</ele>
        <time>2023-08-03T09:15:56Z</time>
      </trkpt>
      <trkpt lat="45.9275" lon="3.65716">
        <ele>779.2</ele>
        <time>2023-08-03T09:16:01Z</time>
      </trkpt>
      <trkpt lat="45.9275" lon="3.65719">
        <ele>779.2</ele>
        <time>2023-08-03T09:16:06Z</time>
      </trkpt>
      <trkpt lat="45.9275" lon="3.65722">
        <ele>779.2</ele>
        <time>2023-08-03T09:16:12Z</time>
      </trkpt>
      <trkpt lat="45.9275" lon="3.65726">
        <ele>779.2</ele>
        <time>2023-08-03T09:16:18Z</time>
      </trkpt>
      <trkpt lat="45.9275" lon="3.65731">
        <ele>779.2</ele>
        <time>2023-08-03T09:16:22Z</time>
      </trkpt>
      <trkpt lat="45.9275" lon="3.65735">
        <ele>779</ele>
        <time>2023-08-03T09:16:26Z</time>
      </trkpt>
      <trkpt lat="45.92752" lon="3.65743">
        <ele>779</ele>
        <time>2023-08-03T09:16:31Z</time>
      </trkpt>
      <trkpt lat="45.92757" lon="3.65752">
        <ele>778.8</ele>
        <time>2023-08-03T09:16:37Z</time>
      </trkpt>
      <trkpt lat="45.9276" lon="3.65762">
        <ele>778.6</ele>
        <time>2023-08-03T09:16:42Z</time>
      </trkpt>
      <trkpt lat="45.92762" lon="3.6578">
        <ele>778.2</ele>
        <time>2023-08-03T09:16:48Z</time>
      </trkpt>
      <trkpt lat="45.92761" lon="3.65796">
        <ele>778</ele>
        <time>2023-08-03T09:16:55Z</time>
      </trkpt>
      <trkpt lat="45.92759" lon="3.65811">
        <ele>777.8</ele>
        <time>2023-08-03T09:17:01Z</time>
      </trkpt>
      <trkpt lat="45.92759" lon="3.65817">
        <ele>778</ele>
        <time>2023-08-03T09:17:08Z</time>
      </trkpt>
      <trkpt lat="45.92756" lon="3.65824">
        <ele>778.2</ele>
        <time>2023-08-03T09:17:14Z</time>
      </trkpt>
      <trkpt lat="45.92756" lon="3.65826">
        <ele>778.2</ele>
        <time>2023-08-03T09:17:16Z</time>
      </trkpt>
      <trkpt lat="45.92756" lon="3.65832">
        <ele>778.2</ele>
        <time>2023-08-03T09:17:20Z</time>
      </trkpt>
      <trkpt lat="45.92754" lon="3.65838">
        <ele>778.2</ele>
        <time>2023-08-03T09:17:26Z</time>
      </trkpt>
      <trkpt lat="45.92752" lon="3.65849">
        <ele>778.2</ele>
        <time>2023-08-03T09:17:33Z</time>
      </trkpt>
      <trkpt lat="45.92755" lon="3.65858">
        <ele>778</ele>
        <time>2023-08-03T09:17:39Z</time>
      </trkpt>
      <trkpt lat="45.92753" lon="3.65869">
        <ele>777.8</ele>
        <time>2023-08-03T09:17:45Z</time>
      </trkpt>
      <trkpt lat="45.92749" lon="3.65876">
        <ele>777.8</ele>
        <time>2023-08-03T09:17:49Z</time>
      </trkpt>
      <trkpt lat="45.92749" lon="3.65879">
        <ele>777.6</ele>
        <time>2023-08-03T09:17:52Z</time>
      </trkpt>
      <trkpt lat="45.92747" lon="3.65879">
        <ele>777.2</ele>
        <time>2023-08-03T09:17:59Z</time>
      </trkpt>
      <trkpt lat="45.92746" lon="3.65885">
        <ele>777.2</ele>
        <time>2023-08-03T09:18:06Z</time>
      </trkpt>
      <trkpt lat="45.92745" lon="3.65891">
        <ele>777.2</ele>
        <time>2023-08-03T09:18:12Z</time>
      </trkpt>
      <trkpt lat="45.92743" lon="3.65903">
        <ele>777.2</ele>
        <time>2023-08-03T09:18:18Z</time>
      </trkpt>
      <trkpt lat="45.92736" lon="3.65911">
        <ele>777.2</ele>
        <time>2023-08-03T09:18:23Z</time>
      </trkpt>
      <trkpt lat="45.92734" lon="3.65913">
        <ele>777.2</ele>
        <time>2023-08-03T09:18:25Z</time>
      </trkpt>
      <trkpt lat="45.92731" lon="3.65914">
        <ele>777.2</ele>
        <time>2023-08-03T09:18:27Z</time>
      </trkpt>
      <trkpt lat="45.9273" lon="3.65914">
        <ele>777.2</ele>
        <time>2023-08-03T09:18:28Z</time>
      </trkpt>
      <trkpt lat="45.92725" lon="3.65916">
        <ele>777.2</ele>
        <time>2023-08-03T09:18:34Z</time>
      </trkpt>
      <trkpt lat="45.92729" lon="3.65918">
        <ele>776.6</ele>
        <time>2023-08-03T09:18:38Z</time>
      </trkpt>
      <trkpt lat="45.92729" lon="3.65919">
        <ele>776.6</ele>
        <time>2023-08-03T09:18:39Z</time>
      </trkpt>
      <trkpt lat="45.92726" lon="3.65922">
        <ele>776.4</ele>
        <time>2023-08-03T09:18:42Z</time>
      </trkpt>
      <trkpt lat="45.92727" lon="3.65923">
        <ele>776.4</ele>
        <time>2023-08-03T09:18:46Z</time>
      </trkpt>
      <trkpt lat="45.92725" lon="3.65921">
        <ele>776.4</ele>
        <time>2023-08-03T09:18:50Z</time>
      </trkpt>
      <trkpt lat="45.92725" lon="3.65921">
        <ele>776.4</ele>
        <time>2023-08-03T09:18:56Z</time>
      </trkpt>
      <trkpt lat="45.92731" lon="3.65923">
        <ele>776.4</ele>
        <time>2023-08-03T09:19:00Z</time>
      </trkpt>
      <trkpt lat="45.92734" lon="3.65924">
        <ele>776.4</ele>
        <time>2023-08-03T09:19:04Z</time>
      </trkpt>
      <trkpt lat="45.9273" lon="3.65914">
        <ele>776.4</ele>
        <time>2023-08-03T09:19:11Z</time>
      </trkpt>
      <trkpt lat="45.92732" lon="3.65917">
        <ele>776.4</ele>
        <time>2023-08-03T09:19:15Z</time>
      </trkpt>
      <trkpt lat="45.92728" lon="3.65917">
        <ele>776.4</ele>
        <time>2023-08-03T09:19:19Z</time>
      </trkpt>
      <trkpt lat="45.9272" lon="3.65929">
        <ele>776.4</ele>
        <time>2023-08-03T09:19:23Z</time>
      </trkpt>
      <trkpt lat="45.9272" lon="3.65928">
        <ele>776.4</ele>
        <time>2023-08-03T09:19:24Z</time>
      </trkpt>
      <trkpt lat="45.92722" lon="3.65921">
        <ele>776.4</ele>
        <time>2023-08-03T09:19:29Z</time>
      </trkpt>
      <trkpt lat="45.92724" lon="3.6591">
        <ele>776.2</ele>
        <time>2023-08-03T09:19:35Z</time>
      </trkpt>
      <trkpt lat="45.92726" lon="3.65907">
        <ele>776.2</ele>
        <time>2023-08-03T09:19:39Z</time>
      </trkpt>
      <trkpt lat="45.92726" lon="3.6591">
        <ele>776.2</ele>
        <time>2023-08-03T09:19:44Z</time>
      </trkpt>
      <trkpt lat="45.92725" lon="3.65909">
        <ele>776.2</ele>
        <time>2023-08-03T09:19:50Z</time>
      </trkpt>
      <trkpt lat="45.92727" lon="3.65908">
        <ele>776.2</ele>
        <time>2023-08-03T09:19:55Z</time>
      </trkpt>
      <trkpt lat="45.92723" lon="3.6591">
        <ele>776.2</ele>
        <time>2023-08-03T09:20:00Z</time>
      </trkpt>
      <trkpt lat="45.92724" lon="3.65914">
        <ele>776.2</ele>
        <time>2023-08-03T09:20:05Z</time>
      </trkpt>
      <trkpt lat="45.92719" lon="3.65922">
        <ele>776.2</ele>
        <time>2023-08-03T09:20:11Z</time>
      </trkpt>
      <trkpt lat="45.9272" lon="3.65925">
        <ele>776</ele>
        <time>2023-08-03T09:20:17Z</time>
      </trkpt>
      <trkpt lat="45.92722" lon="3.65921">
        <ele>776</ele>
        <time>2023-08-03T09:20:18Z</time>
      </trkpt>
      <trkpt lat="45.92722" lon="3.65917">
        <ele>776</ele>
        <time>2023-08-03T09:20:23Z</time>
      </trkpt>
      <trkpt lat="45.92721" lon="3.65907">
        <ele>776.2</ele>
        <time>2023-08-03T09:20:29Z</time>
      </trkpt>
      <trkpt lat="45.92722" lon="3.65905">
        <ele>776.2</ele>
        <time>2023-08-03T09:20:31Z</time>
      </trkpt>
      <trkpt lat="45.92719" lon="3.659">
        <ele>776.2</ele>
        <time>2023-08-03T09:20:33Z</time>
      </trkpt>
      <trkpt lat="45.92718" lon="3.65898">
        <ele>776.2</ele>
        <time>2023-08-03T09:20:34Z</time>
      </trkpt>
      <trkpt lat="45.92718" lon="3.65896">
        <ele>776.2</ele>
        <time>2023-08-03T09:20:36Z</time>
      </trkpt>
      <trkpt lat="45.9272" lon="3.6589">
        <ele>776.2</ele>
        <time>2023-08-03T09:20:42Z</time>
      </trkpt>
      <trkpt lat="45.92717" lon="3.65889">
        <ele>776.2</ele>
        <time>2023-08-03T09:20:43Z</time>
      </trkpt>
      <trkpt lat="45.92712" lon="3.65881">
        <ele>776.4</ele>
        <time>2023-08-03T09:20:47Z</time>
      </trkpt>
      <trkpt lat="45.9271" lon="3.65873">
        <ele>776.4</ele>
        <time>2023-08-03T09:20:50Z</time>
      </trkpt>
      <trkpt lat="45.92712" lon="3.65869">
        <ele>776.4</ele>
        <time>2023-08-03T09:20:52Z</time>
      </trkpt>
      <trkpt lat="45.92717" lon="3.65864">
        <ele>776.4</ele>
        <time>2023-08-03T09:20:57Z</time>
      </trkpt>
      <trkpt lat="45.92717" lon="3.6586">
        <ele>776.4</ele>
        <time>2023-08-03T09:21:01Z</time>
      </trkpt>
      <trkpt lat="45.92721" lon="3.65862">
        <ele>776.2</ele>
        <time>2023-08-03T09:21:07Z</time>
      </trkpt>
      <trkpt lat="45.92724" lon="3.65859">
        <ele>776.2</ele>
        <time>2023-08-03T09:21:09Z</time>
      </trkpt>
      <trkpt lat="45.92726" lon="3.65867">
        <ele>776.2</ele>
        <time>2023-08-03T09:21:12Z</time>
      </trkpt>
      <trkpt lat="45.92731" lon="3.6586">
        <ele>776</ele>
        <time>2023-08-03T09:21:17Z</time>
      </trkpt>
      <trkpt lat="45.92729" lon="3.6586">
        <ele>776</ele>
        <time>2023-08-03T09:21:19Z</time>
      </trkpt>
      <trkpt lat="45.92726" lon="3.65854">
        <ele>776</ele>
        <time>2023-08-03T09:21:21Z</time>
      </trkpt>
      <trkpt lat="45.92723" lon="3.65852">
        <ele>776</ele>
        <time>2023-08-03T09:21:26Z</time>
      </trkpt>
      <trkpt lat="45.92721" lon="3.6585">
        <ele>776.2</ele>
        <time>2023-08-03T09:21:31Z</time>
      </trkpt>
      <trkpt lat="45.9273" lon="3.65858">
        <ele>776.2</ele>
        <time>2023-08-03T09:21:35Z</time>
      </trkpt>
      <trkpt lat="45.92734" lon="3.6586">
        <ele>776.2</ele>
        <time>2023-08-03T09:21:37Z</time>
      </trkpt>
      <trkpt lat="45.9273" lon="3.65857">
        <ele>776.2</ele>
        <time>2023-08-03T09:21:40Z</time>
      </trkpt>
      <trkpt lat="45.92721" lon="3.65843">
        <ele>776</ele>
        <time>2023-08-03T09:21:46Z</time>
      </trkpt>
      <trkpt lat="45.92729" lon="3.6586">
        <ele>776</ele>
        <time>2023-08-03T09:21:50Z</time>
      </trkpt>
      <trkpt lat="45.92727" lon="3.65864">
        <ele>776</ele>
        <time>2023-08-03T09:21:51Z</time>
      </trkpt>
      <trkpt lat="45.92713" lon="3.65865">
        <ele>776.2</ele>
        <time>2023-08-03T09:21:55Z</time>
      </trkpt>
      <trkpt lat="45.92709" lon="3.65866">
        <ele>776.4</ele>
        <time>2023-08-03T09:22:01Z</time>
      </trkpt>
      <trkpt lat="45.92705" lon="3.65861">
        <ele>776.8</ele>
        <time>2023-08-03T09:22:07Z</time>
      </trkpt>
      <trkpt lat="45.92703" lon="3.65862">
        <ele>777</ele>
        <time>2023-08-03T09:22:11Z</time>
      </trkpt>
      <trkpt lat="45.92701" lon="3.65861">
        <ele>777.2</ele>
        <time>2023-08-03T09:22:15Z</time>
      </trkpt>
      <trkpt lat="45.92697" lon="3.65861">
        <ele>777.6</ele>
        <time>2023-08-03T09:22:20Z</time>
      </trkpt>
      <trkpt lat="45.92692" lon="3.65861">
        <ele>778</ele>
        <time>2023-08-03T09:22:25Z</time>
      </trkpt>
      <trkpt lat="45.92689" lon="3.65863">
        <ele>778</ele>
        <time>2023-08-03T09:22:30Z</time>
      </trkpt>
      <trkpt lat="45.92681" lon="3.65863">
        <ele>778</ele>
        <time>2023-08-03T09:22:35Z</time>
      </trkpt>
      <trkpt lat="45.92676" lon="3.65859">
        <ele>777.6</ele>
        <time>2023-08-03T09:22:40Z</time>
      </trkpt>
      <trkpt lat="45.92665" lon="3.65856">
        <ele>777.6</ele>
        <time>2023-08-03T09:22:46Z</time>
      </trkpt>
      <trkpt lat="45.92652" lon="3.65855">
        <ele>777.6</ele>
        <time>2023-08-03T09:22:51Z</time>
      </trkpt>
      <trkpt lat="45.92647" lon="3.65858">
        <ele>777.8</ele>
        <time>2023-08-03T09:22:56Z</time>
      </trkpt>
      <trkpt lat="45.92645" lon="3.65859">
        <ele>777.8</ele>
        <time>2023-08-03T09:22:57Z</time>
      </trkpt>
      <trkpt lat="45.92639" lon="3.6586">
        <ele>778.4</ele>
        <time>2023-08-03T09:23:02Z</time>
      </trkpt>
      <trkpt lat="45.92639" lon="3.6586">
        <ele>778.4</ele>
        <time>2023-08-03T09:23:03Z</time>
      </trkpt>
      <trkpt lat="45.92638" lon="3.65861">
        <ele>778.6</ele>
        <time>2023-08-03T09:23:04Z</time>
      </trkpt>
      <trkpt lat="45.92637" lon="3.65862">
        <ele>778.6</ele>
        <time>2023-08-03T09:23:06Z</time>
      </trkpt>
      <trkpt lat="45.92635" lon="3.65864">
        <ele>778.8</ele>
        <time>2023-08-03T09:23:08Z</time>
      </trkpt>
      <trkpt lat="45.92634" lon="3.65865">
        <ele>778.8</ele>
        <time>2023-08-03T09:23:10Z</time>
      </trkpt>
      <trkpt lat="45.9263" lon="3.65865">
        <ele>779</ele>
        <time>2023-08-03T09:23:13Z</time>
      </trkpt>
      <trkpt lat="45.92627" lon="3.65865">
        <ele>779.2</ele>
        <time>2023-08-03T09:23:19Z</time>
      </trkpt>
      <trkpt lat="45.92625" lon="3.65864">
        <ele>779.4</ele>
        <time>2023-08-03T09:23:21Z</time>
      </trkpt>
      <trkpt lat="45.92623" lon="3.65862">
        <ele>779.6</ele>
        <time>2023-08-03T09:23:23Z</time>
      </trkpt>
      <trkpt lat="45.92616" lon="3.65854">
        <ele>779.8</ele>
        <time>2023-08-03T09:23:29Z</time>
      </trkpt>
      <trkpt lat="45.92612" lon="3.65849">
        <ele>780</ele>
        <time>2023-08-03T09:23:35Z</time>
      </trkpt>
      <trkpt lat="45.92611" lon="3.65838">
        <ele>780.2</ele>
        <time>2023-08-03T09:23:40Z</time>
      </trkpt>
      <trkpt lat="45.92611" lon="3.65836">
        <ele>780.2</ele>
        <time>2023-08-03T09:23:41Z</time>
      </trkpt>
      <trkpt lat="45.92612" lon="3.65832">
        <ele>780.2</ele>
        <time>2023-08-03T09:23:44Z</time>
      </trkpt>
      <trkpt lat="45.9261" lon="3.65824">
        <ele>779.8</ele>
        <time>2023-08-03T09:23:47Z</time>
      </trkpt>
      <trkpt lat="45.92609" lon="3.65821">
        <ele>779.8</ele>
        <time>2023-08-03T09:23:48Z</time>
      </trkpt>
      <trkpt lat="45.92608" lon="3.65815">
        <ele>779.8</ele>
        <time>2023-08-03T09:23:51Z</time>
      </trkpt>
      <trkpt lat="45.92613" lon="3.65818">
        <ele>779.8</ele>
        <time>2023-08-03T09:23:54Z</time>
      </trkpt>
      <trkpt lat="45.92615" lon="3.65816">
        <ele>779.6</ele>
        <time>2023-08-03T09:23:56Z</time>
      </trkpt>
      <trkpt lat="45.92615" lon="3.65816">
        <ele>779.6</ele>
        <time>2023-08-03T09:23:58Z</time>
      </trkpt>
      <trkpt lat="45.92617" lon="3.65812">
        <ele>779.4</ele>
        <time>2023-08-03T09:24:05Z</time>
      </trkpt>
      <trkpt lat="45.92618" lon="3.65811">
        <ele>779.4</ele>
        <time>2023-08-03T09:24:06Z</time>
      </trkpt>
      <trkpt lat="45.92622" lon="3.65805">
        <ele>779.2</ele>
        <time>2023-08-03T09:24:12Z</time>
      </trkpt>
      <trkpt lat="45.92626" lon="3.65801">
        <ele>779.2</ele>
        <time>2023-08-03T09:24:18Z</time>
      </trkpt>
      <trkpt lat="45.92628" lon="3.658">
        <ele>779</ele>
        <time>2023-08-03T09:24:20Z</time>
      </trkpt>
      <trkpt lat="45.9263" lon="3.658">
        <ele>779</ele>
        <time>2023-08-03T09:24:22Z</time>
      </trkpt>
      <trkpt lat="45.92633" lon="3.65799">
        <ele>778.8</ele>
        <time>2023-08-03T09:24:25Z</time>
      </trkpt>
      <trkpt lat="45.92635" lon="3.65798">
        <ele>778.8</ele>
        <time>2023-08-03T09:24:29Z</time>
      </trkpt>
      <trkpt lat="45.92639" lon="3.65797">
        <ele>778.6</ele>
        <time>2023-08-03T09:24:36Z</time>
      </trkpt>
      <trkpt lat="45.92644" lon="3.65793">
        <ele>778.6</ele>
        <time>2023-08-03T09:24:41Z</time>
      </trkpt>
      <trkpt lat="45.92647" lon="3.6579">
        <ele>778.6</ele>
        <time>2023-08-03T09:24:45Z</time>
      </trkpt>
      <trkpt lat="45.92655" lon="3.65787">
        <ele>778.6</ele>
        <time>2023-08-03T09:24:51Z</time>
      </trkpt>
      <trkpt lat="45.92663" lon="3.6578">
        <ele>778.8</ele>
        <time>2023-08-03T09:24:54Z</time>
      </trkpt>
      <trkpt lat="45.92666" lon="3.65777">
        <ele>778.8</ele>
        <time>2023-08-03T09:24:56Z</time>
      </trkpt>
      <trkpt lat="45.9267" lon="3.6577">
        <ele>779.2</ele>
        <time>2023-08-03T09:25:02Z</time>
      </trkpt>
      <trkpt lat="45.9267" lon="3.65762">
        <ele>779.4</ele>
        <time>2023-08-03T09:25:06Z</time>
      </trkpt>
      <trkpt lat="45.92671" lon="3.65757">
        <ele>779.4</ele>
        <time>2023-08-03T09:25:08Z</time>
      </trkpt>
      <trkpt lat="45.92672" lon="3.65756">
        <ele>779.4</ele>
        <time>2023-08-03T09:25:09Z</time>
      </trkpt>
      <trkpt lat="45.92672" lon="3.65752">
        <ele>779.4</ele>
        <time>2023-08-03T09:25:12Z</time>
      </trkpt>
      <trkpt lat="45.92672" lon="3.65745">
        <ele>779.4</ele>
        <time>2023-08-03T09:25:16Z</time>
      </trkpt>
      <trkpt lat="45.92672" lon="3.65742">
        <ele>779.4</ele>
        <time>2023-08-03T09:25:17Z</time>
      </trkpt>
      <trkpt lat="45.92672" lon="3.65737">
        <ele>779.2</ele>
        <time>2023-08-03T09:25:21Z</time>
      </trkpt>
      <trkpt lat="45.92674" lon="3.65734">
        <ele>779.2</ele>
        <time>2023-08-03T09:25:23Z</time>
      </trkpt>
      <trkpt lat="45.92673" lon="3.65729">
        <ele>779</ele>
        <time>2023-08-03T09:25:28Z</time>
      </trkpt>
      <trkpt lat="45.92669" lon="3.65725">
        <ele>779</ele>
        <time>2023-08-03T09:25:33Z</time>
      </trkpt>
      <trkpt lat="45.92667" lon="3.65722">
        <ele>779</ele>
        <time>2023-08-03T09:25:37Z</time>
      </trkpt>
      <trkpt lat="45.92665" lon="3.65719">
        <ele>779</ele>
        <time>2023-08-03T09:25:39Z</time>
      </trkpt>
      <trkpt lat="45.92663" lon="3.65714">
        <ele>779</ele>
        <time>2023-08-03T09:25:42Z</time>
      </trkpt>
      <trkpt lat="45.92658" lon="3.65705">
        <ele>779</ele>
        <time>2023-08-03T09:25:48Z</time>
      </trkpt>
      <trkpt lat="45.92655" lon="3.65701">
        <ele>779</ele>
        <time>2023-08-03T09:25:50Z</time>
      </trkpt>
      <trkpt lat="45.92654" lon="3.65698">
        <ele>779</ele>
        <time>2023-08-03T09:25:52Z</time>
      </trkpt>
      <trkpt lat="45.92653" lon="3.65697">
        <ele>779</ele>
        <time>2023-08-03T09:25:53Z</time>
      </trkpt>
      <trkpt lat="45.92651" lon="3.65692">
        <ele>779</ele>
        <time>2023-08-03T09:25:57Z</time>
      </trkpt>
      <trkpt lat="45.92651" lon="3.65691">
        <ele>779</ele>
        <time>2023-08-03T09:25:59Z</time>
      </trkpt>
      <trkpt lat="45.92648" lon="3.65686">
        <ele>778.8</ele>
        <time>2023-08-03T09:26:05Z</time>
      </trkpt>
      <trkpt lat="45.92644" lon="3.65683">
        <ele>778.8</ele>
        <time>2023-08-03T09:26:10Z</time>
      </trkpt>
      <trkpt lat="45.92639" lon="3.65681">
        <ele>778.8</ele>
        <time>2023-08-03T09:26:15Z</time>
      </trkpt>
      <trkpt lat="45.92634" lon="3.65677">
        <ele>778.4</ele>
        <time>2023-08-03T09:26:21Z</time>
      </trkpt>
      <trkpt lat="45.92628" lon="3.65667">
        <ele>778.2</ele>
        <time>2023-08-03T09:26:26Z</time>
      </trkpt>
      <trkpt lat="45.92625" lon="3.65659">
        <ele>778.2</ele>
        <time>2023-08-03T09:26:32Z</time>
      </trkpt>
      <trkpt lat="45.92618" lon="3.65649">
        <ele>778</ele>
        <time>2023-08-03T09:26:38Z</time>
      </trkpt>
      <trkpt lat="45.92617" lon="3.65647">
        <ele>778</ele>
        <time>2023-08-03T09:26:39Z</time>
      </trkpt>
      <trkpt lat="45.92616" lon="3.65645">
        <ele>778</ele>
        <time>2023-08-03T09:26:41Z</time>
      </trkpt>
      <trkpt lat="45.92614" lon="3.65643">
        <ele>778.2</ele>
        <time>2023-08-03T09:26:43Z</time>
      </trkpt>
      <trkpt lat="45.92613" lon="3.65641">
        <ele>778.2</ele>
        <time>2023-08-03T09:26:44Z</time>
      </trkpt>
      <trkpt lat="45.92607" lon="3.65633">
        <ele>778.2</ele>
        <time>2023-08-03T09:26:49Z</time>
      </trkpt>
      <trkpt lat="45.92606" lon="3.65629">
        <ele>778.2</ele>
        <time>2023-08-03T09:26:52Z</time>
      </trkpt>
      <trkpt lat="45.92605" lon="3.65626">
        <ele>778.2</ele>
        <time>2023-08-03T09:26:54Z</time>
      </trkpt>
      <trkpt lat="45.92601" lon="3.65616">
        <ele>778.2</ele>
        <time>2023-08-03T09:26:59Z</time>
      </trkpt>
      <trkpt lat="45.92601" lon="3.65615">
        <ele>778.2</ele>
        <time>2023-08-03T09:27:01Z</time>
      </trkpt>
      <trkpt lat="45.92602" lon="3.65609">
        <ele>778.2</ele>
        <time>2023-08-03T09:27:04Z</time>
      </trkpt>
      <trkpt lat="45.92605" lon="3.65608">
        <ele>778</ele>
        <time>2023-08-03T09:27:08Z</time>
      </trkpt>
      <trkpt lat="45.92608" lon="3.65603">
        <ele>777.8</ele>
        <time>2023-08-03T09:27:15Z</time>
      </trkpt>
      <trkpt lat="45.92597" lon="3.65605">
        <ele>777.6</ele>
        <time>2023-08-03T09:27:20Z</time>
      </trkpt>
      <trkpt lat="45.92601" lon="3.65603">
        <ele>777.6</ele>
        <time>2023-08-03T09:27:27Z</time>
      </trkpt>
      <trkpt lat="45.92598" lon="3.656">
        <ele>777.6</ele>
        <time>2023-08-03T09:27:38Z</time>
      </trkpt>
      <trkpt lat="45.92595" lon="3.65595">
        <ele>777.6</ele>
        <time>2023-08-03T09:27:44Z</time>
      </trkpt>
      <trkpt lat="45.92592" lon="3.65591">
        <ele>777.8</ele>
        <time>2023-08-03T09:27:49Z</time>
      </trkpt>
      <trkpt lat="45.92592" lon="3.65587">
        <ele>777.8</ele>
        <time>2023-08-03T09:27:52Z</time>
      </trkpt>
      <trkpt lat="45.92592" lon="3.65586">
        <ele>777.8</ele>
        <time>2023-08-03T09:27:53Z</time>
      </trkpt>
      <trkpt lat="45.92589" lon="3.65575">
        <ele>777.8</ele>
        <time>2023-08-03T09:27:59Z</time>
      </trkpt>
      <trkpt lat="45.9259" lon="3.65582">
        <ele>777.8</ele>
        <time>2023-08-03T09:28:03Z</time>
      </trkpt>
      <trkpt lat="45.9259" lon="3.65582">
        <ele>777.8</ele>
        <time>2023-08-03T09:28:07Z</time>
      </trkpt>
      <trkpt lat="45.92588" lon="3.65576">
        <ele>778</ele>
        <time>2023-08-03T09:28:12Z</time>
      </trkpt>
      <trkpt lat="45.92587" lon="3.65575">
        <ele>778</ele>
        <time>2023-08-03T09:28:13Z</time>
      </trkpt>
      <trkpt lat="45.92587" lon="3.65572">
        <ele>777.8</ele>
        <time>2023-08-03T09:28:17Z</time>
      </trkpt>
      <trkpt lat="45.92586" lon="3.65567">
        <ele>777.8</ele>
        <time>2023-08-03T09:28:22Z</time>
      </trkpt>
      <trkpt lat="45.92585" lon="3.65564">
        <ele>777.8</ele>
        <time>2023-08-03T09:28:24Z</time>
      </trkpt>
      <trkpt lat="45.92582" lon="3.65559">
        <ele>777.6</ele>
        <time>2023-08-03T09:28:27Z</time>
      </trkpt>
      <trkpt lat="45.92582" lon="3.65556">
        <ele>777.6</ele>
        <time>2023-08-03T09:28:28Z</time>
      </trkpt>
      <trkpt lat="45.92581" lon="3.65552">
        <ele>777.4</ele>
        <time>2023-08-03T09:28:30Z</time>
      </trkpt>
      <trkpt lat="45.92577" lon="3.65547">
        <ele>777.2</ele>
        <time>2023-08-03T09:28:33Z</time>
      </trkpt>
      <trkpt lat="45.92576" lon="3.65545">
        <ele>777</ele>
        <time>2023-08-03T09:28:34Z</time>
      </trkpt>
      <trkpt lat="45.92575" lon="3.65541">
        <ele>777</ele>
        <time>2023-08-03T09:28:36Z</time>
      </trkpt>
      <trkpt lat="45.92574" lon="3.65539">
        <ele>776.8</ele>
        <time>2023-08-03T09:28:37Z</time>
      </trkpt>
      <trkpt lat="45.92566" lon="3.6553">
        <ele>776.8</ele>
        <time>2023-08-03T09:28:43Z</time>
      </trkpt>
      <trkpt lat="45.92561" lon="3.65526">
        <ele>776.8</ele>
        <time>2023-08-03T09:28:48Z</time>
      </trkpt>
      <trkpt lat="45.92559" lon="3.65521">
        <ele>776.8</ele>
        <time>2023-08-03T09:28:51Z</time>
      </trkpt>
      <trkpt lat="45.92557" lon="3.65516">
        <ele>777</ele>
        <time>2023-08-03T09:28:54Z</time>
      </trkpt>
      <trkpt lat="45.92551" lon="3.65506">
        <ele>777</ele>
        <time>2023-08-03T09:29:00Z</time>
      </trkpt>
      <trkpt lat="45.92547" lon="3.65496">
        <ele>777</ele>
        <time>2023-08-03T09:29:05Z</time>
      </trkpt>
      <trkpt lat="45.92544" lon="3.6549">
        <ele>777</ele>
        <time>2023-08-03T09:29:10Z</time>
      </trkpt>
      <trkpt lat="45.92541" lon="3.65485">
        <ele>777</ele>
        <time>2023-08-03T09:29:15Z</time>
      </trkpt>
      <trkpt lat="45.9254" lon="3.65477">
        <ele>777</ele>
        <time>2023-08-03T09:29:20Z</time>
      </trkpt>
      <trkpt lat="45.92539" lon="3.65469">
        <ele>777.2</ele>
        <time>2023-08-03T09:29:26Z</time>
      </trkpt>
      <trkpt lat="45.92535" lon="3.65458">
        <ele>777</ele>
        <time>2023-08-03T09:29:32Z</time>
      </trkpt>
      <trkpt lat="45.92532" lon="3.65448">
        <ele>777</ele>
        <time>2023-08-03T09:29:37Z</time>
      </trkpt>
      <trkpt lat="45.92529" lon="3.65441">
        <ele>776.8</ele>
        <time>2023-08-03T09:29:43Z</time>
      </trkpt>
      <trkpt lat="45.92526" lon="3.65438">
        <ele>776.8</ele>
        <time>2023-08-03T09:29:47Z</time>
      </trkpt>
      <trkpt lat="45.92522" lon="3.65434">
        <ele>776.8</ele>
        <time>2023-08-03T09:29:51Z</time>
      </trkpt>
      <trkpt lat="45.92517" lon="3.65429">
        <ele>776.6</ele>
        <time>2023-08-03T09:29:57Z</time>
      </trkpt>
      <trkpt lat="45.92516" lon="3.65428">
        <ele>776.6</ele>
        <time>2023-08-03T09:29:58Z</time>
      </trkpt>
      <trkpt lat="45.9251" lon="3.65424">
        <ele>776.4</ele>
        <time>2023-08-03T09:30:05Z</time>
      </trkpt>
      <trkpt lat="45.92506" lon="3.65423">
        <ele>776.2</ele>
        <time>2023-08-03T09:30:12Z</time>
      </trkpt>
      <trkpt lat="45.92501" lon="3.65421">
        <ele>776.2</ele>
        <time>2023-08-03T09:30:17Z</time>
      </trkpt>
      <trkpt lat="45.92498" lon="3.65419">
        <ele>776.2</ele>
        <time>2023-08-03T09:30:22Z</time>
      </trkpt>
      <trkpt lat="45.92496" lon="3.65418">
        <ele>776.2</ele>
        <time>2023-08-03T09:30:26Z</time>
      </trkpt>
      <trkpt lat="45.92485" lon="3.65418">
        <ele>776.2</ele>
        <time>2023-08-03T09:30:34Z</time>
      </trkpt>
      <trkpt lat="45.92478" lon="3.65418">
        <ele>776.4</ele>
        <time>2023-08-03T09:30:39Z</time>
      </trkpt>
      <trkpt lat="45.92474" lon="3.65415">
        <ele>776.4</ele>
        <time>2023-08-03T09:30:41Z</time>
      </trkpt>
      <trkpt lat="45.9247" lon="3.65411">
        <ele>776.4</ele>
        <time>2023-08-03T09:30:45Z</time>
      </trkpt>
      <trkpt lat="45.9246" lon="3.65406">
        <ele>776.2</ele>
        <time>2023-08-03T09:30:51Z</time>
      </trkpt>
      <trkpt lat="45.92457" lon="3.65404">
        <ele>775.8</ele>
        <time>2023-08-03T09:30:55Z</time>
      </trkpt>
      <trkpt lat="45.92453" lon="3.65402">
        <ele>775.4</ele>
        <time>2023-08-03T09:30:58Z</time>
      </trkpt>
      <trkpt lat="45.92444" lon="3.65397">
        <ele>774.8</ele>
        <time>2023-08-03T09:31:04Z</time>
      </trkpt>
      <trkpt lat="45.9244" lon="3.65396">
        <ele>774.6</ele>
        <time>2023-08-03T09:31:06Z</time>
      </trkpt>
      <trkpt lat="45.92435" lon="3.65397">
        <ele>774.2</ele>
        <time>2023-08-03T09:31:10Z</time>
      </trkpt>
      <trkpt lat="45.92431" lon="3.65399">
        <ele>773.8</ele>
        <time>2023-08-03T09:31:14Z</time>
      </trkpt>
      <trkpt lat="45.9243" lon="3.65397">
        <ele>773.8</ele>
        <time>2023-08-03T09:31:16Z</time>
      </trkpt>
      <trkpt lat="45.92424" lon="3.65394">
        <ele>773.4</ele>
        <time>2023-08-03T09:31:20Z</time>
      </trkpt>
      <trkpt lat="45.92419" lon="3.65389">
        <ele>773.2</ele>
        <time>2023-08-03T09:31:24Z</time>
      </trkpt>
      <trkpt lat="45.92415" lon="3.65385">
        <ele>773</ele>
        <time>2023-08-03T09:31:26Z</time>
      </trkpt>
      <trkpt lat="45.92412" lon="3.65382">
        <ele>772.2</ele>
        <time>2023-08-03T09:31:30Z</time>
      </trkpt>
      <trkpt lat="45.92411" lon="3.65381">
        <ele>771.8</ele>
        <time>2023-08-03T09:31:32Z</time>
      </trkpt>
      <trkpt lat="45.92406" lon="3.65378">
        <ele>771.6</ele>
        <time>2023-08-03T09:31:34Z</time>
      </trkpt>
      <trkpt lat="45.92401" lon="3.65372">
        <ele>771</ele>
        <time>2023-08-03T09:31:38Z</time>
      </trkpt>
      <trkpt lat="45.92399" lon="3.65369">
        <ele>770.8</ele>
        <time>2023-08-03T09:31:39Z</time>
      </trkpt>
      <trkpt lat="45.92394" lon="3.65363">
        <ele>770</ele>
        <time>2023-08-03T09:31:43Z</time>
      </trkpt>
      <trkpt lat="45.92393" lon="3.65361">
        <ele>769.6</ele>
        <time>2023-08-03T09:31:45Z</time>
      </trkpt>
      <trkpt lat="45.9239" lon="3.65356">
        <ele>769.2</ele>
        <time>2023-08-03T09:31:48Z</time>
      </trkpt>
      <trkpt lat="45.92384" lon="3.65353">
        <ele>768.4</ele>
        <time>2023-08-03T09:31:53Z</time>
      </trkpt>
      <trkpt lat="45.92382" lon="3.65352">
        <ele>768.4</ele>
        <time>2023-08-03T09:31:55Z</time>
      </trkpt>
      <trkpt lat="45.92381" lon="3.65346">
        <ele>768.4</ele>
        <time>2023-08-03T09:32:00Z</time>
      </trkpt>
      <trkpt lat="45.92377" lon="3.65341">
        <ele>768.4</ele>
        <time>2023-08-03T09:32:03Z</time>
      </trkpt>
      <trkpt lat="45.92375" lon="3.65338">
        <ele>768.4</ele>
        <time>2023-08-03T09:32:04Z</time>
      </trkpt>
      <trkpt lat="45.92368" lon="3.65333">
        <ele>768.4</ele>
        <time>2023-08-03T09:32:07Z</time>
      </trkpt>
      <trkpt lat="45.92366" lon="3.65333">
        <ele>768.4</ele>
        <time>2023-08-03T09:32:08Z</time>
      </trkpt>
      <trkpt lat="45.92366" lon="3.65333">
        <ele>768.4</ele>
        <time>2023-08-03T09:32:09Z</time>
      </trkpt>
      <trkpt lat="45.92362" lon="3.65329">
        <ele>768.6</ele>
        <time>2023-08-03T09:32:12Z</time>
      </trkpt>
      <trkpt lat="45.92359" lon="3.65326">
        <ele>768.6</ele>
        <time>2023-08-03T09:32:14Z</time>
      </trkpt>
      <trkpt lat="45.92357" lon="3.65323">
        <ele>768.8</ele>
        <time>2023-08-03T09:32:19Z</time>
      </trkpt>
      <trkpt lat="45.92357" lon="3.65323">
        <ele>768.8</ele>
        <time>2023-08-03T09:32:20Z</time>
      </trkpt>
      <trkpt lat="45.92357" lon="3.65323">
        <ele>769</ele>
        <time>2023-08-03T09:32:25Z</time>
      </trkpt>
      <trkpt lat="45.92356" lon="3.65322">
        <ele>769</ele>
        <time>2023-08-03T09:32:26Z</time>
      </trkpt>
      <trkpt lat="45.92358" lon="3.65324">
        <ele>769</ele>
        <time>2023-08-03T09:32:28Z</time>
      </trkpt>
      <trkpt lat="45.92361" lon="3.65328">
        <ele>769.2</ele>
        <time>2023-08-03T09:32:30Z</time>
      </trkpt>
      <trkpt lat="45.92363" lon="3.65329">
        <ele>769.4</ele>
        <time>2023-08-03T09:32:35Z</time>
      </trkpt>
      <trkpt lat="45.92361" lon="3.65329">
        <ele>769.4</ele>
        <time>2023-08-03T09:32:36Z</time>
      </trkpt>
      <trkpt lat="45.92362" lon="3.65331">
        <ele>769.4</ele>
        <time>2023-08-03T09:32:40Z</time>
      </trkpt>
      <trkpt lat="45.9236" lon="3.65328">
        <ele>769.4</ele>
        <time>2023-08-03T09:32:43Z</time>
      </trkpt>
      <trkpt lat="45.9236" lon="3.65327">
        <ele>769.6</ele>
        <time>2023-08-03T09:32:45Z</time>
      </trkpt>
      <trkpt lat="45.9236" lon="3.65326">
        <ele>769.6</ele>
        <time>2023-08-03T09:32:49Z</time>
      </trkpt>
      <trkpt lat="45.92356" lon="3.65321">
        <ele>770.2</ele>
        <time>2023-08-03T09:32:55Z</time>
      </trkpt>
      <trkpt lat="45.92351" lon="3.65316">
        <ele>770.4</ele>
        <time>2023-08-03T09:33:05Z</time>
      </trkpt>
      <trkpt lat="45.9235" lon="3.65314">
        <ele>770.6</ele>
        <time>2023-08-03T09:33:07Z</time>
      </trkpt>
      <trkpt lat="45.92347" lon="3.65312">
        <ele>770.6</ele>
        <time>2023-08-03T09:33:12Z</time>
      </trkpt>
      <trkpt lat="45.92345" lon="3.65311">
        <ele>771</ele>
        <time>2023-08-03T09:33:17Z</time>
      </trkpt>
      <trkpt lat="45.92342" lon="3.65308">
        <ele>771.4</ele>
        <time>2023-08-03T09:33:22Z</time>
      </trkpt>
      <trkpt lat="45.9234" lon="3.65306">
        <ele>771.6</ele>
        <time>2023-08-03T09:33:25Z</time>
      </trkpt>
      <trkpt lat="45.9234" lon="3.65306">
        <ele>772</ele>
        <time>2023-08-03T09:33:28Z</time>
      </trkpt>
      <trkpt lat="45.92338" lon="3.65302">
        <ele>772.4</ele>
        <time>2023-08-03T09:33:34Z</time>
      </trkpt>
      <trkpt lat="45.92337" lon="3.65301">
        <ele>772.6</ele>
        <time>2023-08-03T09:33:36Z</time>
      </trkpt>
      <trkpt lat="45.92334" lon="3.65301">
        <ele>772.8</ele>
        <time>2023-08-03T09:33:38Z</time>
      </trkpt>
      <trkpt lat="45.9233" lon="3.653">
        <ele>773.2</ele>
        <time>2023-08-03T09:33:41Z</time>
      </trkpt>
      <trkpt lat="45.92327" lon="3.65299">
        <ele>773.8</ele>
        <time>2023-08-03T09:33:44Z</time>
      </trkpt>
      <trkpt lat="45.9232" lon="3.65299">
        <ele>774.4</ele>
        <time>2023-08-03T09:33:49Z</time>
      </trkpt>
      <trkpt lat="45.92318" lon="3.653">
        <ele>774.8</ele>
        <time>2023-08-03T09:33:52Z</time>
      </trkpt>
      <trkpt lat="45.92316" lon="3.65302">
        <ele>775</ele>
        <time>2023-08-03T09:33:55Z</time>
      </trkpt>
      <trkpt lat="45.92309" lon="3.65299">
        <ele>775.2</ele>
        <time>2023-08-03T09:33:59Z</time>
      </trkpt>
      <trkpt lat="45.92301" lon="3.65296">
        <ele>775.4</ele>
        <time>2023-08-03T09:34:04Z</time>
      </trkpt>
      <trkpt lat="45.92296" lon="3.653">
        <ele>775.8</ele>
        <time>2023-08-03T09:34:09Z</time>
      </trkpt>
      <trkpt lat="45.92294" lon="3.65301">
        <ele>776</ele>
        <time>2023-08-03T09:34:11Z</time>
      </trkpt>
      <trkpt lat="45.92284" lon="3.65297">
        <ele>776.6</ele>
        <time>2023-08-03T09:34:20Z</time>
      </trkpt>
      <trkpt lat="45.92279" lon="3.65299">
        <ele>776.8</ele>
        <time>2023-08-03T09:34:27Z</time>
      </trkpt>
      <trkpt lat="45.92275" lon="3.65299">
        <ele>777.2</ele>
        <time>2023-08-03T09:34:33Z</time>
      </trkpt>
      <trkpt lat="45.92269" lon="3.65298">
        <ele>777.2</ele>
        <time>2023-08-03T09:34:38Z</time>
      </trkpt>
      <trkpt lat="45.92268" lon="3.65298">
        <ele>777.2</ele>
        <time>2023-08-03T09:34:39Z</time>
      </trkpt>
      <trkpt lat="45.92262" lon="3.65295">
        <ele>777.2</ele>
        <time>2023-08-03T09:34:43Z</time>
      </trkpt>
      <trkpt lat="45.9226" lon="3.65294">
        <ele>777.2</ele>
        <time>2023-08-03T09:34:45Z</time>
      </trkpt>
      <trkpt lat="45.92258" lon="3.65293">
        <ele>777.2</ele>
        <time>2023-08-03T09:34:47Z</time>
      </trkpt>
      <trkpt lat="45.92255" lon="3.65292">
        <ele>777.2</ele>
        <time>2023-08-03T09:34:51Z</time>
      </trkpt>
      <trkpt lat="45.92249" lon="3.65295">
        <ele>777.2</ele>
        <time>2023-08-03T09:34:56Z</time>
      </trkpt>
      <trkpt lat="45.92238" lon="3.65296">
        <ele>777.2</ele>
        <time>2023-08-03T09:35:01Z</time>
      </trkpt>
      <trkpt lat="45.92228" lon="3.653">
        <ele>777</ele>
        <time>2023-08-03T09:35:07Z</time>
      </trkpt>
      <trkpt lat="45.92223" lon="3.65301">
        <ele>777</ele>
        <time>2023-08-03T09:35:12Z</time>
      </trkpt>
      <trkpt lat="45.92215" lon="3.65304">
        <ele>776.8</ele>
        <time>2023-08-03T09:35:19Z</time>
      </trkpt>
      <trkpt lat="45.92209" lon="3.65307">
        <ele>776.6</ele>
        <time>2023-08-03T09:35:26Z</time>
      </trkpt>
      <trkpt lat="45.92201" lon="3.65312">
        <ele>776.6</ele>
        <time>2023-08-03T09:35:31Z</time>
      </trkpt>
      <trkpt lat="45.92195" lon="3.65317">
        <ele>776.4</ele>
        <time>2023-08-03T09:35:38Z</time>
      </trkpt>
      <trkpt lat="45.92195" lon="3.65316">
        <ele>776.4</ele>
        <time>2023-08-03T09:35:39Z</time>
      </trkpt>
      <trkpt lat="45.92187" lon="3.65321">
        <ele>776.4</ele>
        <time>2023-08-03T09:35:45Z</time>
      </trkpt>
      <trkpt lat="45.92185" lon="3.65322">
        <ele>776.4</ele>
        <time>2023-08-03T09:35:47Z</time>
      </trkpt>
      <trkpt lat="45.92184" lon="3.65324">
        <ele>776.4</ele>
        <time>2023-08-03T09:35:49Z</time>
      </trkpt>
      <trkpt lat="45.9218" lon="3.65327">
        <ele>776.4</ele>
        <time>2023-08-03T09:35:52Z</time>
      </trkpt>
      <trkpt lat="45.92176" lon="3.65328">
        <ele>776.4</ele>
        <time>2023-08-03T09:35:54Z</time>
      </trkpt>
      <trkpt lat="45.92173" lon="3.65327">
        <ele>776.2</ele>
        <time>2023-08-03T09:35:57Z</time>
      </trkpt>
      <trkpt lat="45.92169" lon="3.65328">
        <ele>776.2</ele>
        <time>2023-08-03T09:35:59Z</time>
      </trkpt>
      <trkpt lat="45.92168" lon="3.65329">
        <ele>776.2</ele>
        <time>2023-08-03T09:36:00Z</time>
      </trkpt>
      <trkpt lat="45.92167" lon="3.65332">
        <ele>776.2</ele>
        <time>2023-08-03T09:36:02Z</time>
      </trkpt>
      <trkpt lat="45.92165" lon="3.65337">
        <ele>776</ele>
        <time>2023-08-03T09:36:04Z</time>
      </trkpt>
      <trkpt lat="45.92163" lon="3.65339">
        <ele>776</ele>
        <time>2023-08-03T09:36:05Z</time>
      </trkpt>
      <trkpt lat="45.92156" lon="3.65341">
        <ele>775.8</ele>
        <time>2023-08-03T09:36:09Z</time>
      </trkpt>
      <trkpt lat="45.9215" lon="3.65353">
        <ele>775.8</ele>
        <time>2023-08-03T09:36:16Z</time>
      </trkpt>
      <trkpt lat="45.9215" lon="3.65357">
        <ele>775.8</ele>
        <time>2023-08-03T09:36:17Z</time>
      </trkpt>
      <trkpt lat="45.9215" lon="3.65359">
        <ele>775.8</ele>
        <time>2023-08-03T09:36:18Z</time>
      </trkpt>
      <trkpt lat="45.92147" lon="3.65364">
        <ele>775.8</ele>
        <time>2023-08-03T09:36:20Z</time>
      </trkpt>
      <trkpt lat="45.92147" lon="3.65365">
        <ele>775.8</ele>
        <time>2023-08-03T09:36:21Z</time>
      </trkpt>
      <trkpt lat="45.92146" lon="3.65362">
        <ele>775.8</ele>
        <time>2023-08-03T09:36:24Z</time>
      </trkpt>
      <trkpt lat="45.92144" lon="3.6536">
        <ele>775.8</ele>
        <time>2023-08-03T09:36:26Z</time>
      </trkpt>
      <trkpt lat="45.92142" lon="3.65358">
        <ele>775.8</ele>
        <time>2023-08-03T09:36:28Z</time>
      </trkpt>
      <trkpt lat="45.92139" lon="3.65362">
        <ele>776</ele>
        <time>2023-08-03T09:36:30Z</time>
      </trkpt>
      <trkpt lat="45.92135" lon="3.65368">
        <ele>776.2</ele>
        <time>2023-08-03T09:36:34Z</time>
      </trkpt>
      <trkpt lat="45.92132" lon="3.65369">
        <ele>776.4</ele>
        <time>2023-08-03T09:36:36Z</time>
      </trkpt>
      <trkpt lat="45.92129" lon="3.65373">
        <ele>776.4</ele>
        <time>2023-08-03T09:36:38Z</time>
      </trkpt>
      <trkpt lat="45.92124" lon="3.65374">
        <ele>776.6</ele>
        <time>2023-08-03T09:36:43Z</time>
      </trkpt>
      <trkpt lat="45.92116" lon="3.65377">
        <ele>777</ele>
        <time>2023-08-03T09:36:49Z</time>
      </trkpt>
      <trkpt lat="45.92113" lon="3.65377">
        <ele>777</ele>
        <time>2023-08-03T09:36:51Z</time>
      </trkpt>
      <trkpt lat="45.9211" lon="3.65377">
        <ele>777.2</ele>
        <time>2023-08-03T09:36:54Z</time>
      </trkpt>
      <trkpt lat="45.92105" lon="3.65384">
        <ele>777.4</ele>
        <time>2023-08-03T09:36:59Z</time>
      </trkpt>
      <trkpt lat="45.92096" lon="3.6539">
        <ele>777.8</ele>
        <time>2023-08-03T09:37:05Z</time>
      </trkpt>
      <trkpt lat="45.92093" lon="3.65393">
        <ele>778</ele>
        <time>2023-08-03T09:37:08Z</time>
      </trkpt>
      <trkpt lat="45.92091" lon="3.65394">
        <ele>778.2</ele>
        <time>2023-08-03T09:37:10Z</time>
      </trkpt>
      <trkpt lat="45.92089" lon="3.65393">
        <ele>778.2</ele>
        <time>2023-08-03T09:37:11Z</time>
      </trkpt>
      <trkpt lat="45.92087" lon="3.65401">
        <ele>778.4</ele>
        <time>2023-08-03T09:37:15Z</time>
      </trkpt>
      <trkpt lat="45.92083" lon="3.65404">
        <ele>778.6</ele>
        <time>2023-08-03T09:37:19Z</time>
      </trkpt>
      <trkpt lat="45.92079" lon="3.65406">
        <ele>779</ele>
        <time>2023-08-03T09:37:25Z</time>
      </trkpt>
      <trkpt lat="45.92078" lon="3.65407">
        <ele>779</ele>
        <time>2023-08-03T09:37:26Z</time>
      </trkpt>
      <trkpt lat="45.92076" lon="3.65409">
        <ele>779.2</ele>
        <time>2023-08-03T09:37:30Z</time>
      </trkpt>
      <trkpt lat="45.92072" lon="3.6541">
        <ele>779.6</ele>
        <time>2023-08-03T09:37:33Z</time>
      </trkpt>
      <trkpt lat="45.92068" lon="3.65411">
        <ele>780</ele>
        <time>2023-08-03T09:37:36Z</time>
      </trkpt>
      <trkpt lat="45.92063" lon="3.65415">
        <ele>780.2</ele>
        <time>2023-08-03T09:37:40Z</time>
      </trkpt>
      <trkpt lat="45.92062" lon="3.65415">
        <ele>780.4</ele>
        <time>2023-08-03T09:37:41Z</time>
      </trkpt>
      <trkpt lat="45.92055" lon="3.65412">
        <ele>780.6</ele>
        <time>2023-08-03T09:37:45Z</time>
      </trkpt>
      <trkpt lat="45.92046" lon="3.65416">
        <ele>781.2</ele>
        <time>2023-08-03T09:37:51Z</time>
      </trkpt>
      <trkpt lat="45.92044" lon="3.65415">
        <ele>781.4</ele>
        <time>2023-08-03T09:37:55Z</time>
      </trkpt>
      <trkpt lat="45.9204" lon="3.65417">
        <ele>781.6</ele>
        <time>2023-08-03T09:37:59Z</time>
      </trkpt>
      <trkpt lat="45.92038" lon="3.65423">
        <ele>782.2</ele>
        <time>2023-08-03T09:38:05Z</time>
      </trkpt>
      <trkpt lat="45.92038" lon="3.65424">
        <ele>782.4</ele>
        <time>2023-08-03T09:38:07Z</time>
      </trkpt>
      <trkpt lat="45.92035" lon="3.65425">
        <ele>782.6</ele>
        <time>2023-08-03T09:38:10Z</time>
      </trkpt>
      <trkpt lat="45.92032" lon="3.65425">
        <ele>782.8</ele>
        <time>2023-08-03T09:38:14Z</time>
      </trkpt>
      <trkpt lat="45.92024" lon="3.65431">
        <ele>783.2</ele>
        <time>2023-08-03T09:38:20Z</time>
      </trkpt>
      <trkpt lat="45.92022" lon="3.65439">
        <ele>783.4</ele>
        <time>2023-08-03T09:38:23Z</time>
      </trkpt>
      <trkpt lat="45.9202" lon="3.65443">
        <ele>783.6</ele>
        <time>2023-08-03T09:38:24Z</time>
      </trkpt>
      <trkpt lat="45.92015" lon="3.6545">
        <ele>784</ele>
        <time>2023-08-03T09:38:30Z</time>
      </trkpt>
      <trkpt lat="45.92001" lon="3.65458">
        <ele>784.4</ele>
        <time>2023-08-03T09:38:38Z</time>
      </trkpt>
      <trkpt lat="45.92001" lon="3.65458">
        <ele>784.6</ele>
        <time>2023-08-03T09:38:39Z</time>
      </trkpt>
      <trkpt lat="45.91996" lon="3.65464">
        <ele>784.8</ele>
        <time>2023-08-03T09:38:43Z</time>
      </trkpt>
      <trkpt lat="45.91994" lon="3.65466">
        <ele>785.2</ele>
        <time>2023-08-03T09:38:48Z</time>
      </trkpt>
      <trkpt lat="45.91992" lon="3.65467">
        <ele>785.6</ele>
        <time>2023-08-03T09:38:52Z</time>
      </trkpt>
      <trkpt lat="45.9199" lon="3.65468">
        <ele>785.8</ele>
        <time>2023-08-03T09:38:53Z</time>
      </trkpt>
      <trkpt lat="45.91985" lon="3.6547">
        <ele>786.6</ele>
        <time>2023-08-03T09:38:59Z</time>
      </trkpt>
      <trkpt lat="45.91982" lon="3.6547">
        <ele>787.2</ele>
        <time>2023-08-03T09:39:04Z</time>
      </trkpt>
      <trkpt lat="45.91978" lon="3.65467">
        <ele>787.6</ele>
        <time>2023-08-03T09:39:07Z</time>
      </trkpt>
      <trkpt lat="45.91976" lon="3.65465">
        <ele>787.6</ele>
        <time>2023-08-03T09:39:08Z</time>
      </trkpt>
      <trkpt lat="45.9197" lon="3.65465">
        <ele>788</ele>
        <time>2023-08-03T09:39:12Z</time>
      </trkpt>
      <trkpt lat="45.91964" lon="3.65463">
        <ele>788.4</ele>
        <time>2023-08-03T09:39:16Z</time>
      </trkpt>
      <trkpt lat="45.91959" lon="3.65462">
        <ele>788.6</ele>
        <time>2023-08-03T09:39:19Z</time>
      </trkpt>
      <trkpt lat="45.91957" lon="3.65465">
        <ele>788.8</ele>
        <time>2023-08-03T09:39:21Z</time>
      </trkpt>
      <trkpt lat="45.91954" lon="3.65466">
        <ele>789</ele>
        <time>2023-08-03T09:39:23Z</time>
      </trkpt>
      <trkpt lat="45.9195" lon="3.65462">
        <ele>789</ele>
        <time>2023-08-03T09:39:25Z</time>
      </trkpt>
      <trkpt lat="45.91945" lon="3.65458">
        <ele>789.4</ele>
        <time>2023-08-03T09:39:29Z</time>
      </trkpt>
      <trkpt lat="45.91941" lon="3.65454">
        <ele>789.6</ele>
        <time>2023-08-03T09:39:31Z</time>
      </trkpt>
      <trkpt lat="45.91936" lon="3.6545">
        <ele>789.8</ele>
        <time>2023-08-03T09:39:32Z</time>
      </trkpt>
      <trkpt lat="45.91935" lon="3.65446">
        <ele>790</ele>
        <time>2023-08-03T09:39:34Z</time>
      </trkpt>
      <trkpt lat="45.9193" lon="3.65442">
        <ele>790.4</ele>
        <time>2023-08-03T09:39:37Z</time>
      </trkpt>
      <trkpt lat="45.91925" lon="3.65437">
        <ele>790.8</ele>
        <time>2023-08-03T09:39:41Z</time>
      </trkpt>
      <trkpt lat="45.91924" lon="3.65437">
        <ele>791</ele>
        <time>2023-08-03T09:39:42Z</time>
      </trkpt>
      <trkpt lat="45.91921" lon="3.6543">
        <ele>791.6</ele>
        <time>2023-08-03T09:39:49Z</time>
      </trkpt>
      <trkpt lat="45.9192" lon="3.65429">
        <ele>792</ele>
        <time>2023-08-03T09:39:52Z</time>
      </trkpt>
      <trkpt lat="45.9192" lon="3.65428">
        <ele>792</ele>
        <time>2023-08-03T09:39:53Z</time>
      </trkpt>
      <trkpt lat="45.91917" lon="3.65425">
        <ele>792.4</ele>
        <time>2023-08-03T09:39:58Z</time>
      </trkpt>
      <trkpt lat="45.91916" lon="3.65421">
        <ele>793</ele>
        <time>2023-08-03T09:40:03Z</time>
      </trkpt>
      <trkpt lat="45.91914" lon="3.6542">
        <ele>793.4</ele>
        <time>2023-08-03T09:40:06Z</time>
      </trkpt>
      <trkpt lat="45.91912" lon="3.65417">
        <ele>794.2</ele>
        <time>2023-08-03T09:40:12Z</time>
      </trkpt>
      <trkpt lat="45.9191" lon="3.65415">
        <ele>795</ele>
        <time>2023-08-03T09:40:18Z</time>
      </trkpt>
      <trkpt lat="45.91909" lon="3.65415">
        <ele>795.2</ele>
        <time>2023-08-03T09:40:19Z</time>
      </trkpt>
      <trkpt lat="45.91907" lon="3.65414">
        <ele>795.4</ele>
        <time>2023-08-03T09:40:22Z</time>
      </trkpt>
      <trkpt lat="45.91904" lon="3.65412">
        <ele>795.8</ele>
        <time>2023-08-03T09:40:26Z</time>
      </trkpt>
      <trkpt lat="45.91901" lon="3.65411">
        <ele>796.2</ele>
        <time>2023-08-03T09:40:30Z</time>
      </trkpt>
      <trkpt lat="45.91898" lon="3.6541">
        <ele>796.4</ele>
        <time>2023-08-03T09:40:33Z</time>
      </trkpt>
      <trkpt lat="45.91894" lon="3.65402">
        <ele>797</ele>
        <time>2023-08-03T09:40:39Z</time>
      </trkpt>
      <trkpt lat="45.91893" lon="3.65399">
        <ele>797.4</ele>
        <time>2023-08-03T09:40:42Z</time>
      </trkpt>
      <trkpt lat="45.9189" lon="3.65397">
        <ele>797.6</ele>
        <time>2023-08-03T09:40:44Z</time>
      </trkpt>
      <trkpt lat="45.91883" lon="3.65387">
        <ele>798</ele>
        <time>2023-08-03T09:40:51Z</time>
      </trkpt>
      <trkpt lat="45.91875" lon="3.65395">
        <ele>798.4</ele>
        <time>2023-08-03T09:40:56Z</time>
      </trkpt>
      <trkpt lat="45.91873" lon="3.65394">
        <ele>798.4</ele>
        <time>2023-08-03T09:40:57Z</time>
      </trkpt>
      <trkpt lat="45.91865" lon="3.65394">
        <ele>798.6</ele>
        <time>2023-08-03T09:41:04Z</time>
      </trkpt>
      <trkpt lat="45.91859" lon="3.6539">
        <ele>799</ele>
        <time>2023-08-03T09:41:09Z</time>
      </trkpt>
      <trkpt lat="45.91857" lon="3.65389">
        <ele>799</ele>
        <time>2023-08-03T09:41:10Z</time>
      </trkpt>
      <trkpt lat="45.91857" lon="3.65389">
        <ele>799.2</ele>
        <time>2023-08-03T09:41:14Z</time>
      </trkpt>
      <trkpt lat="45.91856" lon="3.65387">
        <ele>799.4</ele>
        <time>2023-08-03T09:41:17Z</time>
      </trkpt>
      <trkpt lat="45.91856" lon="3.65384">
        <ele>799.4</ele>
        <time>2023-08-03T09:41:21Z</time>
      </trkpt>
      <trkpt lat="45.91857" lon="3.65379">
        <ele>799.6</ele>
        <time>2023-08-03T09:41:24Z</time>
      </trkpt>
      <trkpt lat="45.91858" lon="3.65375">
        <ele>799.4</ele>
        <time>2023-08-03T09:41:27Z</time>
      </trkpt>
      <trkpt lat="45.91857" lon="3.65365">
        <ele>798.8</ele>
        <time>2023-08-03T09:41:34Z</time>
      </trkpt>
      <trkpt lat="45.91856" lon="3.65362">
        <ele>798.4</ele>
        <time>2023-08-03T09:41:37Z</time>
      </trkpt>
      <trkpt lat="45.91855" lon="3.6536">
        <ele>798</ele>
        <time>2023-08-03T09:41:38Z</time>
      </trkpt>
      <trkpt lat="45.91853" lon="3.65359">
        <ele>798</ele>
        <time>2023-08-03T09:41:39Z</time>
      </trkpt>
      <trkpt lat="45.91847" lon="3.65355">
        <ele>797.4</ele>
        <time>2023-08-03T09:41:44Z</time>
      </trkpt>
      <trkpt lat="45.91846" lon="3.65354">
        <ele>797.2</ele>
        <time>2023-08-03T09:41:45Z</time>
      </trkpt>
      <trkpt lat="45.91844" lon="3.65352">
        <ele>796.8</ele>
        <time>2023-08-03T09:41:47Z</time>
      </trkpt>
      <trkpt lat="45.91838" lon="3.65347">
        <ele>796.4</ele>
        <time>2023-08-03T09:41:53Z</time>
      </trkpt>
      <trkpt lat="45.91837" lon="3.65347">
        <ele>796.4</ele>
        <time>2023-08-03T09:41:54Z</time>
      </trkpt>
      <trkpt lat="45.91843" lon="3.65347">
        <ele>796</ele>
        <time>2023-08-03T09:41:57Z</time>
      </trkpt>
      <trkpt lat="45.91845" lon="3.65347">
        <ele>795.8</ele>
        <time>2023-08-03T09:41:59Z</time>
      </trkpt>
      <trkpt lat="45.91842" lon="3.65348">
        <ele>795.6</ele>
        <time>2023-08-03T09:42:03Z</time>
      </trkpt>
      <trkpt lat="45.91829" lon="3.65346">
        <ele>795.4</ele>
        <time>2023-08-03T09:42:10Z</time>
      </trkpt>
      <trkpt lat="45.91827" lon="3.65344">
        <ele>795.2</ele>
        <time>2023-08-03T09:42:14Z</time>
      </trkpt>
      <trkpt lat="45.91826" lon="3.65342">
        <ele>795</ele>
        <time>2023-08-03T09:42:16Z</time>
      </trkpt>
      <trkpt lat="45.9182" lon="3.65338">
        <ele>794.4</ele>
        <time>2023-08-03T09:42:22Z</time>
      </trkpt>
      <trkpt lat="45.91818" lon="3.65335">
        <ele>794.2</ele>
        <time>2023-08-03T09:42:24Z</time>
      </trkpt>
      <trkpt lat="45.91814" lon="3.65331">
        <ele>793.8</ele>
        <time>2023-08-03T09:42:27Z</time>
      </trkpt>
      <trkpt lat="45.91809" lon="3.65325">
        <ele>793</ele>
        <time>2023-08-03T09:42:32Z</time>
      </trkpt>
      <trkpt lat="45.91807" lon="3.65326">
        <ele>792.6</ele>
        <time>2023-08-03T09:42:34Z</time>
      </trkpt>
      <trkpt lat="45.91802" lon="3.65323">
        <ele>792</ele>
        <time>2023-08-03T09:42:38Z</time>
      </trkpt>
      <trkpt lat="45.91801" lon="3.65323">
        <ele>791.6</ele>
        <time>2023-08-03T09:42:40Z</time>
      </trkpt>
      <trkpt lat="45.91797" lon="3.65322">
        <ele>790.8</ele>
        <time>2023-08-03T09:42:44Z</time>
      </trkpt>
      <trkpt lat="45.91792" lon="3.65322">
        <ele>790.2</ele>
        <time>2023-08-03T09:42:47Z</time>
      </trkpt>
      <trkpt lat="45.9179" lon="3.65319">
        <ele>789.6</ele>
        <time>2023-08-03T09:42:50Z</time>
      </trkpt>
      <trkpt lat="45.91788" lon="3.65322">
        <ele>789.4</ele>
        <time>2023-08-03T09:42:52Z</time>
      </trkpt>
      <trkpt lat="45.91784" lon="3.65322">
        <ele>788.6</ele>
        <time>2023-08-03T09:42:57Z</time>
      </trkpt>
      <trkpt lat="45.91775" lon="3.6532">
        <ele>787.4</ele>
        <time>2023-08-03T09:43:04Z</time>
      </trkpt>
      <trkpt lat="45.91775" lon="3.65321">
        <ele>787.2</ele>
        <time>2023-08-03T09:43:05Z</time>
      </trkpt>
      <trkpt lat="45.91773" lon="3.65322">
        <ele>786.2</ele>
        <time>2023-08-03T09:43:09Z</time>
      </trkpt>
      <trkpt lat="45.91773" lon="3.65322">
        <ele>785.6</ele>
        <time>2023-08-03T09:43:12Z</time>
      </trkpt>
      <trkpt lat="45.91771" lon="3.65322">
        <ele>785.2</ele>
        <time>2023-08-03T09:43:14Z</time>
      </trkpt>
      <trkpt lat="45.91771" lon="3.65321">
        <ele>784.2</ele>
        <time>2023-08-03T09:43:21Z</time>
      </trkpt>
      <trkpt lat="45.91769" lon="3.65316">
        <ele>783.4</ele>
        <time>2023-08-03T09:43:27Z</time>
      </trkpt>
      <trkpt lat="45.91766" lon="3.65315">
        <ele>783.4</ele>
        <time>2023-08-03T09:43:28Z</time>
      </trkpt>
      <trkpt lat="45.91764" lon="3.65315">
        <ele>783.2</ele>
        <time>2023-08-03T09:43:30Z</time>
      </trkpt>
      <trkpt lat="45.91757" lon="3.6531">
        <ele>782.6</ele>
        <time>2023-08-03T09:43:35Z</time>
      </trkpt>
      <trkpt lat="45.91751" lon="3.65293">
        <ele>782.2</ele>
        <time>2023-08-03T09:43:41Z</time>
      </trkpt>
      <trkpt lat="45.91755" lon="3.65293">
        <ele>782</ele>
        <time>2023-08-03T09:43:43Z</time>
      </trkpt>
      <trkpt lat="45.91758" lon="3.65295">
        <ele>782</ele>
        <time>2023-08-03T09:43:47Z</time>
      </trkpt>
      <trkpt lat="45.9176" lon="3.65296">
        <ele>782</ele>
        <time>2023-08-03T09:43:54Z</time>
      </trkpt>
      <trkpt lat="45.91768" lon="3.65295">
        <ele>782</ele>
        <time>2023-08-03T09:43:59Z</time>
      </trkpt>
      <trkpt lat="45.91771" lon="3.65299">
        <ele>782</ele>
        <time>2023-08-03T09:44:01Z</time>
      </trkpt>
      <trkpt lat="45.91771" lon="3.653">
        <ele>782</ele>
        <time>2023-08-03T09:44:02Z</time>
      </trkpt>
      <trkpt lat="45.91769" lon="3.65304">
        <ele>782</ele>
        <time>2023-08-03T09:44:06Z</time>
      </trkpt>
      <trkpt lat="45.91772" lon="3.65308">
        <ele>782</ele>
        <time>2023-08-03T09:44:12Z</time>
      </trkpt>
      <trkpt lat="45.91772" lon="3.6531">
        <ele>782</ele>
        <time>2023-08-03T09:44:14Z</time>
      </trkpt>
      <trkpt lat="45.91765" lon="3.65308">
        <ele>782</ele>
        <time>2023-08-03T09:44:18Z</time>
      </trkpt>
      <trkpt lat="45.91762" lon="3.65308">
        <ele>782.2</ele>
        <time>2023-08-03T09:44:22Z</time>
      </trkpt>
      <trkpt lat="45.91754" lon="3.65311">
        <ele>782.6</ele>
        <time>2023-08-03T09:44:27Z</time>
      </trkpt>
      <trkpt lat="45.91746" lon="3.65309">
        <ele>782.8</ele>
        <time>2023-08-03T09:44:33Z</time>
      </trkpt>
      <trkpt lat="45.91739" lon="3.6531">
        <ele>782.6</ele>
        <time>2023-08-03T09:44:40Z</time>
      </trkpt>
      <trkpt lat="45.91735" lon="3.65313">
        <ele>781.6</ele>
        <time>2023-08-03T09:44:46Z</time>
      </trkpt>
      <trkpt lat="45.91732" lon="3.65313">
        <ele>781.2</ele>
        <time>2023-08-03T09:44:51Z</time>
      </trkpt>
      <trkpt lat="45.9173" lon="3.65313">
        <ele>781</ele>
        <time>2023-08-03T09:44:52Z</time>
      </trkpt>
      <trkpt lat="45.91726" lon="3.65317">
        <ele>780.6</ele>
        <time>2023-08-03T09:44:57Z</time>
      </trkpt>
      <trkpt lat="45.91722" lon="3.65316">
        <ele>780</ele>
        <time>2023-08-03T09:45:03Z</time>
      </trkpt>
      <trkpt lat="45.91721" lon="3.65316">
        <ele>780</ele>
        <time>2023-08-03T09:45:04Z</time>
      </trkpt>
      <trkpt lat="45.91717" lon="3.65315">
        <ele>779.6</ele>
        <time>2023-08-03T09:45:12Z</time>
      </trkpt>
      <trkpt lat="45.91718" lon="3.65315">
        <ele>779.6</ele>
        <time>2023-08-03T09:45:19Z</time>
      </trkpt>
      <trkpt lat="45.91717" lon="3.65311">
        <ele>779.8</ele>
        <time>2023-08-03T09:45:25Z</time>
      </trkpt>
      <trkpt lat="45.91717" lon="3.65311">
        <ele>780</ele>
        <time>2023-08-03T09:45:33Z</time>
      </trkpt>
      <trkpt lat="45.9172" lon="3.65315">
        <ele>780</ele>
        <time>2023-08-03T09:45:40Z</time>
      </trkpt>
      <trkpt lat="45.91716" lon="3.65313">
        <ele>780</ele>
        <time>2023-08-03T09:45:47Z</time>
      </trkpt>
      <trkpt lat="45.91715" lon="3.65312">
        <ele>780</ele>
        <time>2023-08-03T09:45:51Z</time>
      </trkpt>
      <trkpt lat="45.91713" lon="3.6531">
        <ele>780</ele>
        <time>2023-08-03T09:45:54Z</time>
      </trkpt>
      <trkpt lat="45.91712" lon="3.65309">
        <ele>780</ele>
        <time>2023-08-03T09:45:56Z</time>
      </trkpt>
      <trkpt lat="45.91708" lon="3.65305">
        <ele>780</ele>
        <time>2023-08-03T09:46:01Z</time>
      </trkpt>
      <trkpt lat="45.91705" lon="3.65298">
        <ele>780.8</ele>
        <time>2023-08-03T09:46:09Z</time>
      </trkpt>
      <trkpt lat="45.91703" lon="3.65295">
        <ele>781.2</ele>
        <time>2023-08-03T09:46:12Z</time>
      </trkpt>
      <trkpt lat="45.917" lon="3.65288">
        <ele>782</ele>
        <time>2023-08-03T09:46:17Z</time>
      </trkpt>
      <trkpt lat="45.917" lon="3.65286">
        <ele>782.4</ele>
        <time>2023-08-03T09:46:18Z</time>
      </trkpt>
      <trkpt lat="45.91695" lon="3.65273">
        <ele>783.4</ele>
        <time>2023-08-03T09:46:26Z</time>
      </trkpt>
      <trkpt lat="45.91695" lon="3.65272">
        <ele>783.6</ele>
        <time>2023-08-03T09:46:27Z</time>
      </trkpt>
      <trkpt lat="45.91691" lon="3.65265">
        <ele>784.6</ele>
        <time>2023-08-03T09:46:33Z</time>
      </trkpt>
      <trkpt lat="45.9169" lon="3.65264">
        <ele>784.8</ele>
        <time>2023-08-03T09:46:34Z</time>
      </trkpt>
      <trkpt lat="45.91689" lon="3.65262">
        <ele>785</ele>
        <time>2023-08-03T09:46:36Z</time>
      </trkpt>
      <trkpt lat="45.91686" lon="3.65259">
        <ele>785.6</ele>
        <time>2023-08-03T09:46:39Z</time>
      </trkpt>
      <trkpt lat="45.91684" lon="3.65258">
        <ele>786</ele>
        <time>2023-08-03T09:46:41Z</time>
      </trkpt>
      <trkpt lat="45.91683" lon="3.65256">
        <ele>786.4</ele>
        <time>2023-08-03T09:46:43Z</time>
      </trkpt>
      <trkpt lat="45.91681" lon="3.65254">
        <ele>786.4</ele>
        <time>2023-08-03T09:46:45Z</time>
      </trkpt>
      <trkpt lat="45.91678" lon="3.65252">
        <ele>786.6</ele>
        <time>2023-08-03T09:46:48Z</time>
      </trkpt>
      <trkpt lat="45.91677" lon="3.65251">
        <ele>786.8</ele>
        <time>2023-08-03T09:46:49Z</time>
      </trkpt>
      <trkpt lat="45.91671" lon="3.65241">
        <ele>787.2</ele>
        <time>2023-08-03T09:46:57Z</time>
      </trkpt>
      <trkpt lat="45.91671" lon="3.6524">
        <ele>787.2</ele>
        <time>2023-08-03T09:46:58Z</time>
      </trkpt>
      <trkpt lat="45.91666" lon="3.65227">
        <ele>787.2</ele>
        <time>2023-08-03T09:47:07Z</time>
      </trkpt>
      <trkpt lat="45.91668" lon="3.6521">
        <ele>787.2</ele>
        <time>2023-08-03T09:47:17Z</time>
      </trkpt>
      <trkpt lat="45.91669" lon="3.65207">
        <ele>787</ele>
        <time>2023-08-03T09:47:19Z</time>
      </trkpt>
      <trkpt lat="45.91671" lon="3.65203">
        <ele>787.2</ele>
        <time>2023-08-03T09:47:22Z</time>
      </trkpt>
      <trkpt lat="45.91671" lon="3.65202">
        <ele>787.2</ele>
        <time>2023-08-03T09:47:23Z</time>
      </trkpt>
      <trkpt lat="45.91672" lon="3.652">
        <ele>787.2</ele>
        <time>2023-08-03T09:47:24Z</time>
      </trkpt>
      <trkpt lat="45.91673" lon="3.65195">
        <ele>787.2</ele>
        <time>2023-08-03T09:47:27Z</time>
      </trkpt>
      <trkpt lat="45.91673" lon="3.65194">
        <ele>787.2</ele>
        <time>2023-08-03T09:47:28Z</time>
      </trkpt>
      <trkpt lat="45.91675" lon="3.65192">
        <ele>787.4</ele>
        <time>2023-08-03T09:47:30Z</time>
      </trkpt>
      <trkpt lat="45.91676" lon="3.65191">
        <ele>787.4</ele>
        <time>2023-08-03T09:47:31Z</time>
      </trkpt>
      <trkpt lat="45.91676" lon="3.65188">
        <ele>787.6</ele>
        <time>2023-08-03T09:47:33Z</time>
      </trkpt>
      <trkpt lat="45.91676" lon="3.65184">
        <ele>787.8</ele>
        <time>2023-08-03T09:47:35Z</time>
      </trkpt>
      <trkpt lat="45.91678" lon="3.65177">
        <ele>788</ele>
        <time>2023-08-03T09:47:38Z</time>
      </trkpt>
      <trkpt lat="45.91682" lon="3.65168">
        <ele>788.6</ele>
        <time>2023-08-03T09:47:43Z</time>
      </trkpt>
      <trkpt lat="45.91682" lon="3.65167">
        <ele>788.6</ele>
        <time>2023-08-03T09:47:44Z</time>
      </trkpt>
      <trkpt lat="45.91684" lon="3.65163">
        <ele>788.6</ele>
        <time>2023-08-03T09:47:46Z</time>
      </trkpt>
      <trkpt lat="45.91685" lon="3.65161">
        <ele>788.6</ele>
        <time>2023-08-03T09:47:47Z</time>
      </trkpt>
      <trkpt lat="45.91688" lon="3.65155">
        <ele>788.6</ele>
        <time>2023-08-03T09:47:51Z</time>
      </trkpt>
      <trkpt lat="45.9169" lon="3.6515">
        <ele>788.6</ele>
        <time>2023-08-03T09:47:55Z</time>
      </trkpt>
      <trkpt lat="45.91693" lon="3.65143">
        <ele>788.6</ele>
        <time>2023-08-03T09:48:00Z</time>
      </trkpt>
      <trkpt lat="45.91692" lon="3.65142">
        <ele>788.6</ele>
        <time>2023-08-03T09:48:01Z</time>
      </trkpt>
      <trkpt lat="45.91694" lon="3.65135">
        <ele>788.4</ele>
        <time>2023-08-03T09:48:05Z</time>
      </trkpt>
      <trkpt lat="45.91694" lon="3.65133">
        <ele>788.4</ele>
        <time>2023-08-03T09:48:06Z</time>
      </trkpt>
      <trkpt lat="45.91694" lon="3.65123">
        <ele>788.2</ele>
        <time>2023-08-03T09:48:13Z</time>
      </trkpt>
      <trkpt lat="45.91696" lon="3.65116">
        <ele>787.6</ele>
        <time>2023-08-03T09:48:20Z</time>
      </trkpt>
      <trkpt lat="45.91696" lon="3.65111">
        <ele>787.4</ele>
        <time>2023-08-03T09:48:23Z</time>
      </trkpt>
      <trkpt lat="45.91696" lon="3.65109">
        <ele>787.4</ele>
        <time>2023-08-03T09:48:26Z</time>
      </trkpt>
      <trkpt lat="45.91694" lon="3.65103">
        <ele>787</ele>
        <time>2023-08-03T09:48:32Z</time>
      </trkpt>
      <trkpt lat="45.91697" lon="3.65102">
        <ele>786.6</ele>
        <time>2023-08-03T09:48:37Z</time>
      </trkpt>
      <trkpt lat="45.91699" lon="3.65097">
        <ele>786.2</ele>
        <time>2023-08-03T09:48:40Z</time>
      </trkpt>
      <trkpt lat="45.91701" lon="3.65096">
        <ele>786.2</ele>
        <time>2023-08-03T09:48:42Z</time>
      </trkpt>
      <trkpt lat="45.91705" lon="3.65084">
        <ele>785.2</ele>
        <time>2023-08-03T09:48:48Z</time>
      </trkpt>
      <trkpt lat="45.91706" lon="3.65074">
        <ele>784.8</ele>
        <time>2023-08-03T09:48:52Z</time>
      </trkpt>
      <trkpt lat="45.91708" lon="3.65071">
        <ele>784.4</ele>
        <time>2023-08-03T09:48:54Z</time>
      </trkpt>
      <trkpt lat="45.91711" lon="3.65069">
        <ele>784.2</ele>
        <time>2023-08-03T09:48:57Z</time>
      </trkpt>
      <trkpt lat="45.91716" lon="3.65064">
        <ele>783.8</ele>
        <time>2023-08-03T09:49:00Z</time>
      </trkpt>
      <trkpt lat="45.91724" lon="3.65055">
        <ele>783</ele>
        <time>2023-08-03T09:49:06Z</time>
      </trkpt>
      <trkpt lat="45.91726" lon="3.65056">
        <ele>782.6</ele>
        <time>2023-08-03T09:49:07Z</time>
      </trkpt>
      <trkpt lat="45.9173" lon="3.65054">
        <ele>782.2</ele>
        <time>2023-08-03T09:49:10Z</time>
      </trkpt>
      <trkpt lat="45.91733" lon="3.65052">
        <ele>781.8</ele>
        <time>2023-08-03T09:49:13Z</time>
      </trkpt>
      <trkpt lat="45.91735" lon="3.6505">
        <ele>781.4</ele>
        <time>2023-08-03T09:49:15Z</time>
      </trkpt>
      <trkpt lat="45.91739" lon="3.65048">
        <ele>781</ele>
        <time>2023-08-03T09:49:20Z</time>
      </trkpt>
      <trkpt lat="45.91746" lon="3.65041">
        <ele>780.8</ele>
        <time>2023-08-03T09:49:25Z</time>
      </trkpt>
      <trkpt lat="45.91747" lon="3.65039">
        <ele>780.8</ele>
        <time>2023-08-03T09:49:26Z</time>
      </trkpt>
      <trkpt lat="45.91749" lon="3.65035">
        <ele>780.6</ele>
        <time>2023-08-03T09:49:28Z</time>
      </trkpt>
      <trkpt lat="45.91752" lon="3.65032">
        <ele>780.6</ele>
        <time>2023-08-03T09:49:30Z</time>
      </trkpt>
      <trkpt lat="45.91755" lon="3.65028">
        <ele>780.6</ele>
        <time>2023-08-03T09:49:32Z</time>
      </trkpt>
      <trkpt lat="45.91756" lon="3.65025">
        <ele>780.4</ele>
        <time>2023-08-03T09:49:35Z</time>
      </trkpt>
      <trkpt lat="45.91755" lon="3.65021">
        <ele>780.4</ele>
        <time>2023-08-03T09:49:37Z</time>
      </trkpt>
      <trkpt lat="45.91755" lon="3.65013">
        <ele>780.4</ele>
        <time>2023-08-03T09:49:40Z</time>
      </trkpt>
      <trkpt lat="45.91757" lon="3.65009">
        <ele>780.2</ele>
        <time>2023-08-03T09:49:41Z</time>
      </trkpt>
      <trkpt lat="45.91761" lon="3.65005">
        <ele>780.2</ele>
        <time>2023-08-03T09:49:45Z</time>
      </trkpt>
      <trkpt lat="45.91766" lon="3.65001">
        <ele>779.4</ele>
        <time>2023-08-03T09:49:50Z</time>
      </trkpt>
      <trkpt lat="45.91768" lon="3.64998">
        <ele>779.4</ele>
        <time>2023-08-03T09:49:52Z</time>
      </trkpt>
      <trkpt lat="45.91772" lon="3.64994">
        <ele>779</ele>
        <time>2023-08-03T09:49:57Z</time>
      </trkpt>
      <trkpt lat="45.91771" lon="3.64989">
        <ele>779</ele>
        <time>2023-08-03T09:50:00Z</time>
      </trkpt>
      <trkpt lat="45.91772" lon="3.64989">
        <ele>778.8</ele>
        <time>2023-08-03T09:50:01Z</time>
      </trkpt>
      <trkpt lat="45.91773" lon="3.64987">
        <ele>778.6</ele>
        <time>2023-08-03T09:50:03Z</time>
      </trkpt>
      <trkpt lat="45.91773" lon="3.64984">
        <ele>778.6</ele>
        <time>2023-08-03T09:50:05Z</time>
      </trkpt>
      <trkpt lat="45.91774" lon="3.64983">
        <ele>778.4</ele>
        <time>2023-08-03T09:50:06Z</time>
      </trkpt>
      <trkpt lat="45.91774" lon="3.64981">
        <ele>778.4</ele>
        <time>2023-08-03T09:50:07Z</time>
      </trkpt>
      <trkpt lat="45.91775" lon="3.6498">
        <ele>778.4</ele>
        <time>2023-08-03T09:50:08Z</time>
      </trkpt>
      <trkpt lat="45.91776" lon="3.64979">
        <ele>778.2</ele>
        <time>2023-08-03T09:50:10Z</time>
      </trkpt>
      <trkpt lat="45.91777" lon="3.64976">
        <ele>778.2</ele>
        <time>2023-08-03T09:50:12Z</time>
      </trkpt>
      <trkpt lat="45.91778" lon="3.64975">
        <ele>778.2</ele>
        <time>2023-08-03T09:50:14Z</time>
      </trkpt>
      <trkpt lat="45.91779" lon="3.64974">
        <ele>778.2</ele>
        <time>2023-08-03T09:50:15Z</time>
      </trkpt>
      <trkpt lat="45.91781" lon="3.64972">
        <ele>778</ele>
        <time>2023-08-03T09:50:17Z</time>
      </trkpt>
      <trkpt lat="45.91782" lon="3.64971">
        <ele>777.8</ele>
        <time>2023-08-03T09:50:19Z</time>
      </trkpt>
      <trkpt lat="45.91784" lon="3.64966">
        <ele>777.4</ele>
        <time>2023-08-03T09:50:23Z</time>
      </trkpt>
      <trkpt lat="45.91783" lon="3.6496">
        <ele>777</ele>
        <time>2023-08-03T09:50:26Z</time>
      </trkpt>
      <trkpt lat="45.91785" lon="3.64948">
        <ele>777</ele>
        <time>2023-08-03T09:50:33Z</time>
      </trkpt>
      <trkpt lat="45.91784" lon="3.64943">
        <ele>777</ele>
        <time>2023-08-03T09:50:35Z</time>
      </trkpt>
      <trkpt lat="45.91781" lon="3.64935">
        <ele>776.8</ele>
        <time>2023-08-03T09:50:38Z</time>
      </trkpt>
      <trkpt lat="45.91781" lon="3.64932">
        <ele>776.8</ele>
        <time>2023-08-03T09:50:39Z</time>
      </trkpt>
      <trkpt lat="45.9178" lon="3.64926">
        <ele>776.8</ele>
        <time>2023-08-03T09:50:44Z</time>
      </trkpt>
      <trkpt lat="45.91773" lon="3.64918">
        <ele>776.4</ele>
        <time>2023-08-03T09:50:50Z</time>
      </trkpt>
      <trkpt lat="45.91776" lon="3.64913">
        <ele>776.2</ele>
        <time>2023-08-03T09:50:54Z</time>
      </trkpt>
      <trkpt lat="45.91774" lon="3.64908">
        <ele>776.2</ele>
        <time>2023-08-03T09:50:55Z</time>
      </trkpt>
      <trkpt lat="45.91774" lon="3.64905">
        <ele>776.2</ele>
        <time>2023-08-03T09:50:56Z</time>
      </trkpt>
      <trkpt lat="45.91771" lon="3.649">
        <ele>776.2</ele>
        <time>2023-08-03T09:50:59Z</time>
      </trkpt>
      <trkpt lat="45.91771" lon="3.64899">
        <ele>776.2</ele>
        <time>2023-08-03T09:51:00Z</time>
      </trkpt>
      <trkpt lat="45.91766" lon="3.64894">
        <ele>776</ele>
        <time>2023-08-03T09:51:04Z</time>
      </trkpt>
      <trkpt lat="45.91766" lon="3.64885">
        <ele>775.8</ele>
        <time>2023-08-03T09:51:09Z</time>
      </trkpt>
      <trkpt lat="45.9177" lon="3.6488">
        <ele>775.6</ele>
        <time>2023-08-03T09:51:14Z</time>
      </trkpt>
      <trkpt lat="45.91772" lon="3.64871">
        <ele>775.2</ele>
        <time>2023-08-03T09:51:19Z</time>
      </trkpt>
      <trkpt lat="45.91772" lon="3.64869">
        <ele>775.2</ele>
        <time>2023-08-03T09:51:20Z</time>
      </trkpt>
      <trkpt lat="45.91778" lon="3.64867">
        <ele>775</ele>
        <time>2023-08-03T09:51:22Z</time>
      </trkpt>
      <trkpt lat="45.91781" lon="3.64868">
        <ele>774.8</ele>
        <time>2023-08-03T09:51:24Z</time>
      </trkpt>
      <trkpt lat="45.91786" lon="3.64871">
        <ele>774.6</ele>
        <time>2023-08-03T09:51:28Z</time>
      </trkpt>
      <trkpt lat="45.91787" lon="3.64869">
        <ele>774.6</ele>
        <time>2023-08-03T09:51:30Z</time>
      </trkpt>
      <trkpt lat="45.91794" lon="3.64869">
        <ele>774.2</ele>
        <time>2023-08-03T09:51:35Z</time>
      </trkpt>
      <trkpt lat="45.91799" lon="3.64869">
        <ele>774</ele>
        <time>2023-08-03T09:51:40Z</time>
      </trkpt>
      <trkpt lat="45.91801" lon="3.6487">
        <ele>774</ele>
        <time>2023-08-03T09:51:41Z</time>
      </trkpt>
      <trkpt lat="45.91807" lon="3.64866">
        <ele>773.8</ele>
        <time>2023-08-03T09:51:48Z</time>
      </trkpt>
      <trkpt lat="45.91814" lon="3.64862">
        <ele>773.8</ele>
        <time>2023-08-03T09:51:53Z</time>
      </trkpt>
      <trkpt lat="45.91818" lon="3.64858">
        <ele>773.6</ele>
        <time>2023-08-03T09:51:56Z</time>
      </trkpt>
      <trkpt lat="45.91821" lon="3.64853">
        <ele>773.6</ele>
        <time>2023-08-03T09:51:59Z</time>
      </trkpt>
      <trkpt lat="45.91822" lon="3.64851">
        <ele>773.6</ele>
        <time>2023-08-03T09:52:00Z</time>
      </trkpt>
      <trkpt lat="45.91826" lon="3.64847">
        <ele>773.2</ele>
        <time>2023-08-03T09:52:04Z</time>
      </trkpt>
      <trkpt lat="45.91827" lon="3.64847">
        <ele>773.2</ele>
        <time>2023-08-03T09:52:05Z</time>
      </trkpt>
      <trkpt lat="45.91828" lon="3.64846">
        <ele>773</ele>
        <time>2023-08-03T09:52:06Z</time>
      </trkpt>
      <trkpt lat="45.91829" lon="3.64841">
        <ele>772.8</ele>
        <time>2023-08-03T09:52:09Z</time>
      </trkpt>
      <trkpt lat="45.91828" lon="3.64838">
        <ele>772.8</ele>
        <time>2023-08-03T09:52:10Z</time>
      </trkpt>
      <trkpt lat="45.91829" lon="3.64834">
        <ele>772.8</ele>
        <time>2023-08-03T09:52:13Z</time>
      </trkpt>
      <trkpt lat="45.9183" lon="3.64829">
        <ele>772.6</ele>
        <time>2023-08-03T09:52:15Z</time>
      </trkpt>
      <trkpt lat="45.9183" lon="3.64818">
        <ele>772.4</ele>
        <time>2023-08-03T09:52:21Z</time>
      </trkpt>
      <trkpt lat="45.91834" lon="3.64812">
        <ele>772.2</ele>
        <time>2023-08-03T09:52:25Z</time>
      </trkpt>
      <trkpt lat="45.91835" lon="3.6481">
        <ele>772.2</ele>
        <time>2023-08-03T09:52:27Z</time>
      </trkpt>
      <trkpt lat="45.91838" lon="3.64799">
        <ele>772</ele>
        <time>2023-08-03T09:52:33Z</time>
      </trkpt>
      <trkpt lat="45.9184" lon="3.64792">
        <ele>771.8</ele>
        <time>2023-08-03T09:52:36Z</time>
      </trkpt>
      <trkpt lat="45.91838" lon="3.64788">
        <ele>771.8</ele>
        <time>2023-08-03T09:52:38Z</time>
      </trkpt>
      <trkpt lat="45.91839" lon="3.64784">
        <ele>771.8</ele>
        <time>2023-08-03T09:52:40Z</time>
      </trkpt>
      <trkpt lat="45.91843" lon="3.64781">
        <ele>771.6</ele>
        <time>2023-08-03T09:52:43Z</time>
      </trkpt>
      <trkpt lat="45.91844" lon="3.64777">
        <ele>771.6</ele>
        <time>2023-08-03T09:52:45Z</time>
      </trkpt>
      <trkpt lat="45.91846" lon="3.64772">
        <ele>771.2</ele>
        <time>2023-08-03T09:52:50Z</time>
      </trkpt>
      <trkpt lat="45.91849" lon="3.64766">
        <ele>771</ele>
        <time>2023-08-03T09:52:55Z</time>
      </trkpt>
      <trkpt lat="45.91849" lon="3.64766">
        <ele>771</ele>
        <time>2023-08-03T09:52:56Z</time>
      </trkpt>
      <trkpt lat="45.91852" lon="3.64762">
        <ele>770.6</ele>
        <time>2023-08-03T09:53:01Z</time>
      </trkpt>
      <trkpt lat="45.91852" lon="3.64757">
        <ele>770.4</ele>
        <time>2023-08-03T09:53:05Z</time>
      </trkpt>
      <trkpt lat="45.91853" lon="3.64745">
        <ele>770</ele>
        <time>2023-08-03T09:53:10Z</time>
      </trkpt>
      <trkpt lat="45.91853" lon="3.64743">
        <ele>770</ele>
        <time>2023-08-03T09:53:11Z</time>
      </trkpt>
      <trkpt lat="45.91855" lon="3.64739">
        <ele>769.8</ele>
        <time>2023-08-03T09:53:13Z</time>
      </trkpt>
      <trkpt lat="45.91857" lon="3.64737">
        <ele>769.8</ele>
        <time>2023-08-03T09:53:14Z</time>
      </trkpt>
      <trkpt lat="45.91858" lon="3.6473">
        <ele>769.6</ele>
        <time>2023-08-03T09:53:17Z</time>
      </trkpt>
      <trkpt lat="45.91858" lon="3.64727">
        <ele>769.6</ele>
        <time>2023-08-03T09:53:18Z</time>
      </trkpt>
      <trkpt lat="45.91858" lon="3.6472">
        <ele>769.4</ele>
        <time>2023-08-03T09:53:20Z</time>
      </trkpt>
      <trkpt lat="45.9186" lon="3.64719">
        <ele>769.4</ele>
        <time>2023-08-03T09:53:21Z</time>
      </trkpt>
      <trkpt lat="45.9186" lon="3.64714">
        <ele>769.4</ele>
        <time>2023-08-03T09:53:23Z</time>
      </trkpt>
      <trkpt lat="45.91863" lon="3.64707">
        <ele>769.4</ele>
        <time>2023-08-03T09:53:27Z</time>
      </trkpt>
      <trkpt lat="45.91867" lon="3.64703">
        <ele>769.4</ele>
        <time>2023-08-03T09:53:30Z</time>
      </trkpt>
      <trkpt lat="45.9187" lon="3.64696">
        <ele>769.6</ele>
        <time>2023-08-03T09:53:35Z</time>
      </trkpt>
      <trkpt lat="45.91876" lon="3.64687">
        <ele>769.8</ele>
        <time>2023-08-03T09:53:41Z</time>
      </trkpt>
      <trkpt lat="45.91879" lon="3.64676">
        <ele>770</ele>
        <time>2023-08-03T09:53:46Z</time>
      </trkpt>
      <trkpt lat="45.91883" lon="3.64668">
        <ele>770</ele>
        <time>2023-08-03T09:53:51Z</time>
      </trkpt>
      <trkpt lat="45.91884" lon="3.64661">
        <ele>769.6</ele>
        <time>2023-08-03T09:53:57Z</time>
      </trkpt>
      <trkpt lat="45.91887" lon="3.64657">
        <ele>769.4</ele>
        <time>2023-08-03T09:54:00Z</time>
      </trkpt>
      <trkpt lat="45.91888" lon="3.64654">
        <ele>769.2</ele>
        <time>2023-08-03T09:54:02Z</time>
      </trkpt>
      <trkpt lat="45.91888" lon="3.64654">
        <ele>769.2</ele>
        <time>2023-08-03T09:54:03Z</time>
      </trkpt>
      <trkpt lat="45.91885" lon="3.64642">
        <ele>768.8</ele>
        <time>2023-08-03T09:54:07Z</time>
      </trkpt>
      <trkpt lat="45.91887" lon="3.64633">
        <ele>768.6</ele>
        <time>2023-08-03T09:54:10Z</time>
      </trkpt>
      <trkpt lat="45.91888" lon="3.64625">
        <ele>768.2</ele>
        <time>2023-08-03T09:54:13Z</time>
      </trkpt>
      <trkpt lat="45.91888" lon="3.64622">
        <ele>768.2</ele>
        <time>2023-08-03T09:54:14Z</time>
      </trkpt>
      <trkpt lat="45.9189" lon="3.64619">
        <ele>768</ele>
        <time>2023-08-03T09:54:17Z</time>
      </trkpt>
      <trkpt lat="45.9189" lon="3.64617">
        <ele>768</ele>
        <time>2023-08-03T09:54:18Z</time>
      </trkpt>
      <trkpt lat="45.91888" lon="3.64611">
        <ele>767.4</ele>
        <time>2023-08-03T09:54:23Z</time>
      </trkpt>
      <trkpt lat="45.91889" lon="3.64609">
        <ele>767.4</ele>
        <time>2023-08-03T09:54:25Z</time>
      </trkpt>
      <trkpt lat="45.91893" lon="3.64607">
        <ele>767.2</ele>
        <time>2023-08-03T09:54:30Z</time>
      </trkpt>
      <trkpt lat="45.91893" lon="3.64604">
        <ele>767.2</ele>
        <time>2023-08-03T09:54:33Z</time>
      </trkpt>
      <trkpt lat="45.91893" lon="3.64605">
        <ele>767</ele>
        <time>2023-08-03T09:54:38Z</time>
      </trkpt>
      <trkpt lat="45.91894" lon="3.64605">
        <ele>767</ele>
        <time>2023-08-03T09:54:46Z</time>
      </trkpt>
      <trkpt lat="45.91895" lon="3.64603">
        <ele>766.8</ele>
        <time>2023-08-03T09:54:56Z</time>
      </trkpt>
      <trkpt lat="45.91892" lon="3.64598">
        <ele>766.8</ele>
        <time>2023-08-03T09:55:03Z</time>
      </trkpt>
      <trkpt lat="45.91889" lon="3.64582">
        <ele>766.6</ele>
        <time>2023-08-03T09:55:09Z</time>
      </trkpt>
      <trkpt lat="45.91889" lon="3.64572">
        <ele>766.4</ele>
        <time>2023-08-03T09:55:15Z</time>
      </trkpt>
      <trkpt lat="45.91891" lon="3.6456">
        <ele>766.2</ele>
        <time>2023-08-03T09:55:21Z</time>
      </trkpt>
      <trkpt lat="45.91888" lon="3.64537">
        <ele>766.2</ele>
        <time>2023-08-03T09:55:30Z</time>
      </trkpt>
      <trkpt lat="45.9189" lon="3.6453">
        <ele>766</ele>
        <time>2023-08-03T09:55:35Z</time>
      </trkpt>
      <trkpt lat="45.91889" lon="3.64522">
        <ele>766</ele>
        <time>2023-08-03T09:55:39Z</time>
      </trkpt>
      <trkpt lat="45.9189" lon="3.6452">
        <ele>766</ele>
        <time>2023-08-03T09:55:40Z</time>
      </trkpt>
      <trkpt lat="45.9189" lon="3.64509">
        <ele>765.8</ele>
        <time>2023-08-03T09:55:46Z</time>
      </trkpt>
      <trkpt lat="45.9189" lon="3.64501">
        <ele>765.8</ele>
        <time>2023-08-03T09:55:49Z</time>
      </trkpt>
      <trkpt lat="45.91888" lon="3.64496">
        <ele>765.4</ele>
        <time>2023-08-03T09:55:52Z</time>
      </trkpt>
      <trkpt lat="45.9189" lon="3.64493">
        <ele>765</ele>
        <time>2023-08-03T09:55:56Z</time>
      </trkpt>
      <trkpt lat="45.91891" lon="3.64491">
        <ele>764.8</ele>
        <time>2023-08-03T09:55:57Z</time>
      </trkpt>
      <trkpt lat="45.91891" lon="3.64474">
        <ele>764.8</ele>
        <time>2023-08-03T09:56:03Z</time>
      </trkpt>
      <trkpt lat="45.91892" lon="3.6447">
        <ele>764.6</ele>
        <time>2023-08-03T09:56:04Z</time>
      </trkpt>
      <trkpt lat="45.91893" lon="3.64461">
        <ele>764.6</ele>
        <time>2023-08-03T09:56:08Z</time>
      </trkpt>
      <trkpt lat="45.91893" lon="3.64453">
        <ele>764.6</ele>
        <time>2023-08-03T09:56:12Z</time>
      </trkpt>
      <trkpt lat="45.91893" lon="3.64443">
        <ele>764.4</ele>
        <time>2023-08-03T09:56:17Z</time>
      </trkpt>
      <trkpt lat="45.91897" lon="3.64439">
        <ele>764.4</ele>
        <time>2023-08-03T09:56:22Z</time>
      </trkpt>
      <trkpt lat="45.91899" lon="3.64434">
        <ele>764.4</ele>
        <time>2023-08-03T09:56:26Z</time>
      </trkpt>
      <trkpt lat="45.91901" lon="3.64417">
        <ele>764.2</ele>
        <time>2023-08-03T09:56:32Z</time>
      </trkpt>
      <trkpt lat="45.91903" lon="3.64404">
        <ele>764</ele>
        <time>2023-08-03T09:56:38Z</time>
      </trkpt>
      <trkpt lat="45.91903" lon="3.64397">
        <ele>764</ele>
        <time>2023-08-03T09:56:41Z</time>
      </trkpt>
      <trkpt lat="45.91901" lon="3.64392">
        <ele>763.8</ele>
        <time>2023-08-03T09:56:43Z</time>
      </trkpt>
      <trkpt lat="45.91904" lon="3.64387">
        <ele>763.6</ele>
        <time>2023-08-03T09:56:48Z</time>
      </trkpt>
      <trkpt lat="45.91905" lon="3.64385">
        <ele>763.6</ele>
        <time>2023-08-03T09:56:50Z</time>
      </trkpt>
      <trkpt lat="45.91906" lon="3.64382">
        <ele>763.6</ele>
        <time>2023-08-03T09:56:53Z</time>
      </trkpt>
      <trkpt lat="45.91907" lon="3.64375">
        <ele>763.6</ele>
        <time>2023-08-03T09:56:58Z</time>
      </trkpt>
      <trkpt lat="45.91907" lon="3.64368">
        <ele>763.6</ele>
        <time>2023-08-03T09:57:03Z</time>
      </trkpt>
      <trkpt lat="45.91907" lon="3.64365">
        <ele>763.6</ele>
        <time>2023-08-03T09:57:04Z</time>
      </trkpt>
      <trkpt lat="45.91908" lon="3.64359">
        <ele>763.6</ele>
        <time>2023-08-03T09:57:08Z</time>
      </trkpt>
      <trkpt lat="45.9191" lon="3.64351">
        <ele>763.6</ele>
        <time>2023-08-03T09:57:13Z</time>
      </trkpt>
      <trkpt lat="45.9191" lon="3.64349">
        <ele>763.4</ele>
        <time>2023-08-03T09:57:14Z</time>
      </trkpt>
      <trkpt lat="45.91911" lon="3.64341">
        <ele>763.4</ele>
        <time>2023-08-03T09:57:20Z</time>
      </trkpt>
      <trkpt lat="45.91901" lon="3.64326">
        <ele>763.2</ele>
        <time>2023-08-03T09:57:26Z</time>
      </trkpt>
      <trkpt lat="45.91896" lon="3.64318">
        <ele>763</ele>
        <time>2023-08-03T09:57:32Z</time>
      </trkpt>
      <trkpt lat="45.91894" lon="3.64299">
        <ele>763</ele>
        <time>2023-08-03T09:57:39Z</time>
      </trkpt>
      <trkpt lat="45.91889" lon="3.64289">
        <ele>763</ele>
        <time>2023-08-03T09:57:44Z</time>
      </trkpt>
      <trkpt lat="45.91886" lon="3.64278">
        <ele>763</ele>
        <time>2023-08-03T09:57:51Z</time>
      </trkpt>
      <trkpt lat="45.91876" lon="3.64262">
        <ele>762.8</ele>
        <time>2023-08-03T09:58:00Z</time>
      </trkpt>
      <trkpt lat="45.91876" lon="3.64258">
        <ele>762.8</ele>
        <time>2023-08-03T09:58:05Z</time>
      </trkpt>
      <trkpt lat="45.91876" lon="3.64257">
        <ele>762.8</ele>
        <time>2023-08-03T09:58:06Z</time>
      </trkpt>
      <trkpt lat="45.91872" lon="3.64249">
        <ele>762.6</ele>
        <time>2023-08-03T09:58:10Z</time>
      </trkpt>
      <trkpt lat="45.91869" lon="3.64239">
        <ele>762</ele>
        <time>2023-08-03T09:58:17Z</time>
      </trkpt>
      <trkpt lat="45.91866" lon="3.64227">
        <ele>761.6</ele>
        <time>2023-08-03T09:58:23Z</time>
      </trkpt>
      <trkpt lat="45.91865" lon="3.64217">
        <ele>761.6</ele>
        <time>2023-08-03T09:58:28Z</time>
      </trkpt>
      <trkpt lat="45.91864" lon="3.64209">
        <ele>761</ele>
        <time>2023-08-03T09:58:34Z</time>
      </trkpt>
      <trkpt lat="45.91863" lon="3.64198">
        <ele>760.4</ele>
        <time>2023-08-03T09:58:39Z</time>
      </trkpt>
      <trkpt lat="45.91861" lon="3.64197">
        <ele>760.2</ele>
        <time>2023-08-03T09:58:41Z</time>
      </trkpt>
      <trkpt lat="45.91856" lon="3.64177">
        <ele>760</ele>
        <time>2023-08-03T09:58:47Z</time>
      </trkpt>
      <trkpt lat="45.91857" lon="3.64172">
        <ele>760</ele>
        <time>2023-08-03T09:58:52Z</time>
      </trkpt>
      <trkpt lat="45.91855" lon="3.64166">
        <ele>759.8</ele>
        <time>2023-08-03T09:58:58Z</time>
      </trkpt>
      <trkpt lat="45.91856" lon="3.64161">
        <ele>759.8</ele>
        <time>2023-08-03T09:59:01Z</time>
      </trkpt>
      <trkpt lat="45.91856" lon="3.6416">
        <ele>759.8</ele>
        <time>2023-08-03T09:59:02Z</time>
      </trkpt>
      <trkpt lat="45.91856" lon="3.64154">
        <ele>759.6</ele>
        <time>2023-08-03T09:59:06Z</time>
      </trkpt>
      <trkpt lat="45.91852" lon="3.64145">
        <ele>759.4</ele>
        <time>2023-08-03T09:59:11Z</time>
      </trkpt>
      <trkpt lat="45.91853" lon="3.64144">
        <ele>759.4</ele>
        <time>2023-08-03T09:59:12Z</time>
      </trkpt>
      <trkpt lat="45.91853" lon="3.64128">
        <ele>758.8</ele>
        <time>2023-08-03T09:59:19Z</time>
      </trkpt>
      <trkpt lat="45.91855" lon="3.64123">
        <ele>758.4</ele>
        <time>2023-08-03T09:59:23Z</time>
      </trkpt>
      <trkpt lat="45.91856" lon="3.64118">
        <ele>758.2</ele>
        <time>2023-08-03T09:59:25Z</time>
      </trkpt>
      <trkpt lat="45.91853" lon="3.64103">
        <ele>757.8</ele>
        <time>2023-08-03T09:59:30Z</time>
      </trkpt>
      <trkpt lat="45.91856" lon="3.64098">
        <ele>757.4</ele>
        <time>2023-08-03T09:59:37Z</time>
      </trkpt>
      <trkpt lat="45.91857" lon="3.64094">
        <ele>757</ele>
        <time>2023-08-03T09:59:42Z</time>
      </trkpt>
      <trkpt lat="45.91854" lon="3.64089">
        <ele>756.6</ele>
        <time>2023-08-03T09:59:48Z</time>
      </trkpt>
      <trkpt lat="45.91851" lon="3.64083">
        <ele>756.4</ele>
        <time>2023-08-03T09:59:52Z</time>
      </trkpt>
      <trkpt lat="45.9185" lon="3.64083">
        <ele>756.2</ele>
        <time>2023-08-03T09:59:53Z</time>
      </trkpt>
      <trkpt lat="45.91844" lon="3.6408">
        <ele>756.2</ele>
        <time>2023-08-03T09:59:59Z</time>
      </trkpt>
      <trkpt lat="45.91834" lon="3.64078">
        <ele>756.2</ele>
        <time>2023-08-03T10:00:05Z</time>
      </trkpt>
      <trkpt lat="45.9183" lon="3.64079">
        <ele>756.2</ele>
        <time>2023-08-03T10:00:08Z</time>
      </trkpt>
      <trkpt lat="45.91822" lon="3.64078">
        <ele>756.2</ele>
        <time>2023-08-03T10:00:12Z</time>
      </trkpt>
      <trkpt lat="45.91812" lon="3.64078">
        <ele>756</ele>
        <time>2023-08-03T10:00:20Z</time>
      </trkpt>
      <trkpt lat="45.9181" lon="3.64078">
        <ele>756</ele>
        <time>2023-08-03T10:00:22Z</time>
      </trkpt>
      <trkpt lat="45.91807" lon="3.64076">
        <ele>756</ele>
        <time>2023-08-03T10:00:25Z</time>
      </trkpt>
      <trkpt lat="45.91806" lon="3.64075">
        <ele>756</ele>
        <time>2023-08-03T10:00:26Z</time>
      </trkpt>
      <trkpt lat="45.91799" lon="3.64073">
        <ele>755.8</ele>
        <time>2023-08-03T10:00:33Z</time>
      </trkpt>
      <trkpt lat="45.91792" lon="3.64067">
        <ele>755.8</ele>
        <time>2023-08-03T10:00:39Z</time>
      </trkpt>
      <trkpt lat="45.9179" lon="3.64066">
        <ele>755.4</ele>
        <time>2023-08-03T10:00:41Z</time>
      </trkpt>
      <trkpt lat="45.91786" lon="3.64062">
        <ele>755</ele>
        <time>2023-08-03T10:00:45Z</time>
      </trkpt>
      <trkpt lat="45.91778" lon="3.64059">
        <ele>754.4</ele>
        <time>2023-08-03T10:00:50Z</time>
      </trkpt>
      <trkpt lat="45.91775" lon="3.64056">
        <ele>754</ele>
        <time>2023-08-03T10:00:52Z</time>
      </trkpt>
      <trkpt lat="45.9177" lon="3.64051">
        <ele>753.4</ele>
        <time>2023-08-03T10:00:57Z</time>
      </trkpt>
      <trkpt lat="45.91768" lon="3.64049">
        <ele>753</ele>
        <time>2023-08-03T10:00:59Z</time>
      </trkpt>
      <trkpt lat="45.91762" lon="3.64047">
        <ele>752.4</ele>
        <time>2023-08-03T10:01:06Z</time>
      </trkpt>
      <trkpt lat="45.91761" lon="3.64046">
        <ele>752.2</ele>
        <time>2023-08-03T10:01:07Z</time>
      </trkpt>
      <trkpt lat="45.91757" lon="3.64043">
        <ele>751.8</ele>
        <time>2023-08-03T10:01:11Z</time>
      </trkpt>
      <trkpt lat="45.91756" lon="3.64041">
        <ele>751.6</ele>
        <time>2023-08-03T10:01:13Z</time>
      </trkpt>
      <trkpt lat="45.91753" lon="3.6404">
        <ele>751</ele>
        <time>2023-08-03T10:01:16Z</time>
      </trkpt>
      <trkpt lat="45.91752" lon="3.64039">
        <ele>750.4</ele>
        <time>2023-08-03T10:01:19Z</time>
      </trkpt>
      <trkpt lat="45.9175" lon="3.64038">
        <ele>750</ele>
        <time>2023-08-03T10:01:21Z</time>
      </trkpt>
      <trkpt lat="45.91746" lon="3.64036">
        <ele>749.4</ele>
        <time>2023-08-03T10:01:24Z</time>
      </trkpt>
      <trkpt lat="45.91746" lon="3.64035">
        <ele>749.2</ele>
        <time>2023-08-03T10:01:25Z</time>
      </trkpt>
      <trkpt lat="45.91744" lon="3.64035">
        <ele>749</ele>
        <time>2023-08-03T10:01:27Z</time>
      </trkpt>
      <trkpt lat="45.91741" lon="3.64033">
        <ele>748.4</ele>
        <time>2023-08-03T10:01:31Z</time>
      </trkpt>
      <trkpt lat="45.91738" lon="3.6403">
        <ele>748</ele>
        <time>2023-08-03T10:01:36Z</time>
      </trkpt>
      <trkpt lat="45.91735" lon="3.64028">
        <ele>747.6</ele>
        <time>2023-08-03T10:01:38Z</time>
      </trkpt>
      <trkpt lat="45.91731" lon="3.64026">
        <ele>747.4</ele>
        <time>2023-08-03T10:01:40Z</time>
      </trkpt>
      <trkpt lat="45.91726" lon="3.64023">
        <ele>747</ele>
        <time>2023-08-03T10:01:43Z</time>
      </trkpt>
      <trkpt lat="45.91723" lon="3.64021">
        <ele>746.8</ele>
        <time>2023-08-03T10:01:45Z</time>
      </trkpt>
      <trkpt lat="45.91718" lon="3.64016">
        <ele>746.6</ele>
        <time>2023-08-03T10:01:48Z</time>
      </trkpt>
      <trkpt lat="45.91716" lon="3.64014">
        <ele>746.6</ele>
        <time>2023-08-03T10:01:49Z</time>
      </trkpt>
      <trkpt lat="45.91711" lon="3.64012">
        <ele>746.4</ele>
        <time>2023-08-03T10:01:51Z</time>
      </trkpt>
      <trkpt lat="45.91708" lon="3.6401">
        <ele>745.8</ele>
        <time>2023-08-03T10:01:54Z</time>
      </trkpt>
      <trkpt lat="45.91707" lon="3.64008">
        <ele>745.8</ele>
        <time>2023-08-03T10:01:55Z</time>
      </trkpt>
      <trkpt lat="45.91704" lon="3.64004">
        <ele>745.6</ele>
        <time>2023-08-03T10:01:58Z</time>
      </trkpt>
      <trkpt lat="45.91699" lon="3.63999">
        <ele>745.4</ele>
        <time>2023-08-03T10:02:01Z</time>
      </trkpt>
      <trkpt lat="45.91699" lon="3.63996">
        <ele>745</ele>
        <time>2023-08-03T10:02:03Z</time>
      </trkpt>
      <trkpt lat="45.91695" lon="3.63995">
        <ele>744.4</ele>
        <time>2023-08-03T10:02:05Z</time>
      </trkpt>
      <trkpt lat="45.91693" lon="3.63992">
        <ele>744.2</ele>
        <time>2023-08-03T10:02:08Z</time>
      </trkpt>
      <trkpt lat="45.91691" lon="3.6399">
        <ele>743.8</ele>
        <time>2023-08-03T10:02:10Z</time>
      </trkpt>
      <trkpt lat="45.91686" lon="3.63983">
        <ele>743.2</ele>
        <time>2023-08-03T10:02:16Z</time>
      </trkpt>
      <trkpt lat="45.91683" lon="3.63979">
        <ele>742.8</ele>
        <time>2023-08-03T10:02:21Z</time>
      </trkpt>
      <trkpt lat="45.91682" lon="3.63978">
        <ele>742.6</ele>
        <time>2023-08-03T10:02:22Z</time>
      </trkpt>
      <trkpt lat="45.91681" lon="3.63977">
        <ele>742.2</ele>
        <time>2023-08-03T10:02:24Z</time>
      </trkpt>
      <trkpt lat="45.91678" lon="3.63974">
        <ele>741.6</ele>
        <time>2023-08-03T10:02:27Z</time>
      </trkpt>
      <trkpt lat="45.91674" lon="3.63967">
        <ele>740.4</ele>
        <time>2023-08-03T10:02:32Z</time>
      </trkpt>
      <trkpt lat="45.91672" lon="3.63965">
        <ele>740</ele>
        <time>2023-08-03T10:02:34Z</time>
      </trkpt>
      <trkpt lat="45.91672" lon="3.63964">
        <ele>740</ele>
        <time>2023-08-03T10:02:35Z</time>
      </trkpt>
      <trkpt lat="45.91669" lon="3.63961">
        <ele>739.4</ele>
        <time>2023-08-03T10:02:38Z</time>
      </trkpt>
      <trkpt lat="45.91669" lon="3.6396">
        <ele>739.4</ele>
        <time>2023-08-03T10:02:39Z</time>
      </trkpt>
      <trkpt lat="45.91668" lon="3.63959">
        <ele>739.2</ele>
        <time>2023-08-03T10:02:40Z</time>
      </trkpt>
      <trkpt lat="45.91667" lon="3.63958">
        <ele>739</ele>
        <time>2023-08-03T10:02:41Z</time>
      </trkpt>
      <trkpt lat="45.91665" lon="3.63954">
        <ele>738.8</ele>
        <time>2023-08-03T10:02:44Z</time>
      </trkpt>
      <trkpt lat="45.91663" lon="3.63951">
        <ele>738.2</ele>
        <time>2023-08-03T10:02:47Z</time>
      </trkpt>
      <trkpt lat="45.91659" lon="3.63948">
        <ele>737.4</ele>
        <time>2023-08-03T10:02:52Z</time>
      </trkpt>
      <trkpt lat="45.91654" lon="3.63947">
        <ele>737.2</ele>
        <time>2023-08-03T10:02:56Z</time>
      </trkpt>
      <trkpt lat="45.91648" lon="3.63945">
        <ele>736.4</ele>
        <time>2023-08-03T10:03:01Z</time>
      </trkpt>
      <trkpt lat="45.91645" lon="3.63944">
        <ele>736.2</ele>
        <time>2023-08-03T10:03:04Z</time>
      </trkpt>
      <trkpt lat="45.91643" lon="3.63944">
        <ele>735.8</ele>
        <time>2023-08-03T10:03:07Z</time>
      </trkpt>
      <trkpt lat="45.91633" lon="3.63945">
        <ele>735.6</ele>
        <time>2023-08-03T10:03:14Z</time>
      </trkpt>
      <trkpt lat="45.9163" lon="3.63946">
        <ele>735.2</ele>
        <time>2023-08-03T10:03:17Z</time>
      </trkpt>
      <trkpt lat="45.91629" lon="3.63947">
        <ele>735</ele>
        <time>2023-08-03T10:03:18Z</time>
      </trkpt>
      <trkpt lat="45.91627" lon="3.63948">
        <ele>734.8</ele>
        <time>2023-08-03T10:03:20Z</time>
      </trkpt>
      <trkpt lat="45.91627" lon="3.63948">
        <ele>734.6</ele>
        <time>2023-08-03T10:03:21Z</time>
      </trkpt>
      <trkpt lat="45.91624" lon="3.63951">
        <ele>734.2</ele>
        <time>2023-08-03T10:03:24Z</time>
      </trkpt>
      <trkpt lat="45.91622" lon="3.63954">
        <ele>733.6</ele>
        <time>2023-08-03T10:03:27Z</time>
      </trkpt>
      <trkpt lat="45.91621" lon="3.63956">
        <ele>733.4</ele>
        <time>2023-08-03T10:03:29Z</time>
      </trkpt>
      <trkpt lat="45.9162" lon="3.63959">
        <ele>733</ele>
        <time>2023-08-03T10:03:31Z</time>
      </trkpt>
      <trkpt lat="45.91618" lon="3.6396">
        <ele>732.8</ele>
        <time>2023-08-03T10:03:33Z</time>
      </trkpt>
      <trkpt lat="45.91614" lon="3.63964">
        <ele>732</ele>
        <time>2023-08-03T10:03:39Z</time>
      </trkpt>
      <trkpt lat="45.91606" lon="3.63971">
        <ele>731.2</ele>
        <time>2023-08-03T10:03:47Z</time>
      </trkpt>
      <trkpt lat="45.91604" lon="3.63973">
        <ele>731</ele>
        <time>2023-08-03T10:03:49Z</time>
      </trkpt>
      <trkpt lat="45.91594" lon="3.63979">
        <ele>731</ele>
        <time>2023-08-03T10:03:54Z</time>
      </trkpt>
      <trkpt lat="45.91592" lon="3.63979">
        <ele>731</ele>
        <time>2023-08-03T10:03:55Z</time>
      </trkpt>
      <trkpt lat="45.91581" lon="3.63976">
        <ele>731</ele>
        <time>2023-08-03T10:04:02Z</time>
      </trkpt>
      <trkpt lat="45.91577" lon="3.63974">
        <ele>730.8</ele>
        <time>2023-08-03T10:04:08Z</time>
      </trkpt>
      <trkpt lat="45.91574" lon="3.6397">
        <ele>730.6</ele>
        <time>2023-08-03T10:04:12Z</time>
      </trkpt>
      <trkpt lat="45.91569" lon="3.63967">
        <ele>730.6</ele>
        <time>2023-08-03T10:04:16Z</time>
      </trkpt>
      <trkpt lat="45.91559" lon="3.6395">
        <ele>730.6</ele>
        <time>2023-08-03T10:04:24Z</time>
      </trkpt>
      <trkpt lat="45.91556" lon="3.63941">
        <ele>730.6</ele>
        <time>2023-08-03T10:04:28Z</time>
      </trkpt>
      <trkpt lat="45.91554" lon="3.63935">
        <ele>730.6</ele>
        <time>2023-08-03T10:04:30Z</time>
      </trkpt>
      <trkpt lat="45.91559" lon="3.63928">
        <ele>730.4</ele>
        <time>2023-08-03T10:04:38Z</time>
      </trkpt>
      <trkpt lat="45.91565" lon="3.63925">
        <ele>730.6</ele>
        <time>2023-08-03T10:04:45Z</time>
      </trkpt>
      <trkpt lat="45.91568" lon="3.63927">
        <ele>731</ele>
        <time>2023-08-03T10:04:52Z</time>
      </trkpt>
      <trkpt lat="45.91572" lon="3.6392">
        <ele>731.2</ele>
        <time>2023-08-03T10:04:57Z</time>
      </trkpt>
      <trkpt lat="45.91572" lon="3.63911">
        <ele>731.4</ele>
        <time>2023-08-03T10:05:04Z</time>
      </trkpt>
      <trkpt lat="45.9157" lon="3.63903">
        <ele>731.8</ele>
        <time>2023-08-03T10:05:08Z</time>
      </trkpt>
      <trkpt lat="45.91569" lon="3.63902">
        <ele>732</ele>
        <time>2023-08-03T10:05:09Z</time>
      </trkpt>
      <trkpt lat="45.91569" lon="3.63901">
        <ele>732.2</ele>
        <time>2023-08-03T10:05:10Z</time>
      </trkpt>
      <trkpt lat="45.91563" lon="3.63892">
        <ele>732.8</ele>
        <time>2023-08-03T10:05:18Z</time>
      </trkpt>
      <trkpt lat="45.91558" lon="3.63888">
        <ele>732.8</ele>
        <time>2023-08-03T10:05:24Z</time>
      </trkpt>
      <trkpt lat="45.91554" lon="3.63882">
        <ele>732.8</ele>
        <time>2023-08-03T10:05:30Z</time>
      </trkpt>
      <trkpt lat="45.91553" lon="3.63882">
        <ele>732.6</ele>
        <time>2023-08-03T10:05:34Z</time>
      </trkpt>
      <trkpt lat="45.91553" lon="3.63883">
        <ele>732.6</ele>
        <time>2023-08-03T10:05:36Z</time>
      </trkpt>
      <trkpt lat="45.9155" lon="3.63885">
        <ele>732.4</ele>
        <time>2023-08-03T10:05:40Z</time>
      </trkpt>
      <trkpt lat="45.91544" lon="3.63876">
        <ele>732.4</ele>
        <time>2023-08-03T10:05:46Z</time>
      </trkpt>
      <trkpt lat="45.91543" lon="3.63869">
        <ele>732.4</ele>
        <time>2023-08-03T10:05:52Z</time>
      </trkpt>
      <trkpt lat="45.91542" lon="3.63867">
        <ele>732.4</ele>
        <time>2023-08-03T10:05:53Z</time>
      </trkpt>
      <trkpt lat="45.91539" lon="3.63864">
        <ele>732.4</ele>
        <time>2023-08-03T10:05:57Z</time>
      </trkpt>
      <trkpt lat="45.91535" lon="3.63853">
        <ele>732.6</ele>
        <time>2023-08-03T10:06:05Z</time>
      </trkpt>
      <trkpt lat="45.91534" lon="3.63842">
        <ele>733</ele>
        <time>2023-08-03T10:06:13Z</time>
      </trkpt>
      <trkpt lat="45.91534" lon="3.63837">
        <ele>733.2</ele>
        <time>2023-08-03T10:06:18Z</time>
      </trkpt>
      <trkpt lat="45.91532" lon="3.63827">
        <ele>734.2</ele>
        <time>2023-08-03T10:06:25Z</time>
      </trkpt>
      <trkpt lat="45.91531" lon="3.63822">
        <ele>734.4</ele>
        <time>2023-08-03T10:06:28Z</time>
      </trkpt>
      <trkpt lat="45.91531" lon="3.63816">
        <ele>734.6</ele>
        <time>2023-08-03T10:06:32Z</time>
      </trkpt>
      <trkpt lat="45.91533" lon="3.63809">
        <ele>735</ele>
        <time>2023-08-03T10:06:37Z</time>
      </trkpt>
      <trkpt lat="45.91534" lon="3.63802">
        <ele>735.2</ele>
        <time>2023-08-03T10:06:39Z</time>
      </trkpt>
      <trkpt lat="45.91537" lon="3.638">
        <ele>735.2</ele>
        <time>2023-08-03T10:06:41Z</time>
      </trkpt>
      <trkpt lat="45.91539" lon="3.63799">
        <ele>735.4</ele>
        <time>2023-08-03T10:06:42Z</time>
      </trkpt>
      <trkpt lat="45.91542" lon="3.63789">
        <ele>735.6</ele>
        <time>2023-08-03T10:06:48Z</time>
      </trkpt>
      <trkpt lat="45.91545" lon="3.63779">
        <ele>736.4</ele>
        <time>2023-08-03T10:06:55Z</time>
      </trkpt>
      <trkpt lat="45.91546" lon="3.63772">
        <ele>736.8</ele>
        <time>2023-08-03T10:06:59Z</time>
      </trkpt>
      <trkpt lat="45.91546" lon="3.6377">
        <ele>737</ele>
        <time>2023-08-03T10:07:00Z</time>
      </trkpt>
      <trkpt lat="45.91544" lon="3.63765">
        <ele>737.6</ele>
        <time>2023-08-03T10:07:04Z</time>
      </trkpt>
      <trkpt lat="45.91543" lon="3.63763">
        <ele>738</ele>
        <time>2023-08-03T10:07:07Z</time>
      </trkpt>
      <trkpt lat="45.91541" lon="3.63757">
        <ele>738.4</ele>
        <time>2023-08-03T10:07:15Z</time>
      </trkpt>
      <trkpt lat="45.91541" lon="3.63757">
        <ele>738.6</ele>
        <time>2023-08-03T10:07:16Z</time>
      </trkpt>
      <trkpt lat="45.9154" lon="3.63758">
        <ele>738.8</ele>
        <time>2023-08-03T10:07:20Z</time>
      </trkpt>
      <trkpt lat="45.91541" lon="3.63758">
        <ele>739</ele>
        <time>2023-08-03T10:07:25Z</time>
      </trkpt>
      <trkpt lat="45.91541" lon="3.63758">
        <ele>739.2</ele>
        <time>2023-08-03T10:07:30Z</time>
      </trkpt>
      <trkpt lat="45.9154" lon="3.63757">
        <ele>738.8</ele>
        <time>2023-08-03T10:07:36Z</time>
      </trkpt>
      <trkpt lat="45.91542" lon="3.63758">
        <ele>738.6</ele>
        <time>2023-08-03T10:07:42Z</time>
      </trkpt>
      <trkpt lat="45.91541" lon="3.63757">
        <ele>738.6</ele>
        <time>2023-08-03T10:07:48Z</time>
      </trkpt>
      <trkpt lat="45.91539" lon="3.63756">
        <ele>738.4</ele>
        <time>2023-08-03T10:08:01Z</time>
      </trkpt>
      <trkpt lat="45.91539" lon="3.63756">
        <ele>738.2</ele>
        <time>2023-08-03T10:08:08Z</time>
      </trkpt>
      <trkpt lat="45.91539" lon="3.63755">
        <ele>737.8</ele>
        <time>2023-08-03T10:08:16Z</time>
      </trkpt>
      <trkpt lat="45.91537" lon="3.63756">
        <ele>739.4</ele>
        <time>2023-08-03T10:08:59Z</time>
      </trkpt>
      <trkpt lat="45.91536" lon="3.63758">
        <ele>739.4</ele>
        <time>2023-08-03T10:09:39Z</time>
      </trkpt>
      <trkpt lat="45.91537" lon="3.63751">
        <ele>739.4</ele>
        <time>2023-08-03T10:10:02Z</time>
      </trkpt>
      <trkpt lat="45.91536" lon="3.63744">
        <ele>739.4</ele>
        <time>2023-08-03T10:10:08Z</time>
      </trkpt>
      <trkpt lat="45.91537" lon="3.63738">
        <ele>739.8</ele>
        <time>2023-08-03T10:10:14Z</time>
      </trkpt>
      <trkpt lat="45.91537" lon="3.63737">
        <ele>739.8</ele>
        <time>2023-08-03T10:10:15Z</time>
      </trkpt>
      <trkpt lat="45.91537" lon="3.63728">
        <ele>740.4</ele>
        <time>2023-08-03T10:10:21Z</time>
      </trkpt>
      <trkpt lat="45.91537" lon="3.63724">
        <ele>740.6</ele>
        <time>2023-08-03T10:10:23Z</time>
      </trkpt>
      <trkpt lat="45.91537" lon="3.6372">
        <ele>740.8</ele>
        <time>2023-08-03T10:10:25Z</time>
      </trkpt>
      <trkpt lat="45.91537" lon="3.63717">
        <ele>740.8</ele>
        <time>2023-08-03T10:10:27Z</time>
      </trkpt>
      <trkpt lat="45.91537" lon="3.63714">
        <ele>741</ele>
        <time>2023-08-03T10:10:29Z</time>
      </trkpt>
      <trkpt lat="45.91537" lon="3.6371">
        <ele>741.2</ele>
        <time>2023-08-03T10:10:31Z</time>
      </trkpt>
      <trkpt lat="45.91537" lon="3.63709">
        <ele>741.4</ele>
        <time>2023-08-03T10:10:33Z</time>
      </trkpt>
      <trkpt lat="45.91535" lon="3.63709">
        <ele>741.8</ele>
        <time>2023-08-03T10:10:38Z</time>
      </trkpt>
      <trkpt lat="45.91532" lon="3.63708">
        <ele>742.4</ele>
        <time>2023-08-03T10:10:41Z</time>
      </trkpt>
      <trkpt lat="45.91529" lon="3.63705">
        <ele>743</ele>
        <time>2023-08-03T10:10:45Z</time>
      </trkpt>
      <trkpt lat="45.91528" lon="3.63704">
        <ele>743</ele>
        <time>2023-08-03T10:10:46Z</time>
      </trkpt>
      <trkpt lat="45.91527" lon="3.63703">
        <ele>743</ele>
        <time>2023-08-03T10:10:48Z</time>
      </trkpt>
      <trkpt lat="45.91525" lon="3.63701">
        <ele>743.2</ele>
        <time>2023-08-03T10:10:50Z</time>
      </trkpt>
      <trkpt lat="45.91524" lon="3.637">
        <ele>743.2</ele>
        <time>2023-08-03T10:10:51Z</time>
      </trkpt>
      <trkpt lat="45.91522" lon="3.63697">
        <ele>743.2</ele>
        <time>2023-08-03T10:10:57Z</time>
      </trkpt>
      <trkpt lat="45.9152" lon="3.63695">
        <ele>743.4</ele>
        <time>2023-08-03T10:11:00Z</time>
      </trkpt>
      <trkpt lat="45.91518" lon="3.63694">
        <ele>743.8</ele>
        <time>2023-08-03T10:11:02Z</time>
      </trkpt>
      <trkpt lat="45.91514" lon="3.63694">
        <ele>743.8</ele>
        <time>2023-08-03T10:11:04Z</time>
      </trkpt>
      <trkpt lat="45.91512" lon="3.63695">
        <ele>744</ele>
        <time>2023-08-03T10:11:05Z</time>
      </trkpt>
      <trkpt lat="45.91509" lon="3.63694">
        <ele>744.2</ele>
        <time>2023-08-03T10:11:07Z</time>
      </trkpt>
      <trkpt lat="45.91507" lon="3.63694">
        <ele>744.2</ele>
        <time>2023-08-03T10:11:08Z</time>
      </trkpt>
      <trkpt lat="45.91505" lon="3.63692">
        <ele>744.2</ele>
        <time>2023-08-03T10:11:10Z</time>
      </trkpt>
      <trkpt lat="45.91501" lon="3.63692">
        <ele>744.2</ele>
        <time>2023-08-03T10:11:13Z</time>
      </trkpt>
      <trkpt lat="45.91494" lon="3.637">
        <ele>744</ele>
        <time>2023-08-03T10:11:18Z</time>
      </trkpt>
      <trkpt lat="45.91491" lon="3.63703">
        <ele>743.6</ele>
        <time>2023-08-03T10:11:21Z</time>
      </trkpt>
      <trkpt lat="45.91483" lon="3.63705">
        <ele>743.2</ele>
        <time>2023-08-03T10:11:28Z</time>
      </trkpt>
      <trkpt lat="45.91482" lon="3.63705">
        <ele>743.2</ele>
        <time>2023-08-03T10:11:29Z</time>
      </trkpt>
      <trkpt lat="45.91481" lon="3.63705">
        <ele>743.2</ele>
        <time>2023-08-03T10:11:30Z</time>
      </trkpt>
      <trkpt lat="45.91475" lon="3.63706">
        <ele>743</ele>
        <time>2023-08-03T10:11:36Z</time>
      </trkpt>
      <trkpt lat="45.91467" lon="3.63701">
        <ele>742.8</ele>
        <time>2023-08-03T10:11:44Z</time>
      </trkpt>
      <trkpt lat="45.91459" lon="3.63699">
        <ele>742.4</ele>
        <time>2023-08-03T10:11:50Z</time>
      </trkpt>
      <trkpt lat="45.91455" lon="3.63698">
        <ele>742.2</ele>
        <time>2023-08-03T10:11:53Z</time>
      </trkpt>
      <trkpt lat="45.91448" lon="3.63695">
        <ele>741.8</ele>
        <time>2023-08-03T10:11:58Z</time>
      </trkpt>
      <trkpt lat="45.91446" lon="3.63694">
        <ele>741.6</ele>
        <time>2023-08-03T10:11:59Z</time>
      </trkpt>
      <trkpt lat="45.91445" lon="3.63692">
        <ele>741.6</ele>
        <time>2023-08-03T10:12:01Z</time>
      </trkpt>
      <trkpt lat="45.91442" lon="3.63693">
        <ele>741.4</ele>
        <time>2023-08-03T10:12:03Z</time>
      </trkpt>
      <trkpt lat="45.91434" lon="3.63691">
        <ele>741.2</ele>
        <time>2023-08-03T10:12:08Z</time>
      </trkpt>
      <trkpt lat="45.91432" lon="3.63691">
        <ele>741.2</ele>
        <time>2023-08-03T10:12:09Z</time>
      </trkpt>
      <trkpt lat="45.91429" lon="3.63688">
        <ele>741.2</ele>
        <time>2023-08-03T10:12:10Z</time>
      </trkpt>
      <trkpt lat="45.91423" lon="3.63691">
        <ele>740.8</ele>
        <time>2023-08-03T10:12:13Z</time>
      </trkpt>
      <trkpt lat="45.91419" lon="3.63686">
        <ele>740.4</ele>
        <time>2023-08-03T10:12:17Z</time>
      </trkpt>
      <trkpt lat="45.9142" lon="3.63686">
        <ele>740</ele>
        <time>2023-08-03T10:12:20Z</time>
      </trkpt>
      <trkpt lat="45.91415" lon="3.63683">
        <ele>740</ele>
        <time>2023-08-03T10:12:24Z</time>
      </trkpt>
      <trkpt lat="45.91414" lon="3.63682">
        <ele>739.8</ele>
        <time>2023-08-03T10:12:27Z</time>
      </trkpt>
      <trkpt lat="45.91413" lon="3.63681">
        <ele>739.8</ele>
        <time>2023-08-03T10:12:29Z</time>
      </trkpt>
      <trkpt lat="45.9141" lon="3.6368">
        <ele>739.8</ele>
        <time>2023-08-03T10:12:31Z</time>
      </trkpt>
      <trkpt lat="45.91408" lon="3.63678">
        <ele>739.6</ele>
        <time>2023-08-03T10:12:34Z</time>
      </trkpt>
      <trkpt lat="45.91405" lon="3.63678">
        <ele>739.4</ele>
        <time>2023-08-03T10:12:37Z</time>
      </trkpt>
      <trkpt lat="45.91402" lon="3.63677">
        <ele>739.2</ele>
        <time>2023-08-03T10:12:39Z</time>
      </trkpt>
      <trkpt lat="45.914" lon="3.63677">
        <ele>739</ele>
        <time>2023-08-03T10:12:41Z</time>
      </trkpt>
      <trkpt lat="45.91395" lon="3.63675">
        <ele>738.6</ele>
        <time>2023-08-03T10:12:46Z</time>
      </trkpt>
      <trkpt lat="45.9139" lon="3.63675">
        <ele>738.2</ele>
        <time>2023-08-03T10:12:50Z</time>
      </trkpt>
      <trkpt lat="45.9139" lon="3.63675">
        <ele>737.8</ele>
        <time>2023-08-03T10:12:51Z</time>
      </trkpt>
      <trkpt lat="45.91389" lon="3.63674">
        <ele>737.6</ele>
        <time>2023-08-03T10:12:52Z</time>
      </trkpt>
      <trkpt lat="45.91388" lon="3.63673">
        <ele>737.4</ele>
        <time>2023-08-03T10:12:53Z</time>
      </trkpt>
      <trkpt lat="45.91383" lon="3.63671">
        <ele>736.6</ele>
        <time>2023-08-03T10:12:57Z</time>
      </trkpt>
      <trkpt lat="45.91377" lon="3.6367">
        <ele>736.4</ele>
        <time>2023-08-03T10:13:01Z</time>
      </trkpt>
      <trkpt lat="45.9137" lon="3.63669">
        <ele>735.2</ele>
        <time>2023-08-03T10:13:06Z</time>
      </trkpt>
      <trkpt lat="45.91367" lon="3.6367">
        <ele>734.6</ele>
        <time>2023-08-03T10:13:09Z</time>
      </trkpt>
      <trkpt lat="45.91365" lon="3.63671">
        <ele>734</ele>
        <time>2023-08-03T10:13:12Z</time>
      </trkpt>
      <trkpt lat="45.91363" lon="3.63672">
        <ele>733.6</ele>
        <time>2023-08-03T10:13:14Z</time>
      </trkpt>
      <trkpt lat="45.91359" lon="3.63672">
        <ele>733.2</ele>
        <time>2023-08-03T10:13:16Z</time>
      </trkpt>
      <trkpt lat="45.91358" lon="3.63671">
        <ele>733</ele>
        <time>2023-08-03T10:13:17Z</time>
      </trkpt>
      <trkpt lat="45.9135" lon="3.6367">
        <ele>733</ele>
        <time>2023-08-03T10:13:22Z</time>
      </trkpt>
      <trkpt lat="45.91338" lon="3.63668">
        <ele>732</ele>
        <time>2023-08-03T10:13:30Z</time>
      </trkpt>
      <trkpt lat="45.91338" lon="3.63667">
        <ele>731.8</ele>
        <time>2023-08-03T10:13:31Z</time>
      </trkpt>
      <trkpt lat="45.91333" lon="3.63662">
        <ele>731</ele>
        <time>2023-08-03T10:13:36Z</time>
      </trkpt>
      <trkpt lat="45.91327" lon="3.63657">
        <ele>729.8</ele>
        <time>2023-08-03T10:13:42Z</time>
      </trkpt>
      <trkpt lat="45.91326" lon="3.63657">
        <ele>729.8</ele>
        <time>2023-08-03T10:13:43Z</time>
      </trkpt>
      <trkpt lat="45.91319" lon="3.63651">
        <ele>729</ele>
        <time>2023-08-03T10:13:48Z</time>
      </trkpt>
      <trkpt lat="45.91317" lon="3.6365">
        <ele>728.8</ele>
        <time>2023-08-03T10:13:49Z</time>
      </trkpt>
      <trkpt lat="45.91314" lon="3.63646">
        <ele>728.4</ele>
        <time>2023-08-03T10:13:53Z</time>
      </trkpt>
      <trkpt lat="45.91305" lon="3.63636">
        <ele>727.8</ele>
        <time>2023-08-03T10:14:00Z</time>
      </trkpt>
      <trkpt lat="45.913" lon="3.63627">
        <ele>727</ele>
        <time>2023-08-03T10:14:05Z</time>
      </trkpt>
      <trkpt lat="45.91295" lon="3.63617">
        <ele>726.6</ele>
        <time>2023-08-03T10:14:10Z</time>
      </trkpt>
      <trkpt lat="45.91291" lon="3.63614">
        <ele>726.4</ele>
        <time>2023-08-03T10:14:12Z</time>
      </trkpt>
      <trkpt lat="45.91288" lon="3.63606">
        <ele>726.2</ele>
        <time>2023-08-03T10:14:17Z</time>
      </trkpt>
      <trkpt lat="45.91287" lon="3.63605">
        <ele>726.2</ele>
        <time>2023-08-03T10:14:18Z</time>
      </trkpt>
      <trkpt lat="45.91288" lon="3.63602">
        <ele>726.2</ele>
        <time>2023-08-03T10:14:20Z</time>
      </trkpt>
      <trkpt lat="45.91286" lon="3.63597">
        <ele>726</ele>
        <time>2023-08-03T10:14:24Z</time>
      </trkpt>
      <trkpt lat="45.91283" lon="3.63582">
        <ele>725.6</ele>
        <time>2023-08-03T10:14:32Z</time>
      </trkpt>
      <trkpt lat="45.91283" lon="3.63579">
        <ele>725.2</ele>
        <time>2023-08-03T10:14:34Z</time>
      </trkpt>
      <trkpt lat="45.91279" lon="3.63564">
        <ele>725</ele>
        <time>2023-08-03T10:14:43Z</time>
      </trkpt>
      <trkpt lat="45.91276" lon="3.63549">
        <ele>725</ele>
        <time>2023-08-03T10:14:51Z</time>
      </trkpt>
      <trkpt lat="45.91275" lon="3.63545">
        <ele>725.2</ele>
        <time>2023-08-03T10:14:53Z</time>
      </trkpt>
      <trkpt lat="45.91273" lon="3.6354">
        <ele>725.2</ele>
        <time>2023-08-03T10:14:56Z</time>
      </trkpt>
      <trkpt lat="45.91272" lon="3.63539">
        <ele>725.2</ele>
        <time>2023-08-03T10:14:57Z</time>
      </trkpt>
      <trkpt lat="45.91268" lon="3.63531">
        <ele>725.4</ele>
        <time>2023-08-03T10:15:02Z</time>
      </trkpt>
      <trkpt lat="45.91266" lon="3.63528">
        <ele>725.6</ele>
        <time>2023-08-03T10:15:04Z</time>
      </trkpt>
      <trkpt lat="45.91262" lon="3.63519">
        <ele>725.6</ele>
        <time>2023-08-03T10:15:08Z</time>
      </trkpt>
      <trkpt lat="45.91262" lon="3.63513">
        <ele>725.8</ele>
        <time>2023-08-03T10:15:11Z</time>
      </trkpt>
      <trkpt lat="45.9126" lon="3.63511">
        <ele>725.8</ele>
        <time>2023-08-03T10:15:13Z</time>
      </trkpt>
      <trkpt lat="45.91256" lon="3.63508">
        <ele>725.8</ele>
        <time>2023-08-03T10:15:16Z</time>
      </trkpt>
      <trkpt lat="45.91255" lon="3.63507">
        <ele>725.8</ele>
        <time>2023-08-03T10:15:17Z</time>
      </trkpt>
      <trkpt lat="45.91249" lon="3.63498">
        <ele>725.6</ele>
        <time>2023-08-03T10:15:23Z</time>
      </trkpt>
      <trkpt lat="45.91245" lon="3.63494">
        <ele>725.6</ele>
        <time>2023-08-03T10:15:26Z</time>
      </trkpt>
      <trkpt lat="45.91245" lon="3.63493">
        <ele>725.6</ele>
        <time>2023-08-03T10:15:28Z</time>
      </trkpt>
      <trkpt lat="45.9124" lon="3.63486">
        <ele>725.6</ele>
        <time>2023-08-03T10:15:32Z</time>
      </trkpt>
      <trkpt lat="45.91238" lon="3.63485">
        <ele>725.6</ele>
        <time>2023-08-03T10:15:34Z</time>
      </trkpt>
      <trkpt lat="45.91236" lon="3.63484">
        <ele>725.6</ele>
        <time>2023-08-03T10:15:35Z</time>
      </trkpt>
      <trkpt lat="45.91235" lon="3.63481">
        <ele>725.4</ele>
        <time>2023-08-03T10:15:39Z</time>
      </trkpt>
      <trkpt lat="45.91234" lon="3.6348">
        <ele>725.4</ele>
        <time>2023-08-03T10:15:40Z</time>
      </trkpt>
      <trkpt lat="45.91229" lon="3.63478">
        <ele>725.4</ele>
        <time>2023-08-03T10:15:45Z</time>
      </trkpt>
      <trkpt lat="45.91224" lon="3.63478">
        <ele>725.2</ele>
        <time>2023-08-03T10:15:50Z</time>
      </trkpt>
      <trkpt lat="45.91218" lon="3.63476">
        <ele>724.8</ele>
        <time>2023-08-03T10:15:54Z</time>
      </trkpt>
      <trkpt lat="45.91209" lon="3.63471">
        <ele>724.4</ele>
        <time>2023-08-03T10:15:59Z</time>
      </trkpt>
      <trkpt lat="45.91207" lon="3.6347">
        <ele>724.2</ele>
        <time>2023-08-03T10:16:01Z</time>
      </trkpt>
      <trkpt lat="45.91206" lon="3.6347">
        <ele>724</ele>
        <time>2023-08-03T10:16:02Z</time>
      </trkpt>
      <trkpt lat="45.912" lon="3.6347">
        <ele>723.6</ele>
        <time>2023-08-03T10:16:06Z</time>
      </trkpt>
      <trkpt lat="45.91198" lon="3.6347">
        <ele>723.6</ele>
        <time>2023-08-03T10:16:07Z</time>
      </trkpt>
      <trkpt lat="45.91194" lon="3.63467">
        <ele>723.4</ele>
        <time>2023-08-03T10:16:09Z</time>
      </trkpt>
      <trkpt lat="45.91189" lon="3.63462">
        <ele>723</ele>
        <time>2023-08-03T10:16:12Z</time>
      </trkpt>
      <trkpt lat="45.91184" lon="3.63458">
        <ele>722.4</ele>
        <time>2023-08-03T10:16:18Z</time>
      </trkpt>
      <trkpt lat="45.91181" lon="3.63459">
        <ele>721.8</ele>
        <time>2023-08-03T10:16:23Z</time>
      </trkpt>
      <trkpt lat="45.9118" lon="3.6346">
        <ele>721.6</ele>
        <time>2023-08-03T10:16:24Z</time>
      </trkpt>
      <trkpt lat="45.91175" lon="3.6346">
        <ele>721.6</ele>
        <time>2023-08-03T10:16:28Z</time>
      </trkpt>
      <trkpt lat="45.91169" lon="3.63458">
        <ele>721.2</ele>
        <time>2023-08-03T10:16:33Z</time>
      </trkpt>
      <trkpt lat="45.91159" lon="3.63454">
        <ele>720.6</ele>
        <time>2023-08-03T10:16:39Z</time>
      </trkpt>
      <trkpt lat="45.91158" lon="3.63454">
        <ele>720.4</ele>
        <time>2023-08-03T10:16:40Z</time>
      </trkpt>
      <trkpt lat="45.91156" lon="3.63454">
        <ele>720</ele>
        <time>2023-08-03T10:16:42Z</time>
      </trkpt>
      <trkpt lat="45.9115" lon="3.63456">
        <ele>719.4</ele>
        <time>2023-08-03T10:16:46Z</time>
      </trkpt>
      <trkpt lat="45.91148" lon="3.63456">
        <ele>719.4</ele>
        <time>2023-08-03T10:16:47Z</time>
      </trkpt>
      <trkpt lat="45.91142" lon="3.63462">
        <ele>718.8</ele>
        <time>2023-08-03T10:16:53Z</time>
      </trkpt>
      <trkpt lat="45.9114" lon="3.63463">
        <ele>718.8</ele>
        <time>2023-08-03T10:16:54Z</time>
      </trkpt>
      <trkpt lat="45.91136" lon="3.63467">
        <ele>718.4</ele>
        <time>2023-08-03T10:16:59Z</time>
      </trkpt>
      <trkpt lat="45.91133" lon="3.6347">
        <ele>718.2</ele>
        <time>2023-08-03T10:17:01Z</time>
      </trkpt>
      <trkpt lat="45.91129" lon="3.63473">
        <ele>718.2</ele>
        <time>2023-08-03T10:17:04Z</time>
      </trkpt>
      <trkpt lat="45.91126" lon="3.63476">
        <ele>718</ele>
        <time>2023-08-03T10:17:07Z</time>
      </trkpt>
      <trkpt lat="45.91119" lon="3.63485">
        <ele>717.6</ele>
        <time>2023-08-03T10:17:15Z</time>
      </trkpt>
      <trkpt lat="45.91111" lon="3.6349">
        <ele>717.4</ele>
        <time>2023-08-03T10:17:21Z</time>
      </trkpt>
      <trkpt lat="45.91111" lon="3.63491">
        <ele>717.4</ele>
        <time>2023-08-03T10:17:22Z</time>
      </trkpt>
      <trkpt lat="45.911" lon="3.635">
        <ele>717.4</ele>
        <time>2023-08-03T10:17:31Z</time>
      </trkpt>
      <trkpt lat="45.91096" lon="3.63504">
        <ele>717.4</ele>
        <time>2023-08-03T10:17:34Z</time>
      </trkpt>
      <trkpt lat="45.91093" lon="3.63508">
        <ele>717.4</ele>
        <time>2023-08-03T10:17:37Z</time>
      </trkpt>
      <trkpt lat="45.91087" lon="3.63514">
        <ele>717.4</ele>
        <time>2023-08-03T10:17:43Z</time>
      </trkpt>
      <trkpt lat="45.91083" lon="3.63517">
        <ele>717.4</ele>
        <time>2023-08-03T10:17:46Z</time>
      </trkpt>
      <trkpt lat="45.91081" lon="3.63519">
        <ele>717.4</ele>
        <time>2023-08-03T10:17:48Z</time>
      </trkpt>
      <trkpt lat="45.91078" lon="3.63523">
        <ele>717.4</ele>
        <time>2023-08-03T10:17:51Z</time>
      </trkpt>
      <trkpt lat="45.91066" lon="3.63527">
        <ele>717.4</ele>
        <time>2023-08-03T10:17:59Z</time>
      </trkpt>
      <trkpt lat="45.9106" lon="3.63531">
        <ele>717.4</ele>
        <time>2023-08-03T10:18:06Z</time>
      </trkpt>
      <trkpt lat="45.91058" lon="3.63532">
        <ele>717.4</ele>
        <time>2023-08-03T10:18:07Z</time>
      </trkpt>
      <trkpt lat="45.91054" lon="3.63534">
        <ele>717.4</ele>
        <time>2023-08-03T10:18:11Z</time>
      </trkpt>
      <trkpt lat="45.9105" lon="3.63534">
        <ele>717.4</ele>
        <time>2023-08-03T10:18:14Z</time>
      </trkpt>
      <trkpt lat="45.91047" lon="3.63534">
        <ele>717.4</ele>
        <time>2023-08-03T10:18:17Z</time>
      </trkpt>
      <trkpt lat="45.91043" lon="3.63533">
        <ele>717.4</ele>
        <time>2023-08-03T10:18:22Z</time>
      </trkpt>
      <trkpt lat="45.91035" lon="3.63534">
        <ele>717.4</ele>
        <time>2023-08-03T10:18:27Z</time>
      </trkpt>
      <trkpt lat="45.91034" lon="3.63536">
        <ele>717.4</ele>
        <time>2023-08-03T10:18:28Z</time>
      </trkpt>
      <trkpt lat="45.91032" lon="3.63536">
        <ele>717.4</ele>
        <time>2023-08-03T10:18:29Z</time>
      </trkpt>
      <trkpt lat="45.91029" lon="3.63538">
        <ele>717.4</ele>
        <time>2023-08-03T10:18:32Z</time>
      </trkpt>
      <trkpt lat="45.91028" lon="3.63538">
        <ele>717.4</ele>
        <time>2023-08-03T10:18:33Z</time>
      </trkpt>
      <trkpt lat="45.91022" lon="3.63532">
        <ele>717.6</ele>
        <time>2023-08-03T10:18:38Z</time>
      </trkpt>
      <trkpt lat="45.91013" lon="3.63532">
        <ele>717.6</ele>
        <time>2023-08-03T10:18:43Z</time>
      </trkpt>
      <trkpt lat="45.9101" lon="3.63528">
        <ele>717.8</ele>
        <time>2023-08-03T10:18:46Z</time>
      </trkpt>
      <trkpt lat="45.91007" lon="3.63521">
        <ele>717.8</ele>
        <time>2023-08-03T10:18:50Z</time>
      </trkpt>
      <trkpt lat="45.91002" lon="3.63507">
        <ele>718.2</ele>
        <time>2023-08-03T10:18:58Z</time>
      </trkpt>
      <trkpt lat="45.91001" lon="3.63505">
        <ele>718.2</ele>
        <time>2023-08-03T10:19:00Z</time>
      </trkpt>
      <trkpt lat="45.91001" lon="3.63503">
        <ele>718.4</ele>
        <time>2023-08-03T10:19:02Z</time>
      </trkpt>
      <trkpt lat="45.91" lon="3.63499">
        <ele>718.6</ele>
        <time>2023-08-03T10:19:05Z</time>
      </trkpt>
      <trkpt lat="45.91" lon="3.63494">
        <ele>718.8</ele>
        <time>2023-08-03T10:19:08Z</time>
      </trkpt>
      <trkpt lat="45.90999" lon="3.6349">
        <ele>718.8</ele>
        <time>2023-08-03T10:19:11Z</time>
      </trkpt>
      <trkpt lat="45.90999" lon="3.6348">
        <ele>719.2</ele>
        <time>2023-08-03T10:19:17Z</time>
      </trkpt>
      <trkpt lat="45.90999" lon="3.63479">
        <ele>719.2</ele>
        <time>2023-08-03T10:19:18Z</time>
      </trkpt>
      <trkpt lat="45.90999" lon="3.63478">
        <ele>719.4</ele>
        <time>2023-08-03T10:19:19Z</time>
      </trkpt>
      <trkpt lat="45.90997" lon="3.6347">
        <ele>719.6</ele>
        <time>2023-08-03T10:19:23Z</time>
      </trkpt>
      <trkpt lat="45.90998" lon="3.63457">
        <ele>720</ele>
        <time>2023-08-03T10:19:29Z</time>
      </trkpt>
      <trkpt lat="45.90999" lon="3.63446">
        <ele>720.4</ele>
        <time>2023-08-03T10:19:34Z</time>
      </trkpt>
      <trkpt lat="45.90999" lon="3.63444">
        <ele>720.6</ele>
        <time>2023-08-03T10:19:36Z</time>
      </trkpt>
      <trkpt lat="45.91" lon="3.63435">
        <ele>721</ele>
        <time>2023-08-03T10:19:41Z</time>
      </trkpt>
      <trkpt lat="45.90999" lon="3.6342">
        <ele>721.4</ele>
        <time>2023-08-03T10:19:48Z</time>
      </trkpt>
      <trkpt lat="45.90999" lon="3.63419">
        <ele>721.6</ele>
        <time>2023-08-03T10:19:49Z</time>
      </trkpt>
      <trkpt lat="45.90997" lon="3.63411">
        <ele>722.2</ele>
        <time>2023-08-03T10:19:56Z</time>
      </trkpt>
      <trkpt lat="45.90997" lon="3.63409">
        <ele>722.4</ele>
        <time>2023-08-03T10:19:57Z</time>
      </trkpt>
      <trkpt lat="45.90996" lon="3.63407">
        <ele>722.6</ele>
        <time>2023-08-03T10:19:59Z</time>
      </trkpt>
      <trkpt lat="45.90994" lon="3.63401">
        <ele>723</ele>
        <time>2023-08-03T10:20:03Z</time>
      </trkpt>
      <trkpt lat="45.90992" lon="3.63401">
        <ele>723</ele>
        <time>2023-08-03T10:20:04Z</time>
      </trkpt>
      <trkpt lat="45.90991" lon="3.634">
        <ele>723.2</ele>
        <time>2023-08-03T10:20:05Z</time>
      </trkpt>
      <trkpt lat="45.90987" lon="3.63395">
        <ele>723.6</ele>
        <time>2023-08-03T10:20:10Z</time>
      </trkpt>
      <trkpt lat="45.90986" lon="3.63396">
        <ele>724</ele>
        <time>2023-08-03T10:20:11Z</time>
      </trkpt>
      <trkpt lat="45.90986" lon="3.63396">
        <ele>724</ele>
        <time>2023-08-03T10:20:12Z</time>
      </trkpt>
      <trkpt lat="45.90983" lon="3.63396">
        <ele>724.6</ele>
        <time>2023-08-03T10:20:15Z</time>
      </trkpt>
      <trkpt lat="45.90981" lon="3.63397">
        <ele>724.8</ele>
        <time>2023-08-03T10:20:17Z</time>
      </trkpt>
      <trkpt lat="45.90973" lon="3.634">
        <ele>725.8</ele>
        <time>2023-08-03T10:20:24Z</time>
      </trkpt>
      <trkpt lat="45.90971" lon="3.63402">
        <ele>725.8</ele>
        <time>2023-08-03T10:20:25Z</time>
      </trkpt>
      <trkpt lat="45.90969" lon="3.63404">
        <ele>726</ele>
        <time>2023-08-03T10:20:27Z</time>
      </trkpt>
      <trkpt lat="45.90967" lon="3.63405">
        <ele>726.2</ele>
        <time>2023-08-03T10:20:29Z</time>
      </trkpt>
      <trkpt lat="45.9096" lon="3.6341">
        <ele>727</ele>
        <time>2023-08-03T10:20:37Z</time>
      </trkpt>
      <trkpt lat="45.90956" lon="3.63415">
        <ele>727.4</ele>
        <time>2023-08-03T10:20:42Z</time>
      </trkpt>
      <trkpt lat="45.90955" lon="3.63415">
        <ele>727.6</ele>
        <time>2023-08-03T10:20:43Z</time>
      </trkpt>
      <trkpt lat="45.9095" lon="3.63417">
        <ele>728</ele>
        <time>2023-08-03T10:20:47Z</time>
      </trkpt>
      <trkpt lat="45.90948" lon="3.63417">
        <ele>728.2</ele>
        <time>2023-08-03T10:20:49Z</time>
      </trkpt>
      <trkpt lat="45.90947" lon="3.63418">
        <ele>728.4</ele>
        <time>2023-08-03T10:20:50Z</time>
      </trkpt>
      <trkpt lat="45.90946" lon="3.63419">
        <ele>728.6</ele>
        <time>2023-08-03T10:20:51Z</time>
      </trkpt>
      <trkpt lat="45.90942" lon="3.63423">
        <ele>729.2</ele>
        <time>2023-08-03T10:20:56Z</time>
      </trkpt>
      <trkpt lat="45.90941" lon="3.63423">
        <ele>729.2</ele>
        <time>2023-08-03T10:20:57Z</time>
      </trkpt>
      <trkpt lat="45.90935" lon="3.63426">
        <ele>729.8</ele>
        <time>2023-08-03T10:21:03Z</time>
      </trkpt>
      <trkpt lat="45.90933" lon="3.63427">
        <ele>730</ele>
        <time>2023-08-03T10:21:05Z</time>
      </trkpt>
      <trkpt lat="45.9093" lon="3.63429">
        <ele>730.2</ele>
        <time>2023-08-03T10:21:07Z</time>
      </trkpt>
      <trkpt lat="45.90927" lon="3.63432">
        <ele>730.6</ele>
        <time>2023-08-03T10:21:12Z</time>
      </trkpt>
      <trkpt lat="45.90922" lon="3.63434">
        <ele>731</ele>
        <time>2023-08-03T10:21:18Z</time>
      </trkpt>
      <trkpt lat="45.9092" lon="3.63437">
        <ele>731.2</ele>
        <time>2023-08-03T10:21:21Z</time>
      </trkpt>
      <trkpt lat="45.90915" lon="3.63441">
        <ele>731.4</ele>
        <time>2023-08-03T10:21:25Z</time>
      </trkpt>
      <trkpt lat="45.90908" lon="3.63448">
        <ele>732</ele>
        <time>2023-08-03T10:21:32Z</time>
      </trkpt>
      <trkpt lat="45.90907" lon="3.63449">
        <ele>732.2</ele>
        <time>2023-08-03T10:21:34Z</time>
      </trkpt>
      <trkpt lat="45.90904" lon="3.63448">
        <ele>732.8</ele>
        <time>2023-08-03T10:21:38Z</time>
      </trkpt>
      <trkpt lat="45.90898" lon="3.63448">
        <ele>733.4</ele>
        <time>2023-08-03T10:21:44Z</time>
      </trkpt>
      <trkpt lat="45.90891" lon="3.63448">
        <ele>733.8</ele>
        <time>2023-08-03T10:21:50Z</time>
      </trkpt>
      <trkpt lat="45.90886" lon="3.63446">
        <ele>734.6</ele>
        <time>2023-08-03T10:21:55Z</time>
      </trkpt>
      <trkpt lat="45.90885" lon="3.63446">
        <ele>734.6</ele>
        <time>2023-08-03T10:21:56Z</time>
      </trkpt>
      <trkpt lat="45.90882" lon="3.63446">
        <ele>735</ele>
        <time>2023-08-03T10:21:58Z</time>
      </trkpt>
      <trkpt lat="45.9088" lon="3.63446">
        <ele>735.4</ele>
        <time>2023-08-03T10:22:00Z</time>
      </trkpt>
      <trkpt lat="45.90879" lon="3.63446">
        <ele>735.4</ele>
        <time>2023-08-03T10:22:01Z</time>
      </trkpt>
      <trkpt lat="45.90877" lon="3.63445">
        <ele>735.6</ele>
        <time>2023-08-03T10:22:02Z</time>
      </trkpt>
      <trkpt lat="45.90868" lon="3.63443">
        <ele>736.2</ele>
        <time>2023-08-03T10:22:10Z</time>
      </trkpt>
      <trkpt lat="45.90866" lon="3.63443">
        <ele>736.4</ele>
        <time>2023-08-03T10:22:12Z</time>
      </trkpt>
      <trkpt lat="45.90864" lon="3.63443">
        <ele>736.6</ele>
        <time>2023-08-03T10:22:14Z</time>
      </trkpt>
      <trkpt lat="45.90863" lon="3.63442">
        <ele>736.6</ele>
        <time>2023-08-03T10:22:15Z</time>
      </trkpt>
      <trkpt lat="45.90862" lon="3.63442">
        <ele>736.8</ele>
        <time>2023-08-03T10:22:16Z</time>
      </trkpt>
      <trkpt lat="45.90861" lon="3.63442">
        <ele>736.8</ele>
        <time>2023-08-03T10:22:17Z</time>
      </trkpt>
      <trkpt lat="45.9086" lon="3.6344">
        <ele>737.2</ele>
        <time>2023-08-03T10:22:19Z</time>
      </trkpt>
      <trkpt lat="45.90857" lon="3.63437">
        <ele>737.6</ele>
        <time>2023-08-03T10:22:24Z</time>
      </trkpt>
      <trkpt lat="45.90857" lon="3.63437">
        <ele>737.8</ele>
        <time>2023-08-03T10:22:25Z</time>
      </trkpt>
      <trkpt lat="45.90853" lon="3.63434">
        <ele>738.4</ele>
        <time>2023-08-03T10:22:29Z</time>
      </trkpt>
      <trkpt lat="45.90851" lon="3.63435">
        <ele>738.8</ele>
        <time>2023-08-03T10:22:32Z</time>
      </trkpt>
      <trkpt lat="45.90848" lon="3.63434">
        <ele>739.2</ele>
        <time>2023-08-03T10:22:36Z</time>
      </trkpt>
      <trkpt lat="45.90847" lon="3.63434">
        <ele>739.2</ele>
        <time>2023-08-03T10:22:37Z</time>
      </trkpt>
      <trkpt lat="45.90841" lon="3.63433">
        <ele>739.8</ele>
        <time>2023-08-03T10:22:43Z</time>
      </trkpt>
      <trkpt lat="45.90837" lon="3.6343">
        <ele>740</ele>
        <time>2023-08-03T10:22:48Z</time>
      </trkpt>
      <trkpt lat="45.90831" lon="3.63425">
        <ele>740.4</ele>
        <time>2023-08-03T10:22:55Z</time>
      </trkpt>
      <trkpt lat="45.9083" lon="3.63424">
        <ele>740.6</ele>
        <time>2023-08-03T10:22:56Z</time>
      </trkpt>
      <trkpt lat="45.90827" lon="3.63421">
        <ele>740.8</ele>
        <time>2023-08-03T10:22:59Z</time>
      </trkpt>
      <trkpt lat="45.90825" lon="3.6342">
        <ele>740.8</ele>
        <time>2023-08-03T10:23:00Z</time>
      </trkpt>
      <trkpt lat="45.90814" lon="3.63415">
        <ele>741.6</ele>
        <time>2023-08-03T10:23:09Z</time>
      </trkpt>
      <trkpt lat="45.90808" lon="3.63411">
        <ele>741.8</ele>
        <time>2023-08-03T10:23:14Z</time>
      </trkpt>
      <trkpt lat="45.90804" lon="3.63408">
        <ele>741.8</ele>
        <time>2023-08-03T10:23:17Z</time>
      </trkpt>
      <trkpt lat="45.908" lon="3.63406">
        <ele>742</ele>
        <time>2023-08-03T10:23:21Z</time>
      </trkpt>
      <trkpt lat="45.90795" lon="3.63404">
        <ele>742</ele>
        <time>2023-08-03T10:23:25Z</time>
      </trkpt>
      <trkpt lat="45.90794" lon="3.63403">
        <ele>742</ele>
        <time>2023-08-03T10:23:26Z</time>
      </trkpt>
      <trkpt lat="45.90792" lon="3.63401">
        <ele>742</ele>
        <time>2023-08-03T10:23:28Z</time>
      </trkpt>
      <trkpt lat="45.90791" lon="3.634">
        <ele>742.2</ele>
        <time>2023-08-03T10:23:29Z</time>
      </trkpt>
      <trkpt lat="45.9079" lon="3.63399">
        <ele>742.2</ele>
        <time>2023-08-03T10:23:31Z</time>
      </trkpt>
      <trkpt lat="45.90785" lon="3.63398">
        <ele>742.2</ele>
        <time>2023-08-03T10:23:35Z</time>
      </trkpt>
      <trkpt lat="45.90774" lon="3.63394">
        <ele>742.4</ele>
        <time>2023-08-03T10:23:44Z</time>
      </trkpt>
      <trkpt lat="45.90769" lon="3.63392">
        <ele>742.4</ele>
        <time>2023-08-03T10:23:48Z</time>
      </trkpt>
      <trkpt lat="45.90764" lon="3.63391">
        <ele>742.6</ele>
        <time>2023-08-03T10:23:51Z</time>
      </trkpt>
      <trkpt lat="45.9075" lon="3.63386">
        <ele>742.8</ele>
        <time>2023-08-03T10:24:03Z</time>
      </trkpt>
      <trkpt lat="45.90749" lon="3.63386">
        <ele>742.8</ele>
        <time>2023-08-03T10:24:04Z</time>
      </trkpt>
      <trkpt lat="45.90739" lon="3.63383">
        <ele>743.4</ele>
        <time>2023-08-03T10:24:11Z</time>
      </trkpt>
      <trkpt lat="45.90733" lon="3.6338">
        <ele>743.6</ele>
        <time>2023-08-03T10:24:16Z</time>
      </trkpt>
      <trkpt lat="45.90731" lon="3.6338">
        <ele>743.6</ele>
        <time>2023-08-03T10:24:18Z</time>
      </trkpt>
      <trkpt lat="45.90729" lon="3.63378">
        <ele>743.8</ele>
        <time>2023-08-03T10:24:20Z</time>
      </trkpt>
      <trkpt lat="45.90719" lon="3.63375">
        <ele>744</ele>
        <time>2023-08-03T10:24:28Z</time>
      </trkpt>
      <trkpt lat="45.90705" lon="3.63372">
        <ele>744.6</ele>
        <time>2023-08-03T10:24:38Z</time>
      </trkpt>
      <trkpt lat="45.90704" lon="3.63372">
        <ele>744.8</ele>
        <time>2023-08-03T10:24:39Z</time>
      </trkpt>
      <trkpt lat="45.90704" lon="3.63371">
        <ele>744.8</ele>
        <time>2023-08-03T10:24:40Z</time>
      </trkpt>
      <trkpt lat="45.90702" lon="3.6337">
        <ele>745</ele>
        <time>2023-08-03T10:24:42Z</time>
      </trkpt>
      <trkpt lat="45.90698" lon="3.6337">
        <ele>745</ele>
        <time>2023-08-03T10:24:45Z</time>
      </trkpt>
      <trkpt lat="45.9069" lon="3.63365">
        <ele>745</ele>
        <time>2023-08-03T10:24:53Z</time>
      </trkpt>
      <trkpt lat="45.90677" lon="3.63362">
        <ele>745.2</ele>
        <time>2023-08-03T10:25:03Z</time>
      </trkpt>
      <trkpt lat="45.90672" lon="3.63363">
        <ele>745.2</ele>
        <time>2023-08-03T10:25:06Z</time>
      </trkpt>
      <trkpt lat="45.90668" lon="3.63362">
        <ele>745.2</ele>
        <time>2023-08-03T10:25:09Z</time>
      </trkpt>
      <trkpt lat="45.90656" lon="3.6336">
        <ele>745.4</ele>
        <time>2023-08-03T10:25:19Z</time>
      </trkpt>
      <trkpt lat="45.90643" lon="3.63359">
        <ele>745.4</ele>
        <time>2023-08-03T10:25:28Z</time>
      </trkpt>
      <trkpt lat="45.90635" lon="3.63359">
        <ele>745.2</ele>
        <time>2023-08-03T10:25:34Z</time>
      </trkpt>
      <trkpt lat="45.90634" lon="3.63358">
        <ele>745.2</ele>
        <time>2023-08-03T10:25:35Z</time>
      </trkpt>
      <trkpt lat="45.90618" lon="3.63357">
        <ele>745.2</ele>
        <time>2023-08-03T10:25:45Z</time>
      </trkpt>
      <trkpt lat="45.90611" lon="3.63355">
        <ele>745</ele>
        <time>2023-08-03T10:25:51Z</time>
      </trkpt>
      <trkpt lat="45.90609" lon="3.63354">
        <ele>745</ele>
        <time>2023-08-03T10:25:53Z</time>
      </trkpt>
      <trkpt lat="45.90607" lon="3.63351">
        <ele>745</ele>
        <time>2023-08-03T10:25:58Z</time>
      </trkpt>
      <trkpt lat="45.90606" lon="3.63351">
        <ele>745</ele>
        <time>2023-08-03T10:25:59Z</time>
      </trkpt>
      <trkpt lat="45.90604" lon="3.6335">
        <ele>745</ele>
        <time>2023-08-03T10:26:04Z</time>
      </trkpt>
      <trkpt lat="45.90598" lon="3.63339">
        <ele>745.2</ele>
        <time>2023-08-03T10:26:12Z</time>
      </trkpt>
      <trkpt lat="45.90592" lon="3.6333">
        <ele>745.2</ele>
        <time>2023-08-03T10:26:19Z</time>
      </trkpt>
      <trkpt lat="45.90589" lon="3.63324">
        <ele>745.4</ele>
        <time>2023-08-03T10:26:23Z</time>
      </trkpt>
      <trkpt lat="45.90589" lon="3.63319">
        <ele>745.4</ele>
        <time>2023-08-03T10:26:27Z</time>
      </trkpt>
      <trkpt lat="45.90594" lon="3.63304">
        <ele>745.6</ele>
        <time>2023-08-03T10:26:36Z</time>
      </trkpt>
      <trkpt lat="45.90596" lon="3.63295">
        <ele>745.6</ele>
        <time>2023-08-03T10:26:43Z</time>
      </trkpt>
      <trkpt lat="45.90597" lon="3.63292">
        <ele>745.6</ele>
        <time>2023-08-03T10:26:48Z</time>
      </trkpt>
      <trkpt lat="45.90597" lon="3.63289">
        <ele>745.6</ele>
        <time>2023-08-03T10:26:49Z</time>
      </trkpt>
      <trkpt lat="45.906" lon="3.63279">
        <ele>745.6</ele>
        <time>2023-08-03T10:26:55Z</time>
      </trkpt>
      <trkpt lat="45.90604" lon="3.63268">
        <ele>745.6</ele>
        <time>2023-08-03T10:27:02Z</time>
      </trkpt>
      <trkpt lat="45.90605" lon="3.63266">
        <ele>745.8</ele>
        <time>2023-08-03T10:27:03Z</time>
      </trkpt>
      <trkpt lat="45.90607" lon="3.63251">
        <ele>745.8</ele>
        <time>2023-08-03T10:27:11Z</time>
      </trkpt>
      <trkpt lat="45.90609" lon="3.63236">
        <ele>746</ele>
        <time>2023-08-03T10:27:19Z</time>
      </trkpt>
      <trkpt lat="45.90609" lon="3.63225">
        <ele>746</ele>
        <time>2023-08-03T10:27:26Z</time>
      </trkpt>
      <trkpt lat="45.90609" lon="3.63224">
        <ele>746</ele>
        <time>2023-08-03T10:27:27Z</time>
      </trkpt>
      <trkpt lat="45.90609" lon="3.63211">
        <ele>746.2</ele>
        <time>2023-08-03T10:27:34Z</time>
      </trkpt>
      <trkpt lat="45.90608" lon="3.63196">
        <ele>746.2</ele>
        <time>2023-08-03T10:27:42Z</time>
      </trkpt>
      <trkpt lat="45.90607" lon="3.63188">
        <ele>746.4</ele>
        <time>2023-08-03T10:27:47Z</time>
      </trkpt>
      <trkpt lat="45.90607" lon="3.63184">
        <ele>746.8</ele>
        <time>2023-08-03T10:27:49Z</time>
      </trkpt>
      <trkpt lat="45.90606" lon="3.63179">
        <ele>746.6</ele>
        <time>2023-08-03T10:27:52Z</time>
      </trkpt>
      <trkpt lat="45.90603" lon="3.63173">
        <ele>746.8</ele>
        <time>2023-08-03T10:27:57Z</time>
      </trkpt>
      <trkpt lat="45.90603" lon="3.6317">
        <ele>747</ele>
        <time>2023-08-03T10:27:59Z</time>
      </trkpt>
      <trkpt lat="45.90602" lon="3.63162">
        <ele>747</ele>
        <time>2023-08-03T10:28:03Z</time>
      </trkpt>
      <trkpt lat="45.90601" lon="3.63159">
        <ele>747</ele>
        <time>2023-08-03T10:28:05Z</time>
      </trkpt>
      <trkpt lat="45.906" lon="3.63156">
        <ele>747</ele>
        <time>2023-08-03T10:28:07Z</time>
      </trkpt>
      <trkpt lat="45.90599" lon="3.63152">
        <ele>747</ele>
        <time>2023-08-03T10:28:09Z</time>
      </trkpt>
      <trkpt lat="45.90592" lon="3.63137">
        <ele>747</ele>
        <time>2023-08-03T10:28:17Z</time>
      </trkpt>
      <trkpt lat="45.90585" lon="3.63126">
        <ele>747</ele>
        <time>2023-08-03T10:28:24Z</time>
      </trkpt>
      <trkpt lat="45.90581" lon="3.63117">
        <ele>746.6</ele>
        <time>2023-08-03T10:28:31Z</time>
      </trkpt>
      <trkpt lat="45.90579" lon="3.63114">
        <ele>746.6</ele>
        <time>2023-08-03T10:28:33Z</time>
      </trkpt>
      <trkpt lat="45.90576" lon="3.63106">
        <ele>746.6</ele>
        <time>2023-08-03T10:28:39Z</time>
      </trkpt>
      <trkpt lat="45.9057" lon="3.63093">
        <ele>746.4</ele>
        <time>2023-08-03T10:28:48Z</time>
      </trkpt>
      <trkpt lat="45.9057" lon="3.63092">
        <ele>746.4</ele>
        <time>2023-08-03T10:28:49Z</time>
      </trkpt>
      <trkpt lat="45.9057" lon="3.6309">
        <ele>746.4</ele>
        <time>2023-08-03T10:28:50Z</time>
      </trkpt>
      <trkpt lat="45.90566" lon="3.63083">
        <ele>746.4</ele>
        <time>2023-08-03T10:28:55Z</time>
      </trkpt>
      <trkpt lat="45.9056" lon="3.6307">
        <ele>746.6</ele>
        <time>2023-08-03T10:29:04Z</time>
      </trkpt>
      <trkpt lat="45.90556" lon="3.63057">
        <ele>746.6</ele>
        <time>2023-08-03T10:29:12Z</time>
      </trkpt>
      <trkpt lat="45.90551" lon="3.63046">
        <ele>746.6</ele>
        <time>2023-08-03T10:29:18Z</time>
      </trkpt>
      <trkpt lat="45.90549" lon="3.63035">
        <ele>746.2</ele>
        <time>2023-08-03T10:29:25Z</time>
      </trkpt>
      <trkpt lat="45.90545" lon="3.63021">
        <ele>746.2</ele>
        <time>2023-08-03T10:29:33Z</time>
      </trkpt>
      <trkpt lat="45.90544" lon="3.63004">
        <ele>746.8</ele>
        <time>2023-08-03T10:29:41Z</time>
      </trkpt>
      <trkpt lat="45.90543" lon="3.63003">
        <ele>746.8</ele>
        <time>2023-08-03T10:29:42Z</time>
      </trkpt>
      <trkpt lat="45.90542" lon="3.62999">
        <ele>747</ele>
        <time>2023-08-03T10:29:45Z</time>
      </trkpt>
      <trkpt lat="45.90539" lon="3.62987">
        <ele>747</ele>
        <time>2023-08-03T10:29:49Z</time>
      </trkpt>
      <trkpt lat="45.90538" lon="3.62985">
        <ele>747</ele>
        <time>2023-08-03T10:29:50Z</time>
      </trkpt>
      <trkpt lat="45.9054" lon="3.62983">
        <ele>747</ele>
        <time>2023-08-03T10:29:52Z</time>
      </trkpt>
      <trkpt lat="45.90541" lon="3.62984">
        <ele>747</ele>
        <time>2023-08-03T10:29:53Z</time>
      </trkpt>
      <trkpt lat="45.90544" lon="3.62988">
        <ele>747</ele>
        <time>2023-08-03T10:29:56Z</time>
      </trkpt>
      <trkpt lat="45.90544" lon="3.62989">
        <ele>747.2</ele>
        <time>2023-08-03T10:29:58Z</time>
      </trkpt>
      <trkpt lat="45.90542" lon="3.62987">
        <ele>747</ele>
        <time>2023-08-03T10:30:06Z</time>
      </trkpt>
      <trkpt lat="45.90537" lon="3.62977">
        <ele>747.2</ele>
        <time>2023-08-03T10:30:13Z</time>
      </trkpt>
      <trkpt lat="45.90535" lon="3.6297">
        <ele>747.2</ele>
        <time>2023-08-03T10:30:17Z</time>
      </trkpt>
      <trkpt lat="45.90535" lon="3.62969">
        <ele>747.2</ele>
        <time>2023-08-03T10:30:18Z</time>
      </trkpt>
      <trkpt lat="45.90532" lon="3.62953">
        <ele>747.4</ele>
        <time>2023-08-03T10:30:26Z</time>
      </trkpt>
      <trkpt lat="45.90531" lon="3.62943">
        <ele>747.4</ele>
        <time>2023-08-03T10:30:31Z</time>
      </trkpt>
      <trkpt lat="45.90532" lon="3.62941">
        <ele>747.4</ele>
        <time>2023-08-03T10:30:32Z</time>
      </trkpt>
      <trkpt lat="45.90532" lon="3.62936">
        <ele>747.6</ele>
        <time>2023-08-03T10:30:34Z</time>
      </trkpt>
      <trkpt lat="45.90534" lon="3.62926">
        <ele>748</ele>
        <time>2023-08-03T10:30:37Z</time>
      </trkpt>
      <trkpt lat="45.90531" lon="3.62922">
        <ele>748</ele>
        <time>2023-08-03T10:30:39Z</time>
      </trkpt>
      <trkpt lat="45.90529" lon="3.62921">
        <ele>748</ele>
        <time>2023-08-03T10:30:41Z</time>
      </trkpt>
      <trkpt lat="45.90527" lon="3.6292">
        <ele>748</ele>
        <time>2023-08-03T10:30:42Z</time>
      </trkpt>
      <trkpt lat="45.90525" lon="3.62914">
        <ele>748</ele>
        <time>2023-08-03T10:30:45Z</time>
      </trkpt>
      <trkpt lat="45.90524" lon="3.62908">
        <ele>748</ele>
        <time>2023-08-03T10:30:48Z</time>
      </trkpt>
      <trkpt lat="45.90523" lon="3.62904">
        <ele>748.2</ele>
        <time>2023-08-03T10:30:51Z</time>
      </trkpt>
      <trkpt lat="45.90522" lon="3.629">
        <ele>748.2</ele>
        <time>2023-08-03T10:30:53Z</time>
      </trkpt>
      <trkpt lat="45.90524" lon="3.62894">
        <ele>748.2</ele>
        <time>2023-08-03T10:30:56Z</time>
      </trkpt>
      <trkpt lat="45.90523" lon="3.62891">
        <ele>748.4</ele>
        <time>2023-08-03T10:30:58Z</time>
      </trkpt>
      <trkpt lat="45.90523" lon="3.6289">
        <ele>748.4</ele>
        <time>2023-08-03T10:30:59Z</time>
      </trkpt>
      <trkpt lat="45.90522" lon="3.6288">
        <ele>748.4</ele>
        <time>2023-08-03T10:31:04Z</time>
      </trkpt>
      <trkpt lat="45.9052" lon="3.62872">
        <ele>748.4</ele>
        <time>2023-08-03T10:31:07Z</time>
      </trkpt>
      <trkpt lat="45.9052" lon="3.62868">
        <ele>748.4</ele>
        <time>2023-08-03T10:31:09Z</time>
      </trkpt>
      <trkpt lat="45.9052" lon="3.62867">
        <ele>748.4</ele>
        <time>2023-08-03T10:31:10Z</time>
      </trkpt>
      <trkpt lat="45.90518" lon="3.62865">
        <ele>748.4</ele>
        <time>2023-08-03T10:31:12Z</time>
      </trkpt>
      <trkpt lat="45.90517" lon="3.62861">
        <ele>748.4</ele>
        <time>2023-08-03T10:31:14Z</time>
      </trkpt>
      <trkpt lat="45.90517" lon="3.62857">
        <ele>748.2</ele>
        <time>2023-08-03T10:31:16Z</time>
      </trkpt>
      <trkpt lat="45.90515" lon="3.62853">
        <ele>748.2</ele>
        <time>2023-08-03T10:31:19Z</time>
      </trkpt>
      <trkpt lat="45.90515" lon="3.62852">
        <ele>748.2</ele>
        <time>2023-08-03T10:31:20Z</time>
      </trkpt>
      <trkpt lat="45.90513" lon="3.6285">
        <ele>748.4</ele>
        <time>2023-08-03T10:31:23Z</time>
      </trkpt>
      <trkpt lat="45.90509" lon="3.62844">
        <ele>748.4</ele>
        <time>2023-08-03T10:31:27Z</time>
      </trkpt>
      <trkpt lat="45.90508" lon="3.6284">
        <ele>748.4</ele>
        <time>2023-08-03T10:31:29Z</time>
      </trkpt>
      <trkpt lat="45.90507" lon="3.62837">
        <ele>748.4</ele>
        <time>2023-08-03T10:31:31Z</time>
      </trkpt>
      <trkpt lat="45.90505" lon="3.62831">
        <ele>748.4</ele>
        <time>2023-08-03T10:31:34Z</time>
      </trkpt>
      <trkpt lat="45.90504" lon="3.62824">
        <ele>748.6</ele>
        <time>2023-08-03T10:31:38Z</time>
      </trkpt>
      <trkpt lat="45.90503" lon="3.62822">
        <ele>748.6</ele>
        <time>2023-08-03T10:31:39Z</time>
      </trkpt>
      <trkpt lat="45.90502" lon="3.62821">
        <ele>748.6</ele>
        <time>2023-08-03T10:31:40Z</time>
      </trkpt>
      <trkpt lat="45.90498" lon="3.62815">
        <ele>748.6</ele>
        <time>2023-08-03T10:31:44Z</time>
      </trkpt>
      <trkpt lat="45.90497" lon="3.62813">
        <ele>748.6</ele>
        <time>2023-08-03T10:31:45Z</time>
      </trkpt>
      <trkpt lat="45.90494" lon="3.62807">
        <ele>748.6</ele>
        <time>2023-08-03T10:31:49Z</time>
      </trkpt>
      <trkpt lat="45.90493" lon="3.62803">
        <ele>748.6</ele>
        <time>2023-08-03T10:31:51Z</time>
      </trkpt>
      <trkpt lat="45.9049" lon="3.6279">
        <ele>748.4</ele>
        <time>2023-08-03T10:31:58Z</time>
      </trkpt>
      <trkpt lat="45.90489" lon="3.62787">
        <ele>748.4</ele>
        <time>2023-08-03T10:32:00Z</time>
      </trkpt>
      <trkpt lat="45.90486" lon="3.62779">
        <ele>748.2</ele>
        <time>2023-08-03T10:32:04Z</time>
      </trkpt>
      <trkpt lat="45.90484" lon="3.62776">
        <ele>748</ele>
        <time>2023-08-03T10:32:06Z</time>
      </trkpt>
      <trkpt lat="45.90483" lon="3.62768">
        <ele>747.8</ele>
        <time>2023-08-03T10:32:10Z</time>
      </trkpt>
      <trkpt lat="45.90483" lon="3.62766">
        <ele>747.8</ele>
        <time>2023-08-03T10:32:11Z</time>
      </trkpt>
      <trkpt lat="45.90481" lon="3.62757">
        <ele>747.6</ele>
        <time>2023-08-03T10:32:16Z</time>
      </trkpt>
      <trkpt lat="45.90481" lon="3.62744">
        <ele>747.6</ele>
        <time>2023-08-03T10:32:22Z</time>
      </trkpt>
      <trkpt lat="45.90478" lon="3.62728">
        <ele>747.4</ele>
        <time>2023-08-03T10:32:30Z</time>
      </trkpt>
      <trkpt lat="45.90479" lon="3.62723">
        <ele>747.2</ele>
        <time>2023-08-03T10:32:35Z</time>
      </trkpt>
      <trkpt lat="45.90479" lon="3.62717">
        <ele>747.2</ele>
        <time>2023-08-03T10:32:38Z</time>
      </trkpt>
      <trkpt lat="45.90482" lon="3.62713">
        <ele>747.2</ele>
        <time>2023-08-03T10:32:41Z</time>
      </trkpt>
      <trkpt lat="45.90487" lon="3.627">
        <ele>747.2</ele>
        <time>2023-08-03T10:32:50Z</time>
      </trkpt>
      <trkpt lat="45.9049" lon="3.6269">
        <ele>747.2</ele>
        <time>2023-08-03T10:32:58Z</time>
      </trkpt>
      <trkpt lat="45.90491" lon="3.62688">
        <ele>747.2</ele>
        <time>2023-08-03T10:33:00Z</time>
      </trkpt>
    </trkseg>
  </trk>
</gpx>